<?xml version='1.0' encoding='UTF-8'?><gpx version="1.1" creator="JPX - https://github.com/jenetics/jpx" xmlns="http://www.topografix.com/GPX/1/1"><trk><trkseg><trkpt lat="44.441159196508664" lon="11.4464016861225"><ele>79.0</ele><time>2026-04-25T06:52:17.004Z</time></trkpt><trkpt lat="44.44122151526578" lon="11.446453335402662"><ele>79.0</ele><time>2026-04-25T06:52:22.004Z</time></trkpt><trkpt lat="44.441299673236564" lon="11.446489037769142"><ele>79.0</ele><time>2026-04-25T06:52:25.004Z</time></trkpt><trkpt lat="44.44136745704913" lon="11.446528519493262"><ele>79.0</ele><time>2026-04-25T06:52:27.004Z</time></trkpt><trkpt lat="44.441458073506645" lon="11.446573161127901"><ele>79.0</ele><time>2026-04-25T06:52:29.004Z</time></trkpt><trkpt lat="44.44152044190249" lon="11.446612095174222"><ele>79.0</ele><time>2026-04-25T06:52:31.004Z</time></trkpt><trkpt lat="44.441586611739254" lon="11.44659707015487"><ele>79.6</ele><time>2026-04-25T06:52:33.004Z</time></trkpt><trkpt lat="44.441664540223655" lon="11.446592213809028"><ele>80.2</ele><time>2026-04-25T06:52:36.004Z</time></trkpt><trkpt lat="44.44173442013354" lon="11.44658976497966"><ele>80.8</ele><time>2026-04-25T06:52:38.004Z</time></trkpt><trkpt lat="44.441817725534136" lon="11.446637335386576"><ele>81.39999999999999</ele><time>2026-04-25T06:52:40.004Z</time></trkpt><trkpt lat="44.44188005376885" lon="11.44668195203003"><ele>82.0</ele><time>2026-04-25T06:52:42.004Z</time></trkpt><trkpt lat="44.442048998977576" lon="11.446717099974554"><ele>80.75</ele><time>2026-04-25T06:52:46.004Z</time></trkpt><trkpt lat="44.442147178106374" lon="11.446810233553382"><ele>79.5</ele><time>2026-04-25T06:52:48.004Z</time></trkpt><trkpt lat="44.44225326216353" lon="11.446885574777937"><ele>78.25</ele><time>2026-04-25T06:52:50.004Z</time></trkpt><trkpt lat="44.442364854182124" lon="11.44692695053248"><ele>77.0</ele><time>2026-04-25T06:52:52.004Z</time></trkpt><trkpt lat="44.44241022671761" lon="11.447124898673579"><ele>77.0</ele><time>2026-04-25T06:52:53.004Z</time></trkpt><trkpt lat="44.44253286692767" lon="11.447136038152756"><ele>77.0</ele><time>2026-04-25T06:52:55.004Z</time></trkpt><trkpt lat="44.44264821497209" lon="11.447132533770178"><ele>77.0</ele><time>2026-04-25T06:52:57.004Z</time></trkpt><trkpt lat="44.44275804878118" lon="11.447122675098896"><ele>77.0</ele><time>2026-04-25T06:52:59.004Z</time></trkpt><trkpt lat="44.442858993750534" lon="11.447111757074628"><ele>77.0</ele><time>2026-04-25T06:53:01.004Z</time></trkpt><trkpt lat="44.44296146117864" lon="11.447098956467059"><ele>77.0</ele><time>2026-04-25T06:53:03.004Z</time></trkpt><trkpt lat="44.443069231639825" lon="11.447083716765352"><ele>77.0</ele><time>2026-04-25T06:53:05.004Z</time></trkpt><trkpt lat="44.44317681034483" lon="11.447066379703488"><ele>77.0</ele><time>2026-04-25T06:53:07.004Z</time></trkpt><trkpt lat="44.44328275151164" lon="11.447049306536536"><ele>77.0</ele><time>2026-04-25T06:53:09.004Z</time></trkpt><trkpt lat="44.44337704235272" lon="11.447033671941359"><ele>76.6</ele><time>2026-04-25T06:53:11.004Z</time></trkpt><trkpt lat="44.44348264275156" lon="11.447016140940173"><ele>76.2</ele><time>2026-04-25T06:53:13.004Z</time></trkpt><trkpt lat="44.44358574486703" lon="11.446999024669996"><ele>75.8</ele><time>2026-04-25T06:53:15.004Z</time></trkpt><trkpt lat="44.443689889770994" lon="11.44698180637155"><ele>75.4</ele><time>2026-04-25T06:53:17.004Z</time></trkpt><trkpt lat="44.443779636543994" lon="11.446966995935604"><ele>75.0</ele><time>2026-04-25T06:53:19.004Z</time></trkpt><trkpt lat="44.443842880132664" lon="11.446906042186004"><ele>74.66666666666667</ele><time>2026-04-25T06:53:22.004Z</time></trkpt><trkpt lat="44.44381448889008" lon="11.4463988595261"><ele>74.33333333333334</ele><time>2026-04-25T06:53:23.004Z</time></trkpt><trkpt lat="44.44384070074091" lon="11.446291535398759"><ele>74.0</ele><time>2026-04-25T06:53:25.004Z</time></trkpt><trkpt lat="44.443798455179504" lon="11.446210131109346"><ele>74.0</ele><time>2026-04-25T06:53:27.004Z</time></trkpt><trkpt lat="44.4437457628267" lon="11.446131644688473"><ele>74.0</ele><time>2026-04-25T06:53:30.003Z</time></trkpt><trkpt lat="44.44367122794423" lon="11.446091818391608"><ele>74.0</ele><time>2026-04-25T06:53:33.003Z</time></trkpt><trkpt lat="44.44360538555333" lon="11.446060422758"><ele>74.0</ele><time>2026-04-25T06:53:35.003Z</time></trkpt><trkpt lat="44.443530103207884" lon="11.445989820293764"><ele>74.0</ele><time>2026-04-25T06:53:38.003Z</time></trkpt><trkpt lat="44.443462117565545" lon="11.445936724210084"><ele>74.0</ele><time>2026-04-25T06:53:40.003Z</time></trkpt><trkpt lat="44.44340253889272" lon="11.445862615339093"><ele>74.0</ele><time>2026-04-25T06:53:42.003Z</time></trkpt><trkpt lat="44.44333852669147" lon="11.445804829325091"><ele>74.0</ele><time>2026-04-25T06:53:44.003Z</time></trkpt><trkpt lat="44.44327098438514" lon="11.445736618239579"><ele>74.0</ele><time>2026-04-25T06:53:46.003Z</time></trkpt><trkpt lat="44.44320161912358" lon="11.445663463042393"><ele>74.0</ele><time>2026-04-25T06:53:48.003Z</time></trkpt><trkpt lat="44.44312324126304" lon="11.44559640915654"><ele>74.0</ele><time>2026-04-25T06:53:50.003Z</time></trkpt><trkpt lat="44.44304660567054" lon="11.44551807441321"><ele>74.0</ele><time>2026-04-25T06:53:52.003Z</time></trkpt><trkpt lat="44.44297378077158" lon="11.445449965708878"><ele>74.66666666666667</ele><time>2026-04-25T06:53:54.003Z</time></trkpt><trkpt lat="44.442901715521316" lon="11.445391273679379"><ele>75.33333333333334</ele><time>2026-04-25T06:53:56.003Z</time></trkpt><trkpt lat="44.44283008873355" lon="11.445324166937104"><ele>76.0</ele><time>2026-04-25T06:53:58.003Z</time></trkpt><trkpt lat="44.44274032135514" lon="11.445258105706655"><ele>76.66666666666667</ele><time>2026-04-25T06:54:00.003Z</time></trkpt><trkpt lat="44.44267357107115" lon="11.445168671303161"><ele>77.33333333333333</ele><time>2026-04-25T06:54:02.003Z</time></trkpt><trkpt lat="44.442609216779914" lon="11.445097482776864"><ele>78.0</ele><time>2026-04-25T06:54:04.003Z</time></trkpt><trkpt lat="44.44253217348852" lon="11.44504076811801"><ele>78.0</ele><time>2026-04-25T06:54:06.004Z</time></trkpt><trkpt lat="44.4424589334093" lon="11.444964902151437"><ele>78.0</ele><time>2026-04-25T06:54:08.004Z</time></trkpt><trkpt lat="44.44239544791136" lon="11.444895895175822"><ele>78.0</ele><time>2026-04-25T06:54:10.004Z</time></trkpt><trkpt lat="44.442315601097974" lon="11.444842011440405"><ele>78.0</ele><time>2026-04-25T06:54:12.004Z</time></trkpt><trkpt lat="44.44224385917368" lon="11.444772688966403"><ele>78.0</ele><time>2026-04-25T06:54:14.004Z</time></trkpt><trkpt lat="44.442169355485255" lon="11.444698317131659"><ele>78.0</ele><time>2026-04-25T06:54:16.004Z</time></trkpt><trkpt lat="44.44209679036033" lon="11.4446300220338"><ele>77.5</ele><time>2026-04-25T06:54:18.004Z</time></trkpt><trkpt lat="44.44202543890579" lon="11.444559337666648"><ele>77.0</ele><time>2026-04-25T06:54:20.004Z</time></trkpt><trkpt lat="44.44195828818341" lon="11.444488312671778"><ele>76.5</ele><time>2026-04-25T06:54:22.004Z</time></trkpt><trkpt lat="44.441885399614826" lon="11.444421526145257"><ele>76.0</ele><time>2026-04-25T06:54:24.004Z</time></trkpt><trkpt lat="44.44180946407661" lon="11.444353611571325"><ele>75.5</ele><time>2026-04-25T06:54:26.004Z</time></trkpt><trkpt lat="44.44173797368581" lon="11.444296457993893"><ele>75.0</ele><time>2026-04-25T06:54:28.004Z</time></trkpt><trkpt lat="44.441666972285184" lon="11.444229627925445"><ele>75.0</ele><time>2026-04-25T06:54:30.004Z</time></trkpt><trkpt lat="44.44160029963488" lon="11.444154108881316"><ele>75.0</ele><time>2026-04-25T06:54:32.004Z</time></trkpt><trkpt lat="44.44152638523422" lon="11.444080520395984"><ele>75.0</ele><time>2026-04-25T06:54:34.004Z</time></trkpt><trkpt lat="44.44144910654944" lon="11.443994011281749"><ele>75.0</ele><time>2026-04-25T06:54:36.004Z</time></trkpt><trkpt lat="44.44136871850536" lon="11.443922151641244"><ele>75.0</ele><time>2026-04-25T06:54:38.004Z</time></trkpt><trkpt lat="44.44128497817787" lon="11.443850616535968"><ele>73.71428571428571</ele><time>2026-04-25T06:54:40.004Z</time></trkpt><trkpt lat="44.44121971908761" lon="11.443786740624951"><ele>72.42857142857143</ele><time>2026-04-25T06:54:42.004Z</time></trkpt><trkpt lat="44.44116067891973" lon="11.443724451124968"><ele>71.14285714285714</ele><time>2026-04-25T06:54:44.004Z</time></trkpt><trkpt lat="44.441155870131205" lon="11.443598056832496"><ele>69.85714285714286</ele><time>2026-04-25T06:54:46.004Z</time></trkpt><trkpt lat="44.4411763203234" lon="11.443514387086472"><ele>68.57142857142857</ele><time>2026-04-25T06:54:47.004Z</time></trkpt><trkpt lat="44.44118059785615" lon="11.443421682278627"><ele>67.28571428571428</ele><time>2026-04-25T06:54:48.004Z</time></trkpt><trkpt lat="44.44118175334136" lon="11.443316618765394"><ele>66.0</ele><time>2026-04-25T06:54:49.004Z</time></trkpt><trkpt lat="44.44119107967933" lon="11.44320921220202"><ele>66.0</ele><time>2026-04-25T06:54:50.004Z</time></trkpt><trkpt lat="44.44119698636695" lon="11.4430924985764"><ele>66.0</ele><time>2026-04-25T06:54:51.004Z</time></trkpt><trkpt lat="44.4411816629356" lon="11.442963187166004"><ele>66.0</ele><time>2026-04-25T06:54:52.004Z</time></trkpt><trkpt lat="44.441159937384356" lon="11.442837082988488"><ele>66.0</ele><time>2026-04-25T06:54:53.004Z</time></trkpt><trkpt lat="44.441123297175444" lon="11.442730663470812"><ele>66.0</ele><time>2026-04-25T06:54:54.004Z</time></trkpt><trkpt lat="44.441072166461545" lon="11.442633478678577"><ele>66.0</ele><time>2026-04-25T06:54:55.004Z</time></trkpt><trkpt lat="44.44105003769285" lon="11.442547330801212"><ele>65.83333333333333</ele><time>2026-04-25T06:54:56.004Z</time></trkpt><trkpt lat="44.44103595580348" lon="11.44240966721175"><ele>65.66666666666667</ele><time>2026-04-25T06:54:58.004Z</time></trkpt><trkpt lat="44.44103783404729" lon="11.442258454667833"><ele>65.5</ele><time>2026-04-25T06:55:00.004Z</time></trkpt><trkpt lat="44.441037747451404" lon="11.44215644565648"><ele>65.33333333333334</ele><time>2026-04-25T06:55:02.004Z</time></trkpt><trkpt lat="44.44107291765184" lon="11.442065115892621"><ele>65.16666666666667</ele><time>2026-04-25T06:55:04.004Z</time></trkpt><trkpt lat="44.44107320356786" lon="11.441946808510943"><ele>65.0</ele><time>2026-04-25T06:55:06.004Z</time></trkpt><trkpt lat="44.4411377122589" lon="11.441845539386948"><ele>65.16666666666667</ele><time>2026-04-25T06:55:08.004Z</time></trkpt><trkpt lat="44.441207899298846" lon="11.44176818849346"><ele>65.33333333333334</ele><time>2026-04-25T06:55:10.004Z</time></trkpt><trkpt lat="44.44126002661866" lon="11.441681719307752"><ele>65.5</ele><time>2026-04-25T06:55:12.004Z</time></trkpt><trkpt lat="44.441321395454274" lon="11.441591857343274"><ele>65.66666666666667</ele><time>2026-04-25T06:55:14.004Z</time></trkpt><trkpt lat="44.441364187953496" lon="11.441487877040332"><ele>65.83333333333333</ele><time>2026-04-25T06:55:17.003Z</time></trkpt><trkpt lat="44.44141829223201" lon="11.441431674516226"><ele>66.0</ele><time>2026-04-25T06:55:19.003Z</time></trkpt><trkpt lat="44.441485141534926" lon="11.441380802869494"><ele>66.0</ele><time>2026-04-25T06:55:22.003Z</time></trkpt><trkpt lat="44.441575055246254" lon="11.441351847660851"><ele>66.0</ele><time>2026-04-25T06:55:25.003Z</time></trkpt><trkpt lat="44.441635512018024" lon="11.441308907809924"><ele>66.0</ele><time>2026-04-25T06:55:27.003Z</time></trkpt><trkpt lat="44.44172035138059" lon="11.441281536494946"><ele>66.0</ele><time>2026-04-25T06:55:29.003Z</time></trkpt><trkpt lat="44.44179812633867" lon="11.441260198464164"><ele>66.0</ele><time>2026-04-25T06:55:31.003Z</time></trkpt><trkpt lat="44.44187898145588" lon="11.44124330485962"><ele>66.0</ele><time>2026-04-25T06:55:33.003Z</time></trkpt><trkpt lat="44.441950988062246" lon="11.441236424342387"><ele>66.14285714285714</ele><time>2026-04-25T06:55:35.003Z</time></trkpt><trkpt lat="44.44202525926239" lon="11.441224806705272"><ele>66.28571428571429</ele><time>2026-04-25T06:55:37.003Z</time></trkpt><trkpt lat="44.44209623422597" lon="11.441198085062801"><ele>66.42857142857143</ele><time>2026-04-25T06:55:39.003Z</time></trkpt><trkpt lat="44.442169193554335" lon="11.441178188078169"><ele>66.57142857142857</ele><time>2026-04-25T06:55:41.003Z</time></trkpt><trkpt lat="44.44224906293053" lon="11.441134556513719"><ele>66.71428571428571</ele><time>2026-04-25T06:55:44.003Z</time></trkpt><trkpt lat="44.44231690158043" lon="11.441090579009202"><ele>66.85714285714286</ele><time>2026-04-25T06:55:46.003Z</time></trkpt><trkpt lat="44.44237706975036" lon="11.441059905257589"><ele>67.0</ele><time>2026-04-25T06:55:48.003Z</time></trkpt><trkpt lat="44.44245821371263" lon="11.441032825989986"><ele>67.66666666666666</ele><time>2026-04-25T06:55:50.003Z</time></trkpt><trkpt lat="44.442518020809004" lon="11.440994711361432"><ele>68.33333333333333</ele><time>2026-04-25T06:55:52.003Z</time></trkpt><trkpt lat="44.442587008020354" lon="11.440974656629278"><ele>69.0</ele><time>2026-04-25T06:55:54.003Z</time></trkpt><trkpt lat="44.44266339624253" lon="11.440954297561008"><ele>69.66666666666667</ele><time>2026-04-25T06:55:56.003Z</time></trkpt><trkpt lat="44.442754670865554" lon="11.440940084593908"><ele>70.33333333333334</ele><time>2026-04-25T06:55:58.003Z</time></trkpt><trkpt lat="44.442831706196664" lon="11.44091076836756"><ele>71.0</ele><time>2026-04-25T06:56:00.003Z</time></trkpt><trkpt lat="44.44291890504287" lon="11.440875173975023"><ele>70.2</ele><time>2026-04-25T06:56:02.003Z</time></trkpt><trkpt lat="44.44298825530639" lon="11.440841159136088"><ele>69.39999999999999</ele><time>2026-04-25T06:56:04.003Z</time></trkpt><trkpt lat="44.44308565422815" lon="11.440794974000195"><ele>68.6</ele><time>2026-04-25T06:56:07.003Z</time></trkpt><trkpt lat="44.443180416909485" lon="11.440760427565499"><ele>67.8</ele><time>2026-04-25T06:56:09.003Z</time></trkpt><trkpt lat="44.44327556456746" lon="11.440725553292172"><ele>67.0</ele><time>2026-04-25T06:56:11.005Z</time></trkpt><trkpt lat="44.44335848286124" lon="11.440703015692241"><ele>67.0</ele><time>2026-04-25T06:56:13.005Z</time></trkpt><trkpt lat="44.443430019563884" lon="11.440659591977901"><ele>67.0</ele><time>2026-04-25T06:56:15.004Z</time></trkpt><trkpt lat="44.44352095920608" lon="11.440633996663871"><ele>67.0</ele><time>2026-04-25T06:56:17.005Z</time></trkpt><trkpt lat="44.443583217955535" lon="11.440593125138774"><ele>67.0</ele><time>2026-04-25T06:56:19.005Z</time></trkpt><trkpt lat="44.44365765829084" lon="11.440572476581451"><ele>67.0</ele><time>2026-04-25T06:56:21.005Z</time></trkpt><trkpt lat="44.44373671645671" lon="11.440535268636687"><ele>67.0</ele><time>2026-04-25T06:56:23.005Z</time></trkpt><trkpt lat="44.44382113652836" lon="11.440479083934111"><ele>67.2</ele><time>2026-04-25T06:56:25.004Z</time></trkpt><trkpt lat="44.443895005865656" lon="11.440445519064445"><ele>67.4</ele><time>2026-04-25T06:56:27.004Z</time></trkpt><trkpt lat="44.44399454747057" lon="11.440394301642527"><ele>67.6</ele><time>2026-04-25T06:56:29.004Z</time></trkpt><trkpt lat="44.444100276812144" lon="11.440346574781508"><ele>67.8</ele><time>2026-04-25T06:56:31.004Z</time></trkpt><trkpt lat="44.44420588799733" lon="11.440325167569423"><ele>68.0</ele><time>2026-04-25T06:56:33.004Z</time></trkpt><trkpt lat="44.44430812177135" lon="11.44034509944294"><ele>68.0</ele><time>2026-04-25T06:56:35.004Z</time></trkpt><trkpt lat="44.44440701890159" lon="11.440418840141312"><ele>68.0</ele><time>2026-04-25T06:56:37.004Z</time></trkpt><trkpt lat="44.44448895170044" lon="11.440422143056185"><ele>68.0</ele><time>2026-04-25T06:56:39.004Z</time></trkpt><trkpt lat="44.444559211305325" lon="11.440368220937804"><ele>68.0</ele><time>2026-04-25T06:56:41.004Z</time></trkpt><trkpt lat="44.44459861668513" lon="11.440282398075558"><ele>68.0</ele><time>2026-04-25T06:56:43.004Z</time></trkpt><trkpt lat="44.44460450895557" lon="11.44016740354894"><ele>68.0</ele><time>2026-04-25T06:56:46.004Z</time></trkpt><trkpt lat="44.444650692095884" lon="11.440068308786833"><ele>67.99999999999999</ele><time>2026-04-25T06:56:48.004Z</time></trkpt><trkpt lat="44.444668485804016" lon="11.439980250723037"><ele>68.0</ele><time>2026-04-25T06:56:50.004Z</time></trkpt><trkpt lat="44.444693287215294" lon="11.439889718057742"><ele>68.0</ele><time>2026-04-25T06:56:52.004Z</time></trkpt><trkpt lat="44.444686145897606" lon="11.439799983951279"><ele>68.0</ele><time>2026-04-25T06:56:54.004Z</time></trkpt><trkpt lat="44.444624486307596" lon="11.439742396224101"><ele>68.0</ele><time>2026-04-25T06:56:56.004Z</time></trkpt><trkpt lat="44.44457335601928" lon="11.439675089356754"><ele>67.99999999999999</ele><time>2026-04-25T06:56:58.004Z</time></trkpt><trkpt lat="44.44451586816263" lon="11.439606974924772"><ele>68.0</ele><time>2026-04-25T06:57:00.004Z</time></trkpt><trkpt lat="44.44446067334527" lon="11.439540260706226"><ele>67.83333333333334</ele><time>2026-04-25T06:57:02.004Z</time></trkpt><trkpt lat="44.44440660690247" lon="11.439467878801366"><ele>67.66666666666667</ele><time>2026-04-25T06:57:04.004Z</time></trkpt><trkpt lat="44.444355504999656" lon="11.439398120095472"><ele>67.5</ele><time>2026-04-25T06:57:06.004Z</time></trkpt><trkpt lat="44.44430969526293" lon="11.439324252258283"><ele>67.33333333333333</ele><time>2026-04-25T06:57:08.004Z</time></trkpt><trkpt lat="44.44428888425434" lon="11.439210465910346"><ele>67.16666666666666</ele><time>2026-04-25T06:57:11.004Z</time></trkpt><trkpt lat="44.44428368949722" lon="11.4391137093009"><ele>67.0</ele><time>2026-04-25T06:57:16.004Z</time></trkpt><trkpt lat="44.44427167310717" lon="11.438994014901697"><ele>67.0</ele><time>2026-04-25T06:57:21.004Z</time></trkpt><trkpt lat="44.44421753758687" lon="11.438941942872466"><ele>67.0</ele><time>2026-04-25T06:57:28.004Z</time></trkpt><trkpt lat="44.444238598312076" lon="11.439068072932459"><ele>67.0</ele><time>2026-04-25T06:57:32.003Z</time></trkpt><trkpt lat="44.44425332196256" lon="11.43916143619794"><ele>67.0</ele><time>2026-04-25T06:57:35.003Z</time></trkpt><trkpt lat="44.44425431565124" lon="11.439285506163301"><ele>67.0</ele><time>2026-04-25T06:57:38.003Z</time></trkpt><trkpt lat="44.4443097771621" lon="11.439366540342844"><ele>67.0</ele><time>2026-04-25T06:57:42.003Z</time></trkpt><trkpt lat="44.44428035509127" lon="11.43946881367755"><ele>67.0</ele><time>2026-04-25T06:57:45.003Z</time></trkpt><trkpt lat="44.44422284283509" lon="11.439559712050785"><ele>67.0</ele><time>2026-04-25T06:57:48.003Z</time></trkpt><trkpt lat="44.44415848054809" lon="11.439600734669735"><ele>67.0</ele><time>2026-04-25T06:57:51.003Z</time></trkpt><trkpt lat="44.444092212033006" lon="11.43966991806864"><ele>67.0</ele><time>2026-04-25T06:57:54.003Z</time></trkpt><trkpt lat="44.44400063166995" lon="11.43969908310927"><ele>67.0</ele><time>2026-04-25T06:57:57.003Z</time></trkpt><trkpt lat="44.44392270187021" lon="11.439718465824274"><ele>67.0</ele><time>2026-04-25T06:57:59.003Z</time></trkpt><trkpt lat="44.44384767958601" lon="11.439739343043009"><ele>67.0</ele><time>2026-04-25T06:58:01.003Z</time></trkpt><trkpt lat="44.44378341170264" lon="11.439763781077422"><ele>67.0</ele><time>2026-04-25T06:58:03.003Z</time></trkpt><trkpt lat="44.44369433757654" lon="11.439782267611166"><ele>67.0</ele><time>2026-04-25T06:58:06.003Z</time></trkpt><trkpt lat="44.44360168975511" lon="11.439812391158561"><ele>67.0</ele><time>2026-04-25T06:58:09.003Z</time></trkpt><trkpt lat="44.443523671786835" lon="11.439846515928913"><ele>67.0</ele><time>2026-04-25T06:58:12.003Z</time></trkpt><trkpt lat="44.44343278701829" lon="11.439884847281945"><ele>67.0</ele><time>2026-04-25T06:58:15.003Z</time></trkpt><trkpt lat="44.44336894622801" lon="11.439896732677852"><ele>67.0</ele><time>2026-04-25T06:58:17.005Z</time></trkpt><trkpt lat="44.44328982641743" lon="11.4399072913903"><ele>67.0</ele><time>2026-04-25T06:58:19.005Z</time></trkpt><trkpt lat="44.443219491246765" lon="11.439892690886174"><ele>67.0</ele><time>2026-04-25T06:58:21.005Z</time></trkpt><trkpt lat="44.44315366996387" lon="11.439861925927616"><ele>67.0</ele><time>2026-04-25T06:58:34.004Z</time></trkpt><trkpt lat="44.44308423352596" lon="11.439880364614552"><ele>67.0</ele><time>2026-04-25T06:58:37.004Z</time></trkpt><trkpt lat="44.44300155798562" lon="11.439903625415369"><ele>67.0</ele><time>2026-04-25T06:58:40.004Z</time></trkpt><trkpt lat="44.4429210854679" lon="11.439956098705068"><ele>67.33333333333333</ele><time>2026-04-25T06:58:43.004Z</time></trkpt><trkpt lat="44.442838664292225" lon="11.440016031996906"><ele>67.66666666666666</ele><time>2026-04-25T06:58:46.004Z</time></trkpt><trkpt lat="44.442750746575626" lon="11.440064409395685"><ele>68.0</ele><time>2026-04-25T06:58:49.004Z</time></trkpt><trkpt lat="44.442683994934875" lon="11.440078755755767"><ele>68.33333333333333</ele><time>2026-04-25T06:58:51.004Z</time></trkpt><trkpt lat="44.442614030089366" lon="11.440090563089536"><ele>68.66666666666667</ele><time>2026-04-25T06:58:53.004Z</time></trkpt><trkpt lat="44.44255117595955" lon="11.440117421885752"><ele>69.0</ele><time>2026-04-25T06:58:55.004Z</time></trkpt><trkpt lat="44.44246626362724" lon="11.440166282704515"><ele>69.0</ele><time>2026-04-25T06:58:58.004Z</time></trkpt><trkpt lat="44.44240389208244" lon="11.44019632729652"><ele>69.0</ele><time>2026-04-25T06:59:00.004Z</time></trkpt><trkpt lat="44.44234476919016" lon="11.440234803924836"><ele>69.0</ele><time>2026-04-25T06:59:02.004Z</time></trkpt><trkpt lat="44.44228526917728" lon="11.440294369828871"><ele>69.0</ele><time>2026-04-25T06:59:04.004Z</time></trkpt><trkpt lat="44.44222806811019" lon="11.44035237767064"><ele>69.0</ele><time>2026-04-25T06:59:06.004Z</time></trkpt><trkpt lat="44.44216116029542" lon="11.44038120022292"><ele>69.0</ele><time>2026-04-25T06:59:08.004Z</time></trkpt><trkpt lat="44.442096660584866" lon="11.440414001849488"><ele>69.0</ele><time>2026-04-25T06:59:10.004Z</time></trkpt><trkpt lat="44.442027136590525" lon="11.440444568207807"><ele>68.66666666666667</ele><time>2026-04-25T06:59:12.004Z</time></trkpt><trkpt lat="44.44195797835271" lon="11.440467914531231"><ele>68.33333333333333</ele><time>2026-04-25T06:59:14.004Z</time></trkpt><trkpt lat="44.44188132715808" lon="11.440481330195224"><ele>68.0</ele><time>2026-04-25T06:59:16.004Z</time></trkpt><trkpt lat="44.44180544654822" lon="11.440496621960401"><ele>67.66666666666666</ele><time>2026-04-25T06:59:18.004Z</time></trkpt><trkpt lat="44.44173163253392" lon="11.44051092275032"><ele>67.33333333333333</ele><time>2026-04-25T06:59:20.004Z</time></trkpt><trkpt lat="44.44168349038228" lon="11.44059135285813"><ele>67.0</ele><time>2026-04-25T06:59:23.004Z</time></trkpt><trkpt lat="44.44166196892756" lon="11.44069593835728"><ele>67.0</ele><time>2026-04-25T06:59:26.004Z</time></trkpt><trkpt lat="44.44160237240091" lon="11.440761457836697"><ele>67.0</ele><time>2026-04-25T06:59:29.004Z</time></trkpt><trkpt lat="44.44155546446344" lon="11.440852361998745"><ele>67.0</ele><time>2026-04-25T06:59:32.004Z</time></trkpt><trkpt lat="44.44147692840073" lon="11.44084098998854"><ele>67.0</ele><time>2026-04-25T06:59:34.004Z</time></trkpt><trkpt lat="44.441402785585616" lon="11.440825641810433"><ele>67.0</ele><time>2026-04-25T06:59:36.004Z</time></trkpt><trkpt lat="44.441317096251545" lon="11.44080988293279"><ele>67.0</ele><time>2026-04-25T06:59:38.004Z</time></trkpt><trkpt lat="44.441232102670824" lon="11.440807307998183"><ele>67.83333333333333</ele><time>2026-04-25T06:59:40.004Z</time></trkpt><trkpt lat="44.44118417160282" lon="11.44089091304488"><ele>68.66666666666666</ele><time>2026-04-25T06:59:46.003Z</time></trkpt><trkpt lat="44.44112423480177" lon="11.440948826444599"><ele>69.5</ele><time>2026-04-25T06:59:50.003Z</time></trkpt><trkpt lat="44.441040753608185" lon="11.440960106368797"><ele>70.33333333333333</ele><time>2026-04-25T06:59:53.003Z</time></trkpt><trkpt lat="44.440970186229016" lon="11.440905340430673"><ele>71.16666666666667</ele><time>2026-04-25T06:59:56.003Z</time></trkpt><trkpt lat="44.44089274025936" lon="11.440883320217486"><ele>72.0</ele><time>2026-04-25T06:59:59.003Z</time></trkpt><trkpt lat="44.440810805479224" lon="11.440919772209803"><ele>72.0</ele><time>2026-04-25T07:00:02.003Z</time></trkpt><trkpt lat="44.440735794924876" lon="11.440978814278708"><ele>72.0</ele><time>2026-04-25T07:00:05.003Z</time></trkpt><trkpt lat="44.44063017613642" lon="11.440993321301328"><ele>72.0</ele><time>2026-04-25T07:00:08.003Z</time></trkpt><trkpt lat="44.44052492004716" lon="11.441014400728315"><ele>72.0</ele><time>2026-04-25T07:00:11.003Z</time></trkpt><trkpt lat="44.44045289622891" lon="11.441043173178135"><ele>72.0</ele><time>2026-04-25T07:00:13.003Z</time></trkpt><trkpt lat="44.440363506678814" lon="11.441061099325188"><ele>72.00000000000001</ele><time>2026-04-25T07:00:16.003Z</time></trkpt><trkpt lat="44.44030004444884" lon="11.441076528714229"><ele>72.0</ele><time>2026-04-25T07:00:18.003Z</time></trkpt><trkpt lat="44.44022878655568" lon="11.44106557286241"><ele>72.0</ele><time>2026-04-25T07:00:20.003Z</time></trkpt><trkpt lat="44.44016962942463" lon="11.441115579958305"><ele>72.0</ele><time>2026-04-25T07:00:22.005Z</time></trkpt><trkpt lat="44.440091729465095" lon="11.44113842435553"><ele>72.0</ele><time>2026-04-25T07:00:25.005Z</time></trkpt><trkpt lat="44.44000586869971" lon="11.441151952851417"><ele>72.00000000000001</ele><time>2026-04-25T07:00:28.006Z</time></trkpt><trkpt lat="44.43993737135489" lon="11.441137223954753"><ele>72.0</ele><time>2026-04-25T07:00:31.005Z</time></trkpt><trkpt lat="44.439855349394726" lon="11.441209566350834"><ele>72.0</ele><time>2026-04-25T07:00:34.006Z</time></trkpt><trkpt lat="44.43978077227118" lon="11.441178890454168"><ele>72.0</ele><time>2026-04-25T07:00:36.005Z</time></trkpt><trkpt lat="44.43970776662693" lon="11.441143070576635"><ele>72.0</ele><time>2026-04-25T07:00:39.005Z</time></trkpt><trkpt lat="44.439642900933016" lon="11.441073430252553"><ele>72.0</ele><time>2026-04-25T07:00:43.005Z</time></trkpt><trkpt lat="44.43959867930132" lon="11.440991078128578"><ele>72.0</ele><time>2026-04-25T07:00:46.005Z</time></trkpt><trkpt lat="44.43952845002635" lon="11.44093697020144"><ele>72.0</ele><time>2026-04-25T07:00:49.005Z</time></trkpt><trkpt lat="44.43947190395564" lon="11.440890464645667"><ele>71.85714285714286</ele><time>2026-04-25T07:00:51.005Z</time></trkpt><trkpt lat="44.439459082935066" lon="11.440803794797695"><ele>71.71428571428572</ele><time>2026-04-25T07:00:54.005Z</time></trkpt><trkpt lat="44.4393902553636" lon="11.440751028034088"><ele>71.57142857142857</ele><time>2026-04-25T07:00:57.005Z</time></trkpt><trkpt lat="44.43931107690784" lon="11.440739512224802"><ele>71.42857142857143</ele><time>2026-04-25T07:01:00.005Z</time></trkpt><trkpt lat="44.43924719447381" lon="11.440773130291"><ele>71.28571428571428</ele><time>2026-04-25T07:01:02.005Z</time></trkpt><trkpt lat="44.439178557683036" lon="11.440771382686966"><ele>71.14285714285714</ele><time>2026-04-25T07:01:07.004Z</time></trkpt><trkpt lat="44.43911272332859" lon="11.44078974630365"><ele>71.0</ele><time>2026-04-25T07:01:11.004Z</time></trkpt><trkpt lat="44.43903447144067" lon="11.440718517188168"><ele>71.0</ele><time>2026-04-25T07:01:15.004Z</time></trkpt><trkpt lat="44.43898256573486" lon="11.440640964052097"><ele>71.0</ele><time>2026-04-25T07:01:19.004Z</time></trkpt><trkpt lat="44.438932295918555" lon="11.440558326403025"><ele>71.0</ele><time>2026-04-25T07:01:22.004Z</time></trkpt><trkpt lat="44.43889255361712" lon="11.440485535308097"><ele>71.0</ele><time>2026-04-25T07:01:25.004Z</time></trkpt><trkpt lat="44.438831787911184" lon="11.44041335593927"><ele>71.0</ele><time>2026-04-25T07:01:28.004Z</time></trkpt><trkpt lat="44.43880891634863" lon="11.440318482229692"><ele>71.0</ele><time>2026-04-25T07:01:30.004Z</time></trkpt><trkpt lat="44.438785647197044" lon="11.440224634305856"><ele>71.0</ele><time>2026-04-25T07:01:33.004Z</time></trkpt><trkpt lat="44.43871744120942" lon="11.440183238869931"><ele>71.42857142857143</ele><time>2026-04-25T07:01:36.004Z</time></trkpt><trkpt lat="44.43862802629633" lon="11.440157041152723"><ele>71.85714285714285</ele><time>2026-04-25T07:01:39.004Z</time></trkpt><trkpt lat="44.43858382025016" lon="11.440064748331476"><ele>72.28571428571428</ele><time>2026-04-25T07:01:42.004Z</time></trkpt><trkpt lat="44.438517440480624" lon="11.440059348618894"><ele>72.71428571428571</ele><time>2026-04-25T07:01:44.004Z</time></trkpt><trkpt lat="44.43847656789931" lon="11.439985119145927"><ele>73.14285714285714</ele><time>2026-04-25T07:01:47.004Z</time></trkpt><trkpt lat="44.43846301018676" lon="11.439881362272759"><ele>73.57142857142857</ele><time>2026-04-25T07:01:50.004Z</time></trkpt><trkpt lat="44.438431265975225" lon="11.439798292051416"><ele>74.0</ele><time>2026-04-25T07:01:52.004Z</time></trkpt><trkpt lat="44.438377670913766" lon="11.439722258632543"><ele>73.5</ele><time>2026-04-25T07:01:54.004Z</time></trkpt><trkpt lat="44.43834373420258" lon="11.43963175037303"><ele>73.0</ele><time>2026-04-25T07:01:57.004Z</time></trkpt><trkpt lat="44.43833064414846" lon="11.439518390438497"><ele>72.5</ele><time>2026-04-25T07:02:01.004Z</time></trkpt><trkpt lat="44.438290456129515" lon="11.439425944943144"><ele>72.0</ele><time>2026-04-25T07:02:03.004Z</time></trkpt><trkpt lat="44.43825121764953" lon="11.439342501369989"><ele>71.5</ele><time>2026-04-25T07:02:06.004Z</time></trkpt><trkpt lat="44.43823332326041" lon="11.439234490314588"><ele>71.0</ele><time>2026-04-25T07:02:09.004Z</time></trkpt><trkpt lat="44.438245520683154" lon="11.439124757969331"><ele>71.0</ele><time>2026-04-25T07:02:12.004Z</time></trkpt><trkpt lat="44.43821984897198" lon="11.439007417105605"><ele>71.0</ele><time>2026-04-25T07:02:15.004Z</time></trkpt><trkpt lat="44.43824146367497" lon="11.438916277529517"><ele>71.0</ele><time>2026-04-25T07:02:18.004Z</time></trkpt><trkpt lat="44.438226416658736" lon="11.438819473711282"><ele>71.0</ele><time>2026-04-25T07:02:22.003Z</time></trkpt><trkpt lat="44.43817436371913" lon="11.438752663103113"><ele>71.0</ele><time>2026-04-25T07:02:26.003Z</time></trkpt><trkpt lat="44.43814597715247" lon="11.438653239495219"><ele>71.0</ele><time>2026-04-25T07:02:30.006Z</time></trkpt><trkpt lat="44.438130360621045" lon="11.438546597048767"><ele>71.33333333333334</ele><time>2026-04-25T07:02:35.006Z</time></trkpt><trkpt lat="44.438137109416445" lon="11.438452079655939"><ele>71.66666666666667</ele><time>2026-04-25T07:02:39.005Z</time></trkpt><trkpt lat="44.43813518846527" lon="11.4383491097779"><ele>72.0</ele><time>2026-04-25T07:02:43.006Z</time></trkpt><trkpt lat="44.43812140500783" lon="11.438246418734957"><ele>72.33333333333333</ele><time>2026-04-25T07:02:47.006Z</time></trkpt><trkpt lat="44.438112632470045" lon="11.438141472601057"><ele>72.66666666666666</ele><time>2026-04-25T07:02:51.006Z</time></trkpt><trkpt lat="44.43804769670041" lon="11.438104022553178"><ele>73.0</ele><time>2026-04-25T07:02:54.006Z</time></trkpt><trkpt lat="44.43796921970922" lon="11.43804160948818"><ele>73.0</ele><time>2026-04-25T07:02:57.006Z</time></trkpt><trkpt lat="44.43789097205119" lon="11.437995452763637"><ele>73.0</ele><time>2026-04-25T07:02:59.006Z</time></trkpt><trkpt lat="44.43785493636425" lon="11.437865277817057"><ele>73.0</ele><time>2026-04-25T07:03:01.006Z</time></trkpt><trkpt lat="44.43779666377704" lon="11.4378023780386"><ele>73.0</ele><time>2026-04-25T07:03:03.006Z</time></trkpt><trkpt lat="44.43774956415832" lon="11.437741126632886"><ele>73.0</ele><time>2026-04-25T07:03:05.006Z</time></trkpt><trkpt lat="44.437689458525796" lon="11.437649191755186"><ele>73.0</ele><time>2026-04-25T07:03:08.006Z</time></trkpt><trkpt lat="44.43764647661483" lon="11.437524494535797"><ele>73.0</ele><time>2026-04-25T07:03:11.006Z</time></trkpt><trkpt lat="44.4376065355288" lon="11.437413529385081"><ele>73.0</ele><time>2026-04-25T07:03:14.005Z</time></trkpt><trkpt lat="44.437555012980766" lon="11.437334411067356"><ele>73.0</ele><time>2026-04-25T07:03:16.005Z</time></trkpt><trkpt lat="44.43750734905904" lon="11.437258388402554"><ele>73.0</ele><time>2026-04-25T07:03:18.005Z</time></trkpt><trkpt lat="44.43745608776982" lon="11.437204422730249"><ele>73.0</ele><time>2026-04-25T07:03:20.005Z</time></trkpt><trkpt lat="44.43741969296855" lon="11.437101315505611"><ele>73.0</ele><time>2026-04-25T07:03:23.005Z</time></trkpt><trkpt lat="44.43736949482386" lon="11.43701141482137"><ele>72.83333333333333</ele><time>2026-04-25T07:03:26.005Z</time></trkpt><trkpt lat="44.43733502671311" lon="11.436894760546366"><ele>72.66666666666666</ele><time>2026-04-25T07:03:29.005Z</time></trkpt><trkpt lat="44.43734198553305" lon="11.436792507445636"><ele>72.5</ele><time>2026-04-25T07:03:32.005Z</time></trkpt><trkpt lat="44.43733348770387" lon="11.436696669201055"><ele>72.33333333333333</ele><time>2026-04-25T07:03:35.005Z</time></trkpt><trkpt lat="44.437300232541034" lon="11.436585541993875"><ele>72.16666666666667</ele><time>2026-04-25T07:03:38.005Z</time></trkpt><trkpt lat="44.437258386990905" lon="11.436505292523073"><ele>72.0</ele><time>2026-04-25T07:03:40.005Z</time></trkpt><trkpt lat="44.437229235145075" lon="11.43641721613568"><ele>72.0</ele><time>2026-04-25T07:03:42.005Z</time></trkpt><trkpt lat="44.43720831856052" lon="11.436332561537291"><ele>72.0</ele><time>2026-04-25T07:03:44.005Z</time></trkpt><trkpt lat="44.437154846965505" lon="11.43623106698043"><ele>72.0</ele><time>2026-04-25T07:03:47.005Z</time></trkpt><trkpt lat="44.43710127704505" lon="11.436145268589915"><ele>72.0</ele><time>2026-04-25T07:03:50.005Z</time></trkpt><trkpt lat="44.43703124390324" lon="11.43616023791511"><ele>72.0</ele><time>2026-04-25T07:03:53.005Z</time></trkpt><trkpt lat="44.43694962735268" lon="11.436169890945928"><ele>72.0</ele><time>2026-04-25T07:03:56.005Z</time></trkpt><trkpt lat="44.43688361612226" lon="11.436151193652003"><ele>72.16666666666667</ele><time>2026-04-25T07:03:59.005Z</time></trkpt><trkpt lat="44.43684579239796" lon="11.43606736487975"><ele>72.33333333333333</ele><time>2026-04-25T07:04:02.005Z</time></trkpt><trkpt lat="44.43677846563474" lon="11.435974312608767"><ele>72.5</ele><time>2026-04-25T07:04:05.005Z</time></trkpt><trkpt lat="44.43674370740092" lon="11.435878519645373"><ele>72.66666666666666</ele><time>2026-04-25T07:04:07.005Z</time></trkpt><trkpt lat="44.436675263880296" lon="11.435829845661416"><ele>72.83333333333333</ele><time>2026-04-25T07:04:10.005Z</time></trkpt><trkpt lat="44.43659071171607" lon="11.435815899961504"><ele>73.0</ele><time>2026-04-25T07:04:13.005Z</time></trkpt><trkpt lat="44.43654530301313" lon="11.435723033376997"><ele>73.0</ele><time>2026-04-25T07:04:16.005Z</time></trkpt><trkpt lat="44.43650062245806" lon="11.435649111128322"><ele>73.0</ele><time>2026-04-25T07:04:18.005Z</time></trkpt><trkpt lat="44.436408780199756" lon="11.435626088721923"><ele>73.0</ele><time>2026-04-25T07:04:21.005Z</time></trkpt><trkpt lat="44.43635442054412" lon="11.435680422630696"><ele>73.0</ele><time>2026-04-25T07:04:24.005Z</time></trkpt><trkpt lat="44.43629143442106" lon="11.43572070017835"><ele>73.0</ele><time>2026-04-25T07:04:27.004Z</time></trkpt><trkpt lat="44.4362163172162" lon="11.435678223189761"><ele>73.0</ele><time>2026-04-25T07:04:29.004Z</time></trkpt><trkpt lat="44.43615543124615" lon="11.435622836898029"><ele>72.66666666666666</ele><time>2026-04-25T07:04:31.004Z</time></trkpt><trkpt lat="44.4361141129674" lon="11.435536244860554"><ele>72.33333333333333</ele><time>2026-04-25T07:04:33.004Z</time></trkpt><trkpt lat="44.43604342317994" lon="11.435496699950473"><ele>72.0</ele><time>2026-04-25T07:04:36.006Z</time></trkpt><trkpt lat="44.435963870580444" lon="11.435479856402278"><ele>71.66666666666667</ele><time>2026-04-25T07:04:39.006Z</time></trkpt><trkpt lat="44.43590852750632" lon="11.43543161230848"><ele>71.33333333333334</ele><time>2026-04-25T07:04:41.006Z</time></trkpt><trkpt lat="44.43582726571833" lon="11.435372146477985"><ele>71.0</ele><time>2026-04-25T07:04:44.006Z</time></trkpt><trkpt lat="44.435751611449454" lon="11.435322776129942"><ele>71.5</ele><time>2026-04-25T07:04:47.006Z</time></trkpt><trkpt lat="44.435678873116174" lon="11.435326896527501"><ele>72.0</ele><time>2026-04-25T07:04:50.006Z</time></trkpt><trkpt lat="44.435598321019626" lon="11.43533141308264"><ele>72.5</ele><time>2026-04-25T07:04:53.006Z</time></trkpt><trkpt lat="44.435530453890365" lon="11.435295994020587"><ele>73.0</ele><time>2026-04-25T07:04:56.006Z</time></trkpt><trkpt lat="44.43546792028756" lon="11.43534771958295"><ele>73.5</ele><time>2026-04-25T07:05:01.006Z</time></trkpt><trkpt lat="44.43540060655679" lon="11.435405823905464"><ele>74.0</ele><time>2026-04-25T07:05:04.006Z</time></trkpt><trkpt lat="44.435335994942" lon="11.435460519180841"><ele>74.16666666666667</ele><time>2026-04-25T07:05:07.006Z</time></trkpt><trkpt lat="44.43528580002454" lon="11.435518859875538"><ele>74.33333333333334</ele><time>2026-04-25T07:05:11.006Z</time></trkpt><trkpt lat="44.43521725462192" lon="11.435645293436853"><ele>74.5</ele><time>2026-04-25T07:05:13.006Z</time></trkpt><trkpt lat="44.43517012402203" lon="11.435729867411027"><ele>74.66666666666667</ele><time>2026-04-25T07:05:15.006Z</time></trkpt><trkpt lat="44.435123934910166" lon="11.43579635251871"><ele>74.83333333333333</ele><time>2026-04-25T07:05:17.006Z</time></trkpt><trkpt lat="44.43504768215707" lon="11.435795204735543"><ele>75.0</ele><time>2026-04-25T07:05:20.006Z</time></trkpt><trkpt lat="44.43497846248623" lon="11.435764552989841"><ele>75.0</ele><time>2026-04-25T07:05:23.006Z</time></trkpt><trkpt lat="44.43489732925532" lon="11.435766361939674"><ele>75.0</ele><time>2026-04-25T07:05:26.006Z</time></trkpt><trkpt lat="44.434828333079544" lon="11.435734154269912"><ele>75.0</ele><time>2026-04-25T07:05:28.006Z</time></trkpt><trkpt lat="44.43475915421174" lon="11.435708487021634"><ele>75.0</ele><time>2026-04-25T07:05:30.006Z</time></trkpt><trkpt lat="44.43468781287433" lon="11.435716960603996"><ele>75.0</ele><time>2026-04-25T07:05:32.006Z</time></trkpt><trkpt lat="44.43461671786687" lon="11.435691526128215"><ele>75.0</ele><time>2026-04-25T07:05:34.006Z</time></trkpt><trkpt lat="44.43453778825558" lon="11.435735899207096"><ele>74.57142857142857</ele><time>2026-04-25T07:05:39.006Z</time></trkpt><trkpt lat="44.434473074838614" lon="11.435756035232952"><ele>74.14285714285714</ele><time>2026-04-25T07:05:42.006Z</time></trkpt><trkpt lat="44.43440361151617" lon="11.435796217927646"><ele>73.71428571428572</ele><time>2026-04-25T07:05:45.005Z</time></trkpt><trkpt lat="44.43432900134749" lon="11.435823632671434"><ele>73.28571428571428</ele><time>2026-04-25T07:05:48.005Z</time></trkpt><trkpt lat="44.43425335510038" lon="11.435819997872283"><ele>72.85714285714286</ele><time>2026-04-25T07:05:51.005Z</time></trkpt><trkpt lat="44.434177050856476" lon="11.435762545186074"><ele>72.42857142857143</ele><time>2026-04-25T07:05:54.005Z</time></trkpt><trkpt lat="44.43412011153314" lon="11.435802341320876"><ele>72.0</ele><time>2026-04-25T07:05:57.005Z</time></trkpt><trkpt lat="44.43404132937328" lon="11.435782111487546"><ele>72.00000000000001</ele><time>2026-04-25T07:06:00.005Z</time></trkpt><trkpt lat="44.4339782231658" lon="11.435752114970509"><ele>72.0</ele><time>2026-04-25T07:06:02.005Z</time></trkpt><trkpt lat="44.4339089861672" lon="11.435710700508917"><ele>72.0</ele><time>2026-04-25T07:06:05.005Z</time></trkpt><trkpt lat="44.43384412689848" lon="11.435720786849116"><ele>72.0</ele><time>2026-04-25T07:06:07.005Z</time></trkpt><trkpt lat="44.43376083406604" lon="11.435749960021372"><ele>72.0</ele><time>2026-04-25T07:06:10.005Z</time></trkpt><trkpt lat="44.433693855447515" lon="11.4357398210648"><ele>72.00000000000001</ele><time>2026-04-25T07:06:13.005Z</time></trkpt><trkpt lat="44.43363456468773" lon="11.435695226961213"><ele>72.0</ele><time>2026-04-25T07:06:15.005Z</time></trkpt><trkpt lat="44.43356215546897" lon="11.435653477278647"><ele>72.0</ele><time>2026-04-25T07:06:18.005Z</time></trkpt><trkpt lat="44.43350681326747" lon="11.435609659396425"><ele>72.0</ele><time>2026-04-25T07:06:20.005Z</time></trkpt><trkpt lat="44.433439852075274" lon="11.43558577771379"><ele>72.0</ele><time>2026-04-25T07:06:22.005Z</time></trkpt><trkpt lat="44.43335023137678" lon="11.435554148446183"><ele>72.0</ele><time>2026-04-25T07:06:25.005Z</time></trkpt><trkpt lat="44.43325890826533" lon="11.43554075266505"><ele>72.0</ele><time>2026-04-25T07:06:28.005Z</time></trkpt><trkpt lat="44.43318774456973" lon="11.435499343803722"><ele>72.0</ele><time>2026-04-25T07:06:31.005Z</time></trkpt><trkpt lat="44.433114113562056" lon="11.435475649568776"><ele>72.66666666666667</ele><time>2026-04-25T07:06:34.005Z</time></trkpt><trkpt lat="44.433041841134184" lon="11.435430159416736"><ele>73.33333333333333</ele><time>2026-04-25T07:06:36.005Z</time></trkpt><trkpt lat="44.43296165936959" lon="11.435379677476307"><ele>74.0</ele><time>2026-04-25T07:06:39.005Z</time></trkpt><trkpt lat="44.43290130000385" lon="11.435338931882683"><ele>74.66666666666666</ele><time>2026-04-25T07:06:41.006Z</time></trkpt><trkpt lat="44.4328464245299" lon="11.435249887360843"><ele>75.33333333333333</ele><time>2026-04-25T07:06:44.006Z</time></trkpt><trkpt lat="44.43277677551419" lon="11.435178606319694"><ele>76.0</ele><time>2026-04-25T07:06:47.006Z</time></trkpt><trkpt lat="44.43269806102177" lon="11.435158576051162"><ele>76.0</ele><time>2026-04-25T07:06:51.006Z</time></trkpt><trkpt lat="44.432633415592925" lon="11.43511692377721"><ele>76.0</ele><time>2026-04-25T07:06:54.007Z</time></trkpt><trkpt lat="44.43256935368669" lon="11.43509737225798"><ele>76.0</ele><time>2026-04-25T07:06:56.007Z</time></trkpt><trkpt lat="44.43249586356191" lon="11.435082375024246"><ele>76.0</ele><time>2026-04-25T07:06:59.007Z</time></trkpt><trkpt lat="44.43248198268435" lon="11.434987989869622"><ele>76.0</ele><time>2026-04-25T07:07:02.007Z</time></trkpt><trkpt lat="44.43243980499687" lon="11.43491423633942"><ele>76.0</ele><time>2026-04-25T07:07:06.007Z</time></trkpt><trkpt lat="44.43237534903912" lon="11.434877224921545"><ele>76.0</ele><time>2026-04-25T07:07:09.007Z</time></trkpt><trkpt lat="44.43230170506321" lon="11.434911468246614"><ele>76.0</ele><time>2026-04-25T07:07:13.007Z</time></trkpt><trkpt lat="44.432234630547896" lon="11.434907906104991"><ele>76.0</ele><time>2026-04-25T07:07:16.007Z</time></trkpt><trkpt lat="44.4321537017655" lon="11.434915512530983"><ele>76.0</ele><time>2026-04-25T07:07:19.006Z</time></trkpt><trkpt lat="44.43207915730333" lon="11.434888820781978"><ele>76.0</ele><time>2026-04-25T07:07:22.006Z</time></trkpt><trkpt lat="44.43199761942735" lon="11.434888553346763"><ele>76.0</ele><time>2026-04-25T07:07:25.006Z</time></trkpt><trkpt lat="44.4319354841481" lon="11.434831533212211"><ele>76.0</ele><time>2026-04-25T07:07:28.006Z</time></trkpt><trkpt lat="44.4318592600026" lon="11.434788487672716"><ele>75.83333333333333</ele><time>2026-04-25T07:07:31.006Z</time></trkpt><trkpt lat="44.43179060658633" lon="11.434761836750496"><ele>75.66666666666666</ele><time>2026-04-25T07:07:33.006Z</time></trkpt><trkpt lat="44.43172452806218" lon="11.434728638145792"><ele>75.5</ele><time>2026-04-25T07:07:35.006Z</time></trkpt><trkpt lat="44.4316624313084" lon="11.434664262820247"><ele>75.33333333333333</ele><time>2026-04-25T07:07:38.006Z</time></trkpt><trkpt lat="44.43161166676063" lon="11.434566407094678"><ele>75.16666666666667</ele><time>2026-04-25T07:07:41.006Z</time></trkpt><trkpt lat="44.4315450900619" lon="11.434477424722846"><ele>75.0</ele><time>2026-04-25T07:07:44.006Z</time></trkpt><trkpt lat="44.43153861639711" lon="11.434354128243541"><ele>74.99999999999999</ele><time>2026-04-25T07:07:47.006Z</time></trkpt><trkpt lat="44.43146042969069" lon="11.434326952941127"><ele>75.0</ele><time>2026-04-25T07:07:50.006Z</time></trkpt><trkpt lat="44.43141626548845" lon="11.434236787616703"><ele>75.0</ele><time>2026-04-25T07:07:53.006Z</time></trkpt><trkpt lat="44.43135336376408" lon="11.434194098095432"><ele>75.0</ele><time>2026-04-25T07:07:56.006Z</time></trkpt><trkpt lat="44.431315787385664" lon="11.434113523645326"><ele>75.0</ele><time>2026-04-25T07:07:59.006Z</time></trkpt><trkpt lat="44.43126875089334" lon="11.434048311708787"><ele>74.99999999999999</ele><time>2026-04-25T07:08:01.006Z</time></trkpt><trkpt lat="44.4312083339683" lon="11.433974039111101"><ele>75.0</ele><time>2026-04-25T07:08:04.006Z</time></trkpt><trkpt lat="44.43120434909518" lon="11.433868847869238"><ele>74.66666666666667</ele><time>2026-04-25T07:08:07.006Z</time></trkpt><trkpt lat="44.431175296590055" lon="11.43375584927898"><ele>74.33333333333333</ele><time>2026-04-25T07:08:11.006Z</time></trkpt><trkpt lat="44.431113317571146" lon="11.433683004101935"><ele>74.0</ele><time>2026-04-25T07:08:14.006Z</time></trkpt><trkpt lat="44.4310341347935" lon="11.433639272499487"><ele>73.66666666666666</ele><time>2026-04-25T07:08:17.006Z</time></trkpt><trkpt lat="44.43095943214791" lon="11.433589602044508"><ele>73.33333333333333</ele><time>2026-04-25T07:08:20.006Z</time></trkpt><trkpt lat="44.43090932862255" lon="11.433515004746605"><ele>73.0</ele><time>2026-04-25T07:08:23.006Z</time></trkpt><trkpt lat="44.430846741233815" lon="11.433433184517744"><ele>73.0</ele><time>2026-04-25T07:08:26.006Z</time></trkpt><trkpt lat="44.43078257996011" lon="11.433420508441786"><ele>73.0</ele><time>2026-04-25T07:08:28.006Z</time></trkpt><trkpt lat="44.430706536771304" lon="11.433341245010546"><ele>73.0</ele><time>2026-04-25T07:08:31.005Z</time></trkpt><trkpt lat="44.4306818688686" lon="11.433249748331209"><ele>73.0</ele><time>2026-04-25T07:08:34.005Z</time></trkpt><trkpt lat="44.43066398862471" lon="11.433148752190181"><ele>73.0</ele><time>2026-04-25T07:08:37.005Z</time></trkpt><trkpt lat="44.43062091181993" lon="11.433034227248342"><ele>73.0</ele><time>2026-04-25T07:08:40.005Z</time></trkpt><trkpt lat="44.43065070438603" lon="11.43291836447031"><ele>73.33333333333333</ele><time>2026-04-25T07:08:43.005Z</time></trkpt><trkpt lat="44.43066849025802" lon="11.432831249032567"><ele>73.66666666666666</ele><time>2026-04-25T07:08:45.005Z</time></trkpt><trkpt lat="44.430624405953694" lon="11.432742890203711"><ele>74.0</ele><time>2026-04-25T07:08:48.007Z</time></trkpt><trkpt lat="44.43056666375232" lon="11.432672983177358"><ele>74.33333333333333</ele><time>2026-04-25T07:08:51.007Z</time></trkpt><trkpt lat="44.43053421271408" lon="11.432551030783365"><ele>74.66666666666667</ele><time>2026-04-25T07:08:55.007Z</time></trkpt><trkpt lat="44.43051050531945" lon="11.432435807665101"><ele>75.0</ele><time>2026-04-25T07:08:58.007Z</time></trkpt><trkpt lat="44.43045531501246" lon="11.432355340184213"><ele>75.0</ele><time>2026-04-25T07:09:02.007Z</time></trkpt><trkpt lat="44.43041943936609" lon="11.432254466806278"><ele>75.0</ele><time>2026-04-25T07:09:05.007Z</time></trkpt><trkpt lat="44.43040386134766" lon="11.432166668999406"><ele>75.0</ele><time>2026-04-25T07:09:08.007Z</time></trkpt><trkpt lat="44.43034564713786" lon="11.43209159458143"><ele>75.0</ele><time>2026-04-25T07:09:11.007Z</time></trkpt><trkpt lat="44.43028343612332" lon="11.432040315257485"><ele>75.0</ele><time>2026-04-25T07:09:14.007Z</time></trkpt><trkpt lat="44.43023017064536" lon="11.431966583918655"><ele>75.0</ele><time>2026-04-25T07:09:17.006Z</time></trkpt><trkpt lat="44.43015633955842" lon="11.43189573851398"><ele>75.0</ele><time>2026-04-25T07:09:20.006Z</time></trkpt><trkpt lat="44.43010130866527" lon="11.43180053940802"><ele>75.0</ele><time>2026-04-25T07:09:23.006Z</time></trkpt><trkpt lat="44.430050688598506" lon="11.431728399485527"><ele>75.0</ele><time>2026-04-25T07:09:26.006Z</time></trkpt><trkpt lat="44.430018459761165" lon="11.431632444066071"><ele>75.0</ele><time>2026-04-25T07:09:29.006Z</time></trkpt><trkpt lat="44.42995240727354" lon="11.431559428483322"><ele>75.0</ele><time>2026-04-25T07:09:32.006Z</time></trkpt><trkpt lat="44.429940070902354" lon="11.43146528643108"><ele>75.0</ele><time>2026-04-25T07:09:35.006Z</time></trkpt><trkpt lat="44.42988202089424" lon="11.431387327154804"><ele>75.5</ele><time>2026-04-25T07:09:38.006Z</time></trkpt><trkpt lat="44.429859836339155" lon="11.431300922577421"><ele>76.0</ele><time>2026-04-25T07:09:40.006Z</time></trkpt><trkpt lat="44.429865885166244" lon="11.431180824425653"><ele>76.5</ele><time>2026-04-25T07:09:43.006Z</time></trkpt><trkpt lat="44.429918644241745" lon="11.431093620211362"><ele>77.0</ele><time>2026-04-25T07:09:46.006Z</time></trkpt><trkpt lat="44.4299786198184" lon="11.431039631902674"><ele>77.5</ele><time>2026-04-25T07:09:49.006Z</time></trkpt><trkpt lat="44.43004157276521" lon="11.431000663791222"><ele>78.0</ele><time>2026-04-25T07:09:52.006Z</time></trkpt><trkpt lat="44.43012794699728" lon="11.430976129235157"><ele>78.0</ele><time>2026-04-25T07:10:15.006Z</time></trkpt><trkpt lat="44.430206717319415" lon="11.431010210292861"><ele>78.0</ele><time>2026-04-25T07:10:20.006Z</time></trkpt><trkpt lat="44.430272443175205" lon="11.43105559363137"><ele>78.0</ele><time>2026-04-25T07:10:23.006Z</time></trkpt><trkpt lat="44.43034928366391" lon="11.431087736972815"><ele>78.0</ele><time>2026-04-25T07:10:26.006Z</time></trkpt><trkpt lat="44.43042033464264" lon="11.431124495364662"><ele>78.0</ele><time>2026-04-25T07:10:29.005Z</time></trkpt><trkpt lat="44.430510345966255" lon="11.431176283796752"><ele>78.0</ele><time>2026-04-25T07:10:32.005Z</time></trkpt><trkpt lat="44.43057296502299" lon="11.431214480100165"><ele>78.0</ele><time>2026-04-25T07:10:34.005Z</time></trkpt><trkpt lat="44.43063437580666" lon="11.431253256059701"><ele>78.0</ele><time>2026-04-25T07:10:36.005Z</time></trkpt><trkpt lat="44.4307157471945" lon="11.431308558318287"><ele>78.0</ele><time>2026-04-25T07:10:38.005Z</time></trkpt><trkpt lat="44.43078330221057" lon="11.431343076674345"><ele>78.0</ele><time>2026-04-25T07:10:40.005Z</time></trkpt><trkpt lat="44.43084502051475" lon="11.431388285962289"><ele>78.0</ele><time>2026-04-25T07:10:42.005Z</time></trkpt><trkpt lat="44.43092393748436" lon="11.431441955653499"><ele>78.0</ele><time>2026-04-25T07:10:45.005Z</time></trkpt><trkpt lat="44.43100817618212" lon="11.43150294871707"><ele>78.0</ele><time>2026-04-25T07:10:48.005Z</time></trkpt><trkpt lat="44.43108078324415" lon="11.43154503301688"><ele>78.0</ele><time>2026-04-25T07:10:51.005Z</time></trkpt><trkpt lat="44.4311499106482" lon="11.431590590833311"><ele>78.0</ele><time>2026-04-25T07:10:53.007Z</time></trkpt><trkpt lat="44.43121387657895" lon="11.431623413089739"><ele>78.0</ele><time>2026-04-25T07:10:55.008Z</time></trkpt><trkpt lat="44.431274391530046" lon="11.431657923264119"><ele>78.0</ele><time>2026-04-25T07:10:57.006Z</time></trkpt><trkpt lat="44.431335033597165" lon="11.43169249523348"><ele>78.0</ele><time>2026-04-25T07:10:59.004Z</time></trkpt><trkpt lat="44.43141439819962" lon="11.431739426648496"><ele>78.0</ele><time>2026-04-25T07:11:01.002Z</time></trkpt><trkpt lat="44.43149214025595" lon="11.43177878644507"><ele>78.2</ele><time>2026-04-25T07:11:03.001Z</time></trkpt><trkpt lat="44.431570735509425" lon="11.43183100404724"><ele>78.4</ele><time>2026-04-25T07:11:05Z</time></trkpt><trkpt lat="44.431668573342264" lon="11.431889028694648"><ele>78.60000000000001</ele><time>2026-04-25T07:11:06.999Z</time></trkpt><trkpt lat="44.43176659574614" lon="11.431950685256522"><ele>78.8</ele><time>2026-04-25T07:11:08.998Z</time></trkpt><trkpt lat="44.43185878972861" lon="11.431999767910437"><ele>79.0</ele><time>2026-04-25T07:11:10.997Z</time></trkpt><trkpt lat="44.4319508365061" lon="11.432046975376952"><ele>79.0</ele><time>2026-04-25T07:11:12.996Z</time></trkpt><trkpt lat="44.43205090349718" lon="11.432097058748745"><ele>79.0</ele><time>2026-04-25T07:11:14.996Z</time></trkpt><trkpt lat="44.432155110584084" lon="11.432151563003304"><ele>79.0</ele><time>2026-04-25T07:11:16.995Z</time></trkpt><trkpt lat="44.432252876159886" lon="11.432210011943921"><ele>79.0</ele><time>2026-04-25T07:11:18.995Z</time></trkpt><trkpt lat="44.432354820350376" lon="11.432273944259624"><ele>79.0</ele><time>2026-04-25T07:11:20.994Z</time></trkpt><trkpt lat="44.43244987611502" lon="11.432327277203916"><ele>78.4</ele><time>2026-04-25T07:11:22.994Z</time></trkpt><trkpt lat="44.432544785772734" lon="11.432382698002133"><ele>77.80000000000001</ele><time>2026-04-25T07:11:24.994Z</time></trkpt><trkpt lat="44.432640194138045" lon="11.432432924092277"><ele>77.19999999999999</ele><time>2026-04-25T07:11:26.993Z</time></trkpt><trkpt lat="44.43273232412486" lon="11.432489444055527"><ele>76.6</ele><time>2026-04-25T07:11:28.993Z</time></trkpt><trkpt lat="44.43283066478206" lon="11.432537846308092"><ele>76.0</ele><time>2026-04-25T07:11:30.993Z</time></trkpt><trkpt lat="44.43292229910795" lon="11.432576716137667"><ele>76.0</ele><time>2026-04-25T07:11:32.993Z</time></trkpt><trkpt lat="44.433015510454126" lon="11.432571576689226"><ele>76.0</ele><time>2026-04-25T07:11:34.992Z</time></trkpt><trkpt lat="44.43309895479481" lon="11.432559925501652"><ele>76.0</ele><time>2026-04-25T07:11:36.992Z</time></trkpt><trkpt lat="44.43317569574916" lon="11.432498847792562"><ele>76.0</ele><time>2026-04-25T07:11:38.992Z</time></trkpt><trkpt lat="44.43324744541932" lon="11.432439421423181"><ele>76.0</ele><time>2026-04-25T07:11:40.992Z</time></trkpt><trkpt lat="44.433321323983876" lon="11.432376451489903"><ele>76.0</ele><time>2026-04-25T07:11:42.992Z</time></trkpt><trkpt lat="44.43339630995452" lon="11.432313189432042"><ele>76.0</ele><time>2026-04-25T07:11:44.992Z</time></trkpt><trkpt lat="44.43347343912835" lon="11.432248017308961"><ele>76.0</ele><time>2026-04-25T07:11:46.992Z</time></trkpt><trkpt lat="44.43354145435557" lon="11.432187001493485"><ele>76.0</ele><time>2026-04-25T07:11:48.991Z</time></trkpt><trkpt lat="44.43360766096543" lon="11.4321232237214"><ele>76.0</ele><time>2026-04-25T07:11:50.991Z</time></trkpt><trkpt lat="44.43367387452718" lon="11.432066795353553"><ele>76.0</ele><time>2026-04-25T07:11:52.991Z</time></trkpt><trkpt lat="44.433749808156634" lon="11.432007496975528"><ele>76.0</ele><time>2026-04-25T07:11:54.991Z</time></trkpt><trkpt lat="44.43382487529903" lon="11.431953210147125"><ele>76.66666666666666</ele><time>2026-04-25T07:11:56.991Z</time></trkpt><trkpt lat="44.43390732972242" lon="11.431908511501781"><ele>77.33333333333333</ele><time>2026-04-25T07:11:58.991Z</time></trkpt><trkpt lat="44.43398907753247" lon="11.43187715683699"><ele>78.0</ele><time>2026-04-25T07:12:00.991Z</time></trkpt><trkpt lat="44.434067603204" lon="11.431845931462078"><ele>78.66666666666667</ele><time>2026-04-25T07:12:02.991Z</time></trkpt><trkpt lat="44.434142611422345" lon="11.431820669538375"><ele>79.33333333333334</ele><time>2026-04-25T07:12:04.991Z</time></trkpt><trkpt lat="44.43421868559101" lon="11.431802366144538"><ele>80.0</ele><time>2026-04-25T07:12:06.991Z</time></trkpt><trkpt lat="44.434291961220076" lon="11.43177925465211"><ele>80.0</ele><time>2026-04-25T07:12:08.991Z</time></trkpt><trkpt lat="44.43436550799063" lon="11.43175866402071"><ele>80.0</ele><time>2026-04-25T07:12:10.991Z</time></trkpt><trkpt lat="44.43443304730281" lon="11.431743486657991"><ele>80.0</ele><time>2026-04-25T07:12:12.991Z</time></trkpt><trkpt lat="44.434502967471886" lon="11.43172233365908"><ele>80.0</ele><time>2026-04-25T07:12:14.991Z</time></trkpt><trkpt lat="44.43456807663916" lon="11.431711362310335"><ele>80.0</ele><time>2026-04-25T07:12:16.991Z</time></trkpt><trkpt lat="44.434658293090926" lon="11.431697577457141"><ele>80.0</ele><time>2026-04-25T07:12:19.99Z</time></trkpt><trkpt lat="44.43473574138018" lon="11.431674532085784"><ele>81.0</ele><time>2026-04-25T07:12:22.99Z</time></trkpt><trkpt lat="44.434809447276365" lon="11.431668868378914"><ele>82.0</ele><time>2026-04-25T07:12:25.99Z</time></trkpt><trkpt lat="44.434882883814474" lon="11.431649949738409"><ele>83.0</ele><time>2026-04-25T07:12:28.99Z</time></trkpt><trkpt lat="44.434964562178564" lon="11.431602806853533"><ele>84.0</ele><time>2026-04-25T07:12:31.99Z</time></trkpt><trkpt lat="44.43503876677608" lon="11.431585416639287"><ele>85.0</ele><time>2026-04-25T07:12:34.99Z</time></trkpt><trkpt lat="44.43510869808688" lon="11.431563575877771"><ele>86.0</ele><time>2026-04-25T07:12:37.99Z</time></trkpt><trkpt lat="44.435173531400885" lon="11.431529706862737"><ele>86.0</ele><time>2026-04-25T07:12:40.99Z</time></trkpt><trkpt lat="44.435243102454244" lon="11.431510244700693"><ele>86.0</ele><time>2026-04-25T07:12:44.99Z</time></trkpt><trkpt lat="44.43535412072393" lon="11.43150715765724"><ele>86.0</ele><time>2026-04-25T07:12:49.99Z</time></trkpt><trkpt lat="44.43543188346774" lon="11.43148883072283"><ele>86.0</ele><time>2026-04-25T07:12:54.99Z</time></trkpt><trkpt lat="44.435502064952864" lon="11.431483772144613"><ele>86.0</ele><time>2026-04-25T07:12:58.992Z</time></trkpt><trkpt lat="44.43562995497663" lon="11.431479738750973"><ele>87.0</ele><time>2026-04-25T07:13:03.992Z</time></trkpt><trkpt lat="44.43575547445574" lon="11.43146973848802"><ele>88.0</ele><time>2026-04-25T07:13:08.991Z</time></trkpt><trkpt lat="44.435833961245045" lon="11.431462612035112"><ele>89.0</ele><time>2026-04-25T07:13:11.991Z</time></trkpt><trkpt lat="44.43600027618271" lon="11.431450078919573"><ele>90.0</ele><time>2026-04-25T07:13:17.991Z</time></trkpt><trkpt lat="44.436092715446144" lon="11.431424465256375"><ele>90.0</ele><time>2026-04-25T07:13:20.991Z</time></trkpt><trkpt lat="44.436284133703" lon="11.4314020753264"><ele>90.0</ele><time>2026-04-25T07:13:26.991Z</time></trkpt><trkpt lat="44.43636286358593" lon="11.431412868213446"><ele>90.0</ele><time>2026-04-25T07:13:28.991Z</time></trkpt><trkpt lat="44.43644215102677" lon="11.43142269703692"><ele>90.0</ele><time>2026-04-25T07:13:30.991Z</time></trkpt><trkpt lat="44.43652454623285" lon="11.431428961097367"><ele>90.0</ele><time>2026-04-25T07:13:32.991Z</time></trkpt><trkpt lat="44.43662851510483" lon="11.431433262007635"><ele>90.66666666666667</ele><time>2026-04-25T07:13:36.991Z</time></trkpt><trkpt lat="44.436716937649294" lon="11.431441290670097"><ele>91.33333333333333</ele><time>2026-04-25T07:13:39.991Z</time></trkpt><trkpt lat="44.436826138435514" lon="11.431448524162956"><ele>92.0</ele><time>2026-04-25T07:13:44.991Z</time></trkpt><trkpt lat="44.43689771704259" lon="11.43147314057874"><ele>92.66666666666666</ele><time>2026-04-25T07:13:49.991Z</time></trkpt><trkpt lat="44.4369904959648" lon="11.431488592262308"><ele>93.33333333333333</ele><time>2026-04-25T07:13:52.991Z</time></trkpt><trkpt lat="44.43707150845032" lon="11.43149647732616"><ele>94.0</ele><time>2026-04-25T07:13:54.991Z</time></trkpt><trkpt lat="44.43714663824483" lon="11.431507496623174"><ele>94.4</ele><time>2026-04-25T07:13:56.99Z</time></trkpt><trkpt lat="44.43724625549118" lon="11.43152393602513"><ele>94.80000000000001</ele><time>2026-04-25T07:13:59.99Z</time></trkpt><trkpt lat="44.437342056584704" lon="11.431557743075997"><ele>95.19999999999999</ele><time>2026-04-25T07:14:01.99Z</time></trkpt><trkpt lat="44.437434726225916" lon="11.4315802617036"><ele>95.6</ele><time>2026-04-25T07:14:03.99Z</time></trkpt><trkpt lat="44.43751597485485" lon="11.431595109424412"><ele>96.0</ele><time>2026-04-25T07:14:05.99Z</time></trkpt><trkpt lat="44.43760469505533" lon="11.431609170617108"><ele>96.0</ele><time>2026-04-25T07:14:07.99Z</time></trkpt><trkpt lat="44.43768420274731" lon="11.431618123727338"><ele>96.0</ele><time>2026-04-25T07:14:09.99Z</time></trkpt><trkpt lat="44.43776050783614" lon="11.43163797240555"><ele>96.0</ele><time>2026-04-25T07:14:11.99Z</time></trkpt><trkpt lat="44.437837861276606" lon="11.431645074361066"><ele>96.0</ele><time>2026-04-25T07:14:13.99Z</time></trkpt><trkpt lat="44.43793306359315" lon="11.431652550947957"><ele>96.0</ele><time>2026-04-25T07:14:16.99Z</time></trkpt><trkpt lat="44.43800006446249" lon="11.431661919326666"><ele>96.0</ele><time>2026-04-25T07:14:18.99Z</time></trkpt><trkpt lat="44.43808399288601" lon="11.431681915431609"><ele>96.8</ele><time>2026-04-25T07:14:21.99Z</time></trkpt><trkpt lat="44.43820084333054" lon="11.431709684661849"><ele>97.6</ele><time>2026-04-25T07:14:24.99Z</time></trkpt><trkpt lat="44.43829846193419" lon="11.431710482230889"><ele>98.4</ele><time>2026-04-25T07:14:27.99Z</time></trkpt><trkpt lat="44.438429079465266" lon="11.431738259593228"><ele>99.2</ele><time>2026-04-25T07:14:31.99Z</time></trkpt><trkpt lat="44.43849437868445" lon="11.431779506671628"><ele>100.0</ele><time>2026-04-25T07:14:33.99Z</time></trkpt><trkpt lat="44.43855350755588" lon="11.431834202132938"><ele>100.00000000000001</ele><time>2026-04-25T07:14:35.99Z</time></trkpt><trkpt lat="44.4386208648477" lon="11.431892154822467"><ele>100.0</ele><time>2026-04-25T07:14:37.99Z</time></trkpt><trkpt lat="44.43869446396904" lon="11.431966514905833"><ele>100.0</ele><time>2026-04-25T07:14:40.99Z</time></trkpt><trkpt lat="44.438744564477176" lon="11.432023041141367"><ele>100.0</ele><time>2026-04-25T07:14:42.99Z</time></trkpt><trkpt lat="44.43880041905503" lon="11.432071406029653"><ele>100.0</ele><time>2026-04-25T07:14:44.99Z</time></trkpt><trkpt lat="44.438856208953496" lon="11.432126115889814"><ele>100.00000000000001</ele><time>2026-04-25T07:14:46.99Z</time></trkpt><trkpt lat="44.438919614545426" lon="11.43217231563648"><ele>100.0</ele><time>2026-04-25T07:14:48.989Z</time></trkpt><trkpt lat="44.43900382861795" lon="11.432222244060087"><ele>98.8</ele><time>2026-04-25T07:14:50.989Z</time></trkpt><trkpt lat="44.43907406752542" lon="11.43226155748774"><ele>97.6</ele><time>2026-04-25T07:14:52.989Z</time></trkpt><trkpt lat="44.439174089387286" lon="11.432316595574402"><ele>96.4</ele><time>2026-04-25T07:14:54.989Z</time></trkpt><trkpt lat="44.4392418138073" lon="11.432361206182003"><ele>95.2</ele><time>2026-04-25T07:14:56.989Z</time></trkpt><trkpt lat="44.43934239436752" lon="11.432416508515326"><ele>94.0</ele><time>2026-04-25T07:14:58.989Z</time></trkpt><trkpt lat="44.43944367018949" lon="11.432484178224097"><ele>94.0</ele><time>2026-04-25T07:15:00.989Z</time></trkpt><trkpt lat="44.43949141036382" lon="11.432544754964685"><ele>94.0</ele><time>2026-04-25T07:15:01.989Z</time></trkpt><trkpt lat="44.43961034784622" lon="11.432635716652502"><ele>94.0</ele><time>2026-04-25T07:15:03.992Z</time></trkpt><trkpt lat="44.439671624678645" lon="11.432683872938773"><ele>94.0</ele><time>2026-04-25T07:15:04.991Z</time></trkpt><trkpt lat="44.43974236716237" lon="11.43272793743663"><ele>94.0</ele><time>2026-04-25T07:15:05.991Z</time></trkpt><trkpt lat="44.439828830584865" lon="11.432817819989182"><ele>94.4</ele><time>2026-04-25T07:15:07.992Z</time></trkpt><trkpt lat="44.439882297122054" lon="11.432870155336198"><ele>94.80000000000001</ele><time>2026-04-25T07:15:08.992Z</time></trkpt><trkpt lat="44.439972622413094" lon="11.432959803327499"><ele>95.19999999999999</ele><time>2026-04-25T07:15:10.991Z</time></trkpt><trkpt lat="44.440056531095344" lon="11.433056692825032"><ele>95.6</ele><time>2026-04-25T07:15:12.992Z</time></trkpt><trkpt lat="44.4401565683453" lon="11.433145607747978"><ele>96.0</ele><time>2026-04-25T07:15:14.992Z</time></trkpt><trkpt lat="44.440256266050454" lon="11.43321903741973"><ele>95.83333333333333</ele><time>2026-04-25T07:15:16.992Z</time></trkpt><trkpt lat="44.44031278352604" lon="11.433259504844637"><ele>95.66666666666667</ele><time>2026-04-25T07:15:17.992Z</time></trkpt><trkpt lat="44.44037773119619" lon="11.433297962605208"><ele>95.5</ele><time>2026-04-25T07:15:18.992Z</time></trkpt><trkpt lat="44.44043483471304" lon="11.433338756704025"><ele>95.33333333333334</ele><time>2026-04-25T07:15:19.992Z</time></trkpt><trkpt lat="44.44055801703193" lon="11.433424772457393"><ele>95.16666666666667</ele><time>2026-04-25T07:15:21.992Z</time></trkpt><trkpt lat="44.440618217372275" lon="11.433466976372848"><ele>95.0</ele><time>2026-04-25T07:15:22.992Z</time></trkpt><trkpt lat="44.440682386078244" lon="11.433518062428831"><ele>95.0</ele><time>2026-04-25T07:15:23.992Z</time></trkpt><trkpt lat="44.44074402012522" lon="11.433573448514915"><ele>95.0</ele><time>2026-04-25T07:15:24.992Z</time></trkpt><trkpt lat="44.44080895582037" lon="11.43362706176161"><ele>95.0</ele><time>2026-04-25T07:15:25.992Z</time></trkpt><trkpt lat="44.44087605910998" lon="11.43368315213428"><ele>95.0</ele><time>2026-04-25T07:15:26.992Z</time></trkpt><trkpt lat="44.440949406171185" lon="11.4337434281434"><ele>95.0</ele><time>2026-04-25T07:15:27.992Z</time></trkpt><trkpt lat="44.44101224292849" lon="11.433797941869676"><ele>95.0</ele><time>2026-04-25T07:15:28.992Z</time></trkpt><trkpt lat="44.44107520370535" lon="11.433849878085937"><ele>94.5</ele><time>2026-04-25T07:15:29.992Z</time></trkpt><trkpt lat="44.441145688781674" lon="11.433908190136448"><ele>94.0</ele><time>2026-04-25T07:15:30.992Z</time></trkpt><trkpt lat="44.441250084693515" lon="11.43400163693316"><ele>93.5</ele><time>2026-04-25T07:15:32.992Z</time></trkpt><trkpt lat="44.44132234536408" lon="11.4340569562507"><ele>93.0</ele><time>2026-04-25T07:15:33.992Z</time></trkpt><trkpt lat="44.441387585552185" lon="11.434095875080555"><ele>92.5</ele><time>2026-04-25T07:15:34.992Z</time></trkpt><trkpt lat="44.44145333810167" lon="11.434150294161201"><ele>92.0</ele><time>2026-04-25T07:15:35.992Z</time></trkpt><trkpt lat="44.44152569004146" lon="11.434186886322923"><ele>91.66666666666667</ele><time>2026-04-25T07:15:36.992Z</time></trkpt><trkpt lat="44.44158361996531" lon="11.434232088250917"><ele>91.33333333333334</ele><time>2026-04-25T07:15:37.992Z</time></trkpt><trkpt lat="44.4416552234761" lon="11.434256900418022"><ele>91.0</ele><time>2026-04-25T07:15:38.992Z</time></trkpt><trkpt lat="44.441738332867416" lon="11.434281781525057"><ele>90.66666666666667</ele><time>2026-04-25T07:15:39.991Z</time></trkpt><trkpt lat="44.44182722643398" lon="11.434304171945099"><ele>90.33333333333333</ele><time>2026-04-25T07:15:40.991Z</time></trkpt><trkpt lat="44.44191206368708" lon="11.434325485740347"><ele>90.0</ele><time>2026-04-25T07:15:41.991Z</time></trkpt><trkpt lat="44.44199982422454" lon="11.434347534146694"><ele>90.0</ele><time>2026-04-25T07:15:42.991Z</time></trkpt><trkpt lat="44.44208020766854" lon="11.434367254208812"><ele>90.0</ele><time>2026-04-25T07:15:43.991Z</time></trkpt><trkpt lat="44.44215429928273" lon="11.434379641676609"><ele>90.0</ele><time>2026-04-25T07:15:45.991Z</time></trkpt><trkpt lat="44.4422169823668" lon="11.434238024577184"><ele>90.0</ele><time>2026-04-25T07:15:54.991Z</time></trkpt><trkpt lat="44.442229328117726" lon="11.434139254228382"><ele>90.0</ele><time>2026-04-25T07:15:56.991Z</time></trkpt><trkpt lat="44.442238256471185" lon="11.434036950048847"><ele>90.0</ele><time>2026-04-25T07:15:58.991Z</time></trkpt><trkpt lat="44.442241775361246" lon="11.43390822203141"><ele>89.83333333333333</ele><time>2026-04-25T07:16:01.991Z</time></trkpt><trkpt lat="44.442174415741135" lon="11.433820506059213"><ele>89.66666666666667</ele><time>2026-04-25T07:16:03.991Z</time></trkpt><trkpt lat="44.442159793460654" lon="11.433712615472075"><ele>89.5</ele><time>2026-04-25T07:16:06.991Z</time></trkpt><trkpt lat="44.442125427211295" lon="11.433610134012739"><ele>89.33333333333334</ele><time>2026-04-25T07:16:09.991Z</time></trkpt><trkpt lat="44.442084965069455" lon="11.433495758319255"><ele>89.16666666666667</ele><time>2026-04-25T07:16:12.991Z</time></trkpt><trkpt lat="44.44205374599798" lon="11.433401589768698"><ele>89.0</ele><time>2026-04-25T07:16:15.991Z</time></trkpt><trkpt lat="44.442029344878634" lon="11.433294486611329"><ele>89.33333333333334</ele><time>2026-04-25T07:16:18.991Z</time></trkpt><trkpt lat="44.44201133560989" lon="11.433191158039417"><ele>89.66666666666667</ele><time>2026-04-25T07:16:22.991Z</time></trkpt><trkpt lat="44.44200452410608" lon="11.433074959093078"><ele>90.0</ele><time>2026-04-25T07:16:26.991Z</time></trkpt><trkpt lat="44.44199544144183" lon="11.432967466322506"><ele>90.33333333333333</ele><time>2026-04-25T07:16:29.991Z</time></trkpt><trkpt lat="44.44199253102427" lon="11.432854190527982"><ele>90.66666666666666</ele><time>2026-04-25T07:16:33.99Z</time></trkpt><trkpt lat="44.441992097594266" lon="11.432758892483902"><ele>91.0</ele><time>2026-04-25T07:16:39.99Z</time></trkpt><trkpt lat="44.44204590432107" lon="11.432840023724223"><ele>91.0</ele><time>2026-04-25T07:17:53.99Z</time></trkpt><trkpt lat="44.44203076294437" lon="11.432935259225925"><ele>91.0</ele><time>2026-04-25T07:18:13.99Z</time></trkpt><trkpt lat="44.442019355730274" lon="11.433053062405072"><ele>91.0</ele><time>2026-04-25T07:18:17.99Z</time></trkpt><trkpt lat="44.44201414196316" lon="11.433169476426775"><ele>91.0</ele><time>2026-04-25T07:18:19.99Z</time></trkpt><trkpt lat="44.44203948388778" lon="11.433347176636786"><ele>91.0</ele><time>2026-04-25T07:18:21.99Z</time></trkpt><trkpt lat="44.442062661996864" lon="11.43343844893179"><ele>91.0</ele><time>2026-04-25T07:18:22.99Z</time></trkpt><trkpt lat="44.44209884065106" lon="11.433517537094774"><ele>90.6</ele><time>2026-04-25T07:18:23.99Z</time></trkpt><trkpt lat="44.44216907682392" lon="11.4336902613743"><ele>90.19999999999999</ele><time>2026-04-25T07:18:25.99Z</time></trkpt><trkpt lat="44.44218966629325" lon="11.433795661511232"><ele>89.80000000000001</ele><time>2026-04-25T07:18:26.99Z</time></trkpt><trkpt lat="44.442180647561784" lon="11.43390979773426"><ele>89.4</ele><time>2026-04-25T07:18:27.99Z</time></trkpt><trkpt lat="44.442187451018164" lon="11.43404257924245"><ele>89.0</ele><time>2026-04-25T07:18:28.99Z</time></trkpt><trkpt lat="44.44217794109226" lon="11.434151547220942"><ele>89.16666666666667</ele><time>2026-04-25T07:18:29.99Z</time></trkpt><trkpt lat="44.44215320883249" lon="11.434239072740565"><ele>89.33333333333334</ele><time>2026-04-25T07:18:31.99Z</time></trkpt><trkpt lat="44.4421524817609" lon="11.434329688330084"><ele>89.5</ele><time>2026-04-25T07:18:35.99Z</time></trkpt><trkpt lat="44.442012486496324" lon="11.434306717184631"><ele>89.66666666666667</ele><time>2026-04-25T07:18:38.99Z</time></trkpt><trkpt lat="44.44194251657721" lon="11.434305074123927"><ele>89.83333333333333</ele><time>2026-04-25T07:18:41.989Z</time></trkpt><trkpt lat="44.44187140620789" lon="11.434290996470969"><ele>90.0</ele><time>2026-04-25T07:18:44.989Z</time></trkpt><trkpt lat="44.441787787867845" lon="11.434247040507428"><ele>90.0</ele><time>2026-04-25T07:18:47.989Z</time></trkpt><trkpt lat="44.44172378863358" lon="11.434230104012931"><ele>90.0</ele><time>2026-04-25T07:18:50.989Z</time></trkpt><trkpt lat="44.44164783211184" lon="11.434254967588148"><ele>90.0</ele><time>2026-04-25T07:18:53.989Z</time></trkpt><trkpt lat="44.441559750931475" lon="11.434221939262477"><ele>90.0</ele><time>2026-04-25T07:18:57.989Z</time></trkpt><trkpt lat="44.44147304494559" lon="11.43417772549648"><ele>90.0</ele><time>2026-04-25T07:19:00.989Z</time></trkpt><trkpt lat="44.44140963781555" lon="11.434131984058448"><ele>90.0</ele><time>2026-04-25T07:19:03.989Z</time></trkpt><trkpt lat="44.44134869498936" lon="11.434093009022444"><ele>90.33333333333333</ele><time>2026-04-25T07:19:05.989Z</time></trkpt><trkpt lat="44.44126774405515" lon="11.434024418159748"><ele>90.66666666666667</ele><time>2026-04-25T07:19:09.989Z</time></trkpt><trkpt lat="44.44120231053694" lon="11.433981396116303"><ele>91.0</ele><time>2026-04-25T07:19:12.989Z</time></trkpt><trkpt lat="44.44113333603721" lon="11.43392758099615"><ele>91.33333333333334</ele><time>2026-04-25T07:19:15.991Z</time></trkpt><trkpt lat="44.44105744472222" lon="11.433873043160453"><ele>91.66666666666667</ele><time>2026-04-25T07:19:18.991Z</time></trkpt><trkpt lat="44.44100692664701" lon="11.433787100742707"><ele>92.0</ele><time>2026-04-25T07:19:21.991Z</time></trkpt><trkpt lat="44.44095251695865" lon="11.433733822872911"><ele>92.5</ele><time>2026-04-25T07:19:24.99Z</time></trkpt><trkpt lat="44.4408907617741" lon="11.433673415345341"><ele>93.0</ele><time>2026-04-25T07:19:27.991Z</time></trkpt><trkpt lat="44.44082699040558" lon="11.43361624360351"><ele>93.5</ele><time>2026-04-25T07:19:30.991Z</time></trkpt><trkpt lat="44.44075002127487" lon="11.433556144194021"><ele>94.0</ele><time>2026-04-25T07:19:33.991Z</time></trkpt><trkpt lat="44.44068626017221" lon="11.433504931581718"><ele>94.5</ele><time>2026-04-25T07:19:36.991Z</time></trkpt><trkpt lat="44.440620564983284" lon="11.433442741317858"><ele>95.0</ele><time>2026-04-25T07:19:39.991Z</time></trkpt><trkpt lat="44.44055772922768" lon="11.433405925546106"><ele>95.0</ele><time>2026-04-25T07:19:42.991Z</time></trkpt><trkpt lat="44.440478906684845" lon="11.433347820227855"><ele>95.0</ele><time>2026-04-25T07:19:45.991Z</time></trkpt><trkpt lat="44.44042488568482" lon="11.433302472235637"><ele>95.0</ele><time>2026-04-25T07:19:48.991Z</time></trkpt><trkpt lat="44.4403436252471" lon="11.433255150429021"><ele>95.0</ele><time>2026-04-25T07:19:51.991Z</time></trkpt><trkpt lat="44.440280370701444" lon="11.433207367279763"><ele>95.0</ele><time>2026-04-25T07:19:54.991Z</time></trkpt><trkpt lat="44.4402065607845" lon="11.433170329989398"><ele>95.0</ele><time>2026-04-25T07:19:57.991Z</time></trkpt><trkpt lat="44.440150376874016" lon="11.433102636497132"><ele>95.16666666666667</ele><time>2026-04-25T07:20:00.991Z</time></trkpt><trkpt lat="44.440084275715755" lon="11.433048778637747"><ele>95.33333333333334</ele><time>2026-04-25T07:20:03.991Z</time></trkpt><trkpt lat="44.440016174361666" lon="11.432979656026664"><ele>95.5</ele><time>2026-04-25T07:20:06.991Z</time></trkpt><trkpt lat="44.439947307744426" lon="11.43292386310579"><ele>95.66666666666667</ele><time>2026-04-25T07:20:09.991Z</time></trkpt><trkpt lat="44.439882063403815" lon="11.432857314158223"><ele>95.83333333333333</ele><time>2026-04-25T07:20:12.991Z</time></trkpt><trkpt lat="44.43981808314804" lon="11.432787065316408"><ele>96.0</ele><time>2026-04-25T07:20:15.991Z</time></trkpt><trkpt lat="44.43973821525355" lon="11.432730486509733"><ele>96.0</ele><time>2026-04-25T07:20:18.991Z</time></trkpt><trkpt lat="44.439664613985975" lon="11.432661967727347"><ele>96.0</ele><time>2026-04-25T07:20:21.991Z</time></trkpt><trkpt lat="44.43960949564191" lon="11.432592870735958"><ele>96.0</ele><time>2026-04-25T07:20:24.99Z</time></trkpt><trkpt lat="44.4395491998594" lon="11.432528697149927"><ele>96.0</ele><time>2026-04-25T07:20:27.99Z</time></trkpt><trkpt lat="44.43947649143136" lon="11.432482850811114"><ele>96.0</ele><time>2026-04-25T07:20:30.99Z</time></trkpt><trkpt lat="44.43939575493162" lon="11.432443122064853"><ele>96.0</ele><time>2026-04-25T07:20:33.99Z</time></trkpt><trkpt lat="44.43933006269921" lon="11.432413955643982"><ele>95.66666666666667</ele><time>2026-04-25T07:20:36.99Z</time></trkpt><trkpt lat="44.439243579519406" lon="11.432371012539411"><ele>95.33333333333333</ele><time>2026-04-25T07:20:39.99Z</time></trkpt><trkpt lat="44.43916595972671" lon="11.432323381816001"><ele>95.0</ele><time>2026-04-25T07:20:42.99Z</time></trkpt><trkpt lat="44.4391069933188" lon="11.432286564095483"><ele>94.66666666666666</ele><time>2026-04-25T07:20:44.99Z</time></trkpt><trkpt lat="44.43904574521071" lon="11.432247820623996"><ele>94.33333333333333</ele><time>2026-04-25T07:20:46.99Z</time></trkpt><trkpt lat="44.43897348652961" lon="11.432218236907257"><ele>94.0</ele><time>2026-04-25T07:20:48.99Z</time></trkpt><trkpt lat="44.43890456202095" lon="11.432167481387692"><ele>95.0</ele><time>2026-04-25T07:20:51.99Z</time></trkpt><trkpt lat="44.438833106027815" lon="11.43211556692909"><ele>96.0</ele><time>2026-04-25T07:20:54.99Z</time></trkpt><trkpt lat="44.43875958184128" lon="11.432055487929565"><ele>97.0</ele><time>2026-04-25T07:20:57.99Z</time></trkpt><trkpt lat="44.43868893615348" lon="11.431996062721062"><ele>98.0</ele><time>2026-04-25T07:21:00.99Z</time></trkpt><trkpt lat="44.43863233678545" lon="11.431951056191556"><ele>99.00000000000001</ele><time>2026-04-25T07:21:02.99Z</time></trkpt><trkpt lat="44.43858716699915" lon="11.431880887351003"><ele>100.0</ele><time>2026-04-25T07:21:04.99Z</time></trkpt><trkpt lat="44.438535762515386" lon="11.431807814437766"><ele>100.0</ele><time>2026-04-25T07:21:06.99Z</time></trkpt><trkpt lat="44.438445293261346" lon="11.431745502070557"><ele>100.0</ele><time>2026-04-25T07:21:08.99Z</time></trkpt><trkpt lat="44.43834600668216" lon="11.431730202853275"><ele>100.0</ele><time>2026-04-25T07:21:10.99Z</time></trkpt><trkpt lat="44.43822913000858" lon="11.431711654528112"><ele>100.0</ele><time>2026-04-25T07:21:12.99Z</time></trkpt><trkpt lat="44.438163685249" lon="11.43170256128764"><ele>100.0</ele><time>2026-04-25T07:21:13.99Z</time></trkpt><trkpt lat="44.43805682133332" lon="11.431673491805665"><ele>100.00000000000001</ele><time>2026-04-25T07:21:15.989Z</time></trkpt><trkpt lat="44.4379809709032" lon="11.431662372904656"><ele>100.0</ele><time>2026-04-25T07:21:16.989Z</time></trkpt><trkpt lat="44.43790272468468" lon="11.431626025482185"><ele>100.0</ele><time>2026-04-25T07:21:17.989Z</time></trkpt><trkpt lat="44.43782850710514" lon="11.431613369437637"><ele>100.0</ele><time>2026-04-25T07:21:18.989Z</time></trkpt><trkpt lat="44.4377569156927" lon="11.431600581135799"><ele>100.00000000000001</ele><time>2026-04-25T07:21:19.989Z</time></trkpt><trkpt lat="44.43769032066109" lon="11.431588685324671"><ele>100.0</ele><time>2026-04-25T07:21:20.989Z</time></trkpt><trkpt lat="44.43756834777312" lon="11.43156740977704"><ele>99.33333333333334</ele><time>2026-04-25T07:21:22.99Z</time></trkpt><trkpt lat="44.43750346785293" lon="11.431557191578511"><ele>98.66666666666667</ele><time>2026-04-25T07:21:23.99Z</time></trkpt><trkpt lat="44.43738696165128" lon="11.431538842537373"><ele>98.0</ele><time>2026-04-25T07:21:25.991Z</time></trkpt><trkpt lat="44.4372843194371" lon="11.431522677004804"><ele>97.33333333333334</ele><time>2026-04-25T07:21:27.991Z</time></trkpt><trkpt lat="44.437197719927376" lon="11.431509038104231"><ele>96.66666666666667</ele><time>2026-04-25T07:21:29.991Z</time></trkpt><trkpt lat="44.43712846556062" lon="11.431498017495041"><ele>96.0</ele><time>2026-04-25T07:21:31.991Z</time></trkpt><trkpt lat="44.437049630035254" lon="11.431494932101195"><ele>95.66666666666667</ele><time>2026-04-25T07:21:33.99Z</time></trkpt><trkpt lat="44.43698080894421" lon="11.431491558502172"><ele>95.33333333333333</ele><time>2026-04-25T07:21:35.99Z</time></trkpt><trkpt lat="44.43691794264496" lon="11.4314619346567"><ele>95.0</ele><time>2026-04-25T07:21:37.99Z</time></trkpt><trkpt lat="44.436848570598904" lon="11.431423365714378"><ele>94.66666666666666</ele><time>2026-04-25T07:21:40.99Z</time></trkpt><trkpt lat="44.43684845299472" lon="11.431278467498313"><ele>94.33333333333333</ele><time>2026-04-25T07:21:41.99Z</time></trkpt><trkpt lat="44.436827944893" lon="11.431187525041587"><ele>94.0</ele><time>2026-04-25T07:21:43.99Z</time></trkpt><trkpt lat="44.43682170171836" lon="11.431070844955581"><ele>94.66666666666666</ele><time>2026-04-25T07:21:46.99Z</time></trkpt><trkpt lat="44.43681937624958" lon="11.430946387338391"><ele>95.33333333333333</ele><time>2026-04-25T07:21:50.99Z</time></trkpt><trkpt lat="44.43681068492857" lon="11.430848930035175"><ele>96.0</ele><time>2026-04-25T07:21:53.99Z</time></trkpt><trkpt lat="44.4368068528656" lon="11.43074565160602"><ele>96.66666666666666</ele><time>2026-04-25T07:21:56.99Z</time></trkpt><trkpt lat="44.436805342292274" lon="11.43061818636865"><ele>97.33333333333333</ele><time>2026-04-25T07:22:00.99Z</time></trkpt><trkpt lat="44.43681527639767" lon="11.43049615300588"><ele>98.0</ele><time>2026-04-25T07:22:04.99Z</time></trkpt><trkpt lat="44.436809332921904" lon="11.43039127693249"><ele>99.42857142857143</ele><time>2026-04-25T07:22:07.989Z</time></trkpt><trkpt lat="44.43680344367719" lon="11.430300754658266"><ele>100.85714285714286</ele><time>2026-04-25T07:22:10.989Z</time></trkpt><trkpt lat="44.436791772026126" lon="11.430193868945565"><ele>102.28571428571428</ele><time>2026-04-25T07:22:14.989Z</time></trkpt><trkpt lat="44.43679027259381" lon="11.430094408041933"><ele>103.71428571428572</ele><time>2026-04-25T07:22:18.989Z</time></trkpt><trkpt lat="44.43679578787914" lon="11.42999346530371"><ele>105.14285714285714</ele><time>2026-04-25T07:22:22.989Z</time></trkpt><trkpt lat="44.43680077181706" lon="11.429896851596496"><ele>106.57142857142857</ele><time>2026-04-25T07:22:26.989Z</time></trkpt><trkpt lat="44.4367952465664" lon="11.429793271206524"><ele>108.0</ele><time>2026-04-25T07:22:30.989Z</time></trkpt><trkpt lat="44.43680423788443" lon="11.429688450734771"><ele>108.71428571428571</ele><time>2026-04-25T07:22:34.989Z</time></trkpt><trkpt lat="44.436806295314824" lon="11.429596469559106"><ele>109.42857142857142</ele><time>2026-04-25T07:22:37.989Z</time></trkpt><trkpt lat="44.43679650841669" lon="11.429494152948012"><ele>110.14285714285714</ele><time>2026-04-25T07:22:41.989Z</time></trkpt><trkpt lat="44.4367949948162" lon="11.429402880963227"><ele>110.85714285714286</ele><time>2026-04-25T07:22:45.989Z</time></trkpt><trkpt lat="44.436790005516535" lon="11.429293348765066"><ele>111.57142857142857</ele><time>2026-04-25T07:22:49.989Z</time></trkpt><trkpt lat="44.4367988545125" lon="11.429180862716013"><ele>112.28571428571429</ele><time>2026-04-25T07:22:53.989Z</time></trkpt><trkpt lat="44.43679976679511" lon="11.429081048649437"><ele>113.0</ele><time>2026-04-25T07:22:57.988Z</time></trkpt><trkpt lat="44.43679230846172" lon="11.428983556257982"><ele>113.0</ele><time>2026-04-25T07:23:01.988Z</time></trkpt><trkpt lat="44.43678509970701" lon="11.428881404206255"><ele>113.0</ele><time>2026-04-25T07:23:05.988Z</time></trkpt><trkpt lat="44.4367793233421" lon="11.428775136190913"><ele>113.0</ele><time>2026-04-25T07:23:09.988Z</time></trkpt><trkpt lat="44.43677423282104" lon="11.428675312174063"><ele>113.0</ele><time>2026-04-25T07:23:13.988Z</time></trkpt><trkpt lat="44.43676263815579" lon="11.42857702810953"><ele>113.0</ele><time>2026-04-25T07:23:17.988Z</time></trkpt><trkpt lat="44.436765425160104" lon="11.42846892106866"><ele>113.0</ele><time>2026-04-25T07:23:21.988Z</time></trkpt><trkpt lat="44.43675281256891" lon="11.428380989431217"><ele>113.0</ele><time>2026-04-25T07:23:25.988Z</time></trkpt><trkpt lat="44.436752275982776" lon="11.428270025473534"><ele>113.33333333333333</ele><time>2026-04-25T07:23:29.99Z</time></trkpt><trkpt lat="44.43674280483953" lon="11.428165216649088"><ele>113.66666666666666</ele><time>2026-04-25T07:23:33.99Z</time></trkpt><trkpt lat="44.4367302489549" lon="11.428065023170356"><ele>114.0</ele><time>2026-04-25T07:23:37.991Z</time></trkpt><trkpt lat="44.43671753678585" lon="11.427954474805409"><ele>114.33333333333334</ele><time>2026-04-25T07:23:42.99Z</time></trkpt><trkpt lat="44.4367117613042" lon="11.427845810913915"><ele>114.66666666666667</ele><time>2026-04-25T07:23:46.99Z</time></trkpt><trkpt lat="44.436694404438285" lon="11.42774868665162"><ele>115.0</ele><time>2026-04-25T07:23:50.99Z</time></trkpt><trkpt lat="44.43669568176277" lon="11.427644839887165"><ele>115.42857142857142</ele><time>2026-04-25T07:23:55.989Z</time></trkpt><trkpt lat="44.43668398659126" lon="11.427557001293847"><ele>115.85714285714286</ele><time>2026-04-25T07:23:59.989Z</time></trkpt><trkpt lat="44.43668341567522" lon="11.42745079419693"><ele>116.28571428571428</ele><time>2026-04-25T07:24:04.989Z</time></trkpt><trkpt lat="44.436667105706576" lon="11.427354875613577"><ele>116.71428571428571</ele><time>2026-04-25T07:24:09.989Z</time></trkpt><trkpt lat="44.43663821713582" lon="11.427255916402547"><ele>117.14285714285714</ele><time>2026-04-25T07:24:14.989Z</time></trkpt><trkpt lat="44.43659874998013" lon="11.427177895163906"><ele>117.57142857142857</ele><time>2026-04-25T07:24:20.989Z</time></trkpt><trkpt lat="44.43656359061515" lon="11.427093119339656"><ele>118.0</ele><time>2026-04-25T07:24:25.989Z</time></trkpt><trkpt lat="44.43652441924528" lon="11.427008590678279"><ele>119.14285714285714</ele><time>2026-04-25T07:24:32.989Z</time></trkpt><trkpt lat="44.43648257425177" lon="11.426919143128192"><ele>120.28571428571429</ele><time>2026-04-25T07:24:37.989Z</time></trkpt><trkpt lat="44.43645998147177" lon="11.426822491514068"><ele>121.42857142857143</ele><time>2026-04-25T07:24:42.989Z</time></trkpt><trkpt lat="44.436412714730224" lon="11.42675208544709"><ele>122.57142857142857</ele><time>2026-04-25T07:24:47.988Z</time></trkpt><trkpt lat="44.436385724115745" lon="11.426663791924753"><ele>123.71428571428572</ele><time>2026-04-25T07:24:52.988Z</time></trkpt><trkpt lat="44.43635879371891" lon="11.426583846179236"><ele>124.85714285714286</ele><time>2026-04-25T07:24:57.988Z</time></trkpt><trkpt lat="44.436324253210365" lon="11.4264944405489"><ele>126.0</ele><time>2026-04-25T07:25:02.988Z</time></trkpt><trkpt lat="44.43627765845314" lon="11.426425711705082"><ele>126.57142857142857</ele><time>2026-04-25T07:25:08.988Z</time></trkpt><trkpt lat="44.436256752716176" lon="11.426341684788836"><ele>127.14285714285714</ele><time>2026-04-25T07:25:13.988Z</time></trkpt><trkpt lat="44.436225836375314" lon="11.426256391498598"><ele>127.71428571428572</ele><time>2026-04-25T07:25:20.988Z</time></trkpt><trkpt lat="44.436194464080344" lon="11.42616894223716"><ele>128.28571428571428</ele><time>2026-04-25T07:25:26.988Z</time></trkpt><trkpt lat="44.43615171481123" lon="11.426104098099552"><ele>128.85714285714286</ele><time>2026-04-25T07:25:31.988Z</time></trkpt><trkpt lat="44.4361147655434" lon="11.42603002934477"><ele>129.42857142857144</ele><time>2026-04-25T07:25:37.99Z</time></trkpt><trkpt lat="44.43605951694509" lon="11.425966676086759"><ele>130.0</ele><time>2026-04-25T07:25:43.99Z</time></trkpt><trkpt lat="44.43600005452233" lon="11.425912925492685"><ele>131.57142857142858</ele><time>2026-04-25T07:25:49.99Z</time></trkpt><trkpt lat="44.43594761708441" lon="11.42585563861683"><ele>133.14285714285714</ele><time>2026-04-25T07:25:55.99Z</time></trkpt><trkpt lat="44.4358911855497" lon="11.425815591596479"><ele>134.71428571428572</ele><time>2026-04-25T07:26:00.99Z</time></trkpt><trkpt lat="44.43583532285695" lon="11.425771573126713"><ele>136.28571428571428</ele><time>2026-04-25T07:26:05.989Z</time></trkpt><trkpt lat="44.435767285183815" lon="11.425726223973978"><ele>137.85714285714286</ele><time>2026-04-25T07:26:11.989Z</time></trkpt><trkpt lat="44.43571082125933" lon="11.425676437303395"><ele>139.42857142857144</ele><time>2026-04-25T07:26:17.989Z</time></trkpt><trkpt lat="44.43565155416284" lon="11.425636125884434"><ele>141.0</ele><time>2026-04-25T07:26:23.989Z</time></trkpt><trkpt lat="44.43559366594953" lon="11.425583711591281"><ele>141.0</ele><time>2026-04-25T07:26:29.989Z</time></trkpt><trkpt lat="44.43553068909916" lon="11.4255577093398"><ele>141.0</ele><time>2026-04-25T07:26:34.989Z</time></trkpt><trkpt lat="44.43547138729087" lon="11.425505507327554"><ele>141.0</ele><time>2026-04-25T07:26:42.989Z</time></trkpt><trkpt lat="44.43545374315242" lon="11.425416872589466"><ele>141.0</ele><time>2026-04-25T07:26:49.989Z</time></trkpt><trkpt lat="44.43539319961376" lon="11.425384317909105"><ele>141.0</ele><time>2026-04-25T07:27:00.988Z</time></trkpt><trkpt lat="44.43532713530007" lon="11.425354347110556"><ele>141.0</ele><time>2026-04-25T07:27:06.988Z</time></trkpt><trkpt lat="44.435256267920856" lon="11.425322011217522"><ele>141.0</ele><time>2026-04-25T07:27:12.988Z</time></trkpt><trkpt lat="44.4351928335043" lon="11.425300557705102"><ele>143.85714285714286</ele><time>2026-04-25T07:27:17.988Z</time></trkpt><trkpt lat="44.43513155086678" lon="11.425267875111553"><ele>146.71428571428572</ele><time>2026-04-25T07:27:24.988Z</time></trkpt><trkpt lat="44.43506246336559" lon="11.42523685770263"><ele>149.57142857142856</ele><time>2026-04-25T07:27:32.988Z</time></trkpt><trkpt lat="44.43500318074122" lon="11.425192060002713"><ele>152.42857142857144</ele><time>2026-04-25T07:27:37.988Z</time></trkpt><trkpt lat="44.43494135057312" lon="11.425165117750439"><ele>155.28571428571428</ele><time>2026-04-25T07:27:42.989Z</time></trkpt><trkpt lat="44.43486667715166" lon="11.425162988474483"><ele>158.14285714285714</ele><time>2026-04-25T07:27:49.99Z</time></trkpt><trkpt lat="44.43478992520862" lon="11.425125183243942"><ele>161.0</ele><time>2026-04-25T07:27:58.989Z</time></trkpt><trkpt lat="44.43472629865012" lon="11.425104595763544"><ele>161.0</ele><time>2026-04-25T07:28:04.989Z</time></trkpt><trkpt lat="44.4346621210595" lon="11.425080017227208"><ele>161.0</ele><time>2026-04-25T07:28:10.989Z</time></trkpt><trkpt lat="44.43460218178457" lon="11.425034821047586"><ele>161.0</ele><time>2026-04-25T07:28:17.989Z</time></trkpt><trkpt lat="44.434541903609556" lon="11.424989223908824"><ele>161.0</ele><time>2026-04-25T07:28:23.989Z</time></trkpt><trkpt lat="44.43447926957333" lon="11.424940619345605"><ele>161.0</ele><time>2026-04-25T07:28:30.989Z</time></trkpt><trkpt lat="44.43441957650488" lon="11.424890310947244"><ele>161.0</ele><time>2026-04-25T07:28:35.989Z</time></trkpt><trkpt lat="44.434367243489085" lon="11.424826908654104"><ele>161.0</ele><time>2026-04-25T07:28:41.988Z</time></trkpt><trkpt lat="44.43430700989706" lon="11.424773702435104"><ele>162.28571428571428</ele><time>2026-04-25T07:28:48.988Z</time></trkpt><trkpt lat="44.43425239306508" lon="11.42471852003574"><ele>163.57142857142856</ele><time>2026-04-25T07:28:54.988Z</time></trkpt><trkpt lat="44.43418902627563" lon="11.424685341317161"><ele>164.85714285714286</ele><time>2026-04-25T07:29:01.988Z</time></trkpt><trkpt lat="44.43413996043855" lon="11.424626071966415"><ele>166.14285714285714</ele><time>2026-04-25T07:29:08.988Z</time></trkpt><trkpt lat="44.43409123114548" lon="11.424562302527772"><ele>167.42857142857142</ele><time>2026-04-25T07:30:07.989Z</time></trkpt><trkpt lat="44.43404256171286" lon="11.424505592710734"><ele>168.71428571428572</ele><time>2026-04-25T07:30:13.989Z</time></trkpt><trkpt lat="44.43399534242785" lon="11.424432828784383"><ele>170.0</ele><time>2026-04-25T07:30:19.989Z</time></trkpt><trkpt lat="44.433946386086355" lon="11.424372839133106"><ele>170.2857142857143</ele><time>2026-04-25T07:30:24.988Z</time></trkpt><trkpt lat="44.4338822302825" lon="11.424320196939147"><ele>170.57142857142856</ele><time>2026-04-25T07:30:29.988Z</time></trkpt><trkpt lat="44.43381108342455" lon="11.424280040197457"><ele>170.85714285714286</ele><time>2026-04-25T07:30:34.988Z</time></trkpt><trkpt lat="44.43374350621565" lon="11.424238100986853"><ele>171.14285714285717</ele><time>2026-04-25T07:30:40.988Z</time></trkpt><trkpt lat="44.43368226647726" lon="11.424198856797247"><ele>171.42857142857144</ele><time>2026-04-25T07:30:45.988Z</time></trkpt><trkpt lat="44.4336109133219" lon="11.42417733090872"><ele>171.71428571428572</ele><time>2026-04-25T07:30:51.988Z</time></trkpt><trkpt lat="44.433545996248256" lon="11.424144219169834"><ele>172.0</ele><time>2026-04-25T07:30:56.988Z</time></trkpt><trkpt lat="44.433472616270066" lon="11.424122695168396"><ele>173.71428571428572</ele><time>2026-04-25T07:31:01.988Z</time></trkpt><trkpt lat="44.433413854757895" lon="11.424089916341604"><ele>175.42857142857144</ele><time>2026-04-25T07:31:05.988Z</time></trkpt><trkpt lat="44.43335082714775" lon="11.424078470001165"><ele>177.14285714285717</ele><time>2026-04-25T07:31:10.988Z</time></trkpt><trkpt lat="44.43328494732555" lon="11.424068937081886"><ele>178.85714285714286</ele><time>2026-04-25T07:31:15.987Z</time></trkpt><trkpt lat="44.43322038947145" lon="11.424058945876862"><ele>180.57142857142856</ele><time>2026-04-25T07:31:19.987Z</time></trkpt><trkpt lat="44.433152855254775" lon="11.424048649103383"><ele>182.2857142857143</ele><time>2026-04-25T07:31:24.987Z</time></trkpt><trkpt lat="44.433083311439404" lon="11.424047776959021"><ele>184.0</ele><time>2026-04-25T07:31:29.987Z</time></trkpt><trkpt lat="44.43301217240741" lon="11.424023244576883"><ele>186.42857142857144</ele><time>2026-04-25T07:31:35.987Z</time></trkpt><trkpt lat="44.4329337014639" lon="11.423998851340297"><ele>188.85714285714283</ele><time>2026-04-25T07:31:41.987Z</time></trkpt><trkpt lat="44.43287000830998" lon="11.424013348561276"><ele>191.28571428571428</ele><time>2026-04-25T07:31:45.987Z</time></trkpt><trkpt lat="44.432804280747" lon="11.424031701794444"><ele>193.71428571428572</ele><time>2026-04-25T07:31:50.987Z</time></trkpt><trkpt lat="44.43273971484293" lon="11.424080678595352"><ele>196.14285714285717</ele><time>2026-04-25T07:31:56.989Z</time></trkpt><trkpt lat="44.43267465982428" lon="11.424076862846746"><ele>198.57142857142856</ele><time>2026-04-25T07:32:00.989Z</time></trkpt><trkpt lat="44.43260989894713" lon="11.424061604656586"><ele>201.0</ele><time>2026-04-25T07:32:05.989Z</time></trkpt><trkpt lat="44.43253712678195" lon="11.42405906513985"><ele>201.0</ele><time>2026-04-25T07:32:10.989Z</time></trkpt><trkpt lat="44.432463005445115" lon="11.4240529588855"><ele>201.0</ele><time>2026-04-25T07:32:16.988Z</time></trkpt><trkpt lat="44.43239709453852" lon="11.424041439324021"><ele>201.0</ele><time>2026-04-25T07:32:21.988Z</time></trkpt><trkpt lat="44.432331551698" lon="11.424033279171447"><ele>201.0</ele><time>2026-04-25T07:32:26.988Z</time></trkpt><trkpt lat="44.432257474464905" lon="11.424004995235933"><ele>201.0</ele><time>2026-04-25T07:32:35.988Z</time></trkpt><trkpt lat="44.432185324606984" lon="11.423975448883771"><ele>201.0</ele><time>2026-04-25T07:32:41.988Z</time></trkpt><trkpt lat="44.432121310407936" lon="11.423952536089637"><ele>201.0</ele><time>2026-04-25T07:32:57.988Z</time></trkpt><trkpt lat="44.432066516520386" lon="11.423904491878014"><ele>202.14285714285714</ele><time>2026-04-25T07:33:04.987Z</time></trkpt><trkpt lat="44.43201294807081" lon="11.423853744178492"><ele>203.2857142857143</ele><time>2026-04-25T07:33:12.987Z</time></trkpt><trkpt lat="44.43196116536144" lon="11.423783158503978"><ele>204.42857142857144</ele><time>2026-04-25T07:33:18.987Z</time></trkpt><trkpt lat="44.43190948795696" lon="11.423727951372422"><ele>205.57142857142856</ele><time>2026-04-25T07:33:25.987Z</time></trkpt><trkpt lat="44.43185317526282" lon="11.423678877654835"><ele>206.71428571428572</ele><time>2026-04-25T07:33:35.987Z</time></trkpt><trkpt lat="44.43179529111238" lon="11.42362466399886"><ele>207.85714285714286</ele><time>2026-04-25T07:33:43.987Z</time></trkpt><trkpt lat="44.43173905771264" lon="11.423579757849327"><ele>209.0</ele><time>2026-04-25T07:33:52.987Z</time></trkpt><trkpt lat="44.43167765272565" lon="11.42353422942899"><ele>208.85714285714286</ele><time>2026-04-25T07:33:59.988Z</time></trkpt><trkpt lat="44.43160523206626" lon="11.423482311118619"><ele>208.71428571428572</ele><time>2026-04-25T07:34:07.988Z</time></trkpt><trkpt lat="44.43154465908592" lon="11.423448667119379"><ele>208.57142857142856</ele><time>2026-04-25T07:34:14.988Z</time></trkpt><trkpt lat="44.43149021011755" lon="11.423392929014428"><ele>208.42857142857144</ele><time>2026-04-25T07:34:21.988Z</time></trkpt><trkpt lat="44.43143327021679" lon="11.423347905547564"><ele>208.2857142857143</ele><time>2026-04-25T07:34:32.988Z</time></trkpt><trkpt lat="44.43138336632007" lon="11.423265787150427"><ele>208.14285714285714</ele><time>2026-04-25T07:36:47.988Z</time></trkpt><trkpt lat="44.431339816906224" lon="11.423170160046089"><ele>208.0</ele><time>2026-04-25T07:36:51.988Z</time></trkpt><trkpt lat="44.431293906400875" lon="11.423087354994932"><ele>208.0</ele><time>2026-04-25T07:36:55.988Z</time></trkpt><trkpt lat="44.43124795642059" lon="11.423008001279863"><ele>208.0</ele><time>2026-04-25T07:36:59.987Z</time></trkpt><trkpt lat="44.43120425274116" lon="11.422931611248657"><ele>208.0</ele><time>2026-04-25T07:37:03.987Z</time></trkpt><trkpt lat="44.431153284114146" lon="11.422855804495203"><ele>208.0</ele><time>2026-04-25T07:37:07.987Z</time></trkpt><trkpt lat="44.431104712972704" lon="11.422785652512957"><ele>208.0</ele><time>2026-04-25T07:37:10.987Z</time></trkpt><trkpt lat="44.43106150163638" lon="11.422700257699457"><ele>208.0</ele><time>2026-04-25T07:37:14.987Z</time></trkpt><trkpt lat="44.43101485831365" lon="11.42262719003394"><ele>208.0</ele><time>2026-04-25T07:37:18.987Z</time></trkpt><trkpt lat="44.43096894875719" lon="11.422541656534879"><ele>208.83333333333331</ele><time>2026-04-25T07:37:22.987Z</time></trkpt><trkpt lat="44.43093302993871" lon="11.422465745999961"><ele>209.66666666666666</ele><time>2026-04-25T07:37:25.987Z</time></trkpt><trkpt lat="44.430884869215404" lon="11.42236991905084"><ele>210.5</ele><time>2026-04-25T07:37:29.987Z</time></trkpt><trkpt lat="44.4308478379145" lon="11.422258542703007"><ele>211.33333333333331</ele><time>2026-04-25T07:37:33.987Z</time></trkpt><trkpt lat="44.43080592353437" lon="11.4221708753022"><ele>212.16666666666666</ele><time>2026-04-25T07:37:36.987Z</time></trkpt><trkpt lat="44.43077655276633" lon="11.422079573040078"><ele>213.0</ele><time>2026-04-25T07:37:39.987Z</time></trkpt><trkpt lat="44.43075176337095" lon="11.421980271751076"><ele>213.57142857142856</ele><time>2026-04-25T07:37:42.987Z</time></trkpt><trkpt lat="44.43074449940523" lon="11.421876899374734"><ele>214.14285714285714</ele><time>2026-04-25T07:37:45.987Z</time></trkpt><trkpt lat="44.43074202004722" lon="11.421781097897043"><ele>214.71428571428572</ele><time>2026-04-25T07:37:48.987Z</time></trkpt><trkpt lat="44.430735798239965" lon="11.421690386851498"><ele>215.28571428571428</ele><time>2026-04-25T07:37:51.987Z</time></trkpt><trkpt lat="44.43074340812862" lon="11.421583318502941"><ele>215.85714285714286</ele><time>2026-04-25T07:37:54.986Z</time></trkpt><trkpt lat="44.430746263514415" lon="11.421473276025015"><ele>216.42857142857142</ele><time>2026-04-25T07:37:58.986Z</time></trkpt><trkpt lat="44.43073694326531" lon="11.42137542621008"><ele>217.0</ele><time>2026-04-25T07:38:01.986Z</time></trkpt><trkpt lat="44.4307375775192" lon="11.42127365321359"><ele>217.85714285714286</ele><time>2026-04-25T07:38:04.986Z</time></trkpt><trkpt lat="44.43073530362616" lon="11.42117371522359"><ele>218.71428571428572</ele><time>2026-04-25T07:38:07.986Z</time></trkpt><trkpt lat="44.43073478910351" lon="11.421055239525819"><ele>219.57142857142856</ele><time>2026-04-25T07:38:11.988Z</time></trkpt><trkpt lat="44.43074404844543" lon="11.420961327789083"><ele>220.42857142857144</ele><time>2026-04-25T07:38:14.988Z</time></trkpt><trkpt lat="44.43077300955632" lon="11.420870894049136"><ele>221.28571428571428</ele><time>2026-04-25T07:38:17.987Z</time></trkpt><trkpt lat="44.43081088340802" lon="11.420786814608574"><ele>222.14285714285714</ele><time>2026-04-25T07:38:20.987Z</time></trkpt><trkpt lat="44.430852794217365" lon="11.420697219355542"><ele>223.0</ele><time>2026-04-25T07:38:23.988Z</time></trkpt><trkpt lat="44.43089359067912" lon="11.420615677521248"><ele>223.0</ele><time>2026-04-25T07:38:26.988Z</time></trkpt><trkpt lat="44.430934777937026" lon="11.420520267661589"><ele>223.0</ele><time>2026-04-25T07:38:30.988Z</time></trkpt><trkpt lat="44.430975777418304" lon="11.420423421083797"><ele>223.0</ele><time>2026-04-25T07:38:34.987Z</time></trkpt><trkpt lat="44.4310226843235" lon="11.420334004376274"><ele>223.0</ele><time>2026-04-25T07:38:38.987Z</time></trkpt><trkpt lat="44.4310519709775" lon="11.420250806648868"><ele>223.0</ele><time>2026-04-25T07:38:42.987Z</time></trkpt><trkpt lat="44.431096442951" lon="11.420172149442017"><ele>223.0</ele><time>2026-04-25T07:38:46.987Z</time></trkpt><trkpt lat="44.43113308523717" lon="11.420098256102106"><ele>223.0</ele><time>2026-04-25T07:38:50.987Z</time></trkpt><trkpt lat="44.43113793102962" lon="11.419992583945872"><ele>223.57142857142856</ele><time>2026-04-25T07:38:55.987Z</time></trkpt><trkpt lat="44.43111654779765" lon="11.419908339268067"><ele>224.14285714285714</ele><time>2026-04-25T07:38:58.987Z</time></trkpt><trkpt lat="44.43107262113174" lon="11.419832684314217"><ele>224.71428571428572</ele><time>2026-04-25T07:39:02.987Z</time></trkpt><trkpt lat="44.43102125801977" lon="11.419761361557072"><ele>225.28571428571428</ele><time>2026-04-25T07:39:06.987Z</time></trkpt><trkpt lat="44.430976061887876" lon="11.419684673482664"><ele>225.8571428571429</ele><time>2026-04-25T07:39:09.987Z</time></trkpt><trkpt lat="44.430926020448275" lon="11.41961844535097"><ele>226.42857142857144</ele><time>2026-04-25T07:39:12.987Z</time></trkpt><trkpt lat="44.430876659870634" lon="11.419528436689491"><ele>227.0</ele><time>2026-04-25T07:39:15.987Z</time></trkpt><trkpt lat="44.430827457843144" lon="11.419465863840578"><ele>227.00000000000003</ele><time>2026-04-25T07:39:23.987Z</time></trkpt><trkpt lat="44.43081552675299" lon="11.419372185290367"><ele>227.0</ele><time>2026-04-25T07:39:28.986Z</time></trkpt><trkpt lat="44.430808960898986" lon="11.419277589409653"><ele>227.0</ele><time>2026-04-25T07:39:30.986Z</time></trkpt><trkpt lat="44.43080248419231" lon="11.419139136415776"><ele>227.0</ele><time>2026-04-25T07:39:32.986Z</time></trkpt><trkpt lat="44.43078305467568" lon="11.418971974825222"><ele>227.00000000000003</ele><time>2026-04-25T07:39:34.986Z</time></trkpt><trkpt lat="44.43077431585349" lon="11.418880738766676"><ele>227.0</ele><time>2026-04-25T07:39:35.986Z</time></trkpt><trkpt lat="44.430794416313816" lon="11.418772743501467"><ele>225.66666666666669</ele><time>2026-04-25T07:39:36.986Z</time></trkpt><trkpt lat="44.43077714753556" lon="11.418666164470359"><ele>224.33333333333334</ele><time>2026-04-25T07:39:37.986Z</time></trkpt><trkpt lat="44.43076004052006" lon="11.418560431925563"><ele>223.0</ele><time>2026-04-25T07:39:38.986Z</time></trkpt><trkpt lat="44.430742885351066" lon="11.418453999786385"><ele>221.66666666666669</ele><time>2026-04-25T07:39:39.986Z</time></trkpt><trkpt lat="44.430725740716575" lon="11.418347633140783"><ele>220.33333333333334</ele><time>2026-04-25T07:39:40.986Z</time></trkpt><trkpt lat="44.430714999621635" lon="11.418253410076762"><ele>219.0</ele><time>2026-04-25T07:39:41.986Z</time></trkpt><trkpt lat="44.43071534797183" lon="11.418150571792355"><ele>219.0</ele><time>2026-04-25T07:39:42.986Z</time></trkpt><trkpt lat="44.43073278195792" lon="11.418058244777813"><ele>219.0</ele><time>2026-04-25T07:39:43.986Z</time></trkpt><trkpt lat="44.430785085319215" lon="11.417882045258384"><ele>219.0</ele><time>2026-04-25T07:39:45.986Z</time></trkpt><trkpt lat="44.430815150794565" lon="11.417781958980393"><ele>219.0</ele><time>2026-04-25T07:39:46.986Z</time></trkpt><trkpt lat="44.4308418993965" lon="11.417692336461743"><ele>219.0</ele><time>2026-04-25T07:39:47.986Z</time></trkpt><trkpt lat="44.43086756661602" lon="11.417606717973072"><ele>219.0</ele><time>2026-04-25T07:39:48.986Z</time></trkpt><trkpt lat="44.43091671436689" lon="11.417442774744234"><ele>219.0</ele><time>2026-04-25T07:39:50.986Z</time></trkpt><trkpt lat="44.4309602968227" lon="11.41731063307051"><ele>219.0</ele><time>2026-04-25T07:39:52.986Z</time></trkpt><trkpt lat="44.431003101589" lon="11.417193511130394"><ele>219.0</ele><time>2026-04-25T07:39:54.986Z</time></trkpt><trkpt lat="44.43103192418373" lon="11.417070857251963"><ele>219.0</ele><time>2026-04-25T07:39:56.986Z</time></trkpt><trkpt lat="44.43108769322416" lon="11.41700271484287"><ele>219.0</ele><time>2026-04-25T07:39:58.986Z</time></trkpt><trkpt lat="44.43113578182787" lon="11.416941924978524"><ele>219.0</ele><time>2026-04-25T07:40:00.986Z</time></trkpt><trkpt lat="44.43112451584692" lon="11.416816573250623"><ele>219.0</ele><time>2026-04-25T07:40:03.986Z</time></trkpt><trkpt lat="44.431095793624756" lon="11.416715087226654"><ele>219.0</ele><time>2026-04-25T07:40:07.986Z</time></trkpt><trkpt lat="44.43106327608835" lon="11.41663278943775"><ele>219.0</ele><time>2026-04-25T07:40:10.986Z</time></trkpt><trkpt lat="44.431035780279345" lon="11.416532985038176"><ele>219.0</ele><time>2026-04-25T07:40:14.986Z</time></trkpt><trkpt lat="44.43101149051963" lon="11.416436934200526"><ele>219.0</ele><time>2026-04-25T07:40:18.988Z</time></trkpt><trkpt lat="44.43098689415162" lon="11.416351270191162"><ele>219.0</ele><time>2026-04-25T07:40:21.988Z</time></trkpt><trkpt lat="44.43095815758382" lon="11.416261489182032"><ele>219.0</ele><time>2026-04-25T07:40:25.987Z</time></trkpt><trkpt lat="44.43092546921682" lon="11.416170057326392"><ele>219.85714285714286</ele><time>2026-04-25T07:40:31.988Z</time></trkpt><trkpt lat="44.430901453187204" lon="11.416084607148413"><ele>220.71428571428572</ele><time>2026-04-25T07:40:35.988Z</time></trkpt><trkpt lat="44.43089015325771" lon="11.415989226455258"><ele>221.57142857142858</ele><time>2026-04-25T07:40:39.987Z</time></trkpt><trkpt lat="44.43086538206585" lon="11.415892109952203"><ele>222.42857142857144</ele><time>2026-04-25T07:40:44.987Z</time></trkpt><trkpt lat="44.43083572487542" lon="11.415807221850546"><ele>223.28571428571428</ele><time>2026-04-25T07:40:50.987Z</time></trkpt><trkpt lat="44.43083351137301" lon="11.415710669469394"><ele>224.14285714285717</ele><time>2026-04-25T07:40:54.987Z</time></trkpt><trkpt lat="44.430808085154375" lon="11.415608948583149"><ele>225.00000000000003</ele><time>2026-04-25T07:40:59.987Z</time></trkpt><trkpt lat="44.43078425937882" lon="11.415509653331974"><ele>225.0</ele><time>2026-04-25T07:41:04.987Z</time></trkpt><trkpt lat="44.43073551072544" lon="11.415430578785674"><ele>225.0</ele><time>2026-04-25T07:41:07.987Z</time></trkpt><trkpt lat="44.430659076122474" lon="11.415345391277167"><ele>225.0</ele><time>2026-04-25T07:41:09.987Z</time></trkpt><trkpt lat="44.43057435151792" lon="11.415262570211038"><ele>225.0</ele><time>2026-04-25T07:41:11.987Z</time></trkpt><trkpt lat="44.430518487389975" lon="11.415221925895828"><ele>225.0</ele><time>2026-04-25T07:41:12.987Z</time></trkpt><trkpt lat="44.430446677907305" lon="11.415197561579468"><ele>225.0</ele><time>2026-04-25T07:41:13.987Z</time></trkpt><trkpt lat="44.43041003321996" lon="11.41507700797755"><ele>225.4</ele><time>2026-04-25T07:41:14.987Z</time></trkpt><trkpt lat="44.430291628156205" lon="11.415001974324765"><ele>225.8</ele><time>2026-04-25T07:41:16.987Z</time></trkpt><trkpt lat="44.430183083977326" lon="11.41496659693064"><ele>226.2</ele><time>2026-04-25T07:41:18.987Z</time></trkpt><trkpt lat="44.430094978759335" lon="11.414923292244445"><ele>226.6</ele><time>2026-04-25T07:41:20.987Z</time></trkpt><trkpt lat="44.43000836575713" lon="11.414911381225126"><ele>227.0</ele><time>2026-04-25T07:41:22.987Z</time></trkpt><trkpt lat="44.42993481051584" lon="11.41491107360741"><ele>227.00000000000003</ele><time>2026-04-25T07:41:24.987Z</time></trkpt><trkpt lat="44.429854361601535" lon="11.414915834728259"><ele>227.0</ele><time>2026-04-25T07:41:26.987Z</time></trkpt><trkpt lat="44.42977554178878" lon="11.414929870879192"><ele>227.0</ele><time>2026-04-25T07:41:28.987Z</time></trkpt><trkpt lat="44.42969430295162" lon="11.41492700832338"><ele>227.0</ele><time>2026-04-25T07:41:30.986Z</time></trkpt><trkpt lat="44.42960301750673" lon="11.4149312095679"><ele>227.00000000000003</ele><time>2026-04-25T07:41:32.986Z</time></trkpt><trkpt lat="44.4295164199142" lon="11.414911017038063"><ele>227.0</ele><time>2026-04-25T07:41:34.986Z</time></trkpt><trkpt lat="44.42942205298021" lon="11.414926362183033"><ele>226.8</ele><time>2026-04-25T07:41:36.986Z</time></trkpt><trkpt lat="44.42935630010688" lon="11.414908804499484"><ele>226.6</ele><time>2026-04-25T07:41:37.986Z</time></trkpt><trkpt lat="44.42929106766103" lon="11.414891209034398"><ele>226.40000000000003</ele><time>2026-04-25T07:41:38.986Z</time></trkpt><trkpt lat="44.42919092658571" lon="11.414789091328245"><ele>226.20000000000002</ele><time>2026-04-25T07:41:40.986Z</time></trkpt><trkpt lat="44.429123450268854" lon="11.414683547076374"><ele>226.0</ele><time>2026-04-25T07:41:42.986Z</time></trkpt><trkpt lat="44.429058772841586" lon="11.41454681342751"><ele>225.99999999999997</ele><time>2026-04-25T07:41:44.986Z</time></trkpt><trkpt lat="44.429009187568035" lon="11.414423800372095"><ele>226.0</ele><time>2026-04-25T07:41:46.986Z</time></trkpt><trkpt lat="44.428965881459106" lon="11.414317223933713"><ele>226.0</ele><time>2026-04-25T07:41:48.986Z</time></trkpt><trkpt lat="44.428942300960564" lon="11.41422452201853"><ele>226.0</ele><time>2026-04-25T07:41:50.986Z</time></trkpt><trkpt lat="44.428919540491435" lon="11.414129801733328"><ele>225.99999999999997</ele><time>2026-04-25T07:41:54.986Z</time></trkpt><trkpt lat="44.428868773877596" lon="11.414051724382528"><ele>226.0</ele><time>2026-04-25T07:42:09.986Z</time></trkpt><trkpt lat="44.42885990099885" lon="11.413948490443536"><ele>226.0</ele><time>2026-04-25T07:42:15.986Z</time></trkpt><trkpt lat="44.42882137509723" lon="11.41387595834367"><ele>226.0</ele><time>2026-04-25T07:42:19.986Z</time></trkpt><trkpt lat="44.42876765056313" lon="11.41381659150303"><ele>226.0</ele><time>2026-04-25T07:42:24.987Z</time></trkpt><trkpt lat="44.42869400201364" lon="11.41376328407599"><ele>226.0</ele><time>2026-04-25T07:42:30.987Z</time></trkpt><trkpt lat="44.428627439894406" lon="11.4137452394427"><ele>226.0</ele><time>2026-04-25T07:42:34.987Z</time></trkpt><trkpt lat="44.42854551943919" lon="11.413732901254026"><ele>226.0</ele><time>2026-04-25T07:42:39.987Z</time></trkpt><trkpt lat="44.4284776526557" lon="11.41373705906796"><ele>226.0</ele><time>2026-04-25T07:42:44.987Z</time></trkpt><trkpt lat="44.42841307651018" lon="11.413703919198925"><ele>227.42857142857144</ele><time>2026-04-25T07:42:50.987Z</time></trkpt><trkpt lat="44.42835459723184" lon="11.413639014711864"><ele>228.85714285714283</ele><time>2026-04-25T07:42:55.986Z</time></trkpt><trkpt lat="44.42832820464385" lon="11.413555276686893"><ele>230.28571428571428</ele><time>2026-04-25T07:43:01.986Z</time></trkpt><trkpt lat="44.42830637286175" lon="11.413472484021579"><ele>231.71428571428572</ele><time>2026-04-25T07:43:05.986Z</time></trkpt><trkpt lat="44.428274887191606" lon="11.413372007606812"><ele>233.14285714285717</ele><time>2026-04-25T07:43:10.986Z</time></trkpt><trkpt lat="44.42827409794885" lon="11.413281393418703"><ele>234.57142857142856</ele><time>2026-04-25T07:43:13.986Z</time></trkpt><trkpt lat="44.42826014127388" lon="11.413193789357463"><ele>236.0</ele><time>2026-04-25T07:43:17.986Z</time></trkpt><trkpt lat="44.4282519596953" lon="11.413096610281876"><ele>236.0</ele><time>2026-04-25T07:43:21.986Z</time></trkpt><trkpt lat="44.42824506699718" lon="11.412995469495096"><ele>236.0</ele><time>2026-04-25T07:43:25.986Z</time></trkpt><trkpt lat="44.42822899796879" lon="11.412891300602714"><ele>236.0</ele><time>2026-04-25T07:43:30.986Z</time></trkpt><trkpt lat="44.42822068039573" lon="11.41280321992919"><ele>236.0</ele><time>2026-04-25T07:43:34.986Z</time></trkpt><trkpt lat="44.428201124811274" lon="11.412711017760223"><ele>236.0</ele><time>2026-04-25T07:43:38.986Z</time></trkpt><trkpt lat="44.428176406681295" lon="11.412622404444416"><ele>236.0</ele><time>2026-04-25T07:43:42.986Z</time></trkpt><trkpt lat="44.42815927250424" lon="11.412536716812859"><ele>236.0</ele><time>2026-04-25T07:43:46.985Z</time></trkpt><trkpt lat="44.428129268644" lon="11.412457849888497"><ele>235.66666666666669</ele><time>2026-04-25T07:43:50.985Z</time></trkpt><trkpt lat="44.428086756292046" lon="11.412355610351847"><ele>235.33333333333334</ele><time>2026-04-25T07:43:54.985Z</time></trkpt><trkpt lat="44.428024852896336" lon="11.412260861533962"><ele>235.0</ele><time>2026-04-25T07:43:57.985Z</time></trkpt><trkpt lat="44.42798842753547" lon="11.41218522704147"><ele>234.66666666666669</ele><time>2026-04-25T07:43:59.985Z</time></trkpt><trkpt lat="44.4279446826686" lon="11.412115862445336"><ele>234.33333333333334</ele><time>2026-04-25T07:44:01.985Z</time></trkpt><trkpt lat="44.4279022734016" lon="11.412015574086238"><ele>234.0</ele><time>2026-04-25T07:44:04.985Z</time></trkpt><trkpt lat="44.427849116674636" lon="11.41192668341503"><ele>236.33333333333334</ele><time>2026-04-25T07:44:07.985Z</time></trkpt><trkpt lat="44.42778253818257" lon="11.411845007879982"><ele>238.66666666666669</ele><time>2026-04-25T07:44:10.985Z</time></trkpt><trkpt lat="44.42772537954014" lon="11.41180230434109"><ele>241.0</ele><time>2026-04-25T07:44:12.985Z</time></trkpt><trkpt lat="44.42764406181232" lon="11.411729584741614"><ele>243.33333333333334</ele><time>2026-04-25T07:44:16.985Z</time></trkpt><trkpt lat="44.42756540807582" lon="11.41167773633333"><ele>245.66666666666669</ele><time>2026-04-25T07:44:19.985Z</time></trkpt><trkpt lat="44.427498226654" lon="11.411597997237322"><ele>248.0</ele><time>2026-04-25T07:44:22.985Z</time></trkpt><trkpt lat="44.4274548965228" lon="11.411533269762767"><ele>248.00000000000003</ele><time>2026-04-25T07:44:24.985Z</time></trkpt><trkpt lat="44.42741219104715" lon="11.411425582462538"><ele>248.0</ele><time>2026-04-25T07:44:27.987Z</time></trkpt><trkpt lat="44.42738093770665" lon="11.411346616138003"><ele>248.0</ele><time>2026-04-25T07:44:29.987Z</time></trkpt><trkpt lat="44.42734713757014" lon="11.41123803266728"><ele>248.0</ele><time>2026-04-25T07:44:32.987Z</time></trkpt><trkpt lat="44.4273152045306" lon="11.411131945800602"><ele>248.00000000000003</ele><time>2026-04-25T07:44:35.987Z</time></trkpt><trkpt lat="44.42728127154827" lon="11.411045312144834"><ele>248.0</ele><time>2026-04-25T07:44:39.986Z</time></trkpt><trkpt lat="44.42723006780544" lon="11.410977485768626"><ele>249.0</ele><time>2026-04-25T07:44:44.986Z</time></trkpt><trkpt lat="44.42715833016851" lon="11.410978001794502"><ele>250.00000000000003</ele><time>2026-04-25T07:44:50.986Z</time></trkpt><trkpt lat="44.42709685877322" lon="11.411019835598136"><ele>251.0</ele><time>2026-04-25T07:44:55.986Z</time></trkpt><trkpt lat="44.427020681193056" lon="11.41103778754641"><ele>252.0</ele><time>2026-04-25T07:45:00.986Z</time></trkpt><trkpt lat="44.42694301133013" lon="11.411048160534255"><ele>253.00000000000003</ele><time>2026-04-25T07:45:06.986Z</time></trkpt><trkpt lat="44.42687732106649" lon="11.41101694318353"><ele>254.0</ele><time>2026-04-25T07:45:10.986Z</time></trkpt><trkpt lat="44.4268010996836" lon="11.410987329849934"><ele>255.0</ele><time>2026-04-25T07:45:15.986Z</time></trkpt><trkpt lat="44.4267412962429" lon="11.410935722804036"><ele>255.0</ele><time>2026-04-25T07:45:19.986Z</time></trkpt><trkpt lat="44.426689670729296" lon="11.410868973074864"><ele>255.0</ele><time>2026-04-25T07:45:23.986Z</time></trkpt><trkpt lat="44.42665315617438" lon="11.410775007676875"><ele>255.0</ele><time>2026-04-25T07:45:27.986Z</time></trkpt><trkpt lat="44.426629024773604" lon="11.410678297691916"><ele>255.0</ele><time>2026-04-25T07:45:32.986Z</time></trkpt><trkpt lat="44.42661063345945" lon="11.410590444830456"><ele>255.0</ele><time>2026-04-25T07:45:36.985Z</time></trkpt><trkpt lat="44.42654769969696" lon="11.41052828440966"><ele>255.0</ele><time>2026-04-25T07:45:41.985Z</time></trkpt><trkpt lat="44.426473046745045" lon="11.410445548228138"><ele>254.2</ele><time>2026-04-25T07:45:44.985Z</time></trkpt><trkpt lat="44.42639741729713" lon="11.410376978691477"><ele>253.4</ele><time>2026-04-25T07:45:47.985Z</time></trkpt><trkpt lat="44.426549041516274" lon="11.410330154655089"><ele>252.60000000000002</ele><time>2026-04-25T07:47:05.986Z</time></trkpt><trkpt lat="44.42662819707644" lon="11.410285039512816"><ele>251.8</ele><time>2026-04-25T07:47:15.985Z</time></trkpt><trkpt lat="44.42669337864258" lon="11.410223142544357"><ele>251.0</ele><time>2026-04-25T07:47:22.985Z</time></trkpt><trkpt lat="44.426738665604375" lon="11.410151277090232"><ele>251.00000000000003</ele><time>2026-04-25T07:47:26.985Z</time></trkpt><trkpt lat="44.42678521689338" lon="11.410063723801262"><ele>251.0</ele><time>2026-04-25T07:47:32.985Z</time></trkpt><trkpt lat="44.42686697739811" lon="11.410054226267844"><ele>251.0</ele><time>2026-04-25T07:47:35.985Z</time></trkpt><trkpt lat="44.42693245060243" lon="11.41000940029876"><ele>251.0</ele><time>2026-04-25T07:47:37.985Z</time></trkpt><trkpt lat="44.4269912396478" lon="11.409946515579167"><ele>251.00000000000003</ele><time>2026-04-25T07:47:40.985Z</time></trkpt><trkpt lat="44.42708109384433" lon="11.409915489341703"><ele>251.0</ele><time>2026-04-25T07:47:43.985Z</time></trkpt><trkpt lat="44.427136866798676" lon="11.409855246508897"><ele>248.60000000000002</ele><time>2026-04-25T07:47:45.985Z</time></trkpt><trkpt lat="44.427290500863265" lon="11.409716218605531"><ele>246.20000000000002</ele><time>2026-04-25T07:47:56.985Z</time></trkpt><trkpt lat="44.427361536758845" lon="11.409650027929574"><ele>243.79999999999998</ele><time>2026-04-25T07:48:00.985Z</time></trkpt><trkpt lat="44.42743009951778" lon="11.409577721157847"><ele>241.39999999999998</ele><time>2026-04-25T07:48:04.985Z</time></trkpt><trkpt lat="44.42748916346938" lon="11.409536750493643"><ele>239.0</ele><time>2026-04-25T07:48:07.984Z</time></trkpt><trkpt lat="44.42755740359237" lon="11.4094903622744"><ele>239.00000000000003</ele><time>2026-04-25T07:48:11.984Z</time></trkpt><trkpt lat="44.42761173625347" lon="11.40942797605805"><ele>239.0</ele><time>2026-04-25T07:48:15.984Z</time></trkpt><trkpt lat="44.42764752800193" lon="11.409343649999936"><ele>239.00000000000003</ele><time>2026-04-25T07:48:23.984Z</time></trkpt><trkpt lat="44.427675758507725" lon="11.409257571114727"><ele>239.00000000000003</ele><time>2026-04-25T07:48:26.984Z</time></trkpt><trkpt lat="44.42765841870417" lon="11.409162549039005"><ele>239.0</ele><time>2026-04-25T07:48:28.984Z</time></trkpt><trkpt lat="44.42763427138811" lon="11.40907177361605"><ele>239.00000000000003</ele><time>2026-04-25T07:48:30.984Z</time></trkpt><trkpt lat="44.427640838723384" lon="11.408964130359022"><ele>239.00000000000003</ele><time>2026-04-25T07:48:32.984Z</time></trkpt><trkpt lat="44.42764661394439" lon="11.408847828721958"><ele>240.00000000000003</ele><time>2026-04-25T07:48:36.984Z</time></trkpt><trkpt lat="44.427661453731965" lon="11.408740607898022"><ele>241.0</ele><time>2026-04-25T07:48:40.986Z</time></trkpt><trkpt lat="44.42773726739183" lon="11.408583794590324"><ele>242.0</ele><time>2026-04-25T07:49:34.985Z</time></trkpt><trkpt lat="44.427800844412815" lon="11.408550920819383"><ele>243.0</ele><time>2026-04-25T07:49:49.985Z</time></trkpt><trkpt lat="44.42787298485336" lon="11.408553749596344"><ele>244.00000000000003</ele><time>2026-04-25T07:49:54.978Z</time></trkpt><trkpt lat="44.427916311899" lon="11.408482071645912"><ele>245.0</ele><time>2026-04-25T07:50:07.965Z</time></trkpt><trkpt lat="44.42793657706246" lon="11.408392081507396"><ele>245.0</ele><time>2026-04-25T07:50:46.956Z</time></trkpt><trkpt lat="44.42796355578901" lon="11.408274742916173"><ele>245.0</ele><time>2026-04-25T07:51:23.955Z</time></trkpt><trkpt lat="44.42802047409118" lon="11.408218594406048"><ele>245.0</ele><time>2026-04-25T07:51:28.955Z</time></trkpt><trkpt lat="44.42805024792269" lon="11.408136934908434"><ele>245.0</ele><time>2026-04-25T07:51:38.955Z</time></trkpt><trkpt lat="44.4280776986426" lon="11.408048552805468"><ele>245.0</ele><time>2026-04-25T07:51:53.954Z</time></trkpt><trkpt lat="44.42810606248617" lon="11.407964111652955"><ele>245.0</ele><time>2026-04-25T07:52:11.954Z</time></trkpt><trkpt lat="44.4281155024136" lon="11.407873202560118"><ele>245.0</ele><time>2026-04-25T07:52:16.954Z</time></trkpt><trkpt lat="44.428131207248505" lon="11.407778828143844"><ele>245.71428571428572</ele><time>2026-04-25T07:52:20.954Z</time></trkpt><trkpt lat="44.4281596674354" lon="11.407683685035709"><ele>246.42857142857144</ele><time>2026-04-25T07:52:24.953Z</time></trkpt><trkpt lat="44.42816562638023" lon="11.407584599029818"><ele>247.14285714285714</ele><time>2026-04-25T07:52:31.953Z</time></trkpt><trkpt lat="44.428209763924784" lon="11.407486383854186"><ele>247.85714285714286</ele><time>2026-04-25T07:55:23.953Z</time></trkpt><trkpt lat="44.42826489298534" lon="11.407431615554863"><ele>248.57142857142858</ele><time>2026-04-25T07:55:31.953Z</time></trkpt><trkpt lat="44.42832904190945" lon="11.407395513029053"><ele>249.28571428571428</ele><time>2026-04-25T07:55:37.952Z</time></trkpt><trkpt lat="44.428396183335664" lon="11.4073386370137"><ele>250.0</ele><time>2026-04-25T07:55:39.952Z</time></trkpt><trkpt lat="44.42848619997831" lon="11.407283574538454"><ele>249.99999999999997</ele><time>2026-04-25T07:55:41.952Z</time></trkpt><trkpt lat="44.42856144858439" lon="11.407270970926875"><ele>250.0</ele><time>2026-04-25T07:55:42.952Z</time></trkpt><trkpt lat="44.4286535942217" lon="11.40721300293775"><ele>250.0</ele><time>2026-04-25T07:55:44.952Z</time></trkpt><trkpt lat="44.42872573506648" lon="11.407173312294862"><ele>250.0</ele><time>2026-04-25T07:55:46.952Z</time></trkpt><trkpt lat="44.428788508340965" lon="11.407140758932167"><ele>249.99999999999997</ele><time>2026-04-25T07:55:48.952Z</time></trkpt><trkpt lat="44.42885991002696" lon="11.407112932803518"><ele>250.0</ele><time>2026-04-25T07:55:50.952Z</time></trkpt><trkpt lat="44.428948937316534" lon="11.407055742013142"><ele>247.4</ele><time>2026-04-25T07:55:53.952Z</time></trkpt><trkpt lat="44.42902888833352" lon="11.407002662919757"><ele>244.8</ele><time>2026-04-25T07:55:55.952Z</time></trkpt><trkpt lat="44.429064281717146" lon="11.40692595440625"><ele>242.2</ele><time>2026-04-25T07:55:57.952Z</time></trkpt><trkpt lat="44.429243146973576" lon="11.406842615801509"><ele>239.6</ele><time>2026-04-25T07:56:03.952Z</time></trkpt><trkpt lat="44.4292865815383" lon="11.40677689755772"><ele>237.0</ele><time>2026-04-25T07:56:05.952Z</time></trkpt><trkpt lat="44.42936058049824" lon="11.406706782639182"><ele>237.0</ele><time>2026-04-25T07:56:07.952Z</time></trkpt><trkpt lat="44.42944193228778" lon="11.406630545253535"><ele>237.0</ele><time>2026-04-25T07:56:09.952Z</time></trkpt><trkpt lat="44.42952145548158" lon="11.406552451045563"><ele>237.0</ele><time>2026-04-25T07:56:11.951Z</time></trkpt><trkpt lat="44.429557510594094" lon="11.40647419562117"><ele>237.0</ele><time>2026-04-25T07:56:14.951Z</time></trkpt><trkpt lat="44.429611042813704" lon="11.406411534099574"><ele>237.0</ele><time>2026-04-25T07:56:17.951Z</time></trkpt><trkpt lat="44.42966063154648" lon="11.406343508695103"><ele>237.0</ele><time>2026-04-25T07:56:19.951Z</time></trkpt><trkpt lat="44.42971693309234" lon="11.406264188430224"><ele>234.28571428571425</ele><time>2026-04-25T07:56:21.951Z</time></trkpt><trkpt lat="44.42976723314929" lon="11.40618754185241"><ele>231.57142857142856</ele><time>2026-04-25T07:56:23.951Z</time></trkpt><trkpt lat="44.42981480232588" lon="11.406103672638203"><ele>228.85714285714283</ele><time>2026-04-25T07:56:27.951Z</time></trkpt><trkpt lat="44.42986805516912" lon="11.406045242232702"><ele>226.1428571428571</ele><time>2026-04-25T07:56:31.951Z</time></trkpt><trkpt lat="44.429913629900824" lon="11.405970309136855"><ele>223.42857142857144</ele><time>2026-04-25T07:56:33.951Z</time></trkpt><trkpt lat="44.42994957859128" lon="11.405889788815832"><ele>220.71428571428572</ele><time>2026-04-25T07:56:35.951Z</time></trkpt><trkpt lat="44.43001536104742" lon="11.405842943142206"><ele>218.0</ele><time>2026-04-25T07:56:37.951Z</time></trkpt><trkpt lat="44.43008822875836" lon="11.405862910450134"><ele>218.00000000000003</ele><time>2026-04-25T07:56:40.951Z</time></trkpt><trkpt lat="44.43012521752741" lon="11.405941438785325"><ele>218.0</ele><time>2026-04-25T07:56:43.951Z</time></trkpt><trkpt lat="44.43018338049774" lon="11.405979460270816"><ele>218.0</ele><time>2026-04-25T07:56:47.951Z</time></trkpt><trkpt lat="44.430251249664806" lon="11.405937201948634"><ele>218.0</ele><time>2026-04-25T07:56:49.95Z</time></trkpt><trkpt lat="44.430308042887575" lon="11.405869497511587"><ele>218.00000000000003</ele><time>2026-04-25T07:56:51.95Z</time></trkpt><trkpt lat="44.43033382873319" lon="11.40577428861428"><ele>218.0</ele><time>2026-04-25T07:56:54.95Z</time></trkpt><trkpt lat="44.43036305693175" lon="11.40564504945541"><ele>218.00000000000003</ele><time>2026-04-25T07:56:57.95Z</time></trkpt><trkpt lat="44.4303898572771" lon="11.405557619339742"><ele>218.0</ele><time>2026-04-25T07:56:59.95Z</time></trkpt><trkpt lat="44.430432094885376" lon="11.405457227078102"><ele>218.0</ele><time>2026-04-25T07:57:02.95Z</time></trkpt><trkpt lat="44.43045548077565" lon="11.405345418964668"><ele>218.0</ele><time>2026-04-25T07:57:05.952Z</time></trkpt><trkpt lat="44.430486934580045" lon="11.405266433289745"><ele>218.00000000000003</ele><time>2026-04-25T07:57:07.952Z</time></trkpt><trkpt lat="44.43053294334949" lon="11.40516506602787"><ele>218.0</ele><time>2026-04-25T07:57:10.952Z</time></trkpt><trkpt lat="44.43058107175265" lon="11.405098207714072"><ele>213.83333333333334</ele><time>2026-04-25T07:57:12.952Z</time></trkpt><trkpt lat="44.43057036547702" lon="11.405002019781703"><ele>209.66666666666669</ele><time>2026-04-25T07:57:16.952Z</time></trkpt><trkpt lat="44.4304847664146" lon="11.404998210656371"><ele>205.5</ele><time>2026-04-25T07:57:19.952Z</time></trkpt><trkpt lat="44.43039753540766" lon="11.405022115548476"><ele>201.33333333333331</ele><time>2026-04-25T07:57:21.952Z</time></trkpt><trkpt lat="44.43031834290721" lon="11.405056479779068"><ele>197.16666666666666</ele><time>2026-04-25T07:57:23.952Z</time></trkpt><trkpt lat="44.4302228237329" lon="11.404992013997921"><ele>193.0</ele><time>2026-04-25T07:57:25.952Z</time></trkpt><trkpt lat="44.430121896364206" lon="11.40495649016979"><ele>192.99999999999997</ele><time>2026-04-25T07:57:28.952Z</time></trkpt><trkpt lat="44.430048503473365" lon="11.404906520746296"><ele>193.0</ele><time>2026-04-25T07:57:30.952Z</time></trkpt><trkpt lat="44.42997248304239" lon="11.40488568125249"><ele>193.0</ele><time>2026-04-25T07:57:31.952Z</time></trkpt><trkpt lat="44.42990822654991" lon="11.40489991439468"><ele>193.0</ele><time>2026-04-25T07:57:32.952Z</time></trkpt><trkpt lat="44.42984333742935" lon="11.404910103126245"><ele>192.99999999999997</ele><time>2026-04-25T07:57:33.952Z</time></trkpt><trkpt lat="44.42972292345945" lon="11.40492057867944"><ele>193.0</ele><time>2026-04-25T07:57:35.952Z</time></trkpt><trkpt lat="44.42966002594755" lon="11.404930660933799"><ele>190.2</ele><time>2026-04-25T07:57:36.952Z</time></trkpt><trkpt lat="44.4295720062859" lon="11.404971076509012"><ele>187.4</ele><time>2026-04-25T07:57:38.952Z</time></trkpt><trkpt lat="44.429475731852044" lon="11.405011449128004"><ele>184.6</ele><time>2026-04-25T07:57:40.952Z</time></trkpt><trkpt lat="44.429394011716234" lon="11.405020561584184"><ele>181.79999999999998</ele><time>2026-04-25T07:57:42.952Z</time></trkpt><trkpt lat="44.429304592784696" lon="11.404978789199541"><ele>179.0</ele><time>2026-04-25T07:57:44.952Z</time></trkpt><trkpt lat="44.42920807376952" lon="11.404904721068092"><ele>179.0</ele><time>2026-04-25T07:57:46.952Z</time></trkpt><trkpt lat="44.42913624661963" lon="11.404862814451942"><ele>179.0</ele><time>2026-04-25T07:57:48.952Z</time></trkpt><trkpt lat="44.429057788493864" lon="11.404787458395871"><ele>179.0</ele><time>2026-04-25T07:57:50.952Z</time></trkpt><trkpt lat="44.42900887666839" lon="11.404730367687346"><ele>179.0</ele><time>2026-04-25T07:57:51.951Z</time></trkpt><trkpt lat="44.42895254639332" lon="11.404685015518726"><ele>179.0</ele><time>2026-04-25T07:57:54.951Z</time></trkpt><trkpt lat="44.42894499619077" lon="11.404593104899368"><ele>179.0</ele><time>2026-04-25T07:57:59.951Z</time></trkpt><trkpt lat="44.42900013568756" lon="11.404501922294921"><ele>175.6</ele><time>2026-04-25T07:58:26.951Z</time></trkpt><trkpt lat="44.42908915360748" lon="11.404453428071411"><ele>172.2</ele><time>2026-04-25T07:58:29.951Z</time></trkpt><trkpt lat="44.429181232833564" lon="11.404400200458992"><ele>168.79999999999998</ele><time>2026-04-25T07:58:31.95Z</time></trkpt><trkpt lat="44.42926663110434" lon="11.404365075708046"><ele>165.39999999999998</ele><time>2026-04-25T07:58:33.95Z</time></trkpt><trkpt lat="44.42934691813769" lon="11.404286088323804"><ele>162.0</ele><time>2026-04-25T07:58:36.95Z</time></trkpt><trkpt lat="44.429397109285034" lon="11.404170871226984"><ele>162.0</ele><time>2026-04-25T07:58:39.95Z</time></trkpt><trkpt lat="44.42947650879075" lon="11.404137856005526"><ele>162.0</ele><time>2026-04-25T07:58:41.95Z</time></trkpt><trkpt lat="44.429554060370705" lon="11.404091558226694"><ele>162.0</ele><time>2026-04-25T07:58:43.95Z</time></trkpt><trkpt lat="44.42962738399943" lon="11.404050627569976"><ele>162.0</ele><time>2026-04-25T07:58:45.95Z</time></trkpt><trkpt lat="44.429716827466926" lon="11.403993628705658"><ele>162.0</ele><time>2026-04-25T07:58:48.95Z</time></trkpt><trkpt lat="44.429760635766144" lon="11.403924716385944"><ele>162.0</ele><time>2026-04-25T07:58:51.95Z</time></trkpt><trkpt lat="44.42982226778996" lon="11.403849053040359"><ele>157.33333333333334</ele><time>2026-04-25T07:58:54.95Z</time></trkpt><trkpt lat="44.429889933095026" lon="11.403803898991711"><ele>152.66666666666666</ele><time>2026-04-25T07:58:57.95Z</time></trkpt><trkpt lat="44.42998110969003" lon="11.403787504470676"><ele>148.0</ele><time>2026-04-25T07:59:01.95Z</time></trkpt><trkpt lat="44.43006133019381" lon="11.403717338410196"><ele>143.33333333333331</ele><time>2026-04-25T07:59:04.95Z</time></trkpt><trkpt lat="44.430122660354876" lon="11.403653976447341"><ele>138.66666666666666</ele><time>2026-04-25T07:59:07.95Z</time></trkpt><trkpt lat="44.43019371337982" lon="11.403579086716176"><ele>134.0</ele><time>2026-04-25T07:59:11.951Z</time></trkpt><trkpt lat="44.43026871309481" lon="11.403539490722927"><ele>134.0</ele><time>2026-04-25T07:59:16.951Z</time></trkpt><trkpt lat="44.43033387074486" lon="11.403496695583929"><ele>134.0</ele><time>2026-04-25T07:59:19.951Z</time></trkpt><trkpt lat="44.43040785578335" lon="11.403441913022498"><ele>134.0</ele><time>2026-04-25T07:59:22.951Z</time></trkpt><trkpt lat="44.430586850848194" lon="11.403470872467517"><ele>134.0</ele><time>2026-04-25T07:59:32.951Z</time></trkpt><trkpt lat="44.43065363458181" lon="11.403458191502807"><ele>134.0</ele><time>2026-04-25T07:59:35.951Z</time></trkpt><trkpt lat="44.43072343764871" lon="11.40339077833976"><ele>131.4</ele><time>2026-04-25T07:59:37.951Z</time></trkpt><trkpt lat="44.43079782397771" lon="11.403354271604567"><ele>128.8</ele><time>2026-04-25T07:59:39.951Z</time></trkpt><trkpt lat="44.43087559535657" lon="11.403318582575997"><ele>126.19999999999999</ele><time>2026-04-25T07:59:41.951Z</time></trkpt><trkpt lat="44.43098494325004" lon="11.403271569943765"><ele>123.6</ele><time>2026-04-25T07:59:44.951Z</time></trkpt><trkpt lat="44.431058837993966" lon="11.403212905787068"><ele>121.0</ele><time>2026-04-25T07:59:46.951Z</time></trkpt><trkpt lat="44.43118503892589" lon="11.40315971963444"><ele>117.4</ele><time>2026-04-25T07:59:48.951Z</time></trkpt><trkpt lat="44.43131779133071" lon="11.403085037243914"><ele>113.8</ele><time>2026-04-25T07:59:50.951Z</time></trkpt><trkpt lat="44.43138959317939" lon="11.403024383723213"><ele>110.2</ele><time>2026-04-25T07:59:51.951Z</time></trkpt><trkpt lat="44.43149821770919" lon="11.402977023158533"><ele>106.60000000000001</ele><time>2026-04-25T07:59:53.951Z</time></trkpt><trkpt lat="44.431566744561096" lon="11.403073730373809"><ele>103.0</ele><time>2026-04-25T07:59:55.95Z</time></trkpt><trkpt lat="44.43160920919182" lon="11.403147024566744"><ele>103.0</ele><time>2026-04-25T07:59:56.95Z</time></trkpt><trkpt lat="44.43168949568566" lon="11.40322986817646"><ele>103.0</ele><time>2026-04-25T07:59:58.95Z</time></trkpt><trkpt lat="44.431762634469784" lon="11.403235123603823"><ele>103.0</ele><time>2026-04-25T08:00:49.949Z</time></trkpt><trkpt lat="44.431824792306635" lon="11.403257157244674"><ele>103.0</ele><time>2026-04-25T08:00:55.949Z</time></trkpt><trkpt lat="44.431977284030886" lon="11.403268415288721"><ele>103.0</ele><time>2026-04-25T08:01:00.949Z</time></trkpt><trkpt lat="44.43207310902093" lon="11.403337981314433"><ele>101.00000000000001</ele><time>2026-04-25T08:01:02.949Z</time></trkpt><trkpt lat="44.432172011724724" lon="11.40336889750626"><ele>99.0</ele><time>2026-04-25T08:01:04.949Z</time></trkpt><trkpt lat="44.43228451031716" lon="11.403366270330293"><ele>97.0</ele><time>2026-04-25T08:01:32.95Z</time></trkpt><trkpt lat="44.43234455359878" lon="11.403304260068055"><ele>95.0</ele><time>2026-04-25T08:01:37.949Z</time></trkpt><trkpt lat="44.432407931728676" lon="11.403318508527931"><ele>93.0</ele><time>2026-04-25T08:01:41.949Z</time></trkpt><trkpt lat="44.43246160547904" lon="11.403384024780557"><ele>91.0</ele><time>2026-04-25T08:01:43.949Z</time></trkpt><trkpt lat="44.43252050526207" lon="11.403434179164273"><ele>91.0</ele><time>2026-04-25T08:01:45.949Z</time></trkpt><trkpt lat="44.43258377601724" lon="11.403461320018707"><ele>91.0</ele><time>2026-04-25T08:01:47.949Z</time></trkpt><trkpt lat="44.432668039902985" lon="11.403523817368226"><ele>91.0</ele><time>2026-04-25T08:01:50.949Z</time></trkpt><trkpt lat="44.43275576617859" lon="11.403588147944225"><ele>91.0</ele><time>2026-04-25T08:01:53.949Z</time></trkpt><trkpt lat="44.432809914848036" lon="11.403670804514123"><ele>91.0</ele><time>2026-04-25T08:01:55.949Z</time></trkpt><trkpt lat="44.43288164243946" lon="11.403742341525154"><ele>91.0</ele><time>2026-04-25T08:01:57.949Z</time></trkpt><trkpt lat="44.432965501169" lon="11.403829362824885"><ele>92.4</ele><time>2026-04-25T08:01:59.949Z</time></trkpt><trkpt lat="44.43305182143633" lon="11.4039315485128"><ele>93.8</ele><time>2026-04-25T08:02:01.949Z</time></trkpt><trkpt lat="44.43314542797951" lon="11.404011084740795"><ele>95.2</ele><time>2026-04-25T08:02:03.949Z</time></trkpt><trkpt lat="44.433242891947714" lon="11.404107048088038"><ele>96.60000000000001</ele><time>2026-04-25T08:02:05.949Z</time></trkpt><trkpt lat="44.433274674893234" lon="11.40420252510239"><ele>98.0</ele><time>2026-04-25T08:02:06.949Z</time></trkpt><trkpt lat="44.43333248048831" lon="11.404255949768299"><ele>98.0</ele><time>2026-04-25T08:02:07.949Z</time></trkpt><trkpt lat="44.433435531331035" lon="11.404351190589162"><ele>98.0</ele><time>2026-04-25T08:02:09.949Z</time></trkpt><trkpt lat="44.4335286018719" lon="11.404437207402598"><ele>98.0</ele><time>2026-04-25T08:02:11.949Z</time></trkpt><trkpt lat="44.43361094681033" lon="11.404511045932646"><ele>98.0</ele><time>2026-04-25T08:02:13.948Z</time></trkpt><trkpt lat="44.433700132646024" lon="11.404594512513828"><ele>98.0</ele><time>2026-04-25T08:02:15.948Z</time></trkpt><trkpt lat="44.43378558079351" lon="11.404669577426171"><ele>97.25</ele><time>2026-04-25T08:02:17.948Z</time></trkpt><trkpt lat="44.43388779235223" lon="11.404760779098785"><ele>96.5</ele><time>2026-04-25T08:02:19.948Z</time></trkpt><trkpt lat="44.43398914796359" lon="11.404867904564403"><ele>95.75</ele><time>2026-04-25T08:02:21.948Z</time></trkpt><trkpt lat="44.43408192683665" lon="11.40494782965895"><ele>95.0</ele><time>2026-04-25T08:02:23.948Z</time></trkpt><trkpt lat="44.434178234372915" lon="11.405013222235675"><ele>95.0</ele><time>2026-04-25T08:02:25.948Z</time></trkpt><trkpt lat="44.43428081765421" lon="11.405091002404758"><ele>95.0</ele><time>2026-04-25T08:02:27.948Z</time></trkpt><trkpt lat="44.43438694369427" lon="11.405158976134851"><ele>95.0</ele><time>2026-04-25T08:02:29.948Z</time></trkpt><trkpt lat="44.434495001683125" lon="11.405219672344575"><ele>95.0</ele><time>2026-04-25T08:02:31.948Z</time></trkpt><trkpt lat="44.4345585878746" lon="11.405253253797412"><ele>95.0</ele><time>2026-04-25T08:02:32.948Z</time></trkpt><trkpt lat="44.434672319165834" lon="11.405312183146245"><ele>95.0</ele><time>2026-04-25T08:02:34.948Z</time></trkpt><trkpt lat="44.434776534406126" lon="11.405365420348227"><ele>95.0</ele><time>2026-04-25T08:02:36.948Z</time></trkpt><trkpt lat="44.434884193041555" lon="11.405420448268655"><ele>95.0</ele><time>2026-04-25T08:02:38.948Z</time></trkpt><trkpt lat="44.43498512306372" lon="11.405467776390577"><ele>95.0</ele><time>2026-04-25T08:02:40.948Z</time></trkpt><trkpt lat="44.43508218955025" lon="11.405526328280288"><ele>95.0</ele><time>2026-04-25T08:02:42.948Z</time></trkpt><trkpt lat="44.435176058493056" lon="11.405598812358773"><ele>95.0</ele><time>2026-04-25T08:02:44.948Z</time></trkpt><trkpt lat="44.43527918845287" lon="11.40570762315552"><ele>95.0</ele><time>2026-04-25T08:02:46.948Z</time></trkpt><trkpt lat="44.43533520477349" lon="11.405761661499596"><ele>95.0</ele><time>2026-04-25T08:02:47.948Z</time></trkpt><trkpt lat="44.43542620471032" lon="11.40587795787021"><ele>95.0</ele><time>2026-04-25T08:02:49.948Z</time></trkpt><trkpt lat="44.43551752466375" lon="11.406005761182564"><ele>95.0</ele><time>2026-04-25T08:02:51.947Z</time></trkpt><trkpt lat="44.43556556252729" lon="11.406070974207791"><ele>93.33333333333334</ele><time>2026-04-25T08:02:52.947Z</time></trkpt><trkpt lat="44.435612908632336" lon="11.406138213075169"><ele>91.66666666666667</ele><time>2026-04-25T08:02:53.947Z</time></trkpt><trkpt lat="44.43566002612352" lon="11.406201470494498"><ele>90.0</ele><time>2026-04-25T08:02:54.947Z</time></trkpt><trkpt lat="44.4357097553468" lon="11.40626408736738"><ele>88.33333333333333</ele><time>2026-04-25T08:02:55.947Z</time></trkpt><trkpt lat="44.43575105263244" lon="11.40633111202867"><ele>86.66666666666666</ele><time>2026-04-25T08:02:56.947Z</time></trkpt><trkpt lat="44.435803283282965" lon="11.406396719805189"><ele>85.0</ele><time>2026-04-25T08:02:57.947Z</time></trkpt><trkpt lat="44.435879201537894" lon="11.406535987411054"><ele>84.6</ele><time>2026-04-25T08:02:59.947Z</time></trkpt><trkpt lat="44.435963985802026" lon="11.406666354066305"><ele>84.2</ele><time>2026-04-25T08:03:01.947Z</time></trkpt><trkpt lat="44.43604592912911" lon="11.406792242552866"><ele>83.80000000000001</ele><time>2026-04-25T08:03:03.947Z</time></trkpt><trkpt lat="44.436121798313714" lon="11.406908807077684"><ele>83.4</ele><time>2026-04-25T08:03:05.947Z</time></trkpt><trkpt lat="44.436174319623845" lon="11.406958881625878"><ele>83.0</ele><time>2026-04-25T08:03:06.947Z</time></trkpt><trkpt lat="44.436241191253075" lon="11.407090827475129"><ele>82.4</ele><time>2026-04-25T08:03:08.947Z</time></trkpt><trkpt lat="44.43632240260185" lon="11.407202719248167"><ele>81.80000000000001</ele><time>2026-04-25T08:03:10.947Z</time></trkpt><trkpt lat="44.43640642775136" lon="11.407306184199669"><ele>81.2</ele><time>2026-04-25T08:03:12.947Z</time></trkpt><trkpt lat="44.436482097968" lon="11.407419273768046"><ele>80.6</ele><time>2026-04-25T08:03:14.947Z</time></trkpt><trkpt lat="44.43656141134023" lon="11.407523607094506"><ele>80.0</ele><time>2026-04-25T08:03:16.947Z</time></trkpt><trkpt lat="44.43666564586759" lon="11.40762001342461"><ele>80.0</ele><time>2026-04-25T08:03:18.947Z</time></trkpt><trkpt lat="44.43676175988933" lon="11.40770786523767"><ele>80.0</ele><time>2026-04-25T08:03:20.947Z</time></trkpt><trkpt lat="44.436859742880316" lon="11.407772914920708"><ele>80.0</ele><time>2026-04-25T08:03:22.948Z</time></trkpt><trkpt lat="44.43695813337611" lon="11.407831495746887"><ele>80.0</ele><time>2026-04-25T08:03:24.949Z</time></trkpt><trkpt lat="44.43704977603148" lon="11.407893365008924"><ele>80.0</ele><time>2026-04-25T08:03:26.948Z</time></trkpt><trkpt lat="44.437141263329174" lon="11.407949888137633"><ele>80.6</ele><time>2026-04-25T08:03:28.949Z</time></trkpt><trkpt lat="44.43723171528608" lon="11.408002589073652"><ele>81.2</ele><time>2026-04-25T08:03:30.948Z</time></trkpt><trkpt lat="44.43732128126485" lon="11.408054519683837"><ele>81.80000000000001</ele><time>2026-04-25T08:03:32.948Z</time></trkpt><trkpt lat="44.43741315326591" lon="11.408105872361672"><ele>82.4</ele><time>2026-04-25T08:03:34.948Z</time></trkpt><trkpt lat="44.437503663488656" lon="11.408141742931504"><ele>83.0</ele><time>2026-04-25T08:03:36.948Z</time></trkpt><trkpt lat="44.437595055268396" lon="11.408167303853613"><ele>83.0</ele><time>2026-04-25T08:03:38.948Z</time></trkpt><trkpt lat="44.43768337750611" lon="11.408197594220235"><ele>83.0</ele><time>2026-04-25T08:03:40.948Z</time></trkpt><trkpt lat="44.43777829729868" lon="11.40823990466613"><ele>83.0</ele><time>2026-04-25T08:03:42.948Z</time></trkpt><trkpt lat="44.43786690132974" lon="11.408260803902536"><ele>83.0</ele><time>2026-04-25T08:03:44.948Z</time></trkpt><trkpt lat="44.437960605787836" lon="11.408287999135686"><ele>83.0</ele><time>2026-04-25T08:03:46.948Z</time></trkpt><trkpt lat="44.438051615032066" lon="11.408312763554996"><ele>83.0</ele><time>2026-04-25T08:03:48.948Z</time></trkpt><trkpt lat="44.43813677346566" lon="11.408333407792432"><ele>83.0</ele><time>2026-04-25T08:03:50.948Z</time></trkpt><trkpt lat="44.43822296048705" lon="11.408358079798539"><ele>83.0</ele><time>2026-04-25T08:03:52.948Z</time></trkpt><trkpt lat="44.43830714444706" lon="11.408382417027715"><ele>83.0</ele><time>2026-04-25T08:03:54.948Z</time></trkpt><trkpt lat="44.43839154507213" lon="11.40841694993354"><ele>83.0</ele><time>2026-04-25T08:03:56.948Z</time></trkpt><trkpt lat="44.43848514325817" lon="11.40844265726072"><ele>83.0</ele><time>2026-04-25T08:03:58.948Z</time></trkpt><trkpt lat="44.438578254066734" lon="11.40846968108049"><ele>83.0</ele><time>2026-04-25T08:04:00.948Z</time></trkpt><trkpt lat="44.43867567277345" lon="11.408497559141038"><ele>83.0</ele><time>2026-04-25T08:04:02.948Z</time></trkpt><trkpt lat="44.43876901639961" lon="11.408528654093777"><ele>83.0</ele><time>2026-04-25T08:04:04.948Z</time></trkpt><trkpt lat="44.43885948989738" lon="11.40855467148023"><ele>83.0</ele><time>2026-04-25T08:04:06.947Z</time></trkpt><trkpt lat="44.43895328651148" lon="11.408578146259938"><ele>83.0</ele><time>2026-04-25T08:04:08.947Z</time></trkpt><trkpt lat="44.43903666372217" lon="11.408590263013684"><ele>83.16666666666667</ele><time>2026-04-25T08:04:10.947Z</time></trkpt><trkpt lat="44.4391207445679" lon="11.408614797229157"><ele>83.33333333333334</ele><time>2026-04-25T08:04:12.947Z</time></trkpt><trkpt lat="44.43918666932178" lon="11.408625877004235"><ele>83.5</ele><time>2026-04-25T08:04:14.947Z</time></trkpt><trkpt lat="44.439252653964985" lon="11.40863772839125"><ele>83.66666666666667</ele><time>2026-04-25T08:04:16.947Z</time></trkpt><trkpt lat="44.43933887559291" lon="11.408643638997992"><ele>83.83333333333333</ele><time>2026-04-25T08:04:18.947Z</time></trkpt><trkpt lat="44.43942177613346" lon="11.40865395894836"><ele>84.0</ele><time>2026-04-25T08:04:20.947Z</time></trkpt><trkpt lat="44.439506514576195" lon="11.408659798595323"><ele>84.0</ele><time>2026-04-25T08:04:22.947Z</time></trkpt><trkpt lat="44.43958866502223" lon="11.408671415207452"><ele>84.0</ele><time>2026-04-25T08:04:24.947Z</time></trkpt><trkpt lat="44.43967363813166" lon="11.408688686096683"><ele>84.0</ele><time>2026-04-25T08:04:26.947Z</time></trkpt><trkpt lat="44.43975562756121" lon="11.40869003107896"><ele>84.0</ele><time>2026-04-25T08:04:28.947Z</time></trkpt><trkpt lat="44.43983940412084" lon="11.408690851205995"><ele>84.0</ele><time>2026-04-25T08:04:30.947Z</time></trkpt><trkpt lat="44.43991566821357" lon="11.408682951162325"><ele>84.0</ele><time>2026-04-25T08:04:32.947Z</time></trkpt><trkpt lat="44.43998628099448" lon="11.408663621614417"><ele>84.5</ele><time>2026-04-25T08:04:34.947Z</time></trkpt><trkpt lat="44.4400583013448" lon="11.408625766539519"><ele>85.0</ele><time>2026-04-25T08:04:36.947Z</time></trkpt><trkpt lat="44.44012384698737" lon="11.408577687480044"><ele>85.5</ele><time>2026-04-25T08:04:38.947Z</time></trkpt><trkpt lat="44.44016868442208" lon="11.408499179678298"><ele>86.0</ele><time>2026-04-25T08:04:40.947Z</time></trkpt><trkpt lat="44.44020465229532" lon="11.40840324850814"><ele>86.5</ele><time>2026-04-25T08:04:42.947Z</time></trkpt><trkpt lat="44.440238047976045" lon="11.408285879373562"><ele>87.0</ele><time>2026-04-25T08:04:44.946Z</time></trkpt><trkpt lat="44.44027624801975" lon="11.408171336246301"><ele>87.0</ele><time>2026-04-25T08:04:46.946Z</time></trkpt><trkpt lat="44.44031272242321" lon="11.408066528312805"><ele>87.0</ele><time>2026-04-25T08:04:48.946Z</time></trkpt><trkpt lat="44.440352605975335" lon="11.407953573190895"><ele>87.0</ele><time>2026-04-25T08:04:50.946Z</time></trkpt><trkpt lat="44.44038879018757" lon="11.407837741266599"><ele>87.0</ele><time>2026-04-25T08:04:52.946Z</time></trkpt><trkpt lat="44.4404292535563" lon="11.407728606741063"><ele>87.0</ele><time>2026-04-25T08:04:54.946Z</time></trkpt><trkpt lat="44.440465153758474" lon="11.407622128728889"><ele>87.0</ele><time>2026-04-25T08:04:56.946Z</time></trkpt><trkpt lat="44.44050058808709" lon="11.407518020355962"><ele>87.0</ele><time>2026-04-25T08:04:58.946Z</time></trkpt><trkpt lat="44.44054066218064" lon="11.407405119585759"><ele>87.0</ele><time>2026-04-25T08:05:00.946Z</time></trkpt><trkpt lat="44.44058103223691" lon="11.40729228196881"><ele>87.0</ele><time>2026-04-25T08:05:02.946Z</time></trkpt><trkpt lat="44.440619713009845" lon="11.407182249245631"><ele>87.0</ele><time>2026-04-25T08:05:04.946Z</time></trkpt><trkpt lat="44.440653612618746" lon="11.407073738998118"><ele>87.0</ele><time>2026-04-25T08:05:06.946Z</time></trkpt><trkpt lat="44.4406891120342" lon="11.406960599614226"><ele>87.0</ele><time>2026-04-25T08:05:08.946Z</time></trkpt><trkpt lat="44.440732468888015" lon="11.406851086319842"><ele>87.0</ele><time>2026-04-25T08:05:10.946Z</time></trkpt><trkpt lat="44.44078609512387" lon="11.406756405138294"><ele>87.0</ele><time>2026-04-25T08:05:12.946Z</time></trkpt><trkpt lat="44.4408581579539" lon="11.406696594125815"><ele>87.0</ele><time>2026-04-25T08:05:14.946Z</time></trkpt><trkpt lat="44.4409388747424" lon="11.40669599112766"><ele>87.0</ele><time>2026-04-25T08:05:16.946Z</time></trkpt><trkpt lat="44.44101959194801" lon="11.406712643905454"><ele>87.0</ele><time>2026-04-25T08:05:18.946Z</time></trkpt><trkpt lat="44.44109752555255" lon="11.40674372154067"><ele>87.0</ele><time>2026-04-25T08:05:20.946Z</time></trkpt><trkpt lat="44.44117051457985" lon="11.406769549134468"><ele>87.0</ele><time>2026-04-25T08:05:22.946Z</time></trkpt><trkpt lat="44.441243082671704" lon="11.40680584173804"><ele>87.0</ele><time>2026-04-25T08:05:24.945Z</time></trkpt><trkpt lat="44.44131465189503" lon="11.406837601276433"><ele>87.0</ele><time>2026-04-25T08:05:26.945Z</time></trkpt><trkpt lat="44.441392565776155" lon="11.406865389568257"><ele>87.0</ele><time>2026-04-25T08:05:28.948Z</time></trkpt><trkpt lat="44.44147310646408" lon="11.406894832596935"><ele>87.0</ele><time>2026-04-25T08:05:30.948Z</time></trkpt><trkpt lat="44.4415500192124" lon="11.406918431306904"><ele>87.0</ele><time>2026-04-25T08:05:32.947Z</time></trkpt><trkpt lat="44.441627910876775" lon="11.406937470113837"><ele>87.5</ele><time>2026-04-25T08:05:34.948Z</time></trkpt><trkpt lat="44.441705259786296" lon="11.406950076840339"><ele>88.0</ele><time>2026-04-25T08:05:36.947Z</time></trkpt><trkpt lat="44.44178313242468" lon="11.406987630644448"><ele>88.5</ele><time>2026-04-25T08:05:38.948Z</time></trkpt><trkpt lat="44.441865126999645" lon="11.407017232262408"><ele>89.0</ele><time>2026-04-25T08:05:40.947Z</time></trkpt><trkpt lat="44.44194798380071" lon="11.40704809726462"><ele>89.5</ele><time>2026-04-25T08:05:42.947Z</time></trkpt><trkpt lat="44.44202534683272" lon="11.407074091916426"><ele>90.0</ele><time>2026-04-25T08:05:44.947Z</time></trkpt><trkpt lat="44.44210747720694" lon="11.40710393141559"><ele>89.83333333333333</ele><time>2026-04-25T08:05:46.947Z</time></trkpt><trkpt lat="44.442188357602674" lon="11.407129107464192"><ele>89.66666666666667</ele><time>2026-04-25T08:05:48.947Z</time></trkpt><trkpt lat="44.4422673830093" lon="11.407161290912555"><ele>89.5</ele><time>2026-04-25T08:05:50.892Z</time></trkpt><trkpt lat="44.442349531258614" lon="11.407186221374308"><ele>89.33333333333334</ele><time>2026-04-25T08:05:52.892Z</time></trkpt><trkpt lat="44.44243439329666" lon="11.407212853437178"><ele>89.16666666666667</ele><time>2026-04-25T08:05:54.891Z</time></trkpt><trkpt lat="44.4425248038869" lon="11.407247466156674"><ele>89.0</ele><time>2026-04-25T08:05:56.891Z</time></trkpt><trkpt lat="44.44262005686464" lon="11.407279535036219"><ele>89.0</ele><time>2026-04-25T08:05:58.891Z</time></trkpt><trkpt lat="44.44271570376457" lon="11.407308257230829"><ele>89.0</ele><time>2026-04-25T08:06:00.891Z</time></trkpt><trkpt lat="44.44281386995243" lon="11.407341955481336"><ele>89.0</ele><time>2026-04-25T08:06:02.891Z</time></trkpt><trkpt lat="44.44291318892449" lon="11.407395197284488"><ele>89.0</ele><time>2026-04-25T08:06:05.891Z</time></trkpt><trkpt lat="44.44299581373751" lon="11.407415956060296"><ele>89.0</ele><time>2026-04-25T08:06:07.891Z</time></trkpt><trkpt lat="44.44308446311634" lon="11.407434622182109"><ele>89.4</ele><time>2026-04-25T08:06:09.891Z</time></trkpt><trkpt lat="44.4431772826992" lon="11.407465387153698"><ele>89.80000000000001</ele><time>2026-04-25T08:06:11.891Z</time></trkpt><trkpt lat="44.4432711418855" lon="11.407494441270234"><ele>90.19999999999999</ele><time>2026-04-25T08:06:13.891Z</time></trkpt><trkpt lat="44.44336330862529" lon="11.40753720804061"><ele>90.6</ele><time>2026-04-25T08:06:15.891Z</time></trkpt><trkpt lat="44.443449128742564" lon="11.407564604895708"><ele>91.0</ele><time>2026-04-25T08:06:17.891Z</time></trkpt><trkpt lat="44.44353950936701" lon="11.407595169011962"><ele>91.0</ele><time>2026-04-25T08:06:19.89Z</time></trkpt><trkpt lat="44.4436263250516" lon="11.407624395004099"><ele>91.0</ele><time>2026-04-25T08:06:21.89Z</time></trkpt><trkpt lat="44.44371322487531" lon="11.407656353533755"><ele>91.0</ele><time>2026-04-25T08:06:23.89Z</time></trkpt><trkpt lat="44.44379246028684" lon="11.407678722082315"><ele>91.0</ele><time>2026-04-25T08:06:25.89Z</time></trkpt><trkpt lat="44.443873844576885" lon="11.407713348957476"><ele>91.0</ele><time>2026-04-25T08:06:27.89Z</time></trkpt><trkpt lat="44.44394957020373" lon="11.407735679319883"><ele>91.0</ele><time>2026-04-25T08:06:29.89Z</time></trkpt><trkpt lat="44.44403060763943" lon="11.40776018429787"><ele>91.8</ele><time>2026-04-25T08:06:31.89Z</time></trkpt><trkpt lat="44.444116204543334" lon="11.407801617534226"><ele>92.6</ele><time>2026-04-25T08:06:33.89Z</time></trkpt><trkpt lat="44.44420586653272" lon="11.407842498528998"><ele>93.4</ele><time>2026-04-25T08:06:35.89Z</time></trkpt><trkpt lat="44.44430187099804" lon="11.407866684999444"><ele>94.2</ele><time>2026-04-25T08:06:37.89Z</time></trkpt><trkpt lat="44.44440387987403" lon="11.407902109352316"><ele>95.0</ele><time>2026-04-25T08:06:39.89Z</time></trkpt><trkpt lat="44.44449153424605" lon="11.407934213757214"><ele>95.0</ele><time>2026-04-25T08:06:41.89Z</time></trkpt><trkpt lat="44.44458152793001" lon="11.407958960946763"><ele>95.0</ele><time>2026-04-25T08:06:43.89Z</time></trkpt><trkpt lat="44.444679537431995" lon="11.407991285699891"><ele>95.0</ele><time>2026-04-25T08:06:45.889Z</time></trkpt><trkpt lat="44.44477569487979" lon="11.408023987972744"><ele>95.0</ele><time>2026-04-25T08:06:47.889Z</time></trkpt><trkpt lat="44.44486094363505" lon="11.408057448910077"><ele>95.0</ele><time>2026-04-25T08:06:49.889Z</time></trkpt><trkpt lat="44.44495758181462" lon="11.408083011461075"><ele>94.83333333333334</ele><time>2026-04-25T08:06:51.889Z</time></trkpt><trkpt lat="44.44503624673281" lon="11.408118780175412"><ele>94.66666666666667</ele><time>2026-04-25T08:06:53.889Z</time></trkpt><trkpt lat="44.44511023723118" lon="11.40815865810363"><ele>94.5</ele><time>2026-04-25T08:06:55.889Z</time></trkpt><trkpt lat="44.44519920092079" lon="11.408190582980376"><ele>94.33333333333333</ele><time>2026-04-25T08:06:57.889Z</time></trkpt><trkpt lat="44.44527453461813" lon="11.408228102843596"><ele>94.16666666666666</ele><time>2026-04-25T08:06:59.889Z</time></trkpt><trkpt lat="44.445372352374" lon="11.408253611461106"><ele>94.0</ele><time>2026-04-25T08:07:01.889Z</time></trkpt><trkpt lat="44.44546694138719" lon="11.40828727745021"><ele>94.0</ele><time>2026-04-25T08:07:03.889Z</time></trkpt><trkpt lat="44.44556080396361" lon="11.408305133207469"><ele>94.0</ele><time>2026-04-25T08:07:05.889Z</time></trkpt><trkpt lat="44.44565570673542" lon="11.40833177212084"><ele>94.0</ele><time>2026-04-25T08:07:07.889Z</time></trkpt><trkpt lat="44.44579167883457" lon="11.408368127045737"><ele>94.0</ele><time>2026-04-25T08:07:10.889Z</time></trkpt><trkpt lat="44.445889579762685" lon="11.408412769485308"><ele>94.0</ele><time>2026-04-25T08:07:12.888Z</time></trkpt><trkpt lat="44.44597967915764" lon="11.408448451584247"><ele>94.0</ele><time>2026-04-25T08:07:14.888Z</time></trkpt><trkpt lat="44.4460659999389" lon="11.40847597333022"><ele>94.0</ele><time>2026-04-25T08:07:16.888Z</time></trkpt><trkpt lat="44.44615847399977" lon="11.408500222259732"><ele>94.0</ele><time>2026-04-25T08:07:18.888Z</time></trkpt><trkpt lat="44.44625712789181" lon="11.408543602469015"><ele>94.0</ele><time>2026-04-25T08:07:20.888Z</time></trkpt><trkpt lat="44.44635349987904" lon="11.408580743067313"><ele>94.0</ele><time>2026-04-25T08:07:22.888Z</time></trkpt><trkpt lat="44.446452623181536" lon="11.408606684184118"><ele>94.2</ele><time>2026-04-25T08:07:24.888Z</time></trkpt><trkpt lat="44.44655017201177" lon="11.408630678904409"><ele>94.4</ele><time>2026-04-25T08:07:26.888Z</time></trkpt><trkpt lat="44.44662799100111" lon="11.408665467134037"><ele>94.6</ele><time>2026-04-25T08:07:28.888Z</time></trkpt><trkpt lat="44.446720030957344" lon="11.408692060011704"><ele>94.8</ele><time>2026-04-25T08:07:30.888Z</time></trkpt><trkpt lat="44.446808777017914" lon="11.4087034880402"><ele>95.0</ele><time>2026-04-25T08:07:32.888Z</time></trkpt><trkpt lat="44.446905411274344" lon="11.408727231445821"><ele>95.0</ele><time>2026-04-25T08:07:34.889Z</time></trkpt><trkpt lat="44.44699791276544" lon="11.408753430994155"><ele>95.0</ele><time>2026-04-25T08:07:36.89Z</time></trkpt><trkpt lat="44.44708291777659" lon="11.408789646267207"><ele>95.0</ele><time>2026-04-25T08:07:38.889Z</time></trkpt><trkpt lat="44.44717929663282" lon="11.408857233413022"><ele>95.0</ele><time>2026-04-25T08:07:40.89Z</time></trkpt><trkpt lat="44.4472620675358" lon="11.408906626215227"><ele>95.0</ele><time>2026-04-25T08:07:42.889Z</time></trkpt><trkpt lat="44.447349681948474" lon="11.408943361701013"><ele>94.5</ele><time>2026-04-25T08:07:44.889Z</time></trkpt><trkpt lat="44.44743196993173" lon="11.408980436249182"><ele>94.0</ele><time>2026-04-25T08:07:46.889Z</time></trkpt><trkpt lat="44.44751377743905" lon="11.408998517012366"><ele>93.5</ele><time>2026-04-25T08:07:48.889Z</time></trkpt><trkpt lat="44.44758735446471" lon="11.409021503699641"><ele>93.0</ele><time>2026-04-25T08:07:50.889Z</time></trkpt><trkpt lat="44.44766288240019" lon="11.409050715594011"><ele>92.5</ele><time>2026-04-25T08:07:52.889Z</time></trkpt><trkpt lat="44.4477387054815" lon="11.409070873044897"><ele>92.0</ele><time>2026-04-25T08:07:54.889Z</time></trkpt><trkpt lat="44.447817973555466" lon="11.409102196223417"><ele>92.0</ele><time>2026-04-25T08:07:56.889Z</time></trkpt><trkpt lat="44.44789898743051" lon="11.409131798946087"><ele>92.0</ele><time>2026-04-25T08:07:58.889Z</time></trkpt><trkpt lat="44.44797738179367" lon="11.409168153549714"><ele>92.0</ele><time>2026-04-25T08:08:00.889Z</time></trkpt><trkpt lat="44.448059645499185" lon="11.409192112330901"><ele>92.0</ele><time>2026-04-25T08:08:02.889Z</time></trkpt><trkpt lat="44.448141391966665" lon="11.409221315840574"><ele>92.0</ele><time>2026-04-25T08:08:04.889Z</time></trkpt><trkpt lat="44.448227044885954" lon="11.409243718683324"><ele>92.0</ele><time>2026-04-25T08:08:06.888Z</time></trkpt><trkpt lat="44.44831484597852" lon="11.40927741772344"><ele>92.0</ele><time>2026-04-25T08:08:08.888Z</time></trkpt><trkpt lat="44.44840280427528" lon="11.40931217179257"><ele>92.0</ele><time>2026-04-25T08:08:10.888Z</time></trkpt><trkpt lat="44.448502675069484" lon="11.409343360498033"><ele>92.0</ele><time>2026-04-25T08:08:12.888Z</time></trkpt><trkpt lat="44.448587268985584" lon="11.409380799835613"><ele>92.0</ele><time>2026-04-25T08:08:14.888Z</time></trkpt><trkpt lat="44.448665384016294" lon="11.409408965971181"><ele>92.0</ele><time>2026-04-25T08:08:16.888Z</time></trkpt><trkpt lat="44.448752909240525" lon="11.409427881576843"><ele>92.39999999999999</ele><time>2026-04-25T08:08:18.888Z</time></trkpt><trkpt lat="44.448844423216265" lon="11.40944972249194"><ele>92.8</ele><time>2026-04-25T08:08:20.888Z</time></trkpt><trkpt lat="44.44892284085903" lon="11.409455546211397"><ele>93.2</ele><time>2026-04-25T08:08:22.888Z</time></trkpt><trkpt lat="44.44901313133566" lon="11.409418768069777"><ele>93.6</ele><time>2026-04-25T08:08:24.888Z</time></trkpt><trkpt lat="44.44908625166398" lon="11.409313781626656"><ele>94.0</ele><time>2026-04-25T08:08:26.888Z</time></trkpt><trkpt lat="44.44911005900243" lon="11.40919174245189"><ele>94.0</ele><time>2026-04-25T08:08:28.888Z</time></trkpt><trkpt lat="44.449117026106975" lon="11.409086888271741"><ele>94.0</ele><time>2026-04-25T08:08:30.888Z</time></trkpt><trkpt lat="44.449133592066765" lon="11.408964169549586"><ele>94.0</ele><time>2026-04-25T08:08:32.887Z</time></trkpt><trkpt lat="44.44914668613749" lon="11.408829136021932"><ele>94.0</ele><time>2026-04-25T08:08:34.887Z</time></trkpt><trkpt lat="44.44917677602068" lon="11.408704622613875"><ele>94.0</ele><time>2026-04-25T08:08:36.887Z</time></trkpt><trkpt lat="44.44919549280314" lon="11.40860607978825"><ele>94.0</ele><time>2026-04-25T08:08:38.887Z</time></trkpt><trkpt lat="44.44918486385728" lon="11.408509229364617"><ele>94.0</ele><time>2026-04-25T08:08:40.887Z</time></trkpt><trkpt lat="44.44912366137013" lon="11.408456342387723"><ele>94.0</ele><time>2026-04-25T08:08:42.887Z</time></trkpt><trkpt lat="44.44903357150113" lon="11.40841490142629"><ele>94.0</ele><time>2026-04-25T08:08:44.887Z</time></trkpt><trkpt lat="44.4489425423452" lon="11.408390738621987"><ele>94.0</ele><time>2026-04-25T08:08:46.887Z</time></trkpt><trkpt lat="44.44885799888677" lon="11.408356065352718"><ele>94.0</ele><time>2026-04-25T08:08:48.887Z</time></trkpt><trkpt lat="44.448773023057484" lon="11.408313896843838"><ele>94.0</ele><time>2026-04-25T08:08:50.887Z</time></trkpt><trkpt lat="44.44869370638573" lon="11.40827212802427"><ele>93.66666666666666</ele><time>2026-04-25T08:08:52.887Z</time></trkpt><trkpt lat="44.44861275971636" lon="11.408235025028949"><ele>93.33333333333333</ele><time>2026-04-25T08:08:54.887Z</time></trkpt><trkpt lat="44.44852687898313" lon="11.408217771522917"><ele>93.0</ele><time>2026-04-25T08:08:56.887Z</time></trkpt><trkpt lat="44.448450021765076" lon="11.408187500483873"><ele>92.66666666666667</ele><time>2026-04-25T08:08:58.887Z</time></trkpt><trkpt lat="44.44836625354632" lon="11.408160737739681"><ele>92.33333333333334</ele><time>2026-04-25T08:09:00.886Z</time></trkpt><trkpt lat="44.44829106832122" lon="11.408117480623467"><ele>92.0</ele><time>2026-04-25T08:09:02.886Z</time></trkpt><trkpt lat="44.44821371606324" lon="11.408055724742042"><ele>92.5</ele><time>2026-04-25T08:09:04.886Z</time></trkpt><trkpt lat="44.44816863999383" lon="11.40794764067998"><ele>93.0</ele><time>2026-04-25T08:09:06.886Z</time></trkpt><trkpt lat="44.44817214205697" lon="11.407827609071331"><ele>93.5</ele><time>2026-04-25T08:09:08.886Z</time></trkpt><trkpt lat="44.44818475393899" lon="11.407712752667786"><ele>94.0</ele><time>2026-04-25T08:09:10.886Z</time></trkpt><trkpt lat="44.44820650066053" lon="11.407597589039208"><ele>94.5</ele><time>2026-04-25T08:09:12.886Z</time></trkpt><trkpt lat="44.448217208107486" lon="11.407473854596297"><ele>95.0</ele><time>2026-04-25T08:09:14.886Z</time></trkpt><trkpt lat="44.44822853583089" lon="11.407364187465511"><ele>95.0</ele><time>2026-04-25T08:09:16.886Z</time></trkpt><trkpt lat="44.44824047248075" lon="11.40725652445564"><ele>95.0</ele><time>2026-04-25T08:09:18.886Z</time></trkpt><trkpt lat="44.44825111611705" lon="11.40714605877582"><ele>95.0</ele><time>2026-04-25T08:09:20.886Z</time></trkpt><trkpt lat="44.44826673314661" lon="11.407035918632895"><ele>95.0</ele><time>2026-04-25T08:09:22.886Z</time></trkpt><trkpt lat="44.448276327597945" lon="11.406923535294533"><ele>95.0</ele><time>2026-04-25T08:09:24.886Z</time></trkpt><trkpt lat="44.448289563464066" lon="11.406812064588738"><ele>95.0</ele><time>2026-04-25T08:09:26.885Z</time></trkpt><trkpt lat="44.44830752160496" lon="11.40670120627655"><ele>94.83333333333334</ele><time>2026-04-25T08:09:28.885Z</time></trkpt><trkpt lat="44.44830927757978" lon="11.40658666194558"><ele>94.66666666666667</ele><time>2026-04-25T08:09:30.885Z</time></trkpt><trkpt lat="44.448315564776095" lon="11.406473736429257"><ele>94.5</ele><time>2026-04-25T08:09:32.885Z</time></trkpt><trkpt lat="44.448299641291236" lon="11.406359572221128"><ele>94.33333333333333</ele><time>2026-04-25T08:09:34.885Z</time></trkpt><trkpt lat="44.448246203621544" lon="11.406276750105938"><ele>94.16666666666666</ele><time>2026-04-25T08:09:36.885Z</time></trkpt><trkpt lat="44.44817386305518" lon="11.406210874702353"><ele>94.0</ele><time>2026-04-25T08:09:38.885Z</time></trkpt><trkpt lat="44.44810990499303" lon="11.406165123041458"><ele>94.42857142857143</ele><time>2026-04-25T08:09:40.887Z</time></trkpt><trkpt lat="44.44804792452537" lon="11.406123928254651"><ele>94.85714285714286</ele><time>2026-04-25T08:09:42.887Z</time></trkpt><trkpt lat="44.447986020540796" lon="11.40609041616866"><ele>95.28571428571428</ele><time>2026-04-25T08:09:44.886Z</time></trkpt><trkpt lat="44.44792057924112" lon="11.406053892091698"><ele>95.71428571428572</ele><time>2026-04-25T08:09:46.887Z</time></trkpt><trkpt lat="44.44785433848129" lon="11.406020387993962"><ele>96.14285714285715</ele><time>2026-04-25T08:09:48.887Z</time></trkpt><trkpt lat="44.44778875479991" lon="11.405984561452769"><ele>96.57142857142857</ele><time>2026-04-25T08:09:50.886Z</time></trkpt><trkpt lat="44.447701433136224" lon="11.40593288601321"><ele>97.0</ele><time>2026-04-25T08:09:53.887Z</time></trkpt><trkpt lat="44.44764478875375" lon="11.405890568216515"><ele>97.16666666666667</ele><time>2026-04-25T08:09:55.886Z</time></trkpt><trkpt lat="44.44758571059332" lon="11.40585396348385"><ele>97.33333333333334</ele><time>2026-04-25T08:09:57.886Z</time></trkpt><trkpt lat="44.44750221288603" lon="11.405793952163412"><ele>97.5</ele><time>2026-04-25T08:10:00.886Z</time></trkpt><trkpt lat="44.44744314980698" lon="11.40576263060537"><ele>97.66666666666666</ele><time>2026-04-25T08:10:02.886Z</time></trkpt><trkpt lat="44.447362159663705" lon="11.405700590272982"><ele>97.83333333333333</ele><time>2026-04-25T08:10:05.886Z</time></trkpt><trkpt lat="44.447279645882865" lon="11.405653870852067"><ele>98.0</ele><time>2026-04-25T08:10:08.886Z</time></trkpt><trkpt lat="44.447219110919164" lon="11.405610316873338"><ele>97.99999999999999</ele><time>2026-04-25T08:10:10.886Z</time></trkpt><trkpt lat="44.447162485359" lon="11.405567507079308"><ele>98.0</ele><time>2026-04-25T08:10:12.886Z</time></trkpt><trkpt lat="44.44707874520938" lon="11.405520065378003"><ele>98.0</ele><time>2026-04-25T08:10:15.886Z</time></trkpt><trkpt lat="44.446999702112834" lon="11.40545710941076"><ele>98.0</ele><time>2026-04-25T08:10:18.886Z</time></trkpt><trkpt lat="44.446917665878864" lon="11.40540989967844"><ele>97.99999999999999</ele><time>2026-04-25T08:10:21.885Z</time></trkpt><trkpt lat="44.44685939034015" lon="11.405372658663563"><ele>98.0</ele><time>2026-04-25T08:10:23.885Z</time></trkpt><trkpt lat="44.44678263198953" lon="11.405320729974976"><ele>99.33333333333333</ele><time>2026-04-25T08:10:26.885Z</time></trkpt><trkpt lat="44.446725938255824" lon="11.405280439403112"><ele>100.66666666666666</ele><time>2026-04-25T08:10:28.885Z</time></trkpt><trkpt lat="44.44664446982341" lon="11.405233253518142"><ele>102.0</ele><time>2026-04-25T08:10:31.885Z</time></trkpt><trkpt lat="44.44656041839338" lon="11.40518923544012"><ele>103.33333333333334</ele><time>2026-04-25T08:10:34.885Z</time></trkpt><trkpt lat="44.4464886640044" lon="11.405142685583849"><ele>104.66666666666667</ele><time>2026-04-25T08:10:37.885Z</time></trkpt><trkpt lat="44.4464221351434" lon="11.405099359512159"><ele>106.0</ele><time>2026-04-25T08:10:40.885Z</time></trkpt><trkpt lat="44.446366349999906" lon="11.405032635846378"><ele>106.00000000000001</ele><time>2026-04-25T08:10:43.885Z</time></trkpt><trkpt lat="44.446330439519215" lon="11.404953547687043"><ele>106.0</ele><time>2026-04-25T08:10:46.885Z</time></trkpt><trkpt lat="44.446344658161735" lon="11.404857599502305"><ele>106.0</ele><time>2026-04-25T08:10:50.884Z</time></trkpt><trkpt lat="44.446365745914456" lon="11.404742479281493"><ele>106.0</ele><time>2026-04-25T08:10:54.884Z</time></trkpt><trkpt lat="44.44637769379268" lon="11.404639961503111"><ele>106.00000000000001</ele><time>2026-04-25T08:10:58.884Z</time></trkpt><trkpt lat="44.44639522330138" lon="11.40453079018699"><ele>106.0</ele><time>2026-04-25T08:11:02.884Z</time></trkpt><trkpt lat="44.44642963150575" lon="11.404430816678166"><ele>106.28571428571429</ele><time>2026-04-25T08:11:06.884Z</time></trkpt><trkpt lat="44.44645037985242" lon="11.40434573141197"><ele>106.57142857142857</ele><time>2026-04-25T08:11:10.884Z</time></trkpt><trkpt lat="44.44645853522" lon="11.404241391772299"><ele>106.85714285714286</ele><time>2026-04-25T08:11:15.884Z</time></trkpt><trkpt lat="44.44643867987978" lon="11.404136045841032"><ele>107.14285714285714</ele><time>2026-04-25T08:11:20.883Z</time></trkpt><trkpt lat="44.4463775735527" lon="11.404079751253025"><ele>107.42857142857142</ele><time>2026-04-25T08:11:25.883Z</time></trkpt><trkpt lat="44.44631380310986" lon="11.404025756353585"><ele>107.71428571428571</ele><time>2026-04-25T08:11:30.883Z</time></trkpt><trkpt lat="44.446252318078805" lon="11.403969878578403"><ele>108.0</ele><time>2026-04-25T08:11:35.883Z</time></trkpt><trkpt lat="44.44619250880427" lon="11.403910061448004"><ele>108.57142857142857</ele><time>2026-04-25T08:11:41.883Z</time></trkpt><trkpt lat="44.446126104231126" lon="11.403868794787579"><ele>109.14285714285714</ele><time>2026-04-25T08:11:47.884Z</time></trkpt><trkpt lat="44.44607182878197" lon="11.403810791266935"><ele>109.71428571428572</ele><time>2026-04-25T08:11:53.884Z</time></trkpt><trkpt lat="44.44600867952201" lon="11.403791785381996"><ele>110.28571428571428</ele><time>2026-04-25T08:11:58.884Z</time></trkpt><trkpt lat="44.445948163068344" lon="11.403729459811995"><ele>110.85714285714286</ele><time>2026-04-25T08:12:03.884Z</time></trkpt><trkpt lat="44.4458921028357" lon="11.40368221427476"><ele>111.42857142857143</ele><time>2026-04-25T08:12:08.883Z</time></trkpt><trkpt lat="44.44583376811457" lon="11.403626826848235"><ele>112.0</ele><time>2026-04-25T08:12:14.883Z</time></trkpt><trkpt lat="44.44581852293478" lon="11.403532571605568"><ele>113.57142857142857</ele><time>2026-04-25T08:12:19.883Z</time></trkpt><trkpt lat="44.445853753607544" lon="11.403456869072889"><ele>115.14285714285714</ele><time>2026-04-25T08:12:23.883Z</time></trkpt><trkpt lat="44.445887272739135" lon="11.403371859297993"><ele>116.71428571428572</ele><time>2026-04-25T08:12:28.883Z</time></trkpt><trkpt lat="44.445905692326804" lon="11.403267009244134"><ele>118.28571428571429</ele><time>2026-04-25T08:12:35.882Z</time></trkpt><trkpt lat="44.44594079290756" lon="11.403180188061766"><ele>119.85714285714286</ele><time>2026-04-25T08:12:39.882Z</time></trkpt><trkpt lat="44.44597159623884" lon="11.403095534836277"><ele>121.42857142857144</ele><time>2026-04-25T08:12:44.882Z</time></trkpt><trkpt lat="44.44601343110776" lon="11.403026732734865"><ele>123.00000000000001</ele><time>2026-04-25T08:12:50.882Z</time></trkpt><trkpt lat="44.446039660366424" lon="11.402943902463601"><ele>123.71428571428572</ele><time>2026-04-25T08:12:55.882Z</time></trkpt><trkpt lat="44.446074546713916" lon="11.402863597753308"><ele>124.42857142857143</ele><time>2026-04-25T08:13:00.881Z</time></trkpt><trkpt lat="44.446119323450226" lon="11.40278155423759"><ele>125.14285714285714</ele><time>2026-04-25T08:13:05.881Z</time></trkpt><trkpt lat="44.446151962246844" lon="11.402698774834771"><ele>125.85714285714286</ele><time>2026-04-25T08:13:10.881Z</time></trkpt><trkpt lat="44.446197978809025" lon="11.402618754042848"><ele>126.57142857142856</ele><time>2026-04-25T08:13:16.881Z</time></trkpt><trkpt lat="44.446237345434604" lon="11.402546592544262"><ele>127.28571428571428</ele><time>2026-04-25T08:13:21.881Z</time></trkpt><trkpt lat="44.44628047007126" lon="11.40247187769989"><ele>128.0</ele><time>2026-04-25T08:13:27.88Z</time></trkpt><trkpt lat="44.446312197434914" lon="11.402383723923215"><ele>128.0</ele><time>2026-04-25T08:13:33.88Z</time></trkpt><trkpt lat="44.44635045706189" lon="11.40230603281122"><ele>127.99999999999999</ele><time>2026-04-25T08:13:39.88Z</time></trkpt><trkpt lat="44.44639090165258" lon="11.402207881725396"><ele>128.0</ele><time>2026-04-25T08:13:45.88Z</time></trkpt><trkpt lat="44.44642784257865" lon="11.402129435638471"><ele>128.0</ele><time>2026-04-25T08:13:50.88Z</time></trkpt><trkpt lat="44.44645426458345" lon="11.402048840767353"><ele>127.99999999999999</ele><time>2026-04-25T08:13:55.881Z</time></trkpt><trkpt lat="44.44649273043779" lon="11.401969790313155"><ele>128.0</ele><time>2026-04-25T08:14:01.882Z</time></trkpt><trkpt lat="44.44651695068827" lon="11.40187218994782"><ele>128.0</ele><time>2026-04-25T08:14:06.881Z</time></trkpt><trkpt lat="44.44655398014331" lon="11.40179342841937"><ele>130.0</ele><time>2026-04-25T08:14:12.881Z</time></trkpt><trkpt lat="44.446578351451556" lon="11.401692732920038"><ele>132.0</ele><time>2026-04-25T08:14:18.881Z</time></trkpt><trkpt lat="44.44660109190093" lon="11.401596424338278"><ele>134.0</ele><time>2026-04-25T08:14:23.881Z</time></trkpt><trkpt lat="44.446635431485966" lon="11.40151359500269"><ele>136.0</ele><time>2026-04-25T08:14:29.88Z</time></trkpt><trkpt lat="44.446683625404575" lon="11.401432935669542"><ele>138.0</ele><time>2026-04-25T08:14:34.88Z</time></trkpt><trkpt lat="44.44671948789343" lon="11.401352851826967"><ele>140.0</ele><time>2026-04-25T08:14:40.88Z</time></trkpt><trkpt lat="44.44674105210032" lon="11.401267577180906"><ele>142.0</ele><time>2026-04-25T08:14:46.88Z</time></trkpt><trkpt lat="44.44674045615099" lon="11.401174371619488"><ele>142.42857142857142</ele><time>2026-04-25T08:14:52.879Z</time></trkpt><trkpt lat="44.446696401970684" lon="11.401081431743654"><ele>142.85714285714283</ele><time>2026-04-25T08:15:09.879Z</time></trkpt><trkpt lat="44.44662580958759" lon="11.401068663519323"><ele>143.28571428571428</ele><time>2026-04-25T08:15:17.878Z</time></trkpt><trkpt lat="44.446553185932" lon="11.401053105381415"><ele>143.71428571428572</ele><time>2026-04-25T08:15:22.878Z</time></trkpt><trkpt lat="44.44648899866354" lon="11.401026690180384"><ele>144.14285714285717</ele><time>2026-04-25T08:15:26.878Z</time></trkpt><trkpt lat="44.44641778416454" lon="11.400988892727181"><ele>144.57142857142858</ele><time>2026-04-25T08:15:31.878Z</time></trkpt><trkpt lat="44.44634959949147" lon="11.40095623846709"><ele>145.0</ele><time>2026-04-25T08:15:35.878Z</time></trkpt><trkpt lat="44.44628865161412" lon="11.400921275297122"><ele>145.14285714285714</ele><time>2026-04-25T08:15:38.878Z</time></trkpt><trkpt lat="44.44621111487385" lon="11.400896232301218"><ele>145.2857142857143</ele><time>2026-04-25T08:15:42.878Z</time></trkpt><trkpt lat="44.446142760131785" lon="11.400902159924883"><ele>145.42857142857144</ele><time>2026-04-25T08:15:45.877Z</time></trkpt><trkpt lat="44.446070070596726" lon="11.400915330834113"><ele>145.57142857142858</ele><time>2026-04-25T08:15:48.877Z</time></trkpt><trkpt lat="44.44600457325523" lon="11.400931938235438"><ele>145.71428571428572</ele><time>2026-04-25T08:15:51.877Z</time></trkpt><trkpt lat="44.44593162690209" lon="11.400956169723843"><ele>145.85714285714286</ele><time>2026-04-25T08:15:54.877Z</time></trkpt><trkpt lat="44.44584956106843" lon="11.400976642203993"><ele>146.0</ele><time>2026-04-25T08:15:58.879Z</time></trkpt><trkpt lat="44.44578370807583" lon="11.40102004617198"><ele>146.0</ele><time>2026-04-25T08:16:01.878Z</time></trkpt><trkpt lat="44.445711465193696" lon="11.401057055266522"><ele>146.0</ele><time>2026-04-25T08:16:04.878Z</time></trkpt><trkpt lat="44.44564003024676" lon="11.401079748208755"><ele>146.0</ele><time>2026-04-25T08:16:07.878Z</time></trkpt><trkpt lat="44.44556825290547" lon="11.4010896726217"><ele>146.0</ele><time>2026-04-25T08:16:10.879Z</time></trkpt><trkpt lat="44.445502547012424" lon="11.40111888225523"><ele>146.0</ele><time>2026-04-25T08:16:13.878Z</time></trkpt><trkpt lat="44.44542063706068" lon="11.401149665681677"><ele>146.0</ele><time>2026-04-25T08:16:16.878Z</time></trkpt><trkpt lat="44.44535189068602" lon="11.401183881516445"><ele>146.0</ele><time>2026-04-25T08:16:19.878Z</time></trkpt><trkpt lat="44.44527719436972" lon="11.401216511433837"><ele>145.71428571428572</ele><time>2026-04-25T08:16:22.878Z</time></trkpt><trkpt lat="44.44520358520538" lon="11.401235803971296"><ele>145.42857142857144</ele><time>2026-04-25T08:16:25.878Z</time></trkpt><trkpt lat="44.445134406334894" lon="11.401261185236102"><ele>145.14285714285717</ele><time>2026-04-25T08:16:28.878Z</time></trkpt><trkpt lat="44.4450633634056" lon="11.401277537605283"><ele>144.85714285714286</ele><time>2026-04-25T08:16:31.878Z</time></trkpt><trkpt lat="44.44499516805377" lon="11.401298335175447"><ele>144.57142857142858</ele><time>2026-04-25T08:16:34.878Z</time></trkpt><trkpt lat="44.44493212513805" lon="11.401325098501903"><ele>144.2857142857143</ele><time>2026-04-25T08:16:37.878Z</time></trkpt><trkpt lat="44.44486861013402" lon="11.401350686501122"><ele>144.0</ele><time>2026-04-25T08:16:40.877Z</time></trkpt><trkpt lat="44.444794003831035" lon="11.401371639697475"><ele>144.00000000000003</ele><time>2026-04-25T08:16:44.877Z</time></trkpt><trkpt lat="44.444728742006085" lon="11.401370091925289"><ele>144.0</ele><time>2026-04-25T08:16:47.877Z</time></trkpt><trkpt lat="44.44466305561572" lon="11.401364694967178"><ele>144.0</ele><time>2026-04-25T08:16:50.877Z</time></trkpt><trkpt lat="44.444583111128026" lon="11.401347252893427"><ele>144.0</ele><time>2026-04-25T08:16:54.877Z</time></trkpt><trkpt lat="44.4445140823039" lon="11.401331492040734"><ele>144.0</ele><time>2026-04-25T08:16:59.877Z</time></trkpt><trkpt lat="44.444447106068964" lon="11.401321058598425"><ele>144.00000000000003</ele><time>2026-04-25T08:20:13.873Z</time></trkpt><trkpt lat="44.444384936292465" lon="11.401268287848781"><ele>144.0</ele><time>2026-04-25T08:20:19.872Z</time></trkpt><trkpt lat="44.44432176086253" lon="11.401220804606417"><ele>145.85714285714286</ele><time>2026-04-25T08:20:24.872Z</time></trkpt><trkpt lat="44.44426267652634" lon="11.4011797953272"><ele>147.71428571428572</ele><time>2026-04-25T08:20:29.872Z</time></trkpt><trkpt lat="44.44420245471578" lon="11.401122844197884"><ele>149.57142857142856</ele><time>2026-04-25T08:20:35.871Z</time></trkpt><trkpt lat="44.44414758968526" lon="11.40107471775885"><ele>151.42857142857144</ele><time>2026-04-25T08:20:40.871Z</time></trkpt><trkpt lat="44.44408693837066" lon="11.401028563625838"><ele>153.28571428571428</ele><time>2026-04-25T08:20:45.871Z</time></trkpt><trkpt lat="44.4440285156556" lon="11.4009700484005"><ele>155.14285714285714</ele><time>2026-04-25T08:20:50.871Z</time></trkpt><trkpt lat="44.44396888058783" lon="11.400911883397177"><ele>157.0</ele><time>2026-04-25T08:20:56.871Z</time></trkpt><trkpt lat="44.443917541231855" lon="11.40085109745853"><ele>156.99999999999997</ele><time>2026-04-25T08:21:02.87Z</time></trkpt><trkpt lat="44.443870879249275" lon="11.400766591717726"><ele>157.0</ele><time>2026-04-25T08:21:07.87Z</time></trkpt><trkpt lat="44.44382473564952" lon="11.400682975449891"><ele>157.0</ele><time>2026-04-25T08:21:13.87Z</time></trkpt><trkpt lat="44.44377976477098" lon="11.400614876121525"><ele>157.0</ele><time>2026-04-25T08:21:18.87Z</time></trkpt><trkpt lat="44.44373649416357" lon="11.400533837631826"><ele>157.0</ele><time>2026-04-25T08:21:24.869Z</time></trkpt><trkpt lat="44.4436867503657" lon="11.400464289890685"><ele>156.99999999999997</ele><time>2026-04-25T08:21:29.869Z</time></trkpt><trkpt lat="44.44363552569098" lon="11.400397709905503"><ele>157.0</ele><time>2026-04-25T08:21:35.869Z</time></trkpt><trkpt lat="44.44357901840315" lon="11.400349721042542"><ele>159.57142857142856</ele><time>2026-04-25T08:21:40.869Z</time></trkpt><trkpt lat="44.443513165477" lon="11.400288914046389"><ele>162.14285714285714</ele><time>2026-04-25T08:21:46.869Z</time></trkpt><trkpt lat="44.443459372514496" lon="11.400240629755764"><ele>164.71428571428572</ele><time>2026-04-25T08:21:51.868Z</time></trkpt><trkpt lat="44.44340022508898" lon="11.400197303141445"><ele>167.28571428571428</ele><time>2026-04-25T08:21:56.866Z</time></trkpt><trkpt lat="44.44335027612348" lon="11.40012247378922"><ele>169.85714285714286</ele><time>2026-04-25T08:22:01.864Z</time></trkpt><trkpt lat="44.44328663902836" lon="11.400064820483886"><ele>172.42857142857142</ele><time>2026-04-25T08:22:06.863Z</time></trkpt><trkpt lat="44.443237562737174" lon="11.399985193331284"><ele>175.0</ele><time>2026-04-25T08:22:12.862Z</time></trkpt><trkpt lat="44.44317624922138" lon="11.399937779049857"><ele>175.0</ele><time>2026-04-25T08:22:17.863Z</time></trkpt><trkpt lat="44.443114119194654" lon="11.399888651839397"><ele>175.0</ele><time>2026-04-25T08:22:22.862Z</time></trkpt><trkpt lat="44.44305717289308" lon="11.399839521109996"><ele>175.0</ele><time>2026-04-25T08:22:27.862Z</time></trkpt><trkpt lat="44.44299876613899" lon="11.399786064966865"><ele>175.0</ele><time>2026-04-25T08:22:32.862Z</time></trkpt><trkpt lat="44.44294761342076" lon="11.399733086919161"><ele>175.0</ele><time>2026-04-25T08:22:36.861Z</time></trkpt><trkpt lat="44.44288894008692" lon="11.399669447096526"><ele>175.0</ele><time>2026-04-25T08:22:41.861Z</time></trkpt><trkpt lat="44.44283339923019" lon="11.399613512700679"><ele>175.0</ele><time>2026-04-25T08:22:46.861Z</time></trkpt><trkpt lat="44.44277538909706" lon="11.399555398351827"><ele>176.28571428571428</ele><time>2026-04-25T08:22:52.861Z</time></trkpt><trkpt lat="44.44271841346533" lon="11.399503016852385"><ele>177.57142857142856</ele><time>2026-04-25T08:22:57.86Z</time></trkpt><trkpt lat="44.4426596086418" lon="11.399445025227289"><ele>178.85714285714286</ele><time>2026-04-25T08:23:02.86Z</time></trkpt><trkpt lat="44.4425998558175" lon="11.399373754948591"><ele>180.14285714285714</ele><time>2026-04-25T08:23:09.86Z</time></trkpt><trkpt lat="44.44254566076289" lon="11.399309933774969"><ele>181.42857142857142</ele><time>2026-04-25T08:23:16.86Z</time></trkpt><trkpt lat="44.44248967436343" lon="11.399241671126418"><ele>182.71428571428572</ele><time>2026-04-25T08:23:22.859Z</time></trkpt><trkpt lat="44.44243729089553" lon="11.399186167668555"><ele>184.0</ele><time>2026-04-25T08:23:27.859Z</time></trkpt><trkpt lat="44.4423871584415" lon="11.399111228960699"><ele>184.0</ele><time>2026-04-25T08:23:33.859Z</time></trkpt><trkpt lat="44.442331443841596" lon="11.39903798034789"><ele>184.0</ele><time>2026-04-25T08:23:39.859Z</time></trkpt><trkpt lat="44.442267563201895" lon="11.398986098810733"><ele>184.0</ele><time>2026-04-25T08:23:45.858Z</time></trkpt><trkpt lat="44.44221696024938" lon="11.398928460427786"><ele>184.0</ele><time>2026-04-25T08:23:50.858Z</time></trkpt><trkpt lat="44.44215497815161" lon="11.398894247580545"><ele>184.0</ele><time>2026-04-25T08:23:55.858Z</time></trkpt><trkpt lat="44.442096651410715" lon="11.39884200279227"><ele>184.0</ele><time>2026-04-25T08:24:00.858Z</time></trkpt><trkpt lat="44.44204976601144" lon="11.398777748636972"><ele>184.0</ele><time>2026-04-25T08:24:06.858Z</time></trkpt><trkpt lat="44.44199829764858" lon="11.39871808695804"><ele>184.42857142857144</ele><time>2026-04-25T08:24:11.857Z</time></trkpt><trkpt lat="44.441938659803135" lon="11.398651036916599"><ele>184.85714285714283</ele><time>2026-04-25T08:24:17.857Z</time></trkpt><trkpt lat="44.44188315299212" lon="11.398584162792195"><ele>185.28571428571428</ele><time>2026-04-25T08:24:23.859Z</time></trkpt><trkpt lat="44.44182937875205" lon="11.398535473536269"><ele>185.71428571428572</ele><time>2026-04-25T08:24:29.858Z</time></trkpt><trkpt lat="44.44178768499367" lon="11.398462661348953"><ele>186.14285714285717</ele><time>2026-04-25T08:24:38.858Z</time></trkpt><trkpt lat="44.44176852735219" lon="11.398353445239533"><ele>186.57142857142856</ele><time>2026-04-25T08:25:26.856Z</time></trkpt><trkpt lat="44.44177024672886" lon="11.39826479549218"><ele>187.0</ele><time>2026-04-25T08:25:30.856Z</time></trkpt><trkpt lat="44.44178646897329" lon="11.398174654046201"><ele>187.0</ele><time>2026-04-25T08:25:33.856Z</time></trkpt><trkpt lat="44.441814689132606" lon="11.39806840084237"><ele>187.0</ele><time>2026-04-25T08:25:37.856Z</time></trkpt><trkpt lat="44.441855813783356" lon="11.397981465908922"><ele>187.0</ele><time>2026-04-25T08:25:40.855Z</time></trkpt><trkpt lat="44.441904331463704" lon="11.397905147049038"><ele>187.0</ele><time>2026-04-25T08:25:43.855Z</time></trkpt><trkpt lat="44.44194697459375" lon="11.397793734973792"><ele>187.0</ele><time>2026-04-25T08:25:47.855Z</time></trkpt><trkpt lat="44.44196494721416" lon="11.397687996453131"><ele>187.0</ele><time>2026-04-25T08:25:50.855Z</time></trkpt><trkpt lat="44.44196052490246" lon="11.397579738789323"><ele>186.83333333333334</ele><time>2026-04-25T08:25:53.855Z</time></trkpt><trkpt lat="44.44196877040106" lon="11.397478884520655"><ele>186.66666666666669</ele><time>2026-04-25T08:25:56.855Z</time></trkpt><trkpt lat="44.44201701921354" lon="11.39736802628412"><ele>186.5</ele><time>2026-04-25T08:25:59.855Z</time></trkpt><trkpt lat="44.442031237489374" lon="11.397245544067035"><ele>186.33333333333334</ele><time>2026-04-25T08:26:02.855Z</time></trkpt><trkpt lat="44.44204094273879" lon="11.397148919925462"><ele>186.16666666666666</ele><time>2026-04-25T08:26:04.855Z</time></trkpt><trkpt lat="44.44203738874664" lon="11.397031013995027"><ele>186.0</ele><time>2026-04-25T08:26:07.854Z</time></trkpt><trkpt lat="44.44205449352982" lon="11.396915075439544"><ele>186.0</ele><time>2026-04-25T08:26:10.854Z</time></trkpt><trkpt lat="44.442059413952066" lon="11.396797770612281"><ele>186.0</ele><time>2026-04-25T08:26:13.854Z</time></trkpt><trkpt lat="44.44206383037918" lon="11.396676230432806"><ele>186.0</ele><time>2026-04-25T08:26:16.854Z</time></trkpt><trkpt lat="44.44207407850307" lon="11.396556172072032"><ele>186.0</ele><time>2026-04-25T08:26:19.854Z</time></trkpt><trkpt lat="44.44207947632946" lon="11.396435849103423"><ele>186.0</ele><time>2026-04-25T08:26:22.854Z</time></trkpt><trkpt lat="44.44209251182859" lon="11.396330010657882"><ele>186.0</ele><time>2026-04-25T08:26:25.854Z</time></trkpt><trkpt lat="44.44209867607256" lon="11.39621036522929"><ele>186.66666666666666</ele><time>2026-04-25T08:26:28.855Z</time></trkpt><trkpt lat="44.44211745090287" lon="11.396106500228079"><ele>187.33333333333334</ele><time>2026-04-25T08:26:31.855Z</time></trkpt><trkpt lat="44.44212458561629" lon="11.396002278205808"><ele>188.0</ele><time>2026-04-25T08:26:34.856Z</time></trkpt><trkpt lat="44.44212199802903" lon="11.395896214924965"><ele>188.66666666666669</ele><time>2026-04-25T08:26:37.855Z</time></trkpt><trkpt lat="44.44212907109252" lon="11.395805473063023"><ele>189.33333333333334</ele><time>2026-04-25T08:26:40.855Z</time></trkpt><trkpt lat="44.44209706748247" lon="11.395694583824762"><ele>190.0</ele><time>2026-04-25T08:26:43.855Z</time></trkpt><trkpt lat="44.44205373386158" lon="11.395606852330907"><ele>191.0</ele><time>2026-04-25T08:26:46.855Z</time></trkpt><trkpt lat="44.44199310931715" lon="11.395495310158605"><ele>192.0</ele><time>2026-04-25T08:26:49.855Z</time></trkpt><trkpt lat="44.44194415113696" lon="11.395392469470044"><ele>193.0</ele><time>2026-04-25T08:26:51.855Z</time></trkpt><trkpt lat="44.44188375604213" lon="11.395268279642302"><ele>194.0</ele><time>2026-04-25T08:26:53.855Z</time></trkpt><trkpt lat="44.44183617228583" lon="11.39513710724603"><ele>195.0</ele><time>2026-04-25T08:26:55.855Z</time></trkpt><trkpt lat="44.4417854249904" lon="11.39499986705588"><ele>195.0</ele><time>2026-04-25T08:26:57.855Z</time></trkpt><trkpt lat="44.441744103716864" lon="11.394847884298061"><ele>195.0</ele><time>2026-04-25T08:26:59.854Z</time></trkpt><trkpt lat="44.441732123376944" lon="11.394757093655631"><ele>195.0</ele><time>2026-04-25T08:27:00.854Z</time></trkpt><trkpt lat="44.441693902089014" lon="11.394606525781727"><ele>195.0</ele><time>2026-04-25T08:27:02.854Z</time></trkpt><trkpt lat="44.441680115432455" lon="11.394486802077475"><ele>195.0</ele><time>2026-04-25T08:27:04.854Z</time></trkpt><trkpt lat="44.44165845099681" lon="11.394382926624264"><ele>195.2</ele><time>2026-04-25T08:27:06.854Z</time></trkpt><trkpt lat="44.44159736258521" lon="11.394252500062278"><ele>195.4</ele><time>2026-04-25T08:27:08.854Z</time></trkpt><trkpt lat="44.441540186502216" lon="11.394103434260199"><ele>195.60000000000002</ele><time>2026-04-25T08:27:10.854Z</time></trkpt><trkpt lat="44.44151644876024" lon="11.394012200584255"><ele>195.8</ele><time>2026-04-25T08:27:11.854Z</time></trkpt><trkpt lat="44.44148857188448" lon="11.393913845768397"><ele>196.0</ele><time>2026-04-25T08:27:12.854Z</time></trkpt><trkpt lat="44.44147395282806" lon="11.393813938356809"><ele>194.83333333333331</ele><time>2026-04-25T08:27:13.854Z</time></trkpt><trkpt lat="44.44145659222855" lon="11.393707165507976"><ele>193.66666666666666</ele><time>2026-04-25T08:27:14.854Z</time></trkpt><trkpt lat="44.44143750372028" lon="11.393599357851588"><ele>192.5</ele><time>2026-04-25T08:27:15.854Z</time></trkpt><trkpt lat="44.44141395167007" lon="11.3935021122428"><ele>191.33333333333331</ele><time>2026-04-25T08:27:16.854Z</time></trkpt><trkpt lat="44.44139600522554" lon="11.393378457151757"><ele>190.16666666666666</ele><time>2026-04-25T08:27:17.854Z</time></trkpt><trkpt lat="44.44135997638643" lon="11.39327680888081"><ele>189.0</ele><time>2026-04-25T08:27:18.854Z</time></trkpt><trkpt lat="44.44132971155131" lon="11.39318913581207"><ele>189.0</ele><time>2026-04-25T08:27:19.854Z</time></trkpt><trkpt lat="44.441304318237364" lon="11.393049045737387"><ele>189.0</ele><time>2026-04-25T08:27:21.854Z</time></trkpt><trkpt lat="44.44123221438534" lon="11.39299149533199"><ele>189.0</ele><time>2026-04-25T08:27:22.854Z</time></trkpt><trkpt lat="44.441169038596925" lon="11.392877236694785"><ele>189.0</ele><time>2026-04-25T08:27:24.853Z</time></trkpt><trkpt lat="44.44112315421274" lon="11.392732661808193"><ele>189.0</ele><time>2026-04-25T08:27:26.853Z</time></trkpt><trkpt lat="44.44106869936278" lon="11.392611508671953"><ele>189.2</ele><time>2026-04-25T08:27:28.853Z</time></trkpt><trkpt lat="44.44103967139845" lon="11.392487557033714"><ele>189.39999999999998</ele><time>2026-04-25T08:27:30.853Z</time></trkpt><trkpt lat="44.44102339770295" lon="11.392358267679343"><ele>189.6</ele><time>2026-04-25T08:27:32.853Z</time></trkpt><trkpt lat="44.44100928912599" lon="11.392203874829864"><ele>189.8</ele><time>2026-04-25T08:27:34.853Z</time></trkpt><trkpt lat="44.440996618520934" lon="11.39204444130929"><ele>190.0</ele><time>2026-04-25T08:27:36.853Z</time></trkpt><trkpt lat="44.440985180057474" lon="11.391883420356184"><ele>190.4</ele><time>2026-04-25T08:27:38.853Z</time></trkpt><trkpt lat="44.440980389117925" lon="11.391719078063176"><ele>190.8</ele><time>2026-04-25T08:27:40.853Z</time></trkpt><trkpt lat="44.44099623126455" lon="11.3916133493653"><ele>191.2</ele><time>2026-04-25T08:27:42.853Z</time></trkpt><trkpt lat="44.441029429664994" lon="11.391517962293403"><ele>191.6</ele><time>2026-04-25T08:27:44.853Z</time></trkpt><trkpt lat="44.44111146779007" lon="11.391405260786762"><ele>192.0</ele><time>2026-04-25T08:27:46.853Z</time></trkpt><trkpt lat="44.44117801624268" lon="11.391384806968539"><ele>192.0</ele><time>2026-04-25T08:27:47.853Z</time></trkpt><trkpt lat="44.44124165785998" lon="11.391351208099591"><ele>192.0</ele><time>2026-04-25T08:27:48.853Z</time></trkpt><trkpt lat="44.44130906211891" lon="11.39131365899051"><ele>192.0</ele><time>2026-04-25T08:27:49.852Z</time></trkpt><trkpt lat="44.44137596293105" lon="11.391249694620383"><ele>192.0</ele><time>2026-04-25T08:27:50.852Z</time></trkpt><trkpt lat="44.441463178608345" lon="11.391213891531223"><ele>192.0</ele><time>2026-04-25T08:27:51.852Z</time></trkpt><trkpt lat="44.441531065148546" lon="11.39116189121002"><ele>192.0</ele><time>2026-04-25T08:27:52.852Z</time></trkpt><trkpt lat="44.44159879025316" lon="11.391097279370614"><ele>190.5</ele><time>2026-04-25T08:27:53.852Z</time></trkpt><trkpt lat="44.44167631934581" lon="11.391028219932767"><ele>189.0</ele><time>2026-04-25T08:27:54.852Z</time></trkpt><trkpt lat="44.44175389199233" lon="11.390975419811605"><ele>187.5</ele><time>2026-04-25T08:27:55.852Z</time></trkpt><trkpt lat="44.44183035450076" lon="11.39090475071829"><ele>186.0</ele><time>2026-04-25T08:27:56.852Z</time></trkpt><trkpt lat="44.441903641870816" lon="11.390841974592384"><ele>184.5</ele><time>2026-04-25T08:27:57.852Z</time></trkpt><trkpt lat="44.44197262750164" lon="11.390771097332875"><ele>183.0</ele><time>2026-04-25T08:27:58.852Z</time></trkpt><trkpt lat="44.44203671687745" lon="11.390712505688654"><ele>183.0</ele><time>2026-04-25T08:27:59.852Z</time></trkpt><trkpt lat="44.44208695773011" lon="11.390639738535988"><ele>183.0</ele><time>2026-04-25T08:28:00.852Z</time></trkpt><trkpt lat="44.442132903786394" lon="11.390560774535556"><ele>183.0</ele><time>2026-04-25T08:28:01.852Z</time></trkpt><trkpt lat="44.44217645036712" lon="11.39049101875608"><ele>183.0</ele><time>2026-04-25T08:28:02.852Z</time></trkpt><trkpt lat="44.44225587343885" lon="11.39037908054464"><ele>183.0</ele><time>2026-04-25T08:28:04.852Z</time></trkpt><trkpt lat="44.442321322140266" lon="11.390263892085514"><ele>183.0</ele><time>2026-04-25T08:28:06.852Z</time></trkpt><trkpt lat="44.442386842463776" lon="11.390148577488564"><ele>183.83333333333334</ele><time>2026-04-25T08:28:08.852Z</time></trkpt><trkpt lat="44.442457906660955" lon="11.39001305617533"><ele>184.66666666666666</ele><time>2026-04-25T08:28:10.852Z</time></trkpt><trkpt lat="44.44251955168093" lon="11.389899617693416"><ele>185.5</ele><time>2026-04-25T08:28:12.852Z</time></trkpt><trkpt lat="44.442565012221976" lon="11.389805238126547"><ele>186.33333333333331</ele><time>2026-04-25T08:28:14.852Z</time></trkpt><trkpt lat="44.442609602632295" lon="11.389729793636695"><ele>187.16666666666666</ele><time>2026-04-25T08:28:17.851Z</time></trkpt><trkpt lat="44.442650737056645" lon="11.389642200696201"><ele>188.0</ele><time>2026-04-25T08:28:20.851Z</time></trkpt><trkpt lat="44.44267523523796" lon="11.389549421825816"><ele>189.5</ele><time>2026-04-25T08:28:22.851Z</time></trkpt><trkpt lat="44.44271853165429" lon="11.389466154070195"><ele>191.0</ele><time>2026-04-25T08:28:24.851Z</time></trkpt><trkpt lat="44.442744709925876" lon="11.389371569039229"><ele>192.5</ele><time>2026-04-25T08:28:26.851Z</time></trkpt><trkpt lat="44.44276119095495" lon="11.389268687072107"><ele>194.0</ele><time>2026-04-25T08:28:28.851Z</time></trkpt><trkpt lat="44.442772949394815" lon="11.389144070266616"><ele>195.50000000000003</ele><time>2026-04-25T08:28:30.851Z</time></trkpt><trkpt lat="44.4427817450827" lon="11.38901150181242"><ele>197.0</ele><time>2026-04-25T08:28:32.852Z</time></trkpt><trkpt lat="44.44278970705037" lon="11.38890444425103"><ele>196.83333333333334</ele><time>2026-04-25T08:28:34.852Z</time></trkpt><trkpt lat="44.44279149878926" lon="11.38877936066703"><ele>196.66666666666669</ele><time>2026-04-25T08:28:36.852Z</time></trkpt><trkpt lat="44.44279939526228" lon="11.388658827967118"><ele>196.5</ele><time>2026-04-25T08:28:38.852Z</time></trkpt><trkpt lat="44.4428389320153" lon="11.388541870352963"><ele>196.33333333333331</ele><time>2026-04-25T08:28:40.852Z</time></trkpt><trkpt lat="44.442910540588784" lon="11.388486189024944"><ele>196.16666666666666</ele><time>2026-04-25T08:28:42.852Z</time></trkpt><trkpt lat="44.44299733950417" lon="11.388445269996154"><ele>196.0</ele><time>2026-04-25T08:28:45.852Z</time></trkpt><trkpt lat="44.44306942359089" lon="11.38840501200956"><ele>195.0</ele><time>2026-04-25T08:28:48.852Z</time></trkpt><trkpt lat="44.44313454488853" lon="11.388343171847184"><ele>194.0</ele><time>2026-04-25T08:28:52.852Z</time></trkpt><trkpt lat="44.44320623671251" lon="11.388311180809325"><ele>193.0</ele><time>2026-04-25T08:28:55.852Z</time></trkpt><trkpt lat="44.44327180203354" lon="11.388249592864637"><ele>192.0</ele><time>2026-04-25T08:28:58.852Z</time></trkpt><trkpt lat="44.44333605378006" lon="11.388191868699787"><ele>191.0</ele><time>2026-04-25T08:29:01.851Z</time></trkpt><trkpt lat="44.44338712527234" lon="11.388126496286906"><ele>190.0</ele><time>2026-04-25T08:29:04.851Z</time></trkpt><trkpt lat="44.443439033801525" lon="11.388058416987935"><ele>189.0</ele><time>2026-04-25T08:29:07.851Z</time></trkpt><trkpt lat="44.443490323303976" lon="11.387977395151362"><ele>191.28571428571428</ele><time>2026-04-25T08:29:11.851Z</time></trkpt><trkpt lat="44.44353366908327" lon="11.38789956569242"><ele>193.57142857142856</ele><time>2026-04-25T08:29:14.851Z</time></trkpt><trkpt lat="44.44358830414623" lon="11.387822218584901"><ele>195.85714285714286</ele><time>2026-04-25T08:29:18.851Z</time></trkpt><trkpt lat="44.44362625842307" lon="11.387750353168212"><ele>198.14285714285714</ele><time>2026-04-25T08:29:22.851Z</time></trkpt><trkpt lat="44.44367963321999" lon="11.387691804748416"><ele>200.42857142857142</ele><time>2026-04-25T08:29:27.85Z</time></trkpt><trkpt lat="44.44372660493806" lon="11.387619677232978"><ele>202.71428571428572</ele><time>2026-04-25T08:29:32.85Z</time></trkpt><trkpt lat="44.44377060468223" lon="11.387539341534307"><ele>205.0</ele><time>2026-04-25T08:29:38.85Z</time></trkpt><trkpt lat="44.44382149494712" lon="11.387479189941972"><ele>205.0</ele><time>2026-04-25T08:29:44.85Z</time></trkpt><trkpt lat="44.44386859446137" lon="11.38741032044009"><ele>205.0</ele><time>2026-04-25T08:29:50.849Z</time></trkpt><trkpt lat="44.44391634921056" lon="11.387341171506407"><ele>205.0</ele><time>2026-04-25T08:29:56.849Z</time></trkpt><trkpt lat="44.44395856987409" lon="11.387273025571465"><ele>205.0</ele><time>2026-04-25T08:30:02.849Z</time></trkpt><trkpt lat="44.44399274153352" lon="11.387197268683142"><ele>205.0</ele><time>2026-04-25T08:30:07.849Z</time></trkpt><trkpt lat="44.44404745523756" lon="11.387141627178249"><ele>205.0</ele><time>2026-04-25T08:30:13.849Z</time></trkpt><trkpt lat="44.44410580294147" lon="11.38708155393171"><ele>205.0</ele><time>2026-04-25T08:30:18.848Z</time></trkpt><trkpt lat="44.44415448041707" lon="11.387014709983143"><ele>206.14285714285714</ele><time>2026-04-25T08:30:23.848Z</time></trkpt><trkpt lat="44.44419633696087" lon="11.38694484025824"><ele>207.28571428571428</ele><time>2026-04-25T08:30:30.848Z</time></trkpt><trkpt lat="44.44425827717183" lon="11.386878493158791"><ele>208.42857142857142</ele><time>2026-04-25T08:30:36.848Z</time></trkpt><trkpt lat="44.44430330002933" lon="11.386816452058111"><ele>209.57142857142856</ele><time>2026-04-25T08:30:42.849Z</time></trkpt><trkpt lat="44.444352475437064" lon="11.386738269847735"><ele>210.71428571428572</ele><time>2026-04-25T08:30:48.849Z</time></trkpt><trkpt lat="44.44440816333122" lon="11.386685916021884"><ele>211.85714285714283</ele><time>2026-04-25T08:30:53.849Z</time></trkpt><trkpt lat="44.44446150322093" lon="11.386610811644088"><ele>213.0</ele><time>2026-04-25T08:30:57.849Z</time></trkpt><trkpt lat="44.444502371854355" lon="11.386534427109545"><ele>212.99999999999997</ele><time>2026-04-25T08:31:02.848Z</time></trkpt><trkpt lat="44.444487202669904" lon="11.386445965952584"><ele>213.0</ele><time>2026-04-25T08:31:08.848Z</time></trkpt><trkpt lat="44.44441943812886" lon="11.386397524938344"><ele>213.0</ele><time>2026-04-25T08:31:12.848Z</time></trkpt><trkpt lat="44.44436316045605" lon="11.3863529765736"><ele>213.0</ele><time>2026-04-25T08:31:16.848Z</time></trkpt><trkpt lat="44.444296505277926" lon="11.38630681004719"><ele>213.0</ele><time>2026-04-25T08:31:21.848Z</time></trkpt><trkpt lat="44.444239368430104" lon="11.38626412867486"><ele>212.99999999999997</ele><time>2026-04-25T08:31:26.848Z</time></trkpt><trkpt lat="44.444179630984586" lon="11.386210120775495"><ele>213.0</ele><time>2026-04-25T08:31:31.847Z</time></trkpt><trkpt lat="44.44412099269548" lon="11.386157680711602"><ele>212.28571428571428</ele><time>2026-04-25T08:31:36.847Z</time></trkpt><trkpt lat="44.444058235330424" lon="11.386104400665984"><ele>211.57142857142856</ele><time>2026-04-25T08:31:41.847Z</time></trkpt><trkpt lat="44.443995432075965" lon="11.386046664115177"><ele>210.85714285714283</ele><time>2026-04-25T08:31:46.847Z</time></trkpt><trkpt lat="44.44392911825849" lon="11.38598839202973"><ele>210.14285714285714</ele><time>2026-04-25T08:31:51.847Z</time></trkpt><trkpt lat="44.443863759644486" lon="11.385940768195429"><ele>209.42857142857144</ele><time>2026-04-25T08:31:56.846Z</time></trkpt><trkpt lat="44.44380121858212" lon="11.385892802729828"><ele>208.7142857142857</ele><time>2026-04-25T08:32:01.846Z</time></trkpt><trkpt lat="44.44374054329006" lon="11.38583987448179"><ele>208.0</ele><time>2026-04-25T08:32:06.846Z</time></trkpt><trkpt lat="44.44367716504573" lon="11.385808362838942"><ele>209.85714285714286</ele><time>2026-04-25T08:32:11.846Z</time></trkpt><trkpt lat="44.44360568052107" lon="11.385782857932165"><ele>211.71428571428572</ele><time>2026-04-25T08:32:17.845Z</time></trkpt><trkpt lat="44.443529493417024" lon="11.385776253306235"><ele>213.57142857142858</ele><time>2026-04-25T08:32:22.845Z</time></trkpt><trkpt lat="44.44344965802714" lon="11.385767211897562"><ele>215.42857142857144</ele><time>2026-04-25T08:32:27.845Z</time></trkpt><trkpt lat="44.44338126668649" lon="11.385759530424885"><ele>217.28571428571428</ele><time>2026-04-25T08:32:31.845Z</time></trkpt><trkpt lat="44.44331070692461" lon="11.385767550710982"><ele>219.14285714285717</ele><time>2026-04-25T08:32:35.845Z</time></trkpt><trkpt lat="44.44324226863731" lon="11.385766729397282"><ele>221.0</ele><time>2026-04-25T08:32:39.845Z</time></trkpt><trkpt lat="44.44316951446899" lon="11.385745768080582"><ele>221.00000000000003</ele><time>2026-04-25T08:32:43.846Z</time></trkpt><trkpt lat="44.44308944850451" lon="11.385727391473132"><ele>221.0</ele><time>2026-04-25T08:32:46.847Z</time></trkpt><trkpt lat="44.443028704936104" lon="11.38569104535728"><ele>221.0</ele><time>2026-04-25T08:32:49.847Z</time></trkpt><trkpt lat="44.44295085624423" lon="11.385663462961983"><ele>221.0</ele><time>2026-04-25T08:32:52.846Z</time></trkpt><trkpt lat="44.442868067402195" lon="11.385645744538426"><ele>221.00000000000003</ele><time>2026-04-25T08:32:55.845Z</time></trkpt><trkpt lat="44.44279144013411" lon="11.385594843300039"><ele>221.0</ele><time>2026-04-25T08:32:58.846Z</time></trkpt><trkpt lat="44.44276717172158" lon="11.385491487110647"><ele>222.66666666666669</ele><time>2026-04-25T08:33:00.846Z</time></trkpt><trkpt lat="44.44278623312635" lon="11.385310917820322"><ele>224.33333333333334</ele><time>2026-04-25T08:33:02.846Z</time></trkpt><trkpt lat="44.44279659043902" lon="11.385217080825692"><ele>226.0</ele><time>2026-04-25T08:33:03.846Z</time></trkpt><trkpt lat="44.44280179484069" lon="11.38511620623535"><ele>227.66666666666669</ele><time>2026-04-25T08:33:04.846Z</time></trkpt><trkpt lat="44.44281679889058" lon="11.385017887277309"><ele>229.33333333333334</ele><time>2026-04-25T08:33:05.846Z</time></trkpt><trkpt lat="44.44283992966562" lon="11.384902172195746"><ele>231.0</ele><time>2026-04-25T08:33:06.846Z</time></trkpt><trkpt lat="44.4428515479483" lon="11.38479897485437"><ele>229.83333333333334</ele><time>2026-04-25T08:33:07.846Z</time></trkpt><trkpt lat="44.442865029846175" lon="11.384679224385025"><ele>228.66666666666669</ele><time>2026-04-25T08:33:08.846Z</time></trkpt><trkpt lat="44.44287682467128" lon="11.384574459095903"><ele>227.5</ele><time>2026-04-25T08:33:09.846Z</time></trkpt><trkpt lat="44.44287494488607" lon="11.384461112535355"><ele>226.33333333333334</ele><time>2026-04-25T08:33:10.845Z</time></trkpt><trkpt lat="44.44288895479394" lon="11.38435297614561"><ele>225.16666666666669</ele><time>2026-04-25T08:33:11.845Z</time></trkpt><trkpt lat="44.44291385462208" lon="11.384245547847856"><ele>224.0</ele><time>2026-04-25T08:33:12.845Z</time></trkpt><trkpt lat="44.44292592702482" lon="11.38413831708274"><ele>224.0</ele><time>2026-04-25T08:33:13.845Z</time></trkpt><trkpt lat="44.44293813211333" lon="11.384029907345523"><ele>224.0</ele><time>2026-04-25T08:33:14.845Z</time></trkpt><trkpt lat="44.44294980431347" lon="11.38392623131773"><ele>224.0</ele><time>2026-04-25T08:33:15.845Z</time></trkpt><trkpt lat="44.44294501717699" lon="11.383820222072146"><ele>224.0</ele><time>2026-04-25T08:33:16.845Z</time></trkpt><trkpt lat="44.44297294499374" lon="11.38373372686079"><ele>224.0</ele><time>2026-04-25T08:33:17.845Z</time></trkpt><trkpt lat="44.44298486874505" lon="11.38364217169438"><ele>224.0</ele><time>2026-04-25T08:33:18.845Z</time></trkpt><trkpt lat="44.442991175274514" lon="11.383541549832959"><ele>224.0</ele><time>2026-04-25T08:33:19.845Z</time></trkpt><trkpt lat="44.443002366197355" lon="11.38344702126702"><ele>222.39999999999998</ele><time>2026-04-25T08:33:20.845Z</time></trkpt><trkpt lat="44.44302215322286" lon="11.383286669322734"><ele>220.79999999999998</ele><time>2026-04-25T08:33:22.845Z</time></trkpt><trkpt lat="44.443041748610135" lon="11.38312653715494"><ele>219.20000000000002</ele><time>2026-04-25T08:33:24.845Z</time></trkpt><trkpt lat="44.44305706248358" lon="11.382978903454559"><ele>217.60000000000002</ele><time>2026-04-25T08:33:26.845Z</time></trkpt><trkpt lat="44.44308038124663" lon="11.382849231814825"><ele>216.0</ele><time>2026-04-25T08:33:28.845Z</time></trkpt><trkpt lat="44.44310592988438" lon="11.382690557030864"><ele>216.0</ele><time>2026-04-25T08:33:30.845Z</time></trkpt><trkpt lat="44.443121105130956" lon="11.382569745556621"><ele>216.0</ele><time>2026-04-25T08:33:32.845Z</time></trkpt><trkpt lat="44.44314578292185" lon="11.382481174614112"><ele>216.0</ele><time>2026-04-25T08:33:34.845Z</time></trkpt><trkpt lat="44.44314623913316" lon="11.382370537284"><ele>216.0</ele><time>2026-04-25T08:33:36.844Z</time></trkpt><trkpt lat="44.443160645740214" lon="11.382249479973005"><ele>216.0</ele><time>2026-04-25T08:33:38.844Z</time></trkpt><trkpt lat="44.44317419797689" lon="11.382131484214312"><ele>216.0</ele><time>2026-04-25T08:33:40.844Z</time></trkpt><trkpt lat="44.443188640560074" lon="11.382030950987621"><ele>216.0</ele><time>2026-04-25T08:33:42.844Z</time></trkpt><trkpt lat="44.44320180418853" lon="11.381921929949495"><ele>216.0</ele><time>2026-04-25T08:33:44.844Z</time></trkpt><trkpt lat="44.44321529472036" lon="11.38181565934195"><ele>216.0</ele><time>2026-04-25T08:33:46.844Z</time></trkpt><trkpt lat="44.4432311015111" lon="11.381709378009994"><ele>216.0</ele><time>2026-04-25T08:33:48.844Z</time></trkpt><trkpt lat="44.44324362571857" lon="11.381610342534046"><ele>216.0</ele><time>2026-04-25T08:33:50.844Z</time></trkpt><trkpt lat="44.44326062641687" lon="11.381508012951382"><ele>216.0</ele><time>2026-04-25T08:33:52.844Z</time></trkpt><trkpt lat="44.443269917729175" lon="11.381396309558514"><ele>216.16666666666666</ele><time>2026-04-25T08:33:54.844Z</time></trkpt><trkpt lat="44.443308784042465" lon="11.381275936967294"><ele>216.33333333333331</ele><time>2026-04-25T08:33:56.844Z</time></trkpt><trkpt lat="44.44333505802169" lon="11.381193381705856"><ele>216.5</ele><time>2026-04-25T08:34:00.844Z</time></trkpt><trkpt lat="44.443307890908635" lon="11.381089599137457"><ele>216.66666666666666</ele><time>2026-04-25T08:34:03.843Z</time></trkpt><trkpt lat="44.44334446254333" lon="11.380976939415927"><ele>216.83333333333331</ele><time>2026-04-25T08:34:06.843Z</time></trkpt><trkpt lat="44.443350623903626" lon="11.380860719212853"><ele>217.0</ele><time>2026-04-25T08:34:09.843Z</time></trkpt><trkpt lat="44.44332149934925" lon="11.380763639338145"><ele>216.99999999999997</ele><time>2026-04-25T08:34:12.843Z</time></trkpt><trkpt lat="44.44327082703411" lon="11.380666851555375"><ele>217.0</ele><time>2026-04-25T08:34:15.843Z</time></trkpt><trkpt lat="44.443191744705466" lon="11.38061206739896"><ele>217.0</ele><time>2026-04-25T08:34:18.843Z</time></trkpt><trkpt lat="44.44312306379803" lon="11.380556198820937"><ele>217.0</ele><time>2026-04-25T08:34:21.843Z</time></trkpt><trkpt lat="44.44306704626281" lon="11.380503254947849"><ele>216.99999999999997</ele><time>2026-04-25T08:34:24.843Z</time></trkpt><trkpt lat="44.443010364935176" lon="11.380435087500349"><ele>217.0</ele><time>2026-04-25T08:34:28.842Z</time></trkpt><trkpt lat="44.44293493172761" lon="11.380400468625414"><ele>218.66666666666666</ele><time>2026-04-25T08:34:32.842Z</time></trkpt><trkpt lat="44.44285121345979" lon="11.380393929299354"><ele>220.33333333333331</ele><time>2026-04-25T08:34:37.842Z</time></trkpt><trkpt lat="44.44276493685951" lon="11.380375318294895"><ele>222.0</ele><time>2026-04-25T08:34:40.842Z</time></trkpt><trkpt lat="44.44270279467704" lon="11.3803428053116"><ele>223.66666666666669</ele><time>2026-04-25T08:34:42.842Z</time></trkpt><trkpt lat="44.4426444793024" lon="11.380298168436106"><ele>225.33333333333334</ele><time>2026-04-25T08:34:44.842Z</time></trkpt><trkpt lat="44.44257808875522" lon="11.380276152697721"><ele>227.0</ele><time>2026-04-25T08:34:46.842Z</time></trkpt><trkpt lat="44.44249892400293" lon="11.380222362219257"><ele>227.0</ele><time>2026-04-25T08:34:49.843Z</time></trkpt><trkpt lat="44.44243633194468" lon="11.380194951709573"><ele>227.00000000000003</ele><time>2026-04-25T08:34:52.843Z</time></trkpt><trkpt lat="44.44235569080156" lon="11.380173236439289"><ele>227.0</ele><time>2026-04-25T08:34:56.843Z</time></trkpt><trkpt lat="44.44229710146766" lon="11.380111268399919"><ele>227.0</ele><time>2026-04-25T08:35:00.843Z</time></trkpt><trkpt lat="44.44223283897352" lon="11.380061243760796"><ele>227.00000000000003</ele><time>2026-04-25T08:35:03.843Z</time></trkpt><trkpt lat="44.44217470318115" lon="11.380026114466787"><ele>227.0</ele><time>2026-04-25T08:35:06.843Z</time></trkpt><trkpt lat="44.442110696909175" lon="11.37996607194693"><ele>227.0</ele><time>2026-04-25T08:35:12.843Z</time></trkpt><trkpt lat="44.44203808280923" lon="11.37993250039757"><ele>227.57142857142858</ele><time>2026-04-25T08:35:17.842Z</time></trkpt><trkpt lat="44.441964068498635" lon="11.379994924633174"><ele>228.14285714285717</ele><time>2026-04-25T08:35:21.842Z</time></trkpt><trkpt lat="44.441897405828485" lon="11.379966356163878"><ele>228.71428571428572</ele><time>2026-04-25T08:35:23.842Z</time></trkpt><trkpt lat="44.44182433772783" lon="11.379954479780453"><ele>229.28571428571428</ele><time>2026-04-25T08:35:27.842Z</time></trkpt><trkpt lat="44.44176503000016" lon="11.379910978655216"><ele>229.85714285714286</ele><time>2026-04-25T08:35:30.842Z</time></trkpt><trkpt lat="44.44169411407363" lon="11.379845709371821"><ele>230.42857142857144</ele><time>2026-04-25T08:35:34.842Z</time></trkpt><trkpt lat="44.44166074072835" lon="11.379765073618689"><ele>231.0</ele><time>2026-04-25T08:35:38.842Z</time></trkpt><trkpt lat="44.44161596231201" lon="11.379667940625056"><ele>231.0</ele><time>2026-04-25T08:35:43.841Z</time></trkpt><trkpt lat="44.44161033317485" lon="11.379571252622007"><ele>231.0</ele><time>2026-04-25T08:35:48.841Z</time></trkpt><trkpt lat="44.44162752000752" lon="11.379473661523509"><ele>231.0</ele><time>2026-04-25T08:35:52.841Z</time></trkpt><trkpt lat="44.44161070344632" lon="11.379381579299475"><ele>231.0</ele><time>2026-04-25T08:35:56.841Z</time></trkpt><trkpt lat="44.44157673558704" lon="11.37930493270592"><ele>231.0</ele><time>2026-04-25T08:36:00.841Z</time></trkpt><trkpt lat="44.441557575164154" lon="11.379202252364262"><ele>231.0</ele><time>2026-04-25T08:36:05.841Z</time></trkpt><trkpt lat="44.44155183358019" lon="11.379110497592235"><ele>231.0</ele><time>2026-04-25T08:36:10.84Z</time></trkpt><trkpt lat="44.44154510618781" lon="11.378999784112768"><ele>231.0</ele><time>2026-04-25T08:36:24.84Z</time></trkpt><trkpt lat="44.441552980476004" lon="11.378903678516629"><ele>231.0</ele><time>2026-04-25T08:36:29.84Z</time></trkpt><trkpt lat="44.441584781939" lon="11.378810686550102"><ele>231.0</ele><time>2026-04-25T08:36:35.839Z</time></trkpt><trkpt lat="44.44161790368805" lon="11.37871668228572"><ele>231.0</ele><time>2026-04-25T08:36:40.839Z</time></trkpt><trkpt lat="44.44165031379588" lon="11.37863202862258"><ele>231.0</ele><time>2026-04-25T08:36:45.839Z</time></trkpt><trkpt lat="44.4416697473904" lon="11.378537657608353"><ele>231.0</ele><time>2026-04-25T08:36:51.839Z</time></trkpt><trkpt lat="44.44167986378325" lon="11.378427105971902"><ele>231.0</ele><time>2026-04-25T08:36:58.84Z</time></trkpt><trkpt lat="44.44164532898797" lon="11.378330727038417"><ele>231.66666666666666</ele><time>2026-04-25T08:37:03.84Z</time></trkpt><trkpt lat="44.44159720308907" lon="11.378270833443832"><ele>232.33333333333331</ele><time>2026-04-25T08:37:07.84Z</time></trkpt><trkpt lat="44.441555710236706" lon="11.378185616144943"><ele>233.0</ele><time>2026-04-25T08:38:47.889Z</time></trkpt><trkpt lat="44.44152164279326" lon="11.378103134011157"><ele>233.66666666666666</ele><time>2026-04-25T08:38:50.889Z</time></trkpt><trkpt lat="44.44147360708478" lon="11.37803572992437"><ele>234.33333333333331</ele><time>2026-04-25T08:38:55.889Z</time></trkpt><trkpt lat="44.44145025780712" lon="11.377906433201852"><ele>235.0</ele><time>2026-04-25T08:38:57.889Z</time></trkpt><trkpt lat="44.441407821736625" lon="11.377750614143931"><ele>235.0</ele><time>2026-04-25T08:38:59.889Z</time></trkpt><trkpt lat="44.441417526637515" lon="11.37762366069873"><ele>235.0</ele><time>2026-04-25T08:39:01.891Z</time></trkpt><trkpt lat="44.441404641064466" lon="11.377533935734931"><ele>235.0</ele><time>2026-04-25T08:39:04.89Z</time></trkpt><trkpt lat="44.441430983991864" lon="11.377372192441895"><ele>235.0</ele><time>2026-04-25T08:39:05.891Z</time></trkpt><trkpt lat="44.44136282329569" lon="11.37727398152649"><ele>235.0</ele><time>2026-04-25T08:39:07.89Z</time></trkpt><trkpt lat="44.44131656874919" lon="11.37718537352746"><ele>234.16666666666666</ele><time>2026-04-25T08:39:10.89Z</time></trkpt><trkpt lat="44.44128018114516" lon="11.377094528571451"><ele>233.33333333333331</ele><time>2026-04-25T08:39:14.89Z</time></trkpt><trkpt lat="44.44125126228458" lon="11.377008517280942"><ele>232.5</ele><time>2026-04-25T08:39:17.89Z</time></trkpt><trkpt lat="44.4412396479261" lon="11.376897820502084"><ele>231.66666666666669</ele><time>2026-04-25T08:39:22.89Z</time></trkpt><trkpt lat="44.44123964792194" lon="11.376805931916955"><ele>230.83333333333334</ele><time>2026-04-25T08:39:25.89Z</time></trkpt><trkpt lat="44.44113116642205" lon="11.376777221871315"><ele>230.0</ele><time>2026-04-25T08:39:26.89Z</time></trkpt><trkpt lat="44.44108308730855" lon="11.376715779905902"><ele>230.00000000000003</ele><time>2026-04-25T08:39:29.89Z</time></trkpt><trkpt lat="44.44105302251419" lon="11.37662521003842"><ele>230.0</ele><time>2026-04-25T08:39:33.89Z</time></trkpt><trkpt lat="44.44104513502786" lon="11.376526520558846"><ele>230.0</ele><time>2026-04-25T08:39:37.889Z</time></trkpt><trkpt lat="44.44098845729348" lon="11.376435637984265"><ele>230.0</ele><time>2026-04-25T08:39:41.889Z</time></trkpt><trkpt lat="44.44094756735115" lon="11.376338845544836"><ele>230.00000000000003</ele><time>2026-04-25T08:39:44.889Z</time></trkpt><trkpt lat="44.4408831539884" lon="11.376220171412156"><ele>230.0</ele><time>2026-04-25T08:39:46.889Z</time></trkpt><trkpt lat="44.44081505017804" lon="11.376079310294564"><ele>232.2</ele><time>2026-04-25T08:39:48.889Z</time></trkpt><trkpt lat="44.440733691177044" lon="11.375963559484086"><ele>234.4</ele><time>2026-04-25T08:39:50.889Z</time></trkpt><trkpt lat="44.44069721178097" lon="11.375890284218466"><ele>236.60000000000002</ele><time>2026-04-25T08:39:51.889Z</time></trkpt><trkpt lat="44.44061901294598" lon="11.375785216894906"><ele>238.8</ele><time>2026-04-25T08:39:53.889Z</time></trkpt><trkpt lat="44.44054373247058" lon="11.375714488277858"><ele>241.0</ele><time>2026-04-25T08:39:55.889Z</time></trkpt><trkpt lat="44.44060862136571" lon="11.37578101223105"><ele>240.99999999999997</ele><time>2026-04-25T08:40:14.888Z</time></trkpt><trkpt lat="44.44066972728161" lon="11.375843898410533"><ele>241.0</ele><time>2026-04-25T08:40:18.888Z</time></trkpt><trkpt lat="44.44072361920648" lon="11.375910837895903"><ele>241.0</ele><time>2026-04-25T08:40:21.888Z</time></trkpt><trkpt lat="44.440788057192236" lon="11.375996913007544"><ele>241.0</ele><time>2026-04-25T08:40:25.888Z</time></trkpt><trkpt lat="44.44084512865718" lon="11.376069433798571"><ele>240.99999999999997</ele><time>2026-04-25T08:40:29.888Z</time></trkpt><trkpt lat="44.440888028799804" lon="11.376148617509513"><ele>241.0</ele><time>2026-04-25T08:40:32.888Z</time></trkpt><trkpt lat="44.44093589579581" lon="11.376230660051828"><ele>241.0</ele><time>2026-04-25T08:40:35.888Z</time></trkpt><trkpt lat="44.440972297307106" lon="11.376319244367917"><ele>241.00000000000003</ele><time>2026-04-25T08:40:38.888Z</time></trkpt><trkpt lat="44.4410193910677" lon="11.376401980603468"><ele>241.0</ele><time>2026-04-25T08:40:41.888Z</time></trkpt><trkpt lat="44.44103809379664" lon="11.376313623707732"><ele>241.0</ele><time>2026-04-25T08:40:51.887Z</time></trkpt><trkpt lat="44.44100795255795" lon="11.376228809654158"><ele>241.00000000000003</ele><time>2026-04-25T08:40:57.887Z</time></trkpt><trkpt lat="44.440983144122825" lon="11.376140137746365"><ele>241.0</ele><time>2026-04-25T08:41:02.887Z</time></trkpt><trkpt lat="44.44096015671598" lon="11.376051637831614"><ele>241.0</ele><time>2026-04-25T08:41:07.889Z</time></trkpt><trkpt lat="44.440953967380416" lon="11.37596326289264"><ele>241.0</ele><time>2026-04-25T08:41:12.888Z</time></trkpt><trkpt lat="44.440973327350235" lon="11.37587294358756"><ele>241.00000000000003</ele><time>2026-04-25T08:41:17.888Z</time></trkpt><trkpt lat="44.440986451386124" lon="11.375778294911544"><ele>241.0</ele><time>2026-04-25T08:41:22.888Z</time></trkpt><trkpt lat="44.44103092116382" lon="11.375701651566647"><ele>241.0</ele><time>2026-04-25T08:41:28.888Z</time></trkpt><trkpt lat="44.441075538172385" lon="11.375622847715933"><ele>241.00000000000003</ele><time>2026-04-25T08:41:33.888Z</time></trkpt><trkpt lat="44.44111103456435" lon="11.375533057013119"><ele>241.0</ele><time>2026-04-25T08:41:38.887Z</time></trkpt><trkpt lat="44.44115113442145" lon="11.375447172769562"><ele>241.0</ele><time>2026-04-25T08:41:43.887Z</time></trkpt><trkpt lat="44.441169286252645" lon="11.37535031824819"><ele>241.49999999999997</ele><time>2026-04-25T08:41:48.887Z</time></trkpt><trkpt lat="44.4412185238927" lon="11.375259014641635"><ele>242.0</ele><time>2026-04-25T08:41:51.887Z</time></trkpt><trkpt lat="44.44127061463493" lon="11.375179624574786"><ele>242.5</ele><time>2026-04-25T08:41:54.887Z</time></trkpt><trkpt lat="44.44132974938702" lon="11.37505462909571"><ele>243.0</ele><time>2026-04-25T08:41:57.887Z</time></trkpt><trkpt lat="44.44138741549158" lon="11.374964028163824"><ele>243.49999999999997</ele><time>2026-04-25T08:41:59.887Z</time></trkpt><trkpt lat="44.44141869618164" lon="11.374876546932054"><ele>244.0</ele><time>2026-04-25T08:42:01.887Z</time></trkpt><trkpt lat="44.4414556395833" lon="11.374787227635538"><ele>244.83333333333331</ele><time>2026-04-25T08:42:03.887Z</time></trkpt><trkpt lat="44.44149494536656" lon="11.374677999229448"><ele>245.66666666666666</ele><time>2026-04-25T08:42:08.887Z</time></trkpt><trkpt lat="44.441540892647225" lon="11.374580235825107"><ele>246.5</ele><time>2026-04-25T08:42:10.886Z</time></trkpt><trkpt lat="44.441527437010706" lon="11.374480553374658"><ele>247.33333333333331</ele><time>2026-04-25T08:42:13.886Z</time></trkpt><trkpt lat="44.44152885000414" lon="11.374385828818811"><ele>248.16666666666666</ele><time>2026-04-25T08:42:16.886Z</time></trkpt><trkpt lat="44.4415650700239" lon="11.374282278960482"><ele>249.0</ele><time>2026-04-25T08:42:19.886Z</time></trkpt><trkpt lat="44.44157177656456" lon="11.374185663082226"><ele>249.0</ele><time>2026-04-25T08:42:21.886Z</time></trkpt><trkpt lat="44.44158840216852" lon="11.374100020255488"><ele>249.0</ele><time>2026-04-25T08:42:23.886Z</time></trkpt><trkpt lat="44.44161777528091" lon="11.374001061398227"><ele>249.0</ele><time>2026-04-25T08:42:25.886Z</time></trkpt><trkpt lat="44.44162470611345" lon="11.37387586365367"><ele>249.0</ele><time>2026-04-25T08:42:27.886Z</time></trkpt><trkpt lat="44.4416466661785" lon="11.373769901635004"><ele>249.0</ele><time>2026-04-25T08:42:29.886Z</time></trkpt><trkpt lat="44.441642509281834" lon="11.373651043240967"><ele>249.0</ele><time>2026-04-25T08:42:33.886Z</time></trkpt><trkpt lat="44.44167695630224" lon="11.373568592625523"><ele>249.33333333333334</ele><time>2026-04-25T08:42:35.886Z</time></trkpt><trkpt lat="44.441672687799226" lon="11.37346287458918"><ele>249.66666666666669</ele><time>2026-04-25T08:42:39.886Z</time></trkpt><trkpt lat="44.44168158265025" lon="11.373362201438763"><ele>250.0</ele><time>2026-04-25T08:42:43.885Z</time></trkpt><trkpt lat="44.441722717817775" lon="11.373270965536298"><ele>250.33333333333334</ele><time>2026-04-25T08:42:46.885Z</time></trkpt><trkpt lat="44.44177718342247" lon="11.373180206392828"><ele>250.66666666666669</ele><time>2026-04-25T08:42:50.885Z</time></trkpt><trkpt lat="44.441830820790116" lon="11.373112010471422"><ele>251.0</ele><time>2026-04-25T08:42:52.885Z</time></trkpt><trkpt lat="44.44189899306798" lon="11.373022766840315"><ele>251.00000000000003</ele><time>2026-04-25T08:42:54.885Z</time></trkpt><trkpt lat="44.44197156607361" lon="11.372960098312399"><ele>251.0</ele><time>2026-04-25T08:42:56.885Z</time></trkpt><trkpt lat="44.442040601351906" lon="11.372981324499566"><ele>251.0</ele><time>2026-04-25T08:43:05.885Z</time></trkpt><trkpt lat="44.44210340068028" lon="11.373054091188584"><ele>251.0</ele><time>2026-04-25T08:43:11.885Z</time></trkpt><trkpt lat="44.44214990038569" lon="11.373138106397406"><ele>251.00000000000003</ele><time>2026-04-25T08:43:15.887Z</time></trkpt><trkpt lat="44.44221287811627" lon="11.37312148094015"><ele>251.0</ele><time>2026-04-25T08:43:54.886Z</time></trkpt><trkpt lat="44.442304480399756" lon="11.373078556922236"><ele>248.4</ele><time>2026-04-25T08:44:31.885Z</time></trkpt><trkpt lat="44.44244696265043" lon="11.37308073437848"><ele>245.8</ele><time>2026-04-25T08:44:41.885Z</time></trkpt><trkpt lat="44.442547324253916" lon="11.372990985475353"><ele>243.20000000000002</ele><time>2026-04-25T08:44:43.885Z</time></trkpt><trkpt lat="44.4426226125737" lon="11.372990216313147"><ele>240.60000000000002</ele><time>2026-04-25T08:44:47.884Z</time></trkpt><trkpt lat="44.4427255079976" lon="11.372947262915757"><ele>238.0</ele><time>2026-04-25T08:44:56.884Z</time></trkpt><trkpt lat="44.44278474640562" lon="11.372903209345786"><ele>237.49999999999997</ele><time>2026-04-25T08:45:00.884Z</time></trkpt><trkpt lat="44.44285402295668" lon="11.372872221972823"><ele>237.0</ele><time>2026-04-25T08:45:04.884Z</time></trkpt><trkpt lat="44.44294377870276" lon="11.37284479852651"><ele>236.5</ele><time>2026-04-25T08:45:07.884Z</time></trkpt><trkpt lat="44.44301203827085" lon="11.372905090408127"><ele>236.0</ele><time>2026-04-25T08:47:19.881Z</time></trkpt><trkpt lat="44.44309956092999" lon="11.372892453297569"><ele>235.49999999999997</ele><time>2026-04-25T08:47:27.883Z</time></trkpt><trkpt lat="44.44317439254488" lon="11.372863115049258"><ele>235.0</ele><time>2026-04-25T08:47:31.883Z</time></trkpt><trkpt lat="44.44325179862053" lon="11.372821778162812"><ele>233.99999999999997</ele><time>2026-04-25T08:47:35.882Z</time></trkpt><trkpt lat="44.44333763214552" lon="11.372868452334377"><ele>233.0</ele><time>2026-04-25T08:47:38.883Z</time></trkpt><trkpt lat="44.443326779384634" lon="11.372969089022082"><ele>232.0</ele><time>2026-04-25T08:47:41.883Z</time></trkpt><trkpt lat="44.44334230311805" lon="11.3730566262173"><ele>231.0</ele><time>2026-04-25T08:47:51.882Z</time></trkpt><trkpt lat="44.44337247727264" lon="11.373200027090276"><ele>229.99999999999997</ele><time>2026-04-25T08:47:53.882Z</time></trkpt><trkpt lat="44.44339000142651" lon="11.373285001580472"><ele>229.0</ele><time>2026-04-25T08:47:54.882Z</time></trkpt><trkpt lat="44.44341532512145" lon="11.373368605777568"><ele>228.66666666666666</ele><time>2026-04-25T08:47:55.882Z</time></trkpt><trkpt lat="44.443434741791116" lon="11.373462300831978"><ele>228.33333333333331</ele><time>2026-04-25T08:47:56.882Z</time></trkpt><trkpt lat="44.44347195672334" lon="11.373559318377794"><ele>228.0</ele><time>2026-04-25T08:47:57.882Z</time></trkpt><trkpt lat="44.44350077886806" lon="11.373663831317204"><ele>227.66666666666669</ele><time>2026-04-25T08:47:58.882Z</time></trkpt><trkpt lat="44.44352514748085" lon="11.373746901200999"><ele>227.33333333333334</ele><time>2026-04-25T08:47:59.882Z</time></trkpt><trkpt lat="44.443543500281365" lon="11.37384730242312"><ele>227.0</ele><time>2026-04-25T08:48:01.882Z</time></trkpt><trkpt lat="44.44356710669388" lon="11.37400184907086"><ele>225.50000000000003</ele><time>2026-04-25T08:48:03.882Z</time></trkpt><trkpt lat="44.443593298202615" lon="11.374108796165839"><ele>224.0</ele><time>2026-04-25T08:48:04.882Z</time></trkpt><trkpt lat="44.443611207384876" lon="11.37420860598261"><ele>222.5</ele><time>2026-04-25T08:48:05.882Z</time></trkpt><trkpt lat="44.44364096727865" lon="11.374309445783654"><ele>221.0</ele><time>2026-04-25T08:48:06.882Z</time></trkpt><trkpt lat="44.44366858668744" lon="11.374406006083811"><ele>219.50000000000003</ele><time>2026-04-25T08:48:07.882Z</time></trkpt><trkpt lat="44.44371420271098" lon="11.374476373498567"><ele>218.0</ele><time>2026-04-25T08:48:08.882Z</time></trkpt><trkpt lat="44.44378948416769" lon="11.374529604449458"><ele>216.25</ele><time>2026-04-25T08:48:10.882Z</time></trkpt><trkpt lat="44.44388881077895" lon="11.37458928357682"><ele>214.5</ele><time>2026-04-25T08:48:12.882Z</time></trkpt><trkpt lat="44.4439901860221" lon="11.374626326691608"><ele>212.75</ele><time>2026-04-25T08:48:14.882Z</time></trkpt><trkpt lat="44.444154399891445" lon="11.374725389588992"><ele>211.0</ele><time>2026-04-25T08:48:18.882Z</time></trkpt><trkpt lat="44.44423740768114" lon="11.37476583458351"><ele>210.16666666666666</ele><time>2026-04-25T08:48:20.881Z</time></trkpt><trkpt lat="44.444320860189315" lon="11.374791022188877"><ele>209.33333333333331</ele><time>2026-04-25T08:48:22.881Z</time></trkpt><trkpt lat="44.44437146442764" lon="11.374857441515548"><ele>208.5</ele><time>2026-04-25T08:48:23.881Z</time></trkpt><trkpt lat="44.44443290363619" lon="11.374923691862659"><ele>207.66666666666669</ele><time>2026-04-25T08:48:24.881Z</time></trkpt><trkpt lat="44.44453977141326" lon="11.374930960654094"><ele>206.83333333333334</ele><time>2026-04-25T08:48:26.881Z</time></trkpt><trkpt lat="44.44461024974563" lon="11.374873317327838"><ele>206.0</ele><time>2026-04-25T08:48:29.881Z</time></trkpt><trkpt lat="44.444694386916005" lon="11.374826354580733"><ele>206.50000000000003</ele><time>2026-04-25T08:48:32.881Z</time></trkpt><trkpt lat="44.44477385219345" lon="11.374797451284593"><ele>207.0</ele><time>2026-04-25T08:48:35.881Z</time></trkpt><trkpt lat="44.4448568172196" lon="11.374769430231819"><ele>207.5</ele><time>2026-04-25T08:48:38.881Z</time></trkpt><trkpt lat="44.44492202104366" lon="11.374730434968962"><ele>208.0</ele><time>2026-04-25T08:48:41.881Z</time></trkpt><trkpt lat="44.44498313410692" lon="11.374676575200308"><ele>208.50000000000003</ele><time>2026-04-25T08:48:44.881Z</time></trkpt><trkpt lat="44.44504726941956" lon="11.374642050688491"><ele>209.0</ele><time>2026-04-25T08:48:47.881Z</time></trkpt><trkpt lat="44.4452117678377" lon="11.37462931949618"><ele>207.50000000000003</ele><time>2026-04-25T08:49:05.88Z</time></trkpt><trkpt lat="44.445221666880144" lon="11.37472940140796"><ele>206.0</ele><time>2026-04-25T08:49:29.879Z</time></trkpt><trkpt lat="44.44518734884246" lon="11.374830523111994"><ele>204.5</ele><time>2026-04-25T08:49:32.881Z</time></trkpt><trkpt lat="44.44515950781948" lon="11.374942108194212"><ele>203.0</ele><time>2026-04-25T08:49:34.881Z</time></trkpt><trkpt lat="44.44513842771192" lon="11.375030169174346"><ele>201.50000000000003</ele><time>2026-04-25T08:49:36.881Z</time></trkpt><trkpt lat="44.44514192698978" lon="11.37512580654146"><ele>200.0</ele><time>2026-04-25T08:49:39.881Z</time></trkpt><trkpt lat="44.44515995061823" lon="11.375236451563017"><ele>200.00000000000003</ele><time>2026-04-25T08:49:44.881Z</time></trkpt><trkpt lat="44.445196106633794" lon="11.375355172206765"><ele>200.0</ele><time>2026-04-25T08:49:48.88Z</time></trkpt><trkpt lat="44.44525389624065" lon="11.375423228266339"><ele>200.0</ele><time>2026-04-25T08:49:51.88Z</time></trkpt><trkpt lat="44.44531600781629" lon="11.375480248979741"><ele>200.0</ele><time>2026-04-25T08:49:54.88Z</time></trkpt><trkpt lat="44.44537862747378" lon="11.375542119968873"><ele>200.00000000000003</ele><time>2026-04-25T08:49:57.88Z</time></trkpt><trkpt lat="44.44543463353732" lon="11.375600950252098"><ele>200.0</ele><time>2026-04-25T08:50:00.88Z</time></trkpt><trkpt lat="44.44546987281728" lon="11.375676275511708"><ele>201.00000000000003</ele><time>2026-04-25T08:50:03.88Z</time></trkpt><trkpt lat="44.44549433882256" lon="11.375772777521588"><ele>202.0</ele><time>2026-04-25T08:50:07.88Z</time></trkpt><trkpt lat="44.445517081452664" lon="11.375864945749022"><ele>203.0</ele><time>2026-04-25T08:50:11.88Z</time></trkpt><trkpt lat="44.44552305976324" lon="11.37596305246582"><ele>204.0</ele><time>2026-04-25T08:50:15.88Z</time></trkpt><trkpt lat="44.44554204706183" lon="11.37608506275599"><ele>205.0</ele><time>2026-04-25T08:50:20.88Z</time></trkpt><trkpt lat="44.44554042506208" lon="11.376184895520325"><ele>206.00000000000003</ele><time>2026-04-25T08:50:25.879Z</time></trkpt><trkpt lat="44.4455179976409" lon="11.376086521948018"><ele>207.0</ele><time>2026-04-25T08:51:24.878Z</time></trkpt><trkpt lat="44.445557780610834" lon="11.376017359860061"><ele>207.0</ele><time>2026-04-25T08:51:27.878Z</time></trkpt><trkpt lat="44.445589659547025" lon="11.375940054155498"><ele>207.0</ele><time>2026-04-25T08:51:31.877Z</time></trkpt><trkpt lat="44.44572429738264" lon="11.375937250739824"><ele>207.0</ele><time>2026-04-25T08:51:39.879Z</time></trkpt><trkpt lat="44.4459337981501" lon="11.375922923282493"><ele>207.0</ele><time>2026-04-25T08:51:52.879Z</time></trkpt><trkpt lat="44.445996752115654" lon="11.375879204460457"><ele>207.0</ele><time>2026-04-25T08:51:56.879Z</time></trkpt><trkpt lat="44.44605651335336" lon="11.375845085068942"><ele>207.0</ele><time>2026-04-25T08:52:00.879Z</time></trkpt><trkpt lat="44.44618330499719" lon="11.375798532770627"><ele>207.0</ele><time>2026-04-25T08:52:08.879Z</time></trkpt><trkpt lat="44.44624062203374" lon="11.37575025122371"><ele>207.0</ele><time>2026-04-25T08:52:13.878Z</time></trkpt><trkpt lat="44.44629917013565" lon="11.375693973751652"><ele>207.0</ele><time>2026-04-25T08:52:18.878Z</time></trkpt><trkpt lat="44.446351620696255" lon="11.375617238961311"><ele>207.0</ele><time>2026-04-25T08:52:24.878Z</time></trkpt><trkpt lat="44.44639146862319" lon="11.375517650766515"><ele>208.00000000000003</ele><time>2026-04-25T08:52:34.878Z</time></trkpt><trkpt lat="44.446431289819905" lon="11.375445179287471"><ele>209.0</ele><time>2026-04-25T08:52:38.878Z</time></trkpt><trkpt lat="44.44647078034354" lon="11.375367544839735"><ele>210.0</ele><time>2026-04-25T08:52:44.878Z</time></trkpt><trkpt lat="44.446480400184" lon="11.375261332177006"><ele>211.0</ele><time>2026-04-25T08:52:50.877Z</time></trkpt><trkpt lat="44.446529104330246" lon="11.375173787290938"><ele>212.0</ele><time>2026-04-25T08:52:56.877Z</time></trkpt><trkpt lat="44.446599189698844" lon="11.375120984248886"><ele>213.00000000000003</ele><time>2026-04-25T08:52:59.877Z</time></trkpt><trkpt lat="44.44663797214018" lon="11.3750423619511"><ele>214.0</ele><time>2026-04-25T08:53:02.877Z</time></trkpt><trkpt lat="44.44665595433907" lon="11.374949021453219"><ele>214.00000000000003</ele><time>2026-04-25T08:53:06.877Z</time></trkpt><trkpt lat="44.446620853526085" lon="11.374872817018856"><ele>214.0</ele><time>2026-04-25T08:53:13.877Z</time></trkpt><trkpt lat="44.44662036105195" lon="11.3747786986466"><ele>214.0</ele><time>2026-04-25T08:53:19.877Z</time></trkpt><trkpt lat="44.4465666410927" lon="11.374719878187141"><ele>214.0</ele><time>2026-04-25T08:53:24.876Z</time></trkpt><trkpt lat="44.4465319620156" lon="11.374622756100234"><ele>214.0</ele><time>2026-04-25T08:53:29.876Z</time></trkpt><trkpt lat="44.4464856646682" lon="11.374558164869661"><ele>214.00000000000003</ele><time>2026-04-25T08:53:32.876Z</time></trkpt><trkpt lat="44.4464506030274" lon="11.37448031247846"><ele>214.0</ele><time>2026-04-25T08:55:43.873Z</time></trkpt><trkpt lat="44.446413281615555" lon="11.374367766739844"><ele>213.33333333333331</ele><time>2026-04-25T08:55:47.875Z</time></trkpt><trkpt lat="44.44637477605578" lon="11.37424445954934"><ele>212.66666666666666</ele><time>2026-04-25T08:55:50.875Z</time></trkpt><trkpt lat="44.44630641587491" lon="11.374214275546379"><ele>212.0</ele><time>2026-04-25T08:55:54.875Z</time></trkpt><trkpt lat="44.44624180552943" lon="11.374161373625633"><ele>211.33333333333331</ele><time>2026-04-25T08:55:57.874Z</time></trkpt><trkpt lat="44.44616045604574" lon="11.37411242179495"><ele>210.66666666666666</ele><time>2026-04-25T08:55:59.875Z</time></trkpt><trkpt lat="44.4460864991881" lon="11.374094560511663"><ele>210.0</ele><time>2026-04-25T08:56:01.875Z</time></trkpt><trkpt lat="44.44600383461038" lon="11.37410748209471"><ele>210.0</ele><time>2026-04-25T08:56:07.875Z</time></trkpt><trkpt lat="44.445930789477224" lon="11.374160080342245"><ele>210.0</ele><time>2026-04-25T08:56:11.875Z</time></trkpt><trkpt lat="44.44583054172722" lon="11.374145464358348"><ele>210.0</ele><time>2026-04-25T08:56:13.875Z</time></trkpt><trkpt lat="44.445749697824844" lon="11.374147712293507"><ele>210.0</ele><time>2026-04-25T08:56:15.875Z</time></trkpt><trkpt lat="44.44566953708696" lon="11.374142755585277"><ele>210.0</ele><time>2026-04-25T08:56:18.875Z</time></trkpt><trkpt lat="44.44559270267739" lon="11.374129552548965"><ele>210.0</ele><time>2026-04-25T08:56:21.875Z</time></trkpt><trkpt lat="44.445573549896785" lon="11.374045301243553"><ele>210.0</ele><time>2026-04-25T08:56:25.875Z</time></trkpt><trkpt lat="44.445543207568846" lon="11.374151222807383"><ele>210.0</ele><time>2026-04-25T08:56:30.874Z</time></trkpt><trkpt lat="44.4455082231453" lon="11.374245433932794"><ele>210.0</ele><time>2026-04-25T08:56:32.874Z</time></trkpt><trkpt lat="44.44544425489582" lon="11.37436768202695"><ele>210.0</ele><time>2026-04-25T08:56:34.874Z</time></trkpt><trkpt lat="44.44534418005331" lon="11.374463917834479"><ele>210.0</ele><time>2026-04-25T08:56:36.874Z</time></trkpt><trkpt lat="44.44525734525336" lon="11.374547512946037"><ele>209.83333333333334</ele><time>2026-04-25T08:56:38.874Z</time></trkpt><trkpt lat="44.445168610164025" lon="11.37458950121105"><ele>209.66666666666669</ele><time>2026-04-25T08:56:41.874Z</time></trkpt><trkpt lat="44.44508536057046" lon="11.374636778738214"><ele>209.5</ele><time>2026-04-25T08:56:44.874Z</time></trkpt><trkpt lat="44.44500443280963" lon="11.374676645737313"><ele>209.33333333333334</ele><time>2026-04-25T08:56:47.874Z</time></trkpt><trkpt lat="44.44493012362246" lon="11.374696282588214"><ele>209.16666666666669</ele><time>2026-04-25T08:56:50.874Z</time></trkpt><trkpt lat="44.444863283124256" lon="11.374688090480163"><ele>209.0</ele><time>2026-04-25T08:56:53.874Z</time></trkpt><trkpt lat="44.44480809142008" lon="11.374634320548507"><ele>209.0</ele><time>2026-04-25T08:56:56.874Z</time></trkpt><trkpt lat="44.44477176751324" lon="11.374536571980999"><ele>209.0</ele><time>2026-04-25T08:56:59.874Z</time></trkpt><trkpt lat="44.44476881225488" lon="11.374444478142776"><ele>209.0</ele><time>2026-04-25T08:57:02.873Z</time></trkpt><trkpt lat="44.444761530613874" lon="11.374335516187822"><ele>209.0</ele><time>2026-04-25T08:57:06.873Z</time></trkpt><trkpt lat="44.44476050170158" lon="11.374221020669708"><ele>209.0</ele><time>2026-04-25T08:57:10.873Z</time></trkpt><trkpt lat="44.4447585504259" lon="11.374124158752112"><ele>209.0</ele><time>2026-04-25T08:57:14.873Z</time></trkpt><trkpt lat="44.444746157698226" lon="11.37403403829824"><ele>209.0</ele><time>2026-04-25T08:57:19.873Z</time></trkpt><trkpt lat="44.44470384752068" lon="11.373950761380664"><ele>209.0</ele><time>2026-04-25T08:57:25.873Z</time></trkpt><trkpt lat="44.44466154155852" lon="11.37387730620039"><ele>209.0</ele><time>2026-04-25T08:57:30.873Z</time></trkpt><trkpt lat="44.444622119540476" lon="11.373794811566157"><ele>209.0</ele><time>2026-04-25T08:57:36.872Z</time></trkpt><trkpt lat="44.4445968387866" lon="11.373702474362506"><ele>209.0</ele><time>2026-04-25T08:57:43.872Z</time></trkpt><trkpt lat="44.44454719292706" lon="11.373634737558321"><ele>209.0</ele><time>2026-04-25T08:57:49.872Z</time></trkpt><trkpt lat="44.44448621191289" lon="11.373606227332484"><ele>209.0</ele><time>2026-04-25T08:57:55.873Z</time></trkpt><trkpt lat="44.44444020027075" lon="11.373535709574845"><ele>209.0</ele><time>2026-04-25T08:58:00.872Z</time></trkpt><trkpt lat="44.44438270516902" lon="11.37357784804501"><ele>210.14285714285714</ele><time>2026-04-25T08:59:40.892Z</time></trkpt><trkpt lat="44.4443103354671" lon="11.373571682037023"><ele>211.28571428571428</ele><time>2026-04-25T08:59:45.892Z</time></trkpt><trkpt lat="44.44424969520661" lon="11.373532550022396"><ele>212.42857142857144</ele><time>2026-04-25T08:59:50.892Z</time></trkpt><trkpt lat="44.444187897201545" lon="11.373502671135022"><ele>213.57142857142856</ele><time>2026-04-25T08:59:55.892Z</time></trkpt><trkpt lat="44.444111190687025" lon="11.373522999743798"><ele>214.71428571428572</ele><time>2026-04-25T09:00:00.893Z</time></trkpt><trkpt lat="44.44404589808419" lon="11.373565582434736"><ele>215.85714285714286</ele><time>2026-04-25T09:00:05.894Z</time></trkpt><trkpt lat="44.443972954216015" lon="11.373568544236878"><ele>217.0</ele><time>2026-04-25T09:00:10.893Z</time></trkpt><trkpt lat="44.44391027146476" lon="11.373593980855164"><ele>217.0</ele><time>2026-04-25T09:00:15.894Z</time></trkpt><trkpt lat="44.44383777280226" lon="11.373599976647046"><ele>217.0</ele><time>2026-04-25T09:00:21.894Z</time></trkpt><trkpt lat="44.443772091238664" lon="11.373547110864253"><ele>217.0</ele><time>2026-04-25T09:00:25.894Z</time></trkpt><trkpt lat="44.44370593637602" lon="11.373491310154458"><ele>217.0</ele><time>2026-04-25T09:00:30.894Z</time></trkpt><trkpt lat="44.44364255169979" lon="11.373438850130539"><ele>217.0</ele><time>2026-04-25T09:00:35.894Z</time></trkpt><trkpt lat="44.44359386345194" lon="11.373368823568143"><ele>217.0</ele><time>2026-04-25T09:00:40.893Z</time></trkpt><trkpt lat="44.44354515042733" lon="11.373290443809532"><ele>217.0</ele><time>2026-04-25T09:00:46.893Z</time></trkpt><trkpt lat="44.44350590562705" lon="11.373217352512142"><ele>218.42857142857144</ele><time>2026-04-25T09:00:51.893Z</time></trkpt><trkpt lat="44.44346540007594" lon="11.373145601206595"><ele>219.85714285714286</ele><time>2026-04-25T09:00:56.893Z</time></trkpt><trkpt lat="44.443410435802924" lon="11.373087249356251"><ele>221.28571428571428</ele><time>2026-04-25T09:01:01.893Z</time></trkpt><trkpt lat="44.44337158080143" lon="11.373007395300096"><ele>222.71428571428572</ele><time>2026-04-25T09:01:06.893Z</time></trkpt><trkpt lat="44.44333993847279" lon="11.372921882797213"><ele>224.14285714285717</ele><time>2026-04-25T09:01:11.893Z</time></trkpt><trkpt lat="44.443296212732086" lon="11.372838653559702"><ele>225.57142857142858</ele><time>2026-04-25T09:01:16.893Z</time></trkpt><trkpt lat="44.44322983432543" lon="11.372796878108039"><ele>227.0</ele><time>2026-04-25T09:01:22.892Z</time></trkpt><trkpt lat="44.44318149323354" lon="11.3728562764634"><ele>227.2857142857143</ele><time>2026-04-25T09:01:49.892Z</time></trkpt><trkpt lat="44.44312815163901" lon="11.37290471753094"><ele>227.5714285714286</ele><time>2026-04-25T09:01:53.892Z</time></trkpt><trkpt lat="44.44306341953064" lon="11.372910233830371"><ele>227.85714285714286</ele><time>2026-04-25T09:01:57.892Z</time></trkpt><trkpt lat="44.442995423742914" lon="11.372877672788151"><ele>228.14285714285717</ele><time>2026-04-25T09:02:02.891Z</time></trkpt><trkpt lat="44.44292126519542" lon="11.372859793390472"><ele>228.42857142857144</ele><time>2026-04-25T09:02:08.892Z</time></trkpt><trkpt lat="44.44285879053767" lon="11.372897840755673"><ele>228.71428571428572</ele><time>2026-04-25T09:02:13.893Z</time></trkpt><trkpt lat="44.442793289329614" lon="11.372924314246594"><ele>229.0</ele><time>2026-04-25T09:02:18.892Z</time></trkpt><trkpt lat="44.44273388515171" lon="11.372966688922823"><ele>229.85714285714283</ele><time>2026-04-25T09:02:23.892Z</time></trkpt><trkpt lat="44.44269411360224" lon="11.373039362643032"><ele>230.71428571428572</ele><time>2026-04-25T09:02:29.892Z</time></trkpt><trkpt lat="44.44265782951846" lon="11.372944977382314"><ele>231.57142857142856</ele><time>2026-04-25T09:02:35.892Z</time></trkpt><trkpt lat="44.44262568970899" lon="11.373021161562214"><ele>232.42857142857142</ele><time>2026-04-25T09:02:41.892Z</time></trkpt><trkpt lat="44.44265230214815" lon="11.373134192992229"><ele>233.28571428571428</ele><time>2026-04-25T09:02:43.892Z</time></trkpt><trkpt lat="44.44264198088371" lon="11.373223483017846"><ele>234.14285714285714</ele><time>2026-04-25T09:02:44.892Z</time></trkpt><trkpt lat="44.442631644702516" lon="11.373318235443652"><ele>235.0</ele><time>2026-04-25T09:02:45.892Z</time></trkpt><trkpt lat="44.44261929110089" lon="11.373424238412667"><ele>235.6</ele><time>2026-04-25T09:02:46.892Z</time></trkpt><trkpt lat="44.44259110389502" lon="11.373537255180002"><ele>236.2</ele><time>2026-04-25T09:02:47.892Z</time></trkpt><trkpt lat="44.44257887719646" lon="11.373670424634952"><ele>236.8</ele><time>2026-04-25T09:02:48.892Z</time></trkpt><trkpt lat="44.44256732336948" lon="11.3737962655245"><ele>237.4</ele><time>2026-04-25T09:02:49.892Z</time></trkpt><trkpt lat="44.44255607065343" lon="11.373932806915041"><ele>238.0</ele><time>2026-04-25T09:02:50.892Z</time></trkpt><trkpt lat="44.44254407361613" lon="11.37406551925181"><ele>236.49999999999997</ele><time>2026-04-25T09:02:51.892Z</time></trkpt><trkpt lat="44.44253775782327" lon="11.374198479270538"><ele>235.0</ele><time>2026-04-25T09:02:52.892Z</time></trkpt><trkpt lat="44.442510678201465" lon="11.374314811411237"><ele>233.5</ele><time>2026-04-25T09:02:53.892Z</time></trkpt><trkpt lat="44.44247331381367" lon="11.374416265557683"><ele>232.0</ele><time>2026-04-25T09:02:54.892Z</time></trkpt><trkpt lat="44.44242540888899" lon="11.374488217656218"><ele>230.49999999999997</ele><time>2026-04-25T09:02:55.892Z</time></trkpt><trkpt lat="44.44236047106874" lon="11.374585129304"><ele>229.0</ele><time>2026-04-25T09:02:57.891Z</time></trkpt><trkpt lat="44.44229490552484" lon="11.374693327047565"><ele>228.6</ele><time>2026-04-25T09:02:59.891Z</time></trkpt><trkpt lat="44.44223478703674" lon="11.374796214400037"><ele>228.2</ele><time>2026-04-25T09:03:01.891Z</time></trkpt><trkpt lat="44.44215088038396" lon="11.37494927932528"><ele>227.79999999999998</ele><time>2026-04-25T09:03:03.891Z</time></trkpt><trkpt lat="44.4421009662316" lon="11.375046587201934"><ele>227.39999999999998</ele><time>2026-04-25T09:03:04.891Z</time></trkpt><trkpt lat="44.44205598865577" lon="11.375145110371934"><ele>227.0</ele><time>2026-04-25T09:03:05.891Z</time></trkpt><trkpt lat="44.442010377436866" lon="11.37524448023304"><ele>228.50000000000003</ele><time>2026-04-25T09:03:06.891Z</time></trkpt><trkpt lat="44.441975192992835" lon="11.37532704658296"><ele>230.0</ele><time>2026-04-25T09:03:07.891Z</time></trkpt><trkpt lat="44.44194095713193" lon="11.375407573334272"><ele>231.5</ele><time>2026-04-25T09:03:08.891Z</time></trkpt><trkpt lat="44.44186899848535" lon="11.375524783784222"><ele>233.0</ele><time>2026-04-25T09:03:10.891Z</time></trkpt><trkpt lat="44.44182323635609" lon="11.375623751770974"><ele>234.50000000000003</ele><time>2026-04-25T09:03:12.891Z</time></trkpt><trkpt lat="44.441787258779826" lon="11.375707486713623"><ele>236.0</ele><time>2026-04-25T09:03:14.891Z</time></trkpt><trkpt lat="44.44174817201011" lon="11.375791948486818"><ele>236.0</ele><time>2026-04-25T09:03:16.891Z</time></trkpt><trkpt lat="44.441701637790175" lon="11.375865591246667"><ele>236.0</ele><time>2026-04-25T09:03:18.891Z</time></trkpt><trkpt lat="44.44165656734258" lon="11.375950569225473"><ele>236.0</ele><time>2026-04-25T09:03:20.891Z</time></trkpt><trkpt lat="44.44162599532515" lon="11.376037526967595"><ele>236.0</ele><time>2026-04-25T09:03:22.891Z</time></trkpt><trkpt lat="44.44159019941782" lon="11.376114771910817"><ele>236.0</ele><time>2026-04-25T09:03:24.891Z</time></trkpt><trkpt lat="44.44155364030303" lon="11.376189724474047"><ele>236.0</ele><time>2026-04-25T09:03:26.891Z</time></trkpt><trkpt lat="44.44151188016842" lon="11.376263186821095"><ele>236.0</ele><time>2026-04-25T09:03:28.891Z</time></trkpt><trkpt lat="44.44147585168866" lon="11.37633603841205"><ele>235.16666666666669</ele><time>2026-04-25T09:03:30.891Z</time></trkpt><trkpt lat="44.441417043495726" lon="11.37643487356268"><ele>234.33333333333334</ele><time>2026-04-25T09:03:33.891Z</time></trkpt><trkpt lat="44.44137180852156" lon="11.376502278452403"><ele>233.5</ele><time>2026-04-25T09:03:35.891Z</time></trkpt><trkpt lat="44.44132940896927" lon="11.376578436076974"><ele>232.66666666666669</ele><time>2026-04-25T09:03:37.89Z</time></trkpt><trkpt lat="44.44127349998879" lon="11.376685053268085"><ele>231.83333333333334</ele><time>2026-04-25T09:03:40.89Z</time></trkpt><trkpt lat="44.44123701906769" lon="11.376758859301578"><ele>231.0</ele><time>2026-04-25T09:03:42.89Z</time></trkpt><trkpt lat="44.44121187607651" lon="11.376852044163513"><ele>230.8</ele><time>2026-04-25T09:03:44.89Z</time></trkpt><trkpt lat="44.44121136614741" lon="11.376985990159527"><ele>230.60000000000002</ele><time>2026-04-25T09:03:47.89Z</time></trkpt><trkpt lat="44.44122880456807" lon="11.37709822635632"><ele>230.4</ele><time>2026-04-25T09:03:49.89Z</time></trkpt><trkpt lat="44.44127845348025" lon="11.377188278969733"><ele>230.2</ele><time>2026-04-25T09:03:51.89Z</time></trkpt><trkpt lat="44.44133000138214" lon="11.377314480918006"><ele>230.0</ele><time>2026-04-25T09:03:53.89Z</time></trkpt><trkpt lat="44.44139754944435" lon="11.377404386471826"><ele>230.83333333333334</ele><time>2026-04-25T09:03:55.89Z</time></trkpt><trkpt lat="44.44148611210456" lon="11.377487325012257"><ele>231.66666666666669</ele><time>2026-04-25T09:03:57.89Z</time></trkpt><trkpt lat="44.441569505792394" lon="11.37752988149794"><ele>232.5</ele><time>2026-04-25T09:03:59.89Z</time></trkpt><trkpt lat="44.44164824889527" lon="11.377567445787422"><ele>233.33333333333331</ele><time>2026-04-25T09:04:01.89Z</time></trkpt><trkpt lat="44.441713453991625" lon="11.377611563310799"><ele>234.16666666666666</ele><time>2026-04-25T09:04:03.89Z</time></trkpt><trkpt lat="44.44176700064426" lon="11.377706532761973"><ele>235.0</ele><time>2026-04-25T09:04:05.89Z</time></trkpt><trkpt lat="44.441827812837765" lon="11.377802176948643"><ele>235.0</ele><time>2026-04-25T09:04:07.89Z</time></trkpt><trkpt lat="44.44188547792174" lon="11.377909987431014"><ele>235.0</ele><time>2026-04-25T09:04:09.89Z</time></trkpt><trkpt lat="44.44196819555301" lon="11.377982762204217"><ele>235.0</ele><time>2026-04-25T09:04:11.891Z</time></trkpt><trkpt lat="44.44205171919275" lon="11.378036742106149"><ele>235.0</ele><time>2026-04-25T09:04:13.891Z</time></trkpt><trkpt lat="44.44214173184319" lon="11.378076210326986"><ele>235.0</ele><time>2026-04-25T09:04:15.891Z</time></trkpt><trkpt lat="44.44224148303196" lon="11.378164852837614"><ele>234.49999999999997</ele><time>2026-04-25T09:04:17.891Z</time></trkpt><trkpt lat="44.442299109253135" lon="11.378226346348347"><ele>234.0</ele><time>2026-04-25T09:04:18.891Z</time></trkpt><trkpt lat="44.4423665201749" lon="11.378272164250784"><ele>233.5</ele><time>2026-04-25T09:04:19.891Z</time></trkpt><trkpt lat="44.442435650286505" lon="11.378327584107756"><ele>233.0</ele><time>2026-04-25T09:04:20.891Z</time></trkpt><trkpt lat="44.44249601753413" lon="11.378380370086454"><ele>232.49999999999997</ele><time>2026-04-25T09:04:21.891Z</time></trkpt><trkpt lat="44.4425657274434" lon="11.378447667530258"><ele>232.0</ele><time>2026-04-25T09:04:22.891Z</time></trkpt><trkpt lat="44.442623374913055" lon="11.37850223102998"><ele>231.99999999999997</ele><time>2026-04-25T09:04:23.891Z</time></trkpt><trkpt lat="44.44269311734949" lon="11.378565275749486"><ele>232.0</ele><time>2026-04-25T09:04:24.891Z</time></trkpt><trkpt lat="44.442773632042666" lon="11.378645459371151"><ele>232.0</ele><time>2026-04-25T09:04:25.891Z</time></trkpt><trkpt lat="44.44285046962" lon="11.37872695357943"><ele>232.0</ele><time>2026-04-25T09:04:26.891Z</time></trkpt><trkpt lat="44.4429124502762" lon="11.378791032664818"><ele>231.99999999999997</ele><time>2026-04-25T09:04:27.891Z</time></trkpt><trkpt lat="44.442986405972924" lon="11.37885358556483"><ele>232.0</ele><time>2026-04-25T09:04:28.891Z</time></trkpt><trkpt lat="44.4430467181121" lon="11.37893042373368"><ele>230.33333333333331</ele><time>2026-04-25T09:04:29.891Z</time></trkpt><trkpt lat="44.44309918887693" lon="11.379012017139104"><ele>228.66666666666666</ele><time>2026-04-25T09:04:30.891Z</time></trkpt><trkpt lat="44.4431407583369" lon="11.37909345361632"><ele>227.0</ele><time>2026-04-25T09:04:31.891Z</time></trkpt><trkpt lat="44.44314863797245" lon="11.379215971525348"><ele>225.33333333333331</ele><time>2026-04-25T09:04:32.891Z</time></trkpt><trkpt lat="44.44307075250582" lon="11.379329210312253"><ele>223.66666666666666</ele><time>2026-04-25T09:04:33.891Z</time></trkpt><trkpt lat="44.44301515250541" lon="11.379429042611735"><ele>222.0</ele><time>2026-04-25T09:04:34.891Z</time></trkpt><trkpt lat="44.44299261640064" lon="11.379531441123659"><ele>222.0</ele><time>2026-04-25T09:04:35.891Z</time></trkpt><trkpt lat="44.442982723809585" lon="11.379651357052829"><ele>222.0</ele><time>2026-04-25T09:04:36.891Z</time></trkpt><trkpt lat="44.44298696726316" lon="11.379786401647841"><ele>222.0</ele><time>2026-04-25T09:04:37.891Z</time></trkpt><trkpt lat="44.44299284896112" lon="11.379911418689861"><ele>222.0</ele><time>2026-04-25T09:04:38.891Z</time></trkpt><trkpt lat="44.44299410002275" lon="11.380033842908738"><ele>222.0</ele><time>2026-04-25T09:04:39.891Z</time></trkpt><trkpt lat="44.443003898054144" lon="11.380136818718892"><ele>222.0</ele><time>2026-04-25T09:04:40.891Z</time></trkpt><trkpt lat="44.443031780213325" lon="11.380228603454244"><ele>221.33333333333334</ele><time>2026-04-25T09:04:41.891Z</time></trkpt><trkpt lat="44.44307534953107" lon="11.380314850099541"><ele>220.66666666666669</ele><time>2026-04-25T09:04:42.891Z</time></trkpt><trkpt lat="44.443137709360236" lon="11.380374336665202"><ele>220.0</ele><time>2026-04-25T09:04:43.891Z</time></trkpt><trkpt lat="44.44318341832805" lon="11.380446929137685"><ele>219.33333333333334</ele><time>2026-04-25T09:04:44.891Z</time></trkpt><trkpt lat="44.443255695534305" lon="11.380567877601447"><ele>218.66666666666669</ele><time>2026-04-25T09:04:46.891Z</time></trkpt><trkpt lat="44.44333199720813" lon="11.380681952218433"><ele>218.0</ele><time>2026-04-25T09:04:48.891Z</time></trkpt><trkpt lat="44.443386012359156" lon="11.380803075529116"><ele>217.8</ele><time>2026-04-25T09:04:50.891Z</time></trkpt><trkpt lat="44.44340147523801" lon="11.380914751837965"><ele>217.60000000000002</ele><time>2026-04-25T09:04:52.891Z</time></trkpt><trkpt lat="44.44340037943893" lon="11.38103274114556"><ele>217.39999999999998</ele><time>2026-04-25T09:04:54.891Z</time></trkpt><trkpt lat="44.44337289886161" lon="11.381159127339451"><ele>217.2</ele><time>2026-04-25T09:04:56.891Z</time></trkpt><trkpt lat="44.44330943407646" lon="11.38127775105992"><ele>217.0</ele><time>2026-04-25T09:04:58.891Z</time></trkpt><trkpt lat="44.443289407917014" lon="11.381405775362742"><ele>216.83333333333331</ele><time>2026-04-25T09:05:00.89Z</time></trkpt><trkpt lat="44.44325955509604" lon="11.381530345724268"><ele>216.66666666666666</ele><time>2026-04-25T09:05:02.89Z</time></trkpt><trkpt lat="44.44323873336958" lon="11.38164358976877"><ele>216.5</ele><time>2026-04-25T09:05:04.89Z</time></trkpt><trkpt lat="44.44320849890828" lon="11.381744918743934"><ele>216.33333333333331</ele><time>2026-04-25T09:05:06.89Z</time></trkpt><trkpt lat="44.44319348612267" lon="11.38184451358897"><ele>216.16666666666666</ele><time>2026-04-25T09:05:08.89Z</time></trkpt><trkpt lat="44.443174621975295" lon="11.381962274948686"><ele>216.0</ele><time>2026-04-25T09:05:10.89Z</time></trkpt><trkpt lat="44.443157148723536" lon="11.382104797278485"><ele>216.0</ele><time>2026-04-25T09:05:12.89Z</time></trkpt><trkpt lat="44.4431314317194" lon="11.382267426526262"><ele>216.00000000000003</ele><time>2026-04-25T09:05:14.89Z</time></trkpt><trkpt lat="44.44310685049066" lon="11.382443991761546"><ele>216.00000000000003</ele><time>2026-04-25T09:05:16.89Z</time></trkpt><trkpt lat="44.44309523079363" lon="11.382546419347404"><ele>216.0</ele><time>2026-04-25T09:05:17.89Z</time></trkpt><trkpt lat="44.44308459812141" lon="11.382647173440125"><ele>216.0</ele><time>2026-04-25T09:05:18.89Z</time></trkpt><trkpt lat="44.4430757070892" lon="11.382750749848437"><ele>216.0</ele><time>2026-04-25T09:05:19.89Z</time></trkpt><trkpt lat="44.44306964386611" lon="11.38285753666962"><ele>216.0</ele><time>2026-04-25T09:05:20.89Z</time></trkpt><trkpt lat="44.443039857681896" lon="11.382960097307267"><ele>216.0</ele><time>2026-04-25T09:05:21.89Z</time></trkpt><trkpt lat="44.44303608079161" lon="11.383055440786242"><ele>216.0</ele><time>2026-04-25T09:05:22.89Z</time></trkpt><trkpt lat="44.443023032257784" lon="11.383163941905476"><ele>216.0</ele><time>2026-04-25T09:05:23.89Z</time></trkpt><trkpt lat="44.44300851494046" lon="11.383261740447146"><ele>216.0</ele><time>2026-04-25T09:05:24.89Z</time></trkpt><trkpt lat="44.44299724806782" lon="11.38335531921586"><ele>216.0</ele><time>2026-04-25T09:05:25.89Z</time></trkpt><trkpt lat="44.4429723475947" lon="11.383529299405605"><ele>216.16666666666666</ele><time>2026-04-25T09:05:27.89Z</time></trkpt><trkpt lat="44.44295886720872" lon="11.383621357905334"><ele>216.33333333333331</ele><time>2026-04-25T09:05:28.89Z</time></trkpt><trkpt lat="44.442947568637045" lon="11.383719967614166"><ele>216.5</ele><time>2026-04-25T09:05:29.89Z</time></trkpt><trkpt lat="44.44293798339164" lon="11.383808549742536"><ele>216.66666666666666</ele><time>2026-04-25T09:05:30.89Z</time></trkpt><trkpt lat="44.44291814935098" lon="11.383971825877644"><ele>216.83333333333331</ele><time>2026-04-25T09:05:32.89Z</time></trkpt><trkpt lat="44.44290234776159" lon="11.384129179040176"><ele>217.0</ele><time>2026-04-25T09:05:34.89Z</time></trkpt><trkpt lat="44.442883464450546" lon="11.384279016462672"><ele>218.16666666666666</ele><time>2026-04-25T09:05:36.89Z</time></trkpt><trkpt lat="44.44286206327335" lon="11.38440792830045"><ele>219.33333333333331</ele><time>2026-04-25T09:05:38.89Z</time></trkpt><trkpt lat="44.442840297424276" lon="11.384535252528721"><ele>220.5</ele><time>2026-04-25T09:05:40.889Z</time></trkpt><trkpt lat="44.44284324499072" lon="11.38463956816586"><ele>221.66666666666669</ele><time>2026-04-25T09:05:42.889Z</time></trkpt><trkpt lat="44.44283377914383" lon="11.38474941695812"><ele>222.83333333333334</ele><time>2026-04-25T09:05:44.889Z</time></trkpt><trkpt lat="44.442809168548166" lon="11.38486569783156"><ele>224.0</ele><time>2026-04-25T09:05:46.889Z</time></trkpt><trkpt lat="44.442794144722164" lon="11.384965335989202"><ele>225.0</ele><time>2026-04-25T09:05:48.889Z</time></trkpt><trkpt lat="44.4427873514744" lon="11.385064620237529"><ele>226.0</ele><time>2026-04-25T09:05:50.889Z</time></trkpt><trkpt lat="44.44277747804364" lon="11.385159519086846"><ele>227.0</ele><time>2026-04-25T09:05:52.889Z</time></trkpt><trkpt lat="44.44277733600434" lon="11.385267838259322"><ele>228.0</ele><time>2026-04-25T09:05:54.889Z</time></trkpt><trkpt lat="44.44276238529472" lon="11.385356422825808"><ele>229.0</ele><time>2026-04-25T09:05:56.889Z</time></trkpt><trkpt lat="44.442756867380986" lon="11.385445715698506"><ele>230.0</ele><time>2026-04-25T09:05:58.889Z</time></trkpt><trkpt lat="44.442764638140424" lon="11.38555647247542"><ele>231.0</ele><time>2026-04-25T09:06:01.889Z</time></trkpt><trkpt lat="44.442723208181704" lon="11.385628185826757"><ele>231.0</ele><time>2026-04-25T09:06:04.889Z</time></trkpt><trkpt lat="44.44264971338618" lon="11.385627396837453"><ele>231.0</ele><time>2026-04-25T09:06:07.889Z</time></trkpt><trkpt lat="44.4425880925281" lon="11.385588455123754"><ele>231.0</ele><time>2026-04-25T09:08:06.887Z</time></trkpt><trkpt lat="44.4425619406854" lon="11.385721388823447"><ele>231.0</ele><time>2026-04-25T09:12:23.884Z</time></trkpt><trkpt lat="44.44248824956795" lon="11.385709554166212"><ele>231.0</ele><time>2026-04-25T09:12:31.884Z</time></trkpt><trkpt lat="44.442420469318535" lon="11.385699741997138"><ele>231.0</ele><time>2026-04-25T09:12:37.885Z</time></trkpt><trkpt lat="44.4423528404812" lon="11.385721394635949"><ele>231.0</ele><time>2026-04-25T09:12:42.885Z</time></trkpt><trkpt lat="44.442284008915" lon="11.38570071310082"><ele>231.0</ele><time>2026-04-25T09:12:47.885Z</time></trkpt><trkpt lat="44.44221381589911" lon="11.385674239483546"><ele>231.0</ele><time>2026-04-25T09:12:52.885Z</time></trkpt><trkpt lat="44.442150926719876" lon="11.385656955170177"><ele>231.0</ele><time>2026-04-25T09:12:58.885Z</time></trkpt><trkpt lat="44.44209075507271" lon="11.385627113522625"><ele>231.0</ele><time>2026-04-25T09:13:02.885Z</time></trkpt><trkpt lat="44.442023700296204" lon="11.385613089903385"><ele>231.0</ele><time>2026-04-25T09:13:07.885Z</time></trkpt><trkpt lat="44.44195453889832" lon="11.38559453511536"><ele>231.0</ele><time>2026-04-25T09:13:13.885Z</time></trkpt><trkpt lat="44.441888604184264" lon="11.385605976260297"><ele>232.14285714285714</ele><time>2026-04-25T09:13:19.885Z</time></trkpt><trkpt lat="44.441820426128075" lon="11.385615110879574"><ele>233.28571428571428</ele><time>2026-04-25T09:13:25.885Z</time></trkpt><trkpt lat="44.44175668871289" lon="11.385647181516624"><ele>234.42857142857144</ele><time>2026-04-25T09:13:31.884Z</time></trkpt><trkpt lat="44.441692761068836" lon="11.385673055993854"><ele>235.57142857142858</ele><time>2026-04-25T09:13:37.884Z</time></trkpt><trkpt lat="44.441630426360035" lon="11.38569119553004"><ele>236.71428571428572</ele><time>2026-04-25T09:13:42.884Z</time></trkpt><trkpt lat="44.441568157854896" lon="11.385718970714205"><ele>237.8571428571429</ele><time>2026-04-25T09:13:47.884Z</time></trkpt><trkpt lat="44.4415067207275" lon="11.3856983536546"><ele>239.00000000000003</ele><time>2026-04-25T09:13:54.884Z</time></trkpt><trkpt lat="44.44145998004668" lon="11.385782228175056"><ele>239.00000000000003</ele><time>2026-04-25T09:14:40.883Z</time></trkpt><trkpt lat="44.441396038449966" lon="11.385829876617441"><ele>239.0</ele><time>2026-04-25T09:14:45.884Z</time></trkpt><trkpt lat="44.44133493980647" lon="11.385863205746405"><ele>239.00000000000003</ele><time>2026-04-25T09:14:49.882Z</time></trkpt><trkpt lat="44.44127498129991" lon="11.385912670108484"><ele>239.00000000000003</ele><time>2026-04-25T09:14:54.88Z</time></trkpt><trkpt lat="44.44120641127414" lon="11.385964346105439"><ele>239.0</ele><time>2026-04-25T09:14:59.878Z</time></trkpt><trkpt lat="44.44113709375747" lon="11.386013787345366"><ele>239.00000000000003</ele><time>2026-04-25T09:15:05.876Z</time></trkpt><trkpt lat="44.441075803714774" lon="11.386069596789117"><ele>239.00000000000003</ele><time>2026-04-25T09:15:10.875Z</time></trkpt><trkpt lat="44.44102074382859" lon="11.386143757605907"><ele>239.5714285714286</ele><time>2026-04-25T09:15:16.874Z</time></trkpt><trkpt lat="44.44096446238692" lon="11.386201043794772"><ele>240.14285714285717</ele><time>2026-04-25T09:15:21.873Z</time></trkpt><trkpt lat="44.44092203032415" lon="11.38629039984879"><ele>240.71428571428572</ele><time>2026-04-25T09:15:26.873Z</time></trkpt><trkpt lat="44.440877092608154" lon="11.38637212638518"><ele>241.2857142857143</ele><time>2026-04-25T09:15:32.873Z</time></trkpt><trkpt lat="44.44084162915704" lon="11.386461908672842"><ele>241.8571428571429</ele><time>2026-04-25T09:15:37.872Z</time></trkpt><trkpt lat="44.44081560480983" lon="11.386544782774823"><ele>242.42857142857142</ele><time>2026-04-25T09:15:41.872Z</time></trkpt><trkpt lat="44.44078301640794" lon="11.386640664175756"><ele>243.0</ele><time>2026-04-25T09:15:47.872Z</time></trkpt><trkpt lat="44.44073978891947" lon="11.386718610908629"><ele>243.0</ele><time>2026-04-25T09:15:52.872Z</time></trkpt><trkpt lat="44.44070707329657" lon="11.386797987118356"><ele>243.0</ele><time>2026-04-25T09:15:57.871Z</time></trkpt><trkpt lat="44.44066005799373" lon="11.386858740616276"><ele>243.0</ele><time>2026-04-25T09:16:01.871Z</time></trkpt><trkpt lat="44.44060851771976" lon="11.386927124047002"><ele>243.0</ele><time>2026-04-25T09:16:06.871Z</time></trkpt><trkpt lat="44.44055413441981" lon="11.386998488366032"><ele>243.0</ele><time>2026-04-25T09:16:11.871Z</time></trkpt><trkpt lat="44.44050711147547" lon="11.387065134534627"><ele>243.0</ele><time>2026-04-25T09:16:16.871Z</time></trkpt><trkpt lat="44.440440749787065" lon="11.387130032718897"><ele>243.0</ele><time>2026-04-25T09:16:21.871Z</time></trkpt><trkpt lat="44.44038145494879" lon="11.38716801558842"><ele>244.57142857142856</ele><time>2026-04-25T09:16:25.871Z</time></trkpt><trkpt lat="44.44032170940187" lon="11.38722506098433"><ele>246.14285714285717</ele><time>2026-04-25T09:16:30.87Z</time></trkpt><trkpt lat="44.4402552666039" lon="11.387259139717449"><ele>247.71428571428572</ele><time>2026-04-25T09:16:35.87Z</time></trkpt><trkpt lat="44.440190765368946" lon="11.387297105411985"><ele>249.28571428571428</ele><time>2026-04-25T09:16:41.87Z</time></trkpt><trkpt lat="44.4401134368133" lon="11.387332541723817"><ele>250.85714285714283</ele><time>2026-04-25T09:16:47.871Z</time></trkpt><trkpt lat="44.440049033077806" lon="11.387358433806842"><ele>252.42857142857144</ele><time>2026-04-25T09:16:51.871Z</time></trkpt><trkpt lat="44.43997678224739" lon="11.387406701085643"><ele>254.0</ele><time>2026-04-25T09:16:56.871Z</time></trkpt><trkpt lat="44.43991275254193" lon="11.387432008690965"><ele>254.0</ele><time>2026-04-25T09:17:00.872Z</time></trkpt><trkpt lat="44.43984571918985" lon="11.387475477246506"><ele>254.0</ele><time>2026-04-25T09:17:04.871Z</time></trkpt><trkpt lat="44.43976765437209" lon="11.387502524408873"><ele>254.0</ele><time>2026-04-25T09:17:09.871Z</time></trkpt><trkpt lat="44.4396985154276" lon="11.38755337475397"><ele>254.0</ele><time>2026-04-25T09:17:13.871Z</time></trkpt><trkpt lat="44.43963674190842" lon="11.38757706200687"><ele>254.0</ele><time>2026-04-25T09:17:16.871Z</time></trkpt><trkpt lat="44.43957422119494" lon="11.387603450698531"><ele>254.0</ele><time>2026-04-25T09:17:19.871Z</time></trkpt><trkpt lat="44.43950084687185" lon="11.387641158403483"><ele>254.0</ele><time>2026-04-25T09:17:23.871Z</time></trkpt><trkpt lat="44.43942950288543" lon="11.387669888796621"><ele>254.42857142857144</ele><time>2026-04-25T09:17:27.871Z</time></trkpt><trkpt lat="44.43936555837309" lon="11.387697048114747"><ele>254.85714285714283</ele><time>2026-04-25T09:17:31.871Z</time></trkpt><trkpt lat="44.43929591362849" lon="11.387727591232077"><ele>255.28571428571428</ele><time>2026-04-25T09:17:35.871Z</time></trkpt><trkpt lat="44.439230041356666" lon="11.38773135124317"><ele>255.71428571428572</ele><time>2026-04-25T09:17:39.871Z</time></trkpt><trkpt lat="44.43914489057651" lon="11.387705997561621"><ele>256.14285714285717</ele><time>2026-04-25T09:17:43.87Z</time></trkpt><trkpt lat="44.43906724131303" lon="11.387685600209087"><ele>256.57142857142856</ele><time>2026-04-25T09:17:47.87Z</time></trkpt><trkpt lat="44.43900632540728" lon="11.387624655793367"><ele>257.0</ele><time>2026-04-25T09:17:51.87Z</time></trkpt><trkpt lat="44.438949087763646" lon="11.387585131158424"><ele>257.0</ele><time>2026-04-25T09:18:53.869Z</time></trkpt><trkpt lat="44.43890525810538" lon="11.387501798865573"><ele>257.0</ele><time>2026-04-25T09:19:00.87Z</time></trkpt><trkpt lat="44.43885267915356" lon="11.387384717013633"><ele>257.0</ele><time>2026-04-25T09:19:03.869Z</time></trkpt><trkpt lat="44.43881995058954" lon="11.387282901283903"><ele>257.0</ele><time>2026-04-25T09:19:05.869Z</time></trkpt><trkpt lat="44.43881143129628" lon="11.38718284554035"><ele>257.0</ele><time>2026-04-25T09:19:07.869Z</time></trkpt><trkpt lat="44.43879000111894" lon="11.387050470953398"><ele>257.0</ele><time>2026-04-25T09:19:09.869Z</time></trkpt><trkpt lat="44.43873457456143" lon="11.38690830066225"><ele>255.6</ele><time>2026-04-25T09:19:11.869Z</time></trkpt><trkpt lat="44.43864211628088" lon="11.386772076800238"><ele>254.2</ele><time>2026-04-25T09:19:13.868Z</time></trkpt><trkpt lat="44.43858467134524" lon="11.386711822733295"><ele>252.8</ele><time>2026-04-25T09:19:14.868Z</time></trkpt><trkpt lat="44.43853331112745" lon="11.386552046150813"><ele>251.4</ele><time>2026-04-25T09:19:16.868Z</time></trkpt><trkpt lat="44.43847754161539" lon="11.386492080062311"><ele>250.0</ele><time>2026-04-25T09:19:17.868Z</time></trkpt><trkpt lat="44.43838353245564" lon="11.386395023717851"><ele>249.6</ele><time>2026-04-25T09:19:19.868Z</time></trkpt><trkpt lat="44.43829414817382" lon="11.386311916686752"><ele>249.2</ele><time>2026-04-25T09:19:21.868Z</time></trkpt><trkpt lat="44.438193138079455" lon="11.386256918693745"><ele>248.8</ele><time>2026-04-25T09:19:23.868Z</time></trkpt><trkpt lat="44.43809029664895" lon="11.386239146425988"><ele>248.4</ele><time>2026-04-25T09:19:25.868Z</time></trkpt><trkpt lat="44.43798681506887" lon="11.386255511916406"><ele>248.0</ele><time>2026-04-25T09:19:27.868Z</time></trkpt><trkpt lat="44.4378958069726" lon="11.386311125050902"><ele>248.50000000000003</ele><time>2026-04-25T09:19:29.868Z</time></trkpt><trkpt lat="44.437805627395676" lon="11.386357755463862"><ele>249.0</ele><time>2026-04-25T09:19:31.868Z</time></trkpt><trkpt lat="44.437726177428345" lon="11.38639213464244"><ele>249.5</ele><time>2026-04-25T09:19:33.868Z</time></trkpt><trkpt lat="44.43764241345043" lon="11.386412492700119"><ele>250.0</ele><time>2026-04-25T09:19:35.868Z</time></trkpt><trkpt lat="44.43756187986428" lon="11.386438288608018"><ele>250.50000000000003</ele><time>2026-04-25T09:19:37.868Z</time></trkpt><trkpt lat="44.43747712104334" lon="11.386460234389643"><ele>251.0</ele><time>2026-04-25T09:19:39.868Z</time></trkpt><trkpt lat="44.43740273197795" lon="11.386493006964525"><ele>251.0</ele><time>2026-04-25T09:19:41.868Z</time></trkpt><trkpt lat="44.43730336998211" lon="11.386500833346956"><ele>251.00000000000003</ele><time>2026-04-25T09:19:43.868Z</time></trkpt><trkpt lat="44.43720226037675" lon="11.386471027168726"><ele>251.00000000000003</ele><time>2026-04-25T09:19:45.868Z</time></trkpt><trkpt lat="44.43709577013918" lon="11.386434275143134"><ele>251.0</ele><time>2026-04-25T09:19:47.868Z</time></trkpt><trkpt lat="44.43700434505792" lon="11.386348366761686"><ele>251.0</ele><time>2026-04-25T09:19:49.868Z</time></trkpt><trkpt lat="44.436905052082146" lon="11.386308130743576"><ele>250.00000000000003</ele><time>2026-04-25T09:19:51.867Z</time></trkpt><trkpt lat="44.43680720556615" lon="11.386259812513995"><ele>249.0</ele><time>2026-04-25T09:19:53.867Z</time></trkpt><trkpt lat="44.43671907088607" lon="11.386201872854357"><ele>248.0</ele><time>2026-04-25T09:19:55.867Z</time></trkpt><trkpt lat="44.43663986115856" lon="11.386141309614272"><ele>247.0</ele><time>2026-04-25T09:19:57.867Z</time></trkpt><trkpt lat="44.436564518071755" lon="11.386092628155684"><ele>246.00000000000003</ele><time>2026-04-25T09:19:59.867Z</time></trkpt><trkpt lat="44.43649850540058" lon="11.386042327321507"><ele>245.0</ele><time>2026-04-25T09:20:01.867Z</time></trkpt><trkpt lat="44.43644803790657" lon="11.38598753330081"><ele>245.0</ele><time>2026-04-25T09:20:03.867Z</time></trkpt><trkpt lat="44.43639316781391" lon="11.385940733930614"><ele>245.0</ele><time>2026-04-25T09:20:05.867Z</time></trkpt><trkpt lat="44.43633370928655" lon="11.38587716533486"><ele>245.0</ele><time>2026-04-25T09:20:08.867Z</time></trkpt><trkpt lat="44.436293447123965" lon="11.386108732410882"><ele>245.0</ele><time>2026-04-25T09:20:14.867Z</time></trkpt><trkpt lat="44.43630812334819" lon="11.386219737333846"><ele>245.0</ele><time>2026-04-25T09:20:17.867Z</time></trkpt><trkpt lat="44.43627675202575" lon="11.38629924725152"><ele>244.2</ele><time>2026-04-25T09:20:24.867Z</time></trkpt><trkpt lat="44.43624906559069" lon="11.386441565032827"><ele>243.4</ele><time>2026-04-25T09:20:27.867Z</time></trkpt><trkpt lat="44.43621273598925" lon="11.386602703495576"><ele>242.60000000000002</ele><time>2026-04-25T09:20:29.866Z</time></trkpt><trkpt lat="44.436188694508175" lon="11.386698368853207"><ele>241.8</ele><time>2026-04-25T09:20:30.866Z</time></trkpt><trkpt lat="44.436167027325325" lon="11.386813097118045"><ele>241.0</ele><time>2026-04-25T09:20:31.866Z</time></trkpt><trkpt lat="44.43614432238993" lon="11.386918857246696"><ele>240.99999999999997</ele><time>2026-04-25T09:20:32.866Z</time></trkpt><trkpt lat="44.43610266744556" lon="11.387104373926062"><ele>241.0</ele><time>2026-04-25T09:20:34.866Z</time></trkpt><trkpt lat="44.43607610190291" lon="11.387215252914372"><ele>241.0</ele><time>2026-04-25T09:20:35.866Z</time></trkpt><trkpt lat="44.43605311663004" lon="11.387316126371495"><ele>241.0</ele><time>2026-04-25T09:20:36.866Z</time></trkpt><trkpt lat="44.43603553295605" lon="11.387401588697943"><ele>240.99999999999997</ele><time>2026-04-25T09:20:37.866Z</time></trkpt><trkpt lat="44.43600617616108" lon="11.387506356255457"><ele>241.0</ele><time>2026-04-25T09:20:38.866Z</time></trkpt><trkpt lat="44.435981414233055" lon="11.387610760616559"><ele>239.33333333333331</ele><time>2026-04-25T09:20:39.866Z</time></trkpt><trkpt lat="44.43596117181625" lon="11.387695605035276"><ele>237.66666666666666</ele><time>2026-04-25T09:20:40.866Z</time></trkpt><trkpt lat="44.435933168785446" lon="11.387803053985635"><ele>236.0</ele><time>2026-04-25T09:20:41.866Z</time></trkpt><trkpt lat="44.43591226803137" lon="11.3879189532844"><ele>234.33333333333331</ele><time>2026-04-25T09:20:42.866Z</time></trkpt><trkpt lat="44.43587995065518" lon="11.388058526437257"><ele>232.66666666666666</ele><time>2026-04-25T09:20:43.866Z</time></trkpt><trkpt lat="44.435848431772996" lon="11.388204598730258"><ele>231.0</ele><time>2026-04-25T09:20:44.866Z</time></trkpt><trkpt lat="44.435814632983494" lon="11.388343056866574"><ele>228.4</ele><time>2026-04-25T09:20:45.866Z</time></trkpt><trkpt lat="44.43578779938219" lon="11.388471434631192"><ele>225.8</ele><time>2026-04-25T09:20:46.866Z</time></trkpt><trkpt lat="44.43575830599198" lon="11.388595062191056"><ele>223.20000000000002</ele><time>2026-04-25T09:20:47.866Z</time></trkpt><trkpt lat="44.43572969508601" lon="11.388723167124628"><ele>220.60000000000002</ele><time>2026-04-25T09:20:48.866Z</time></trkpt><trkpt lat="44.43570583852923" lon="11.38885214607674"><ele>218.0</ele><time>2026-04-25T09:20:49.866Z</time></trkpt><trkpt lat="44.43567763348712" lon="11.388994902561194"><ele>216.0</ele><time>2026-04-25T09:20:50.866Z</time></trkpt><trkpt lat="44.43564657689882" lon="11.389132917583055"><ele>214.0</ele><time>2026-04-25T09:20:51.866Z</time></trkpt><trkpt lat="44.43561865321529" lon="11.389282694975613"><ele>212.0</ele><time>2026-04-25T09:20:52.866Z</time></trkpt><trkpt lat="44.435590234884835" lon="11.389423616102428"><ele>210.0</ele><time>2026-04-25T09:20:53.866Z</time></trkpt><trkpt lat="44.435584254388814" lon="11.38954153560462"><ele>208.0</ele><time>2026-04-25T09:20:54.866Z</time></trkpt><trkpt lat="44.435592771959165" lon="11.38966284064802"><ele>206.2</ele><time>2026-04-25T09:20:55.866Z</time></trkpt><trkpt lat="44.43558423929389" lon="11.389796344431753"><ele>204.4</ele><time>2026-04-25T09:20:56.866Z</time></trkpt><trkpt lat="44.43558489301013" lon="11.3899371747286"><ele>202.6</ele><time>2026-04-25T09:20:57.866Z</time></trkpt><trkpt lat="44.43558574462962" lon="11.390075908164754"><ele>200.79999999999998</ele><time>2026-04-25T09:20:58.866Z</time></trkpt><trkpt lat="44.43558792681783" lon="11.390224037413903"><ele>199.0</ele><time>2026-04-25T09:20:59.868Z</time></trkpt><trkpt lat="44.43558991722703" lon="11.390368192083995"><ele>197.79999999999998</ele><time>2026-04-25T09:21:00.867Z</time></trkpt><trkpt lat="44.43560291822365" lon="11.39050862367854"><ele>196.6</ele><time>2026-04-25T09:21:01.867Z</time></trkpt><trkpt lat="44.43562004380219" lon="11.390649987564478"><ele>195.4</ele><time>2026-04-25T09:21:02.867Z</time></trkpt><trkpt lat="44.435625565045086" lon="11.390791457516308"><ele>194.2</ele><time>2026-04-25T09:21:03.868Z</time></trkpt><trkpt lat="44.43564048138102" lon="11.390928900615712"><ele>193.0</ele><time>2026-04-25T09:21:04.868Z</time></trkpt><trkpt lat="44.43565120210888" lon="11.391061799584145"><ele>192.99999999999997</ele><time>2026-04-25T09:21:05.867Z</time></trkpt><trkpt lat="44.43565372098319" lon="11.391184918127978"><ele>193.0</ele><time>2026-04-25T09:21:06.868Z</time></trkpt><trkpt lat="44.43565531557257" lon="11.391304276975779"><ele>193.0</ele><time>2026-04-25T09:21:07.868Z</time></trkpt><trkpt lat="44.43565655185104" lon="11.391422648938812"><ele>193.0</ele><time>2026-04-25T09:21:08.867Z</time></trkpt><trkpt lat="44.43565759319754" lon="11.3915429669186"><ele>192.99999999999997</ele><time>2026-04-25T09:21:09.867Z</time></trkpt><trkpt lat="44.43566671408475" lon="11.391661572707944"><ele>193.0</ele><time>2026-04-25T09:21:10.867Z</time></trkpt><trkpt lat="44.43568789919165" lon="11.39177157175531"><ele>192.99999999999997</ele><time>2026-04-25T09:21:11.868Z</time></trkpt><trkpt lat="44.43573531345233" lon="11.391864270072832"><ele>193.0</ele><time>2026-04-25T09:21:12.867Z</time></trkpt><trkpt lat="44.43578953079689" lon="11.391924643045126"><ele>193.0</ele><time>2026-04-25T09:21:13.867Z</time></trkpt><trkpt lat="44.43583694054617" lon="11.391989501691347"><ele>193.0</ele><time>2026-04-25T09:21:14.867Z</time></trkpt><trkpt lat="44.43591552243476" lon="11.392112978706868"><ele>192.99999999999997</ele><time>2026-04-25T09:21:16.867Z</time></trkpt><trkpt lat="44.43596994747618" lon="11.392252522777717"><ele>193.0</ele><time>2026-04-25T09:21:18.867Z</time></trkpt><trkpt lat="44.43601034163217" lon="11.392387686595788"><ele>192.99999999999997</ele><time>2026-04-25T09:21:20.867Z</time></trkpt><trkpt lat="44.43603096881567" lon="11.392494680246845"><ele>193.0</ele><time>2026-04-25T09:21:22.867Z</time></trkpt><trkpt lat="44.43606424288858" lon="11.392571478584685"><ele>193.0</ele><time>2026-04-25T09:21:24.867Z</time></trkpt><trkpt lat="44.43609869308513" lon="11.392691943401845"><ele>193.0</ele><time>2026-04-25T09:21:27.867Z</time></trkpt><trkpt lat="44.4361233493501" lon="11.392808103324835"><ele>192.99999999999997</ele><time>2026-04-25T09:21:30.867Z</time></trkpt><trkpt lat="44.43615110246694" lon="11.392909343320074"><ele>193.0</ele><time>2026-04-25T09:21:33.867Z</time></trkpt><trkpt lat="44.436182453152085" lon="11.393001585765271"><ele>193.33333333333331</ele><time>2026-04-25T09:21:36.867Z</time></trkpt><trkpt lat="44.43620614574022" lon="11.39311167615962"><ele>193.66666666666666</ele><time>2026-04-25T09:21:41.867Z</time></trkpt><trkpt lat="44.43619399277572" lon="11.393214368692524"><ele>194.0</ele><time>2026-04-25T09:21:46.867Z</time></trkpt><trkpt lat="44.436171017245954" lon="11.393317966570132"><ele>194.33333333333331</ele><time>2026-04-25T09:21:50.866Z</time></trkpt><trkpt lat="44.43614844069789" lon="11.393416214178016"><ele>194.66666666666666</ele><time>2026-04-25T09:21:54.866Z</time></trkpt><trkpt lat="44.43614019006965" lon="11.39351416696429"><ele>195.0</ele><time>2026-04-25T09:21:58.866Z</time></trkpt><trkpt lat="44.43612043996241" lon="11.393614985681323"><ele>195.0</ele><time>2026-04-25T09:22:02.866Z</time></trkpt><trkpt lat="44.43609202442956" lon="11.393711243481508"><ele>195.0</ele><time>2026-04-25T09:22:05.866Z</time></trkpt><trkpt lat="44.43608942689374" lon="11.393800376691935"><ele>195.0</ele><time>2026-04-25T09:22:07.866Z</time></trkpt><trkpt lat="44.43610189726074" lon="11.39391368290942"><ele>195.0</ele><time>2026-04-25T09:22:10.866Z</time></trkpt><trkpt lat="44.43611738158948" lon="11.394015483003196"><ele>195.0</ele><time>2026-04-25T09:22:14.866Z</time></trkpt><trkpt lat="44.43611901418398" lon="11.394149148353103"><ele>195.0</ele><time>2026-04-25T09:22:17.866Z</time></trkpt><trkpt lat="44.43610529746323" lon="11.394264131908036"><ele>195.0</ele><time>2026-04-25T09:22:19.866Z</time></trkpt><trkpt lat="44.43610030895388" lon="11.394367025956365"><ele>195.0</ele><time>2026-04-25T09:22:21.866Z</time></trkpt><trkpt lat="44.43607547792387" lon="11.394495953948951"><ele>195.0</ele><time>2026-04-25T09:22:23.866Z</time></trkpt><trkpt lat="44.436055617226344" lon="11.394581716899152"><ele>195.0</ele><time>2026-04-25T09:22:24.865Z</time></trkpt><trkpt lat="44.436022990638" lon="11.394678119755111"><ele>195.0</ele><time>2026-04-25T09:22:25.865Z</time></trkpt><trkpt lat="44.43599465315087" lon="11.394770752650256"><ele>195.0</ele><time>2026-04-25T09:22:26.865Z</time></trkpt><trkpt lat="44.435955504071686" lon="11.394863091042696"><ele>195.0</ele><time>2026-04-25T09:22:27.865Z</time></trkpt><trkpt lat="44.43592537491523" lon="11.394952210810558"><ele>195.0</ele><time>2026-04-25T09:22:28.865Z</time></trkpt><trkpt lat="44.43587598540013" lon="11.395045271555649"><ele>195.0</ele><time>2026-04-25T09:22:30.865Z</time></trkpt><trkpt lat="44.43578259641559" lon="11.395091529397115"><ele>195.0</ele><time>2026-04-25T09:22:31.865Z</time></trkpt><trkpt lat="44.43572309821618" lon="11.395123089584875"><ele>195.0</ele><time>2026-04-25T09:22:32.865Z</time></trkpt><trkpt lat="44.43566279354197" lon="11.395179430719294"><ele>195.0</ele><time>2026-04-25T09:22:33.865Z</time></trkpt><trkpt lat="44.43564133224805" lon="11.39531197951408"><ele>195.0</ele><time>2026-04-25T09:22:35.865Z</time></trkpt><trkpt lat="44.43563797199373" lon="11.395432314282662"><ele>195.0</ele><time>2026-04-25T09:22:37.865Z</time></trkpt><trkpt lat="44.4355926206563" lon="11.395528452122393"><ele>195.0</ele><time>2026-04-25T09:22:39.865Z</time></trkpt><trkpt lat="44.435536384864236" lon="11.395608841782064"><ele>195.0</ele><time>2026-04-25T09:22:41.865Z</time></trkpt><trkpt lat="44.43547398084407" lon="11.395735305792755"><ele>195.0</ele><time>2026-04-25T09:22:43.865Z</time></trkpt><trkpt lat="44.435428867249676" lon="11.395858997549542"><ele>188.6</ele><time>2026-04-25T09:22:45.865Z</time></trkpt><trkpt lat="44.43539225254326" lon="11.395990687409114"><ele>182.2</ele><time>2026-04-25T09:22:47.865Z</time></trkpt><trkpt lat="44.43535509748809" lon="11.396105151402177"><ele>175.8</ele><time>2026-04-25T09:22:49.865Z</time></trkpt><trkpt lat="44.4353483540758" lon="11.396214774366598"><ele>169.4</ele><time>2026-04-25T09:22:50.865Z</time></trkpt><trkpt lat="44.43533124484979" lon="11.396310203245669"><ele>163.0</ele><time>2026-04-25T09:22:51.865Z</time></trkpt><trkpt lat="44.43529797870242" lon="11.396466887070572"><ele>162.4</ele><time>2026-04-25T09:22:53.865Z</time></trkpt><trkpt lat="44.43524858421266" lon="11.396655407046445"><ele>161.8</ele><time>2026-04-25T09:22:55.865Z</time></trkpt><trkpt lat="44.43521123296075" lon="11.396806036599525"><ele>161.2</ele><time>2026-04-25T09:22:57.865Z</time></trkpt><trkpt lat="44.43523477521261" lon="11.396944698211597"><ele>160.6</ele><time>2026-04-25T09:22:59.865Z</time></trkpt><trkpt lat="44.435180004041314" lon="11.397021745146617"><ele>160.0</ele><time>2026-04-25T09:23:01.864Z</time></trkpt><trkpt lat="44.435101601355775" lon="11.397162996894618"><ele>159.16666666666669</ele><time>2026-04-25T09:23:03.864Z</time></trkpt><trkpt lat="44.435073021674484" lon="11.397262647515625"><ele>158.33333333333334</ele><time>2026-04-25T09:23:04.864Z</time></trkpt><trkpt lat="44.43503649251584" lon="11.397342438221578"><ele>157.5</ele><time>2026-04-25T09:23:06.865Z</time></trkpt><trkpt lat="44.43499011879601" lon="11.397420933904726"><ele>156.66666666666666</ele><time>2026-04-25T09:23:08.865Z</time></trkpt><trkpt lat="44.43496198565395" lon="11.397517738558696"><ele>155.83333333333331</ele><time>2026-04-25T09:23:10.865Z</time></trkpt><trkpt lat="44.43492657942795" lon="11.397615922114683"><ele>155.0</ele><time>2026-04-25T09:23:12.865Z</time></trkpt><trkpt lat="44.43490924930246" lon="11.397733709681269"><ele>155.0</ele><time>2026-04-25T09:23:14.865Z</time></trkpt><trkpt lat="44.43487982945151" lon="11.397832946085188"><ele>155.0</ele><time>2026-04-25T09:23:16.865Z</time></trkpt><trkpt lat="44.434852359651444" lon="11.397956981254195"><ele>155.0</ele><time>2026-04-25T09:23:18.865Z</time></trkpt><trkpt lat="44.434811195160485" lon="11.398063679296952"><ele>155.0</ele><time>2026-04-25T09:23:20.865Z</time></trkpt><trkpt lat="44.43475807552026" lon="11.398184103983294"><ele>155.0</ele><time>2026-04-25T09:23:22.865Z</time></trkpt><trkpt lat="44.43471752295273" lon="11.39829607777288"><ele>155.0</ele><time>2026-04-25T09:23:24.865Z</time></trkpt><trkpt lat="44.43469714437152" lon="11.39840629104315"><ele>151.5</ele><time>2026-04-25T09:23:27.865Z</time></trkpt><trkpt lat="44.434691455495965" lon="11.398499174249705"><ele>148.0</ele><time>2026-04-25T09:23:30.865Z</time></trkpt><trkpt lat="44.434753362314986" lon="11.39857794313836"><ele>144.5</ele><time>2026-04-25T09:23:37.865Z</time></trkpt><trkpt lat="44.434826078642445" lon="11.398623340152941"><ele>141.0</ele><time>2026-04-25T09:23:39.865Z</time></trkpt><trkpt lat="44.43505254984296" lon="11.39867476748483"><ele>141.0</ele><time>2026-04-25T09:23:52.864Z</time></trkpt><trkpt lat="44.43504113813274" lon="11.398773548912798"><ele>141.0</ele><time>2026-04-25T09:23:54.864Z</time></trkpt><trkpt lat="44.43509601973186" lon="11.398824575516029"><ele>141.0</ele><time>2026-04-25T09:23:56.864Z</time></trkpt><trkpt lat="44.43517730577993" lon="11.398863456887828"><ele>141.0</ele><time>2026-04-25T09:23:59.864Z</time></trkpt><trkpt lat="44.4352481555699" lon="11.39892378263141"><ele>141.0</ele><time>2026-04-25T09:24:02.864Z</time></trkpt><trkpt lat="44.435290645622956" lon="11.399036071656345"><ele>141.0</ele><time>2026-04-25T09:24:04.864Z</time></trkpt><trkpt lat="44.43528669317946" lon="11.399141542794936"><ele>138.5</ele><time>2026-04-25T09:24:06.864Z</time></trkpt><trkpt lat="44.43523836054011" lon="11.39923692735905"><ele>136.0</ele><time>2026-04-25T09:24:08.864Z</time></trkpt><trkpt lat="44.43519632690935" lon="11.399368278810117"><ele>133.5</ele><time>2026-04-25T09:24:10.864Z</time></trkpt><trkpt lat="44.43516613927762" lon="11.399453722261606"><ele>131.0</ele><time>2026-04-25T09:24:11.864Z</time></trkpt><trkpt lat="44.43513775892155" lon="11.399554204078663"><ele>128.5</ele><time>2026-04-25T09:24:12.864Z</time></trkpt><trkpt lat="44.43510263934533" lon="11.399667684795833"><ele>126.0</ele><time>2026-04-25T09:24:13.864Z</time></trkpt><trkpt lat="44.43505624814138" lon="11.399766862416879"><ele>124.4</ele><time>2026-04-25T09:24:14.864Z</time></trkpt><trkpt lat="44.43499597259409" lon="11.399908494378852"><ele>122.8</ele><time>2026-04-25T09:24:15.864Z</time></trkpt><trkpt lat="44.43494058395511" lon="11.400032773424005"><ele>121.20000000000002</ele><time>2026-04-25T09:24:16.864Z</time></trkpt><trkpt lat="44.43488357360104" lon="11.400130235241637"><ele>119.60000000000001</ele><time>2026-04-25T09:24:17.864Z</time></trkpt><trkpt lat="44.43482685365052" lon="11.400183339022966"><ele>118.0</ele><time>2026-04-25T09:24:18.864Z</time></trkpt><trkpt lat="44.43471021398913" lon="11.400172464547115"><ele>118.00000000000001</ele><time>2026-04-25T09:24:20.864Z</time></trkpt><trkpt lat="44.43464705941" lon="11.40003535739779"><ele>118.0</ele><time>2026-04-25T09:24:22.864Z</time></trkpt><trkpt lat="44.43460006434105" lon="11.399969892182837"><ele>118.0</ele><time>2026-04-25T09:24:23.863Z</time></trkpt><trkpt lat="44.434537058384805" lon="11.399933559251128"><ele>118.0</ele><time>2026-04-25T09:24:24.863Z</time></trkpt><trkpt lat="44.434472625225204" lon="11.39993232862808"><ele>118.00000000000001</ele><time>2026-04-25T09:24:25.863Z</time></trkpt><trkpt lat="44.434369789962375" lon="11.400029281270978"><ele>118.0</ele><time>2026-04-25T09:24:27.863Z</time></trkpt><trkpt lat="44.434390341557844" lon="11.400173134775988"><ele>117.50000000000001</ele><time>2026-04-25T09:24:28.863Z</time></trkpt><trkpt lat="44.43441920172624" lon="11.400279760300576"><ele>117.0</ele><time>2026-04-25T09:24:29.863Z</time></trkpt><trkpt lat="44.43442462230853" lon="11.40038797355257"><ele>116.5</ele><time>2026-04-25T09:24:30.863Z</time></trkpt><trkpt lat="44.43444007425824" lon="11.400488652886677"><ele>116.0</ele><time>2026-04-25T09:24:31.863Z</time></trkpt><trkpt lat="44.434457975333125" lon="11.40060529031908"><ele>115.50000000000001</ele><time>2026-04-25T09:24:32.863Z</time></trkpt><trkpt lat="44.434488649614686" lon="11.400722715918906"><ele>115.0</ele><time>2026-04-25T09:24:33.863Z</time></trkpt><trkpt lat="44.434508195222094" lon="11.400844039861514"><ele>113.50000000000001</ele><time>2026-04-25T09:24:34.863Z</time></trkpt><trkpt lat="44.43450941214251" lon="11.400968407705802"><ele>112.0</ele><time>2026-04-25T09:24:35.863Z</time></trkpt><trkpt lat="44.43451809938239" lon="11.401075977126931"><ele>110.5</ele><time>2026-04-25T09:24:36.863Z</time></trkpt><trkpt lat="44.434479817469864" lon="11.401167235646222"><ele>109.0</ele><time>2026-04-25T09:24:37.863Z</time></trkpt><trkpt lat="44.434420117475184" lon="11.401253718179943"><ele>107.50000000000001</ele><time>2026-04-25T09:24:38.863Z</time></trkpt><trkpt lat="44.434363758558604" lon="11.401353773908797"><ele>106.0</ele><time>2026-04-25T09:24:39.863Z</time></trkpt><trkpt lat="44.43430073110521" lon="11.401457906559003"><ele>105.16666666666667</ele><time>2026-04-25T09:24:40.863Z</time></trkpt><trkpt lat="44.43423585824604" lon="11.401556938810783"><ele>104.33333333333334</ele><time>2026-04-25T09:24:41.863Z</time></trkpt><trkpt lat="44.43417763660168" lon="11.401670308590452"><ele>103.5</ele><time>2026-04-25T09:24:42.863Z</time></trkpt><trkpt lat="44.43411778035793" lon="11.401764055271645"><ele>102.66666666666666</ele><time>2026-04-25T09:24:43.863Z</time></trkpt><trkpt lat="44.43407482589812" lon="11.401856646932595"><ele>101.83333333333333</ele><time>2026-04-25T09:24:44.863Z</time></trkpt><trkpt lat="44.43406728708198" lon="11.401967571044425"><ele>101.0</ele><time>2026-04-25T09:24:45.863Z</time></trkpt><trkpt lat="44.43409766649582" lon="11.402074831120034"><ele>100.99999999999999</ele><time>2026-04-25T09:24:46.863Z</time></trkpt><trkpt lat="44.43417562546045" lon="11.402135270632478"><ele>101.0</ele><time>2026-04-25T09:24:47.863Z</time></trkpt><trkpt lat="44.43425133939196" lon="11.40217612380663"><ele>101.0</ele><time>2026-04-25T09:24:48.863Z</time></trkpt><trkpt lat="44.43432692888901" lon="11.40223850257182"><ele>101.0</ele><time>2026-04-25T09:24:49.863Z</time></trkpt><trkpt lat="44.43440536968044" lon="11.40228940266712"><ele>100.99999999999999</ele><time>2026-04-25T09:24:50.863Z</time></trkpt><trkpt lat="44.43445578101023" lon="11.402368683480287"><ele>101.0</ele><time>2026-04-25T09:24:51.863Z</time></trkpt><trkpt lat="44.434473164370665" lon="11.402484034339377"><ele>99.66666666666666</ele><time>2026-04-25T09:24:52.863Z</time></trkpt><trkpt lat="44.43448070568707" lon="11.40259344884868"><ele>98.33333333333333</ele><time>2026-04-25T09:24:53.863Z</time></trkpt><trkpt lat="44.434480232244184" lon="11.402720902878377"><ele>97.0</ele><time>2026-04-25T09:24:54.863Z</time></trkpt><trkpt lat="44.43448594971793" lon="11.402842873496466"><ele>95.66666666666666</ele><time>2026-04-25T09:24:55.863Z</time></trkpt><trkpt lat="44.434503584317554" lon="11.402935249121994"><ele>94.33333333333333</ele><time>2026-04-25T09:24:56.863Z</time></trkpt><trkpt lat="44.43453582216917" lon="11.403024693922005"><ele>93.0</ele><time>2026-04-25T09:24:57.863Z</time></trkpt><trkpt lat="44.43458053470283" lon="11.40311752284276"><ele>91.83333333333333</ele><time>2026-04-25T09:24:58.863Z</time></trkpt><trkpt lat="44.43464825640348" lon="11.403199122167191"><ele>90.66666666666667</ele><time>2026-04-25T09:24:59.863Z</time></trkpt><trkpt lat="44.43471692838966" lon="11.403277820639643"><ele>89.5</ele><time>2026-04-25T09:25:00.862Z</time></trkpt><trkpt lat="44.4347741582751" lon="11.403364517405604"><ele>88.33333333333334</ele><time>2026-04-25T09:25:01.862Z</time></trkpt><trkpt lat="44.43483902374438" lon="11.403438224153772"><ele>87.16666666666667</ele><time>2026-04-25T09:25:02.862Z</time></trkpt><trkpt lat="44.43490442648678" lon="11.403509626222066"><ele>86.0</ele><time>2026-04-25T09:25:03.862Z</time></trkpt><trkpt lat="44.43496344214535" lon="11.403586167031067"><ele>86.0</ele><time>2026-04-25T09:25:04.862Z</time></trkpt><trkpt lat="44.43502774963215" lon="11.40365564730837"><ele>86.0</ele><time>2026-04-25T09:25:05.862Z</time></trkpt><trkpt lat="44.43508939221288" lon="11.40372582577216"><ele>86.0</ele><time>2026-04-25T09:25:06.862Z</time></trkpt><trkpt lat="44.43514293226689" lon="11.40379466520513"><ele>86.0</ele><time>2026-04-25T09:25:07.862Z</time></trkpt><trkpt lat="44.43519594387207" lon="11.403862648299052"><ele>86.0</ele><time>2026-04-25T09:25:08.862Z</time></trkpt><trkpt lat="44.435237337391314" lon="11.403934739078464"><ele>86.0</ele><time>2026-04-25T09:25:09.862Z</time></trkpt><trkpt lat="44.43533792183455" lon="11.404059632029934"><ele>85.83333333333334</ele><time>2026-04-25T09:25:11.863Z</time></trkpt><trkpt lat="44.43538886409709" lon="11.40412617916348"><ele>85.66666666666667</ele><time>2026-04-25T09:25:12.863Z</time></trkpt><trkpt lat="44.435443827559496" lon="11.404183800922546"><ele>85.5</ele><time>2026-04-25T09:25:13.863Z</time></trkpt><trkpt lat="44.43549704150507" lon="11.404242677575333"><ele>85.33333333333333</ele><time>2026-04-25T09:25:14.863Z</time></trkpt><trkpt lat="44.435594443517985" lon="11.404346598284162"><ele>85.16666666666666</ele><time>2026-04-25T09:25:16.863Z</time></trkpt><trkpt lat="44.43568853354253" lon="11.40444257466397"><ele>85.0</ele><time>2026-04-25T09:25:18.864Z</time></trkpt><trkpt lat="44.43577473819141" lon="11.404530556092604"><ele>84.8</ele><time>2026-04-25T09:25:20.863Z</time></trkpt><trkpt lat="44.435859481764325" lon="11.404615469751928"><ele>84.6</ele><time>2026-04-25T09:25:22.863Z</time></trkpt><trkpt lat="44.43594592859408" lon="11.404708753751892"><ele>84.4</ele><time>2026-04-25T09:25:24.863Z</time></trkpt><trkpt lat="44.43602261595955" lon="11.404788047168022"><ele>84.2</ele><time>2026-04-25T09:25:26.863Z</time></trkpt><trkpt lat="44.43608705273724" lon="11.404854091932696"><ele>84.0</ele><time>2026-04-25T09:25:28.863Z</time></trkpt><trkpt lat="44.4361513808627" lon="11.404923674237544"><ele>84.0</ele><time>2026-04-25T09:25:30.863Z</time></trkpt><trkpt lat="44.43621395708777" lon="11.404986421467864"><ele>84.0</ele><time>2026-04-25T09:25:32.863Z</time></trkpt><trkpt lat="44.43627626665535" lon="11.40505247658208"><ele>84.0</ele><time>2026-04-25T09:25:34.863Z</time></trkpt><trkpt lat="44.43633843230685" lon="11.405137297696774"><ele>84.0</ele><time>2026-04-25T09:25:36.863Z</time></trkpt><trkpt lat="44.43640446573626" lon="11.405236276168809"><ele>84.0</ele><time>2026-04-25T09:25:38.862Z</time></trkpt><trkpt lat="44.43647340985704" lon="11.405322766530732"><ele>84.0</ele><time>2026-04-25T09:25:40.862Z</time></trkpt><trkpt lat="44.436524884357006" lon="11.405419448626583"><ele>83.80000000000001</ele><time>2026-04-25T09:25:42.862Z</time></trkpt><trkpt lat="44.43658612018373" lon="11.40553006567733"><ele>83.60000000000001</ele><time>2026-04-25T09:25:44.862Z</time></trkpt><trkpt lat="44.436656871049955" lon="11.405620906897335"><ele>83.4</ele><time>2026-04-25T09:25:46.862Z</time></trkpt><trkpt lat="44.43671474382744" lon="11.40571928906317"><ele>83.2</ele><time>2026-04-25T09:25:48.862Z</time></trkpt><trkpt lat="44.43676359799956" lon="11.405812622765108"><ele>83.0</ele><time>2026-04-25T09:25:50.862Z</time></trkpt><trkpt lat="44.4368229855142" lon="11.405892015474786"><ele>83.0</ele><time>2026-04-25T09:25:52.862Z</time></trkpt><trkpt lat="44.43682243819659" lon="11.406029435350183"><ele>83.0</ele><time>2026-04-25T09:25:54.862Z</time></trkpt><trkpt lat="44.43678016601204" lon="11.406149056084208"><ele>83.0</ele><time>2026-04-25T09:25:56.862Z</time></trkpt><trkpt lat="44.43677101626347" lon="11.406260925833505"><ele>83.0</ele><time>2026-04-25T09:25:58.862Z</time></trkpt><trkpt lat="44.43673456217508" lon="11.40637817325874"><ele>83.0</ele><time>2026-04-25T09:26:00.862Z</time></trkpt><trkpt lat="44.436727227387856" lon="11.406506951440731"><ele>82.60000000000001</ele><time>2026-04-25T09:26:02.862Z</time></trkpt><trkpt lat="44.43669788061553" lon="11.406645305581263"><ele>82.2</ele><time>2026-04-25T09:26:04.862Z</time></trkpt><trkpt lat="44.43666049629442" lon="11.406784973884589"><ele>81.8</ele><time>2026-04-25T09:26:06.862Z</time></trkpt><trkpt lat="44.43663536033275" lon="11.406917101993338"><ele>81.4</ele><time>2026-04-25T09:26:08.862Z</time></trkpt><trkpt lat="44.43660309597977" lon="11.407033494415785"><ele>81.0</ele><time>2026-04-25T09:26:10.862Z</time></trkpt><trkpt lat="44.4365682267584" lon="11.407137373024462"><ele>80.85714285714286</ele><time>2026-04-25T09:26:12.862Z</time></trkpt><trkpt lat="44.43654429785217" lon="11.407240543277902"><ele>80.71428571428571</ele><time>2026-04-25T09:26:14.862Z</time></trkpt><trkpt lat="44.43652187752291" lon="11.407328340148075"><ele>80.57142857142857</ele><time>2026-04-25T09:26:16.861Z</time></trkpt><trkpt lat="44.43648733063581" lon="11.40740738965577"><ele>80.42857142857143</ele><time>2026-04-25T09:26:22.861Z</time></trkpt><trkpt lat="44.43648694276019" lon="11.4075012500354"><ele>80.28571428571429</ele><time>2026-04-25T09:26:29.861Z</time></trkpt><trkpt lat="44.436559593124194" lon="11.407573710750693"><ele>80.14285714285714</ele><time>2026-04-25T09:26:32.861Z</time></trkpt><trkpt lat="44.43662373558596" lon="11.407631120098701"><ele>80.0</ele><time>2026-04-25T09:26:34.861Z</time></trkpt><trkpt lat="44.43669428870727" lon="11.407688657881671"><ele>80.0</ele><time>2026-04-25T09:26:36.861Z</time></trkpt><trkpt lat="44.436771459250984" lon="11.407735980181238"><ele>80.0</ele><time>2026-04-25T09:26:38.861Z</time></trkpt><trkpt lat="44.436849563875384" lon="11.407793479737768"><ele>80.0</ele><time>2026-04-25T09:26:40.861Z</time></trkpt><trkpt lat="44.4369156178385" lon="11.407839232962191"><ele>80.0</ele><time>2026-04-25T09:26:42.861Z</time></trkpt><trkpt lat="44.43698955329543" lon="11.407884330798195"><ele>80.0</ele><time>2026-04-25T09:26:44.861Z</time></trkpt><trkpt lat="44.43706453255475" lon="11.40792338485165"><ele>80.0</ele><time>2026-04-25T09:26:46.861Z</time></trkpt><trkpt lat="44.43713325273043" lon="11.407964908644761"><ele>80.5</ele><time>2026-04-25T09:26:48.861Z</time></trkpt><trkpt lat="44.437220991448164" lon="11.408001723096023"><ele>81.0</ele><time>2026-04-25T09:26:50.861Z</time></trkpt><trkpt lat="44.437302135887215" lon="11.408055828728845"><ele>81.5</ele><time>2026-04-25T09:26:52.86Z</time></trkpt><trkpt lat="44.43738356156103" lon="11.408100313993618"><ele>82.0</ele><time>2026-04-25T09:26:54.86Z</time></trkpt><trkpt lat="44.43746574156528" lon="11.408140006704576"><ele>82.5</ele><time>2026-04-25T09:26:56.86Z</time></trkpt><trkpt lat="44.437545994564104" lon="11.408175123807998"><ele>83.0</ele><time>2026-04-25T09:26:58.86Z</time></trkpt><trkpt lat="44.43762560730704" lon="11.408199679711538"><ele>83.0</ele><time>2026-04-25T09:27:00.86Z</time></trkpt><trkpt lat="44.43770791032889" lon="11.408228568730273"><ele>83.0</ele><time>2026-04-25T09:27:02.86Z</time></trkpt><trkpt lat="44.43779110394571" lon="11.408259502832387"><ele>83.0</ele><time>2026-04-25T09:27:04.86Z</time></trkpt><trkpt lat="44.43788169817661" lon="11.40828619471481"><ele>83.0</ele><time>2026-04-25T09:27:06.86Z</time></trkpt><trkpt lat="44.437975082943346" lon="11.408318762386925"><ele>83.0</ele><time>2026-04-25T09:27:08.86Z</time></trkpt><trkpt lat="44.43806383560714" lon="11.40834975839705"><ele>83.0</ele><time>2026-04-25T09:27:10.86Z</time></trkpt><trkpt lat="44.43815168247578" lon="11.408377339549197"><ele>83.0</ele><time>2026-04-25T09:27:12.86Z</time></trkpt><trkpt lat="44.43824356724052" lon="11.40840606809429"><ele>83.0</ele><time>2026-04-25T09:27:14.86Z</time></trkpt><trkpt lat="44.438336914093284" lon="11.408421664826921"><ele>83.0</ele><time>2026-04-25T09:27:16.86Z</time></trkpt><trkpt lat="44.43842745609664" lon="11.40844446816073"><ele>83.0</ele><time>2026-04-25T09:27:18.862Z</time></trkpt><trkpt lat="44.438518891443756" lon="11.408469984177431"><ele>83.0</ele><time>2026-04-25T09:27:20.862Z</time></trkpt><trkpt lat="44.43860942254815" lon="11.408485289729244"><ele>83.0</ele><time>2026-04-25T09:27:22.862Z</time></trkpt><trkpt lat="44.438698488757666" lon="11.408518613196073"><ele>83.0</ele><time>2026-04-25T09:27:24.861Z</time></trkpt><trkpt lat="44.438785819890256" lon="11.408543866721448"><ele>83.0</ele><time>2026-04-25T09:27:26.862Z</time></trkpt><trkpt lat="44.438870356905774" lon="11.408562764911622"><ele>83.0</ele><time>2026-04-25T09:27:28.862Z</time></trkpt><trkpt lat="44.43895356513644" lon="11.408579225971925"><ele>83.0</ele><time>2026-04-25T09:27:30.861Z</time></trkpt><trkpt lat="44.43903764177799" lon="11.408589063948012"><ele>83.16666666666667</ele><time>2026-04-25T09:27:32.861Z</time></trkpt><trkpt lat="44.43912485337512" lon="11.40859702378949"><ele>83.33333333333334</ele><time>2026-04-25T09:27:34.861Z</time></trkpt><trkpt lat="44.439210251788076" lon="11.40860515579699"><ele>83.5</ele><time>2026-04-25T09:27:36.861Z</time></trkpt><trkpt lat="44.43929413615562" lon="11.40862393610835"><ele>83.66666666666667</ele><time>2026-04-25T09:27:38.861Z</time></trkpt><trkpt lat="44.43937729936182" lon="11.408641525943077"><ele>83.83333333333333</ele><time>2026-04-25T09:27:40.861Z</time></trkpt><trkpt lat="44.43946128960324" lon="11.408654802177988"><ele>84.0</ele><time>2026-04-25T09:27:42.861Z</time></trkpt><trkpt lat="44.43954323981156" lon="11.408668547558605"><ele>84.75</ele><time>2026-04-25T09:27:44.861Z</time></trkpt><trkpt lat="44.4397810476878" lon="11.40868080650092"><ele>85.5</ele><time>2026-04-25T09:27:50.861Z</time></trkpt><trkpt lat="44.43986003220813" lon="11.408680778828241"><ele>86.25</ele><time>2026-04-25T09:27:52.861Z</time></trkpt><trkpt lat="44.439943527821974" lon="11.408660312959084"><ele>87.0</ele><time>2026-04-25T09:27:54.861Z</time></trkpt><trkpt lat="44.440020513650275" lon="11.408651244312654"><ele>87.0</ele><time>2026-04-25T09:27:56.861Z</time></trkpt><trkpt lat="44.44004391493529" lon="11.40873362307138"><ele>87.0</ele><time>2026-04-25T09:27:58.861Z</time></trkpt><trkpt lat="44.44000940830718" lon="11.408858211841972"><ele>87.0</ele><time>2026-04-25T09:28:01.86Z</time></trkpt><trkpt lat="44.43998157743915" lon="11.408941473329394"><ele>87.0</ele><time>2026-04-25T09:28:03.86Z</time></trkpt><trkpt lat="44.439963811390314" lon="11.409054780518906"><ele>87.0</ele><time>2026-04-25T09:28:05.86Z</time></trkpt><trkpt lat="44.439945398409684" lon="11.40917360401219"><ele>87.0</ele><time>2026-04-25T09:28:07.86Z</time></trkpt><trkpt lat="44.439926750569654" lon="11.409334850634163"><ele>87.0</ele><time>2026-04-25T09:28:09.86Z</time></trkpt><trkpt lat="44.43989775960602" lon="11.40942661318309"><ele>87.0</ele><time>2026-04-25T09:28:11.86Z</time></trkpt><trkpt lat="44.44003741087056" lon="11.409315448983904"><ele>87.0</ele><time>2026-04-25T09:28:31.86Z</time></trkpt><trkpt lat="44.44009957928367" lon="11.409331697190328"><ele>87.0</ele><time>2026-04-25T09:28:33.86Z</time></trkpt><trkpt lat="44.44018234316181" lon="11.409349053099282"><ele>87.0</ele><time>2026-04-25T09:28:36.86Z</time></trkpt><trkpt lat="44.44040994955519" lon="11.40936641449006"><ele>87.57142857142857</ele><time>2026-04-25T09:28:44.859Z</time></trkpt><trkpt lat="44.44047795623719" lon="11.409380918195739"><ele>88.14285714285714</ele><time>2026-04-25T09:28:46.859Z</time></trkpt><trkpt lat="44.440569664467006" lon="11.409390153323733"><ele>88.71428571428572</ele><time>2026-04-25T09:28:49.859Z</time></trkpt><trkpt lat="44.44063540952266" lon="11.409411445530704"><ele>89.28571428571428</ele><time>2026-04-25T09:28:51.859Z</time></trkpt><trkpt lat="44.44070445968274" lon="11.40943265202769"><ele>89.85714285714286</ele><time>2026-04-25T09:28:53.859Z</time></trkpt><trkpt lat="44.440772095415326" lon="11.409467370923585"><ele>90.42857142857143</ele><time>2026-04-25T09:28:55.859Z</time></trkpt><trkpt lat="44.44084207457312" lon="11.409491718652228"><ele>91.0</ele><time>2026-04-25T09:28:57.859Z</time></trkpt><trkpt lat="44.4409154536637" lon="11.409523879816954"><ele>91.0</ele><time>2026-04-25T09:28:59.859Z</time></trkpt><trkpt lat="44.44098075033717" lon="11.409553401995325"><ele>91.0</ele><time>2026-04-25T09:29:01.859Z</time></trkpt><trkpt lat="44.441046849513164" lon="11.409581799084847"><ele>91.0</ele><time>2026-04-25T09:29:03.859Z</time></trkpt><trkpt lat="44.441117683936405" lon="11.409613909181555"><ele>91.0</ele><time>2026-04-25T09:29:05.859Z</time></trkpt><trkpt lat="44.44118938858123" lon="11.409636712621353"><ele>91.0</ele><time>2026-04-25T09:29:07.859Z</time></trkpt><trkpt lat="44.44125361022356" lon="11.409672817850305"><ele>91.0</ele><time>2026-04-25T09:29:09.859Z</time></trkpt><trkpt lat="44.44133110253522" lon="11.409703283973048"><ele>91.0</ele><time>2026-04-25T09:29:11.859Z</time></trkpt><trkpt lat="44.441410864240325" lon="11.40971598197512"><ele>90.33333333333333</ele><time>2026-04-25T09:29:13.859Z</time></trkpt><trkpt lat="44.44148100186591" lon="11.40974393043678"><ele>89.66666666666666</ele><time>2026-04-25T09:29:15.858Z</time></trkpt><trkpt lat="44.441559557134106" lon="11.409784878201027"><ele>89.0</ele><time>2026-04-25T09:29:17.858Z</time></trkpt><trkpt lat="44.44164481393106" lon="11.409817325250582"><ele>88.33333333333333</ele><time>2026-04-25T09:29:19.858Z</time></trkpt><trkpt lat="44.44173656644545" lon="11.409842248517132"><ele>87.66666666666667</ele><time>2026-04-25T09:29:21.858Z</time></trkpt><trkpt lat="44.44183000209078" lon="11.409880855380415"><ele>87.0</ele><time>2026-04-25T09:29:23.861Z</time></trkpt><trkpt lat="44.441911873551504" lon="11.409938574642803"><ele>87.0</ele><time>2026-04-25T09:29:25.86Z</time></trkpt><trkpt lat="44.44200779493574" lon="11.409970872031064"><ele>87.0</ele><time>2026-04-25T09:29:27.86Z</time></trkpt><trkpt lat="44.44210826670154" lon="11.410003887646505"><ele>87.0</ele><time>2026-04-25T09:29:29.86Z</time></trkpt><trkpt lat="44.44219902009176" lon="11.410046353624065"><ele>87.0</ele><time>2026-04-25T09:29:31.86Z</time></trkpt><trkpt lat="44.44229458734105" lon="11.410079308487271"><ele>87.0</ele><time>2026-04-25T09:29:33.86Z</time></trkpt><trkpt lat="44.4423844360478" lon="11.410125659255607"><ele>87.0</ele><time>2026-04-25T09:29:35.859Z</time></trkpt><trkpt lat="44.442474303022465" lon="11.410164243286152"><ele>87.0</ele><time>2026-04-25T09:29:37.86Z</time></trkpt><trkpt lat="44.44256015231847" lon="11.410198145059391"><ele>87.0</ele><time>2026-04-25T09:29:39.86Z</time></trkpt><trkpt lat="44.44264477432373" lon="11.410225796690911"><ele>87.0</ele><time>2026-04-25T09:29:41.86Z</time></trkpt><trkpt lat="44.442726043406054" lon="11.410272381915577"><ele>87.0</ele><time>2026-04-25T09:29:43.86Z</time></trkpt><trkpt lat="44.44282957749888" lon="11.410301654296145"><ele>87.0</ele><time>2026-04-25T09:29:45.86Z</time></trkpt><trkpt lat="44.44291633551381" lon="11.410358965313788"><ele>87.0</ele><time>2026-04-25T09:29:47.86Z</time></trkpt><trkpt lat="44.443002519093305" lon="11.410396260312012"><ele>87.0</ele><time>2026-04-25T09:29:49.86Z</time></trkpt><trkpt lat="44.44309422687661" lon="11.410432979914994"><ele>87.0</ele><time>2026-04-25T09:29:51.859Z</time></trkpt><trkpt lat="44.443187219030825" lon="11.410446558094666"><ele>87.0</ele><time>2026-04-25T09:29:53.859Z</time></trkpt><trkpt lat="44.44327904015854" lon="11.410489750486262"><ele>86.39999999999999</ele><time>2026-04-25T09:29:55.859Z</time></trkpt><trkpt lat="44.443376965208564" lon="11.410528742744177"><ele>85.8</ele><time>2026-04-25T09:29:57.859Z</time></trkpt><trkpt lat="44.443483147519615" lon="11.410569239706144"><ele>85.2</ele><time>2026-04-25T09:29:59.859Z</time></trkpt><trkpt lat="44.44358042413646" lon="11.410627924457952"><ele>84.6</ele><time>2026-04-25T09:30:01.859Z</time></trkpt><trkpt lat="44.4436843507787" lon="11.410668205897723"><ele>84.0</ele><time>2026-04-25T09:30:03.859Z</time></trkpt><trkpt lat="44.44377875483856" lon="11.410704309412147"><ele>83.6</ele><time>2026-04-25T09:30:05.859Z</time></trkpt><trkpt lat="44.443864262696955" lon="11.410737010742432"><ele>83.2</ele><time>2026-04-25T09:30:07.859Z</time></trkpt><trkpt lat="44.44395513031612" lon="11.410771761813036"><ele>82.8</ele><time>2026-04-25T09:30:09.859Z</time></trkpt><trkpt lat="44.444031839644275" lon="11.41077726837376"><ele>82.39999999999999</ele><time>2026-04-25T09:30:12.859Z</time></trkpt><trkpt lat="44.44413223934017" lon="11.41082229969789"><ele>82.0</ele><time>2026-04-25T09:30:15.859Z</time></trkpt><trkpt lat="44.4442424664565" lon="11.410877045397918"><ele>82.0</ele><time>2026-04-25T09:30:17.859Z</time></trkpt><trkpt lat="44.44435120056497" lon="11.410921268852183"><ele>82.0</ele><time>2026-04-25T09:30:19.859Z</time></trkpt><trkpt lat="44.444459086762976" lon="11.410965793141976"><ele>82.0</ele><time>2026-04-25T09:30:21.859Z</time></trkpt><trkpt lat="44.44455119374332" lon="11.410991844853273"><ele>82.0</ele><time>2026-04-25T09:30:23.859Z</time></trkpt><trkpt lat="44.44463990641459" lon="11.411039616100334"><ele>82.0</ele><time>2026-04-25T09:30:25.859Z</time></trkpt><trkpt lat="44.44472353210654" lon="11.411069862180025"><ele>82.19999999999999</ele><time>2026-04-25T09:30:27.858Z</time></trkpt><trkpt lat="44.444790467915844" lon="11.411070952936697"><ele>82.4</ele><time>2026-04-25T09:30:29.858Z</time></trkpt><trkpt lat="44.444875663359" lon="11.411127441530397"><ele>82.6</ele><time>2026-04-25T09:30:31.858Z</time></trkpt><trkpt lat="44.44496178534312" lon="11.411160031933857"><ele>82.80000000000001</ele><time>2026-04-25T09:30:33.858Z</time></trkpt><trkpt lat="44.44506666807242" lon="11.41119475878245"><ele>83.0</ele><time>2026-04-25T09:30:35.858Z</time></trkpt><trkpt lat="44.44517032135996" lon="11.411230014455658"><ele>83.0</ele><time>2026-04-25T09:30:37.858Z</time></trkpt><trkpt lat="44.44527290859374" lon="11.411261133830008"><ele>83.0</ele><time>2026-04-25T09:30:39.858Z</time></trkpt><trkpt lat="44.445373292924224" lon="11.411297594835546"><ele>83.0</ele><time>2026-04-25T09:30:41.858Z</time></trkpt><trkpt lat="44.44547373805027" lon="11.411330116939546"><ele>83.0</ele><time>2026-04-25T09:30:43.858Z</time></trkpt><trkpt lat="44.44556379987272" lon="11.411360453431067"><ele>83.0</ele><time>2026-04-25T09:30:45.858Z</time></trkpt><trkpt lat="44.44565259374617" lon="11.411400737992127"><ele>82.60000000000001</ele><time>2026-04-25T09:30:47.858Z</time></trkpt><trkpt lat="44.44569392720542" lon="11.4115347212379"><ele>82.2</ele><time>2026-04-25T09:30:49.858Z</time></trkpt><trkpt lat="44.44565602157049" lon="11.411676983724329"><ele>81.8</ele><time>2026-04-25T09:30:51.862Z</time></trkpt><trkpt lat="44.44561857476199" lon="11.411822163697838"><ele>81.4</ele><time>2026-04-25T09:30:53.866Z</time></trkpt><trkpt lat="44.44559619966703" lon="11.41190559327582"><ele>81.0</ele><time>2026-04-25T09:30:54.867Z</time></trkpt><trkpt lat="44.44556103262584" lon="11.411980777209676"><ele>81.0</ele><time>2026-04-25T09:30:55.869Z</time></trkpt><trkpt lat="44.44554059945274" lon="11.41214641296199"><ele>81.0</ele><time>2026-04-25T09:30:57.872Z</time></trkpt><trkpt lat="44.44552267897294" lon="11.41223799547919"><ele>81.0</ele><time>2026-04-25T09:30:58.873Z</time></trkpt><trkpt lat="44.44550115940758" lon="11.412337379163718"><ele>81.0</ele><time>2026-04-25T09:30:59.874Z</time></trkpt><trkpt lat="44.445471030967475" lon="11.41243409328716"><ele>81.0</ele><time>2026-04-25T09:31:00.875Z</time></trkpt><trkpt lat="44.4454592727016" lon="11.412532552811534"><ele>81.0</ele><time>2026-04-25T09:31:01.876Z</time></trkpt><trkpt lat="44.44544310340637" lon="11.412626198138883"><ele>80.57142857142857</ele><time>2026-04-25T09:31:02.877Z</time></trkpt><trkpt lat="44.4454261973822" lon="11.412718670223956"><ele>80.14285714285714</ele><time>2026-04-25T09:31:03.878Z</time></trkpt><trkpt lat="44.44540939353982" lon="11.412812040233506"><ele>79.71428571428572</ele><time>2026-04-25T09:31:04.879Z</time></trkpt><trkpt lat="44.44539197216616" lon="11.412906410482085"><ele>79.28571428571428</ele><time>2026-04-25T09:31:05.879Z</time></trkpt><trkpt lat="44.44537610153705" lon="11.412996182085587"><ele>78.85714285714285</ele><time>2026-04-25T09:31:06.88Z</time></trkpt><trkpt lat="44.44536634403878" lon="11.413084081991792"><ele>78.42857142857143</ele><time>2026-04-25T09:31:07.881Z</time></trkpt><trkpt lat="44.44535345933146" lon="11.413180018341034"><ele>78.0</ele><time>2026-04-25T09:31:08.881Z</time></trkpt><trkpt lat="44.44532479955697" lon="11.413334172336848"><ele>78.0</ele><time>2026-04-25T09:31:10.883Z</time></trkpt><trkpt lat="44.4452916603721" lon="11.413501255524258"><ele>78.0</ele><time>2026-04-25T09:31:12.884Z</time></trkpt><trkpt lat="44.44525784989764" lon="11.413660312323273"><ele>78.0</ele><time>2026-04-25T09:31:14.884Z</time></trkpt><trkpt lat="44.44522495829385" lon="11.413818264901057"><ele>78.0</ele><time>2026-04-25T09:31:16.885Z</time></trkpt><trkpt lat="44.44519907543485" lon="11.413972343122008"><ele>77.8</ele><time>2026-04-25T09:31:18.886Z</time></trkpt><trkpt lat="44.445183199719914" lon="11.414058675793713"><ele>77.6</ele><time>2026-04-25T09:31:19.886Z</time></trkpt><trkpt lat="44.44515305618893" lon="11.414229540604307"><ele>77.4</ele><time>2026-04-25T09:31:21.887Z</time></trkpt><trkpt lat="44.44513944630349" lon="11.414321937681871"><ele>77.2</ele><time>2026-04-25T09:31:22.887Z</time></trkpt><trkpt lat="44.445120627453036" lon="11.41446689729441"><ele>77.0</ele><time>2026-04-25T09:31:24.887Z</time></trkpt><trkpt lat="44.44509567013807" lon="11.4146031100093"><ele>76.6</ele><time>2026-04-25T09:31:26.888Z</time></trkpt><trkpt lat="44.445068532419505" lon="11.414691764988572"><ele>76.2</ele><time>2026-04-25T09:31:28.888Z</time></trkpt><trkpt lat="44.445216701417905" lon="11.414759089396764"><ele>75.8</ele><time>2026-04-25T09:31:31.89Z</time></trkpt><trkpt lat="44.44533474826238" lon="11.414771991898448"><ele>75.4</ele><time>2026-04-25T09:31:33.89Z</time></trkpt><trkpt lat="44.4454331998654" lon="11.414775204503607"><ele>75.0</ele><time>2026-04-25T09:31:35.891Z</time></trkpt><trkpt lat="44.44552007769486" lon="11.414804535618263"><ele>76.5</ele><time>2026-04-25T09:31:37.89Z</time></trkpt><trkpt lat="44.44560056960579" lon="11.414818420587808"><ele>78.0</ele><time>2026-04-25T09:31:39.891Z</time></trkpt><trkpt lat="44.44568038225868" lon="11.414840075113046"><ele>79.5</ele><time>2026-04-25T09:31:41.891Z</time></trkpt><trkpt lat="44.44576052335868" lon="11.41486952236769"><ele>81.0</ele><time>2026-04-25T09:31:43.891Z</time></trkpt><trkpt lat="44.445840456312204" lon="11.414902544641128"><ele>82.5</ele><time>2026-04-25T09:31:45.891Z</time></trkpt><trkpt lat="44.44590581262589" lon="11.414932589433384"><ele>84.0</ele><time>2026-04-25T09:31:47.891Z</time></trkpt><trkpt lat="44.44599036261697" lon="11.414977233693342"><ele>84.0</ele><time>2026-04-25T09:31:50.891Z</time></trkpt><trkpt lat="44.446067355511154" lon="11.415025319324764"><ele>84.0</ele><time>2026-04-25T09:31:53.891Z</time></trkpt><trkpt lat="44.44614231947862" lon="11.415089011976235"><ele>84.0</ele><time>2026-04-25T09:31:56.891Z</time></trkpt><trkpt lat="44.44619661063063" lon="11.415136963563953"><ele>84.0</ele><time>2026-04-25T09:31:58.891Z</time></trkpt><trkpt lat="44.44626067673873" lon="11.415212508312901"><ele>84.0</ele><time>2026-04-25T09:32:01.891Z</time></trkpt><trkpt lat="44.44632144686598" lon="11.41528284905177"><ele>84.0</ele><time>2026-04-25T09:32:04.891Z</time></trkpt><trkpt lat="44.44639189501015" lon="11.41535340894014"><ele>84.0</ele><time>2026-04-25T09:32:07.891Z</time></trkpt><trkpt lat="44.44644221700626" lon="11.415409827108036"><ele>84.0</ele><time>2026-04-25T09:32:09.891Z</time></trkpt><trkpt lat="44.44649206887901" lon="11.41546750246587"><ele>84.0</ele><time>2026-04-25T09:32:11.891Z</time></trkpt><trkpt lat="44.44655270641766" lon="11.415522530582937"><ele>84.0</ele><time>2026-04-25T09:32:13.891Z</time></trkpt><trkpt lat="44.446616056712735" lon="11.415576799559663"><ele>84.0</ele><time>2026-04-25T09:32:15.891Z</time></trkpt><trkpt lat="44.44667301315602" lon="11.415623415130007"><ele>84.0</ele><time>2026-04-25T09:32:17.891Z</time></trkpt><trkpt lat="44.446725553980706" lon="11.41569737382465"><ele>84.0</ele><time>2026-04-25T09:32:19.891Z</time></trkpt><trkpt lat="44.44678009211481" lon="11.415771542886453"><ele>84.0</ele><time>2026-04-25T09:32:21.891Z</time></trkpt><trkpt lat="44.446833093552655" lon="11.41584686284928"><ele>84.0</ele><time>2026-04-25T09:32:23.891Z</time></trkpt><trkpt lat="44.446898568666874" lon="11.415921780151828"><ele>84.0</ele><time>2026-04-25T09:32:25.891Z</time></trkpt><trkpt lat="44.44696655312463" lon="11.415994335801994"><ele>84.0</ele><time>2026-04-25T09:32:27.891Z</time></trkpt><trkpt lat="44.44704522010874" lon="11.416073515162767"><ele>84.0</ele><time>2026-04-25T09:32:29.891Z</time></trkpt><trkpt lat="44.44711156440539" lon="11.416149144348282"><ele>84.0</ele><time>2026-04-25T09:32:31.891Z</time></trkpt><trkpt lat="44.44719021474938" lon="11.416222033033247"><ele>83.80000000000001</ele><time>2026-04-25T09:32:33.891Z</time></trkpt><trkpt lat="44.4472692257832" lon="11.416299836658068"><ele>83.60000000000001</ele><time>2026-04-25T09:32:35.891Z</time></trkpt><trkpt lat="44.44734538691202" lon="11.416397101749173"><ele>83.4</ele><time>2026-04-25T09:32:37.891Z</time></trkpt><trkpt lat="44.44742700868471" lon="11.416485872958562"><ele>83.2</ele><time>2026-04-25T09:32:39.891Z</time></trkpt><trkpt lat="44.44750480655558" lon="11.416580580291106"><ele>83.0</ele><time>2026-04-25T09:32:41.891Z</time></trkpt><trkpt lat="44.44757490296911" lon="11.416660206309304"><ele>82.80000000000001</ele><time>2026-04-25T09:32:43.891Z</time></trkpt><trkpt lat="44.447648682096435" lon="11.416754085059878"><ele>82.6</ele><time>2026-04-25T09:32:45.891Z</time></trkpt><trkpt lat="44.44773350325012" lon="11.416837481172587"><ele>82.4</ele><time>2026-04-25T09:32:47.891Z</time></trkpt><trkpt lat="44.44782016785568" lon="11.416918095352225"><ele>82.19999999999999</ele><time>2026-04-25T09:32:49.891Z</time></trkpt><trkpt lat="44.44790292926729" lon="11.417003668311807"><ele>82.0</ele><time>2026-04-25T09:32:51.891Z</time></trkpt><trkpt lat="44.44799065314858" lon="11.41709439248602"><ele>81.6</ele><time>2026-04-25T09:32:53.891Z</time></trkpt><trkpt lat="44.448060871401566" lon="11.417190648407267"><ele>81.19999999999999</ele><time>2026-04-25T09:32:55.891Z</time></trkpt><trkpt lat="44.44815111941953" lon="11.41728199407845"><ele>80.8</ele><time>2026-04-25T09:32:57.89Z</time></trkpt><trkpt lat="44.448235770626304" lon="11.417371968170487"><ele>80.4</ele><time>2026-04-25T09:32:59.89Z</time></trkpt><trkpt lat="44.448315797914056" lon="11.417459720853541"><ele>80.0</ele><time>2026-04-25T09:33:01.89Z</time></trkpt><trkpt lat="44.448410243798826" lon="11.417566709076553"><ele>80.0</ele><time>2026-04-25T09:33:03.89Z</time></trkpt><trkpt lat="44.44849854802735" lon="11.41766071036108"><ele>80.0</ele><time>2026-04-25T09:33:05.89Z</time></trkpt><trkpt lat="44.44857872795091" lon="11.417746063183891"><ele>80.0</ele><time>2026-04-25T09:33:07.89Z</time></trkpt><trkpt lat="44.44866315250175" lon="11.417823169660432"><ele>80.0</ele><time>2026-04-25T09:33:09.89Z</time></trkpt><trkpt lat="44.448743041424635" lon="11.417905010394975"><ele>80.0</ele><time>2026-04-25T09:33:11.89Z</time></trkpt><trkpt lat="44.448829218201446" lon="11.41798225461305"><ele>80.0</ele><time>2026-04-25T09:33:13.89Z</time></trkpt><trkpt lat="44.44887938969068" lon="11.41804835176355"><ele>80.0</ele><time>2026-04-25T09:33:15.89Z</time></trkpt><trkpt lat="44.448821055249255" lon="11.418239215579286"><ele>80.0</ele><time>2026-04-25T09:33:24.89Z</time></trkpt><trkpt lat="44.44877644599521" lon="11.4183980303144"><ele>80.0</ele><time>2026-04-25T09:33:26.89Z</time></trkpt><trkpt lat="44.448741897896525" lon="11.41853560664838"><ele>80.0</ele><time>2026-04-25T09:33:28.89Z</time></trkpt><trkpt lat="44.44870901183124" lon="11.418668606063818"><ele>79.8</ele><time>2026-04-25T09:33:30.89Z</time></trkpt><trkpt lat="44.44868469903016" lon="11.418812818234883"><ele>79.6</ele><time>2026-04-25T09:33:32.89Z</time></trkpt><trkpt lat="44.44861008228911" lon="11.418935084874757"><ele>79.4</ele><time>2026-04-25T09:33:34.89Z</time></trkpt><trkpt lat="44.448533725409675" lon="11.419067857620634"><ele>79.2</ele><time>2026-04-25T09:33:36.891Z</time></trkpt><trkpt lat="44.44846982955892" lon="11.419178716829197"><ele>79.0</ele><time>2026-04-25T09:33:38.891Z</time></trkpt><trkpt lat="44.44840650471717" lon="11.419288366168598"><ele>78.75</ele><time>2026-04-25T09:33:40.891Z</time></trkpt><trkpt lat="44.44833760208932" lon="11.419401753594569"><ele>78.5</ele><time>2026-04-25T09:33:42.891Z</time></trkpt><trkpt lat="44.44826569623696" lon="11.419531529828134"><ele>78.25</ele><time>2026-04-25T09:33:44.891Z</time></trkpt><trkpt lat="44.44819369610609" lon="11.419668389010077"><ele>78.0</ele><time>2026-04-25T09:33:46.891Z</time></trkpt><trkpt lat="44.44813396983741" lon="11.419808182451018"><ele>78.33333333333333</ele><time>2026-04-25T09:33:48.892Z</time></trkpt><trkpt lat="44.44807508626699" lon="11.419947610196607"><ele>78.66666666666667</ele><time>2026-04-25T09:33:50.891Z</time></trkpt><trkpt lat="44.44800596611993" lon="11.420084558924389"><ele>79.0</ele><time>2026-04-25T09:33:52.891Z</time></trkpt><trkpt lat="44.44797129153848" lon="11.420161332627325"><ele>79.33333333333334</ele><time>2026-04-25T09:33:53.891Z</time></trkpt><trkpt lat="44.44793714515225" lon="11.420239913080662"><ele>79.66666666666667</ele><time>2026-04-25T09:33:54.891Z</time></trkpt><trkpt lat="44.44790350127339" lon="11.42032123199412"><ele>80.0</ele><time>2026-04-25T09:33:55.891Z</time></trkpt><trkpt lat="44.44783925971886" lon="11.420469073315727"><ele>78.8</ele><time>2026-04-25T09:33:57.891Z</time></trkpt><trkpt lat="44.44780533880525" lon="11.420550540917834"><ele>77.6</ele><time>2026-04-25T09:33:58.891Z</time></trkpt><trkpt lat="44.44777152606842" lon="11.420628441599986"><ele>76.4</ele><time>2026-04-25T09:33:59.891Z</time></trkpt><trkpt lat="44.447707282353015" lon="11.420778323273494"><ele>75.2</ele><time>2026-04-25T09:34:01.891Z</time></trkpt><trkpt lat="44.447635151460766" lon="11.420920028104172"><ele>74.0</ele><time>2026-04-25T09:34:03.891Z</time></trkpt><trkpt lat="44.447553324147194" lon="11.421040441837732"><ele>74.0</ele><time>2026-04-25T09:34:05.891Z</time></trkpt><trkpt lat="44.44746483452262" lon="11.421158119000737"><ele>74.0</ele><time>2026-04-25T09:34:07.891Z</time></trkpt><trkpt lat="44.44738015692479" lon="11.42127365379945"><ele>74.0</ele><time>2026-04-25T09:34:09.891Z</time></trkpt><trkpt lat="44.44729830213545" lon="11.421392021286291"><ele>74.0</ele><time>2026-04-25T09:34:11.891Z</time></trkpt><trkpt lat="44.447226125000235" lon="11.421513238837191"><ele>74.5</ele><time>2026-04-25T09:34:13.891Z</time></trkpt><trkpt lat="44.44715176004487" lon="11.421639463651857"><ele>75.0</ele><time>2026-04-25T09:34:15.891Z</time></trkpt><trkpt lat="44.44707975381308" lon="11.421762992307983"><ele>75.5</ele><time>2026-04-25T09:34:17.891Z</time></trkpt><trkpt lat="44.447005307785794" lon="11.421891646223957"><ele>76.0</ele><time>2026-04-25T09:34:19.891Z</time></trkpt><trkpt lat="44.44693948928163" lon="11.42201503359118"><ele>76.0</ele><time>2026-04-25T09:34:21.891Z</time></trkpt><trkpt lat="44.446878855211075" lon="11.422139987382604"><ele>76.0</ele><time>2026-04-25T09:34:23.891Z</time></trkpt><trkpt lat="44.44682568068783" lon="11.422273135686641"><ele>76.0</ele><time>2026-04-25T09:34:25.891Z</time></trkpt><trkpt lat="44.446868558055435" lon="11.422425290079408"><ele>76.0</ele><time>2026-04-25T09:34:27.891Z</time></trkpt><trkpt lat="44.44692878322665" lon="11.422461073774986"><ele>76.0</ele><time>2026-04-25T09:34:28.891Z</time></trkpt><trkpt lat="44.44704314150884" lon="11.42248736055097"><ele>76.2</ele><time>2026-04-25T09:34:30.891Z</time></trkpt><trkpt lat="44.44714708058335" lon="11.422530273364835"><ele>76.39999999999999</ele><time>2026-04-25T09:34:32.891Z</time></trkpt><trkpt lat="44.447241215078144" lon="11.422575570181758"><ele>76.6</ele><time>2026-04-25T09:34:34.891Z</time></trkpt><trkpt lat="44.44732842515535" lon="11.422630908516332"><ele>76.8</ele><time>2026-04-25T09:34:36.891Z</time></trkpt><trkpt lat="44.44741803438617" lon="11.422695023619463"><ele>77.0</ele><time>2026-04-25T09:34:38.89Z</time></trkpt><trkpt lat="44.44750573686386" lon="11.42274797796976"><ele>77.0</ele><time>2026-04-25T09:34:40.89Z</time></trkpt><trkpt lat="44.447586399232065" lon="11.422801383617427"><ele>77.0</ele><time>2026-04-25T09:34:42.89Z</time></trkpt><trkpt lat="44.44767787913144" lon="11.422846008261986"><ele>77.0</ele><time>2026-04-25T09:34:44.89Z</time></trkpt><trkpt lat="44.447764573891995" lon="11.422906734016072"><ele>77.0</ele><time>2026-04-25T09:34:46.89Z</time></trkpt><trkpt lat="44.447862579327136" lon="11.422936139695867"><ele>77.0</ele><time>2026-04-25T09:34:48.89Z</time></trkpt><trkpt lat="44.44797451724719" lon="11.422963847755943"><ele>76.8</ele><time>2026-04-25T09:34:50.89Z</time></trkpt><trkpt lat="44.448089845739425" lon="11.42297981483582"><ele>76.6</ele><time>2026-04-25T09:34:52.89Z</time></trkpt><trkpt lat="44.448200153022526" lon="11.422981971741622"><ele>76.39999999999999</ele><time>2026-04-25T09:34:54.89Z</time></trkpt><trkpt lat="44.44830791779728" lon="11.423015297676473"><ele>76.2</ele><time>2026-04-25T09:34:56.89Z</time></trkpt><trkpt lat="44.44841223399872" lon="11.423067012399066"><ele>76.0</ele><time>2026-04-25T09:34:58.89Z</time></trkpt><trkpt lat="44.44849622576067" lon="11.423145795194737"><ele>76.39999999999999</ele><time>2026-04-25T09:35:00.89Z</time></trkpt><trkpt lat="44.448564863322126" lon="11.423249993005916"><ele>76.8</ele><time>2026-04-25T09:35:02.89Z</time></trkpt><trkpt lat="44.448631808638204" lon="11.42335347674361"><ele>77.19999999999999</ele><time>2026-04-25T09:35:04.89Z</time></trkpt><trkpt lat="44.44869527125404" lon="11.42345924582038"><ele>77.6</ele><time>2026-04-25T09:35:06.89Z</time></trkpt><trkpt lat="44.44875135030935" lon="11.423564586003124"><ele>78.0</ele><time>2026-04-25T09:35:08.89Z</time></trkpt><trkpt lat="44.44879971830388" lon="11.42367716694694"><ele>78.2</ele><time>2026-04-25T09:35:10.89Z</time></trkpt><trkpt lat="44.448843130968285" lon="11.423779079839962"><ele>78.4</ele><time>2026-04-25T09:35:12.89Z</time></trkpt><trkpt lat="44.44889485267444" lon="11.423898851614785"><ele>78.60000000000001</ele><time>2026-04-25T09:35:14.89Z</time></trkpt><trkpt lat="44.44892573119935" lon="11.424040308625196"><ele>78.8</ele><time>2026-04-25T09:35:16.89Z</time></trkpt><trkpt lat="44.44894593645613" lon="11.424165252170168"><ele>79.0</ele><time>2026-04-25T09:35:18.89Z</time></trkpt><trkpt lat="44.44895521010686" lon="11.424295721717213"><ele>78.60000000000001</ele><time>2026-04-25T09:35:20.89Z</time></trkpt><trkpt lat="44.448950155959466" lon="11.424441797587772"><ele>78.2</ele><time>2026-04-25T09:35:22.89Z</time></trkpt><trkpt lat="44.4489392929662" lon="11.424582489222459"><ele>77.80000000000001</ele><time>2026-04-25T09:35:24.889Z</time></trkpt><trkpt lat="44.448952085686095" lon="11.424751549461938"><ele>77.4</ele><time>2026-04-25T09:35:26.889Z</time></trkpt><trkpt lat="44.448999591379796" lon="11.424905274049404"><ele>77.0</ele><time>2026-04-25T09:35:28.889Z</time></trkpt><trkpt lat="44.449049890433365" lon="11.425037536536816"><ele>77.0</ele><time>2026-04-25T09:35:30.889Z</time></trkpt><trkpt lat="44.44909427999349" lon="11.42516089331597"><ele>77.0</ele><time>2026-04-25T09:35:32.889Z</time></trkpt><trkpt lat="44.449133312412165" lon="11.425285706703644"><ele>77.0</ele><time>2026-04-25T09:35:34.889Z</time></trkpt><trkpt lat="44.44917918545422" lon="11.425412489908085"><ele>77.0</ele><time>2026-04-25T09:35:36.889Z</time></trkpt><trkpt lat="44.4492099179684" lon="11.425543655791039"><ele>77.0</ele><time>2026-04-25T09:35:38.889Z</time></trkpt><trkpt lat="44.44923181397895" lon="11.425685074321708"><ele>77.0</ele><time>2026-04-25T09:35:40.889Z</time></trkpt><trkpt lat="44.449248473535775" lon="11.425830465793025"><ele>77.0</ele><time>2026-04-25T09:35:42.89Z</time></trkpt><trkpt lat="44.449269160474884" lon="11.425984858576518"><ele>77.0</ele><time>2026-04-25T09:35:44.891Z</time></trkpt><trkpt lat="44.4492963791016" lon="11.42613073163063"><ele>77.0</ele><time>2026-04-25T09:35:46.89Z</time></trkpt><trkpt lat="44.44933589462627" lon="11.426272414327006"><ele>77.0</ele><time>2026-04-25T09:35:48.89Z</time></trkpt><trkpt lat="44.44937724727759" lon="11.426406674207952"><ele>77.2</ele><time>2026-04-25T09:35:50.89Z</time></trkpt><trkpt lat="44.44942193270427" lon="11.426538998016998"><ele>77.4</ele><time>2026-04-25T09:35:52.89Z</time></trkpt><trkpt lat="44.449469762981586" lon="11.426673530765664"><ele>77.6</ele><time>2026-04-25T09:35:54.89Z</time></trkpt><trkpt lat="44.44953246799732" lon="11.426795014635028"><ele>77.8</ele><time>2026-04-25T09:35:56.89Z</time></trkpt><trkpt lat="44.44960816735821" lon="11.426902126157499"><ele>78.0</ele><time>2026-04-25T09:35:58.89Z</time></trkpt><trkpt lat="44.44969757129056" lon="11.427004284020608"><ele>78.0</ele><time>2026-04-25T09:36:00.89Z</time></trkpt><trkpt lat="44.44977814619184" lon="11.427105787926932"><ele>78.0</ele><time>2026-04-25T09:36:02.89Z</time></trkpt><trkpt lat="44.4498558584101" lon="11.427213815409939"><ele>78.0</ele><time>2026-04-25T09:36:04.89Z</time></trkpt><trkpt lat="44.44990125144885" lon="11.427304523297167"><ele>78.0</ele><time>2026-04-25T09:36:06.89Z</time></trkpt><trkpt lat="44.44980949750526" lon="11.427454152857052"><ele>78.0</ele><time>2026-04-25T09:36:15.89Z</time></trkpt><trkpt lat="44.449758421245" lon="11.427509827043027"><ele>77.57142857142857</ele><time>2026-04-25T09:36:17.89Z</time></trkpt><trkpt lat="44.44970845902199" lon="11.427564286892515"><ele>77.14285714285714</ele><time>2026-04-25T09:36:19.89Z</time></trkpt><trkpt lat="44.4496517677413" lon="11.427626081552825"><ele>76.71428571428571</ele><time>2026-04-25T09:36:21.89Z</time></trkpt><trkpt lat="44.44960167411287" lon="11.427681351830165"><ele>76.28571428571428</ele><time>2026-04-25T09:36:23.89Z</time></trkpt><trkpt lat="44.44952238961892" lon="11.427663959626354"><ele>75.85714285714286</ele><time>2026-04-25T09:36:25.89Z</time></trkpt><trkpt lat="44.44946642394276" lon="11.427724414664166"><ele>75.42857142857142</ele><time>2026-04-25T09:36:27.89Z</time></trkpt><trkpt lat="44.449405828603894" lon="11.427799809735834"><ele>75.0</ele><time>2026-04-25T09:36:29.89Z</time></trkpt><trkpt lat="44.44935530070723" lon="11.427902992800174"><ele>74.66666666666667</ele><time>2026-04-25T09:36:31.89Z</time></trkpt><trkpt lat="44.44930641214711" lon="11.428006745089027"><ele>74.33333333333333</ele><time>2026-04-25T09:36:33.89Z</time></trkpt><trkpt lat="44.449278692964455" lon="11.42812162601762"><ele>74.0</ele><time>2026-04-25T09:36:35.89Z</time></trkpt><trkpt lat="44.44922741810216" lon="11.428224875855946"><ele>73.66666666666666</ele><time>2026-04-25T09:36:37.89Z</time></trkpt><trkpt lat="44.44920195741336" lon="11.428325984898928"><ele>73.33333333333333</ele><time>2026-04-25T09:36:39.889Z</time></trkpt><trkpt lat="44.44917690442695" lon="11.428440918103313"><ele>73.0</ele><time>2026-04-25T09:36:41.889Z</time></trkpt><trkpt lat="44.449140360979875" lon="11.428557986131382"><ele>73.0</ele><time>2026-04-25T09:36:43.889Z</time></trkpt><trkpt lat="44.449115017675204" lon="11.428675314589999"><ele>73.0</ele><time>2026-04-25T09:36:45.889Z</time></trkpt><trkpt lat="44.44909685351055" lon="11.428790660190174"><ele>73.0</ele><time>2026-04-25T09:36:47.889Z</time></trkpt><trkpt lat="44.44906676848512" lon="11.428911538340417"><ele>73.0</ele><time>2026-04-25T09:36:49.889Z</time></trkpt><trkpt lat="44.44903417616898" lon="11.429040786742041"><ele>73.0</ele><time>2026-04-25T09:36:51.889Z</time></trkpt><trkpt lat="44.449010142304566" lon="11.429154189839355"><ele>73.0</ele><time>2026-04-25T09:36:53.889Z</time></trkpt><trkpt lat="44.44897196711259" lon="11.429282014596245"><ele>72.8</ele><time>2026-04-25T09:36:55.889Z</time></trkpt><trkpt lat="44.44893423029389" lon="11.42940996016902"><ele>72.6</ele><time>2026-04-25T09:36:57.889Z</time></trkpt><trkpt lat="44.44890568863084" lon="11.429524078283533"><ele>72.4</ele><time>2026-04-25T09:36:59.889Z</time></trkpt><trkpt lat="44.44887972592617" lon="11.429637342102465"><ele>72.2</ele><time>2026-04-25T09:37:01.889Z</time></trkpt><trkpt lat="44.448848245704085" lon="11.429760694368948"><ele>72.0</ele><time>2026-04-25T09:37:03.889Z</time></trkpt><trkpt lat="44.44881461848331" lon="11.429879251703767"><ele>71.2</ele><time>2026-04-25T09:37:05.889Z</time></trkpt><trkpt lat="44.448771592195875" lon="11.430001873466487"><ele>70.4</ele><time>2026-04-25T09:37:07.889Z</time></trkpt><trkpt lat="44.44872942306304" lon="11.430133752832488"><ele>69.6</ele><time>2026-04-25T09:37:09.889Z</time></trkpt><trkpt lat="44.44870292942841" lon="11.430270416865508"><ele>68.8</ele><time>2026-04-25T09:37:11.889Z</time></trkpt><trkpt lat="44.448731125048475" lon="11.430425348379956"><ele>68.0</ele><time>2026-04-25T09:37:13.889Z</time></trkpt><trkpt lat="44.448696623156515" lon="11.430559289221526"><ele>68.0</ele><time>2026-04-25T09:37:15.889Z</time></trkpt><trkpt lat="44.44866326009526" lon="11.430688808981337"><ele>68.0</ele><time>2026-04-25T09:37:17.889Z</time></trkpt><trkpt lat="44.44863045529024" lon="11.430816161529496"><ele>68.0</ele><time>2026-04-25T09:37:19.889Z</time></trkpt><trkpt lat="44.44859816230739" lon="11.430941527109827"><ele>68.0</ele><time>2026-04-25T09:37:21.889Z</time></trkpt><trkpt lat="44.44856660083355" lon="11.43106380237198"><ele>68.0</ele><time>2026-04-25T09:37:23.889Z</time></trkpt><trkpt lat="44.44853301852008" lon="11.43119248754163"><ele>68.2</ele><time>2026-04-25T09:37:25.889Z</time></trkpt><trkpt lat="44.44850006734003" lon="11.431318754242943"><ele>68.4</ele><time>2026-04-25T09:37:27.888Z</time></trkpt><trkpt lat="44.448471044976586" lon="11.431429588264127"><ele>68.60000000000001</ele><time>2026-04-25T09:37:29.888Z</time></trkpt><trkpt lat="44.44843921267168" lon="11.431550871703461"><ele>68.8</ele><time>2026-04-25T09:37:31.888Z</time></trkpt><trkpt lat="44.44840665747698" lon="11.431674909414069"><ele>69.0</ele><time>2026-04-25T09:37:33.888Z</time></trkpt><trkpt lat="44.44837120484444" lon="11.431809986575457"><ele>69.0</ele><time>2026-04-25T09:37:35.888Z</time></trkpt><trkpt lat="44.44833929481702" lon="11.431931566159621"><ele>69.0</ele><time>2026-04-25T09:37:37.888Z</time></trkpt><trkpt lat="44.448309860650696" lon="11.432043712506776"><ele>69.0</ele><time>2026-04-25T09:37:39.888Z</time></trkpt><trkpt lat="44.44826153254788" lon="11.432147228429978"><ele>69.0</ele><time>2026-04-25T09:37:41.888Z</time></trkpt><trkpt lat="44.44822080709874" lon="11.432250082555155"><ele>69.0</ele><time>2026-04-25T09:37:43.888Z</time></trkpt><trkpt lat="44.448153855505" lon="11.432328297464009"><ele>69.0</ele><time>2026-04-25T09:37:46.888Z</time></trkpt><trkpt lat="44.44809125692521" lon="11.432342509504116"><ele>69.0</ele><time>2026-04-25T09:37:48.89Z</time></trkpt><trkpt lat="44.448021127211334" lon="11.432336580280325"><ele>69.0</ele><time>2026-04-25T09:37:50.89Z</time></trkpt><trkpt lat="44.447933623394654" lon="11.43235911759431"><ele>69.0</ele><time>2026-04-25T09:37:53.889Z</time></trkpt><trkpt lat="44.447878766337034" lon="11.432418599040744"><ele>69.0</ele><time>2026-04-25T09:37:57.889Z</time></trkpt><trkpt lat="44.44779628076323" lon="11.432413934567505"><ele>69.0</ele><time>2026-04-25T09:38:01.889Z</time></trkpt><trkpt lat="44.44771604330535" lon="11.432404644622652"><ele>69.0</ele><time>2026-04-25T09:38:03.889Z</time></trkpt><trkpt lat="44.44763234766442" lon="11.432400302786414"><ele>69.0</ele><time>2026-04-25T09:38:05.889Z</time></trkpt><trkpt lat="44.44754015554751" lon="11.432407177158076"><ele>69.0</ele><time>2026-04-25T09:38:07.889Z</time></trkpt><trkpt lat="44.44746081158595" lon="11.432417410961705"><ele>69.0</ele><time>2026-04-25T09:38:09.889Z</time></trkpt><trkpt lat="44.44737714919242" lon="11.432482016617959"><ele>69.0</ele><time>2026-04-25T09:38:11.889Z</time></trkpt><trkpt lat="44.44730776509121" lon="11.432580961345108"><ele>69.0</ele><time>2026-04-25T09:38:13.889Z</time></trkpt><trkpt lat="44.44726590618744" lon="11.432702712141506"><ele>69.0</ele><time>2026-04-25T09:38:15.889Z</time></trkpt><trkpt lat="44.44722534766838" lon="11.432831748918801"><ele>69.0</ele><time>2026-04-25T09:38:17.888Z</time></trkpt><trkpt lat="44.44717871456183" lon="11.432967661306114"><ele>69.0</ele><time>2026-04-25T09:38:19.888Z</time></trkpt><trkpt lat="44.44715945831232" lon="11.433086062398075"><ele>69.0</ele><time>2026-04-25T09:38:21.888Z</time></trkpt><trkpt lat="44.44714629263226" lon="11.433208274843922"><ele>69.0</ele><time>2026-04-25T09:38:23.888Z</time></trkpt><trkpt lat="44.44712416940531" lon="11.433332883858027"><ele>69.2</ele><time>2026-04-25T09:38:25.888Z</time></trkpt><trkpt lat="44.447088546866844" lon="11.433461452992965"><ele>69.4</ele><time>2026-04-25T09:38:27.888Z</time></trkpt><trkpt lat="44.44706042387366" lon="11.43359026246502"><ele>69.6</ele><time>2026-04-25T09:38:29.888Z</time></trkpt><trkpt lat="44.447027207883416" lon="11.43371832033494"><ele>69.8</ele><time>2026-04-25T09:38:31.888Z</time></trkpt><trkpt lat="44.446988391544956" lon="11.433825512872705"><ele>70.0</ele><time>2026-04-25T09:38:33.888Z</time></trkpt><trkpt lat="44.44696021409366" lon="11.433930689638968"><ele>69.6</ele><time>2026-04-25T09:38:35.888Z</time></trkpt><trkpt lat="44.44692992765532" lon="11.434084957217609"><ele>69.2</ele><time>2026-04-25T09:38:37.888Z</time></trkpt><trkpt lat="44.4468932360579" lon="11.434226354582483"><ele>68.8</ele><time>2026-04-25T09:38:39.888Z</time></trkpt><trkpt lat="44.4468528535998" lon="11.4343713361011"><ele>68.4</ele><time>2026-04-25T09:38:41.888Z</time></trkpt><trkpt lat="44.44682466796725" lon="11.434479029885761"><ele>68.0</ele><time>2026-04-25T09:38:43.888Z</time></trkpt><trkpt lat="44.446782471010614" lon="11.43460999774936"><ele>67.6</ele><time>2026-04-25T09:38:45.888Z</time></trkpt><trkpt lat="44.44674383976529" lon="11.434732722115521"><ele>67.19999999999999</ele><time>2026-04-25T09:38:47.888Z</time></trkpt><trkpt lat="44.446712805490094" lon="11.43484991343368"><ele>66.8</ele><time>2026-04-25T09:38:49.888Z</time></trkpt><trkpt lat="44.446668921997045" lon="11.434970714806006"><ele>66.39999999999999</ele><time>2026-04-25T09:38:51.888Z</time></trkpt><trkpt lat="44.446618109431455" lon="11.435071298760462"><ele>66.0</ele><time>2026-04-25T09:38:53.888Z</time></trkpt><trkpt lat="44.44656197375691" lon="11.435168440941602"><ele>66.0</ele><time>2026-04-25T09:38:55.888Z</time></trkpt><trkpt lat="44.44647634951662" lon="11.435256037228326"><ele>66.0</ele><time>2026-04-25T09:38:57.888Z</time></trkpt><trkpt lat="44.44637700957028" lon="11.435288990808289"><ele>66.0</ele><time>2026-04-25T09:38:59.888Z</time></trkpt><trkpt lat="44.44627721726175" lon="11.435236063478168"><ele>66.0</ele><time>2026-04-25T09:39:01.888Z</time></trkpt><trkpt lat="44.44619035332684" lon="11.435172909848875"><ele>66.0</ele><time>2026-04-25T09:39:03.888Z</time></trkpt><trkpt lat="44.446126207082614" lon="11.435125763437336"><ele>66.33333333333333</ele><time>2026-04-25T09:39:05.887Z</time></trkpt><trkpt lat="44.446061246173024" lon="11.43508608793903"><ele>66.66666666666667</ele><time>2026-04-25T09:39:07.887Z</time></trkpt><trkpt lat="44.44597950326144" lon="11.435028730353599"><ele>67.0</ele><time>2026-04-25T09:39:10.887Z</time></trkpt><trkpt lat="44.44590729194896" lon="11.435002341923953"><ele>67.33333333333334</ele><time>2026-04-25T09:39:12.887Z</time></trkpt><trkpt lat="44.445824667016566" lon="11.435015979928712"><ele>67.66666666666667</ele><time>2026-04-25T09:39:14.887Z</time></trkpt><trkpt lat="44.44571764147855" lon="11.435026512933234"><ele>68.0</ele><time>2026-04-25T09:39:16.887Z</time></trkpt><trkpt lat="44.44560769056639" lon="11.435044256932116"><ele>68.0</ele><time>2026-04-25T09:39:18.887Z</time></trkpt><trkpt lat="44.44552349587373" lon="11.435055362233355"><ele>68.0</ele><time>2026-04-25T09:39:20.887Z</time></trkpt><trkpt lat="44.445447090201675" lon="11.435056259055814"><ele>68.0</ele><time>2026-04-25T09:39:22.887Z</time></trkpt><trkpt lat="44.44537325881129" lon="11.435059935240972"><ele>68.0</ele><time>2026-04-25T09:39:25.887Z</time></trkpt><trkpt lat="44.44536671944155" lon="11.434946989584068"><ele>68.0</ele><time>2026-04-25T09:39:26.887Z</time></trkpt><trkpt lat="44.445301142171964" lon="11.434931127840203"><ele>68.0</ele><time>2026-04-25T09:39:29.887Z</time></trkpt><trkpt lat="44.44528974466606" lon="11.434834132933297"><ele>69.66666666666667</ele><time>2026-04-25T09:39:32.887Z</time></trkpt><trkpt lat="44.44520969077074" lon="11.434782898133234"><ele>71.33333333333333</ele><time>2026-04-25T09:39:36.887Z</time></trkpt><trkpt lat="44.44500224590555" lon="11.435124987731486"><ele>73.0</ele><time>2026-04-25T09:39:40.887Z</time></trkpt><trkpt lat="44.44491161497856" lon="11.435138875754996"><ele>73.0</ele><time>2026-04-25T09:39:43.887Z</time></trkpt><trkpt lat="44.444820609178066" lon="11.43515035393708"><ele>73.0</ele><time>2026-04-25T09:39:46.887Z</time></trkpt><trkpt lat="44.44475609734595" lon="11.435169785864849"><ele>73.0</ele><time>2026-04-25T09:39:49.887Z</time></trkpt><trkpt lat="44.444670515909806" lon="11.435178607724428"><ele>73.0</ele><time>2026-04-25T09:39:52.886Z</time></trkpt><trkpt lat="44.44458740847324" lon="11.43519686736802"><ele>73.0</ele><time>2026-04-25T09:39:56.889Z</time></trkpt><trkpt lat="44.44451879011387" lon="11.435207247062523"><ele>73.0</ele><time>2026-04-25T09:39:59.888Z</time></trkpt><trkpt lat="44.44444957350043" lon="11.435224149602659"><ele>73.28571428571428</ele><time>2026-04-25T09:40:02.888Z</time></trkpt><trkpt lat="44.4443848820874" lon="11.435177773778879"><ele>73.57142857142857</ele><time>2026-04-25T09:40:06.888Z</time></trkpt><trkpt lat="44.44445072028371" lon="11.435182321312057"><ele>73.85714285714286</ele><time>2026-04-25T09:40:52.887Z</time></trkpt><trkpt lat="44.444499166109736" lon="11.43525684043474"><ele>74.14285714285714</ele><time>2026-04-25T09:41:00.887Z</time></trkpt><trkpt lat="44.444557982631" lon="11.435335786151438"><ele>74.42857142857143</ele><time>2026-04-25T09:41:05.887Z</time></trkpt><trkpt lat="44.444492662116495" lon="11.435323917382124"><ele>74.71428571428571</ele><time>2026-04-25T09:41:09.887Z</time></trkpt><trkpt lat="44.44444535147183" lon="11.43542592939718"><ele>75.0</ele><time>2026-04-25T09:41:19.886Z</time></trkpt><trkpt lat="44.44441927107854" lon="11.435512646066272"><ele>75.0</ele><time>2026-04-25T09:41:21.886Z</time></trkpt><trkpt lat="44.4443717714836" lon="11.435675134788658"><ele>75.0</ele><time>2026-04-25T09:41:23.886Z</time></trkpt><trkpt lat="44.44434334491476" lon="11.435788867952345"><ele>75.0</ele><time>2026-04-25T09:41:25.886Z</time></trkpt><trkpt lat="44.44431060069686" lon="11.43590549687371"><ele>75.0</ele><time>2026-04-25T09:41:27.886Z</time></trkpt><trkpt lat="44.444258444217084" lon="11.43602352171732"><ele>75.0</ele><time>2026-04-25T09:41:29.886Z</time></trkpt><trkpt lat="44.44419304706212" lon="11.436109058450034"><ele>75.0</ele><time>2026-04-25T09:41:30.886Z</time></trkpt><trkpt lat="44.44419016475" lon="11.436252787563474"><ele>75.0</ele><time>2026-04-25T09:41:32.886Z</time></trkpt><trkpt lat="44.4441675403355" lon="11.436401893570169"><ele>75.0</ele><time>2026-04-25T09:41:34.886Z</time></trkpt><trkpt lat="44.444126697168116" lon="11.436557138947471"><ele>75.0</ele><time>2026-04-25T09:41:36.886Z</time></trkpt><trkpt lat="44.444077621579744" lon="11.436708466948046"><ele>75.0</ele><time>2026-04-25T09:41:38.886Z</time></trkpt><trkpt lat="44.44403285585287" lon="11.436867705262273"><ele>73.8</ele><time>2026-04-25T09:41:40.886Z</time></trkpt><trkpt lat="44.44399931359927" lon="11.437031453406583"><ele>72.6</ele><time>2026-04-25T09:41:42.886Z</time></trkpt><trkpt lat="44.44398625443801" lon="11.437124084864"><ele>71.4</ele><time>2026-04-25T09:41:43.886Z</time></trkpt><trkpt lat="44.44398960026099" lon="11.437292059131892"><ele>70.2</ele><time>2026-04-25T09:41:45.886Z</time></trkpt><trkpt lat="44.44401553809751" lon="11.437439611110165"><ele>69.0</ele><time>2026-04-25T09:41:47.886Z</time></trkpt><trkpt lat="44.444034725136596" lon="11.437585744024473"><ele>68.60000000000001</ele><time>2026-04-25T09:41:49.886Z</time></trkpt><trkpt lat="44.44406142751546" lon="11.437717621930313"><ele>68.2</ele><time>2026-04-25T09:41:51.886Z</time></trkpt><trkpt lat="44.4440818638257" lon="11.437850626018816"><ele>67.80000000000001</ele><time>2026-04-25T09:41:53.886Z</time></trkpt><trkpt lat="44.44411111011149" lon="11.437988955795912"><ele>67.4</ele><time>2026-04-25T09:41:55.886Z</time></trkpt><trkpt lat="44.444130167945644" lon="11.438125256827286"><ele>67.0</ele><time>2026-04-25T09:41:57.886Z</time></trkpt><trkpt lat="44.44414737884219" lon="11.438258247814431"><ele>67.0</ele><time>2026-04-25T09:41:59.888Z</time></trkpt><trkpt lat="44.44416824852268" lon="11.438384379541572"><ele>67.0</ele><time>2026-04-25T09:42:01.887Z</time></trkpt><trkpt lat="44.444186993659585" lon="11.438510724505374"><ele>67.0</ele><time>2026-04-25T09:42:03.887Z</time></trkpt><trkpt lat="44.444209384793545" lon="11.438616335548973"><ele>67.0</ele><time>2026-04-25T09:42:05.887Z</time></trkpt><trkpt lat="44.44424556601226" lon="11.438700061845411"><ele>67.0</ele><time>2026-04-25T09:42:07.887Z</time></trkpt><trkpt lat="44.44425395617903" lon="11.438792002192738"><ele>67.0</ele><time>2026-04-25T09:42:09.888Z</time></trkpt><trkpt lat="44.44428017318595" lon="11.43888373161668"><ele>67.0</ele><time>2026-04-25T09:42:11.887Z</time></trkpt><trkpt lat="44.44427092520053" lon="11.43899318572612"><ele>67.0</ele><time>2026-04-25T09:42:13.887Z</time></trkpt><trkpt lat="44.44428269105743" lon="11.43911281400951"><ele>67.0</ele><time>2026-04-25T09:42:16.887Z</time></trkpt><trkpt lat="44.44430054736059" lon="11.439254014866249"><ele>67.0</ele><time>2026-04-25T09:42:19.887Z</time></trkpt><trkpt lat="44.44432611381507" lon="11.439342324045683"><ele>67.0</ele><time>2026-04-25T09:42:21.886Z</time></trkpt><trkpt lat="44.44437875821796" lon="11.439407341142562"><ele>67.0</ele><time>2026-04-25T09:42:23.886Z</time></trkpt><trkpt lat="44.44446151082958" lon="11.439522006541024"><ele>67.0</ele><time>2026-04-25T09:42:26.886Z</time></trkpt><trkpt lat="44.444513940948625" lon="11.439599919909039"><ele>67.0</ele><time>2026-04-25T09:42:28.886Z</time></trkpt><trkpt lat="44.44457653773269" lon="11.439678683530158"><ele>67.0</ele><time>2026-04-25T09:42:30.886Z</time></trkpt><trkpt lat="44.44464543893849" lon="11.439762586343303"><ele>67.0</ele><time>2026-04-25T09:42:32.886Z</time></trkpt><trkpt lat="44.44471153240552" lon="11.439848058409913"><ele>67.0</ele><time>2026-04-25T09:42:34.886Z</time></trkpt><trkpt lat="44.444746593205444" lon="11.439928007795217"><ele>67.0</ele><time>2026-04-25T09:42:36.886Z</time></trkpt><trkpt lat="44.44469897148793" lon="11.440010555155796"><ele>67.2</ele><time>2026-04-25T09:42:38.886Z</time></trkpt><trkpt lat="44.44467456089854" lon="11.44010645209364"><ele>67.4</ele><time>2026-04-25T09:42:40.886Z</time></trkpt><trkpt lat="44.44465086498866" lon="11.440212409211945"><ele>67.6</ele><time>2026-04-25T09:42:42.886Z</time></trkpt><trkpt lat="44.44462233739946" lon="11.440333365288213"><ele>67.8</ele><time>2026-04-25T09:42:44.886Z</time></trkpt><trkpt lat="44.4445368289059" lon="11.440445295410996"><ele>68.0</ele><time>2026-04-25T09:42:46.886Z</time></trkpt><trkpt lat="44.44442533951484" lon="11.440456025307299"><ele>67.99999999999999</ele><time>2026-04-25T09:42:48.886Z</time></trkpt><trkpt lat="44.44436238647715" lon="11.44040918284917"><ele>68.0</ele><time>2026-04-25T09:42:50.886Z</time></trkpt><trkpt lat="44.44444039535384" lon="11.440473504149061"><ele>68.0</ele><time>2026-04-25T09:42:56.886Z</time></trkpt><trkpt lat="44.44445772563453" lon="11.440562120532624"><ele>68.0</ele><time>2026-04-25T09:42:58.886Z</time></trkpt><trkpt lat="44.444425389778445" lon="11.440640045456849"><ele>68.0</ele><time>2026-04-25T09:43:00.886Z</time></trkpt><trkpt lat="44.44439821894326" lon="11.44074964206256"><ele>67.99999999999999</ele><time>2026-04-25T09:43:02.886Z</time></trkpt><trkpt lat="44.44438441290317" lon="11.440846548065837"><ele>68.0</ele><time>2026-04-25T09:43:04.886Z</time></trkpt><trkpt lat="44.444352907113505" lon="11.440942675249811"><ele>68.16666666666667</ele><time>2026-04-25T09:43:06.886Z</time></trkpt><trkpt lat="44.44433071120031" lon="11.441029942159961"><ele>68.33333333333334</ele><time>2026-04-25T09:43:08.885Z</time></trkpt><trkpt lat="44.444298708917565" lon="11.44111731719398"><ele>68.5</ele><time>2026-04-25T09:43:10.885Z</time></trkpt><trkpt lat="44.44426507374356" lon="11.441223241222016"><ele>68.66666666666667</ele><time>2026-04-25T09:43:13.885Z</time></trkpt><trkpt lat="44.44424432382383" lon="11.441310265242057"><ele>68.83333333333333</ele><time>2026-04-25T09:43:16.885Z</time></trkpt><trkpt lat="44.44420565395682" lon="11.44142951604104"><ele>69.0</ele><time>2026-04-25T09:43:19.885Z</time></trkpt><trkpt lat="44.444155157532514" lon="11.441505752660719"><ele>70.0</ele><time>2026-04-25T09:43:22.885Z</time></trkpt><trkpt lat="44.44410295994792" lon="11.441589589840243"><ele>71.0</ele><time>2026-04-25T09:43:25.885Z</time></trkpt><trkpt lat="44.44406291672475" lon="11.441670908061448"><ele>72.0</ele><time>2026-04-25T09:43:28.885Z</time></trkpt><trkpt lat="44.44402005947083" lon="11.441765421464133"><ele>73.0</ele><time>2026-04-25T09:43:31.885Z</time></trkpt><trkpt lat="44.443975254506014" lon="11.441864360531968"><ele>74.0</ele><time>2026-04-25T09:43:34.885Z</time></trkpt><trkpt lat="44.44395166278546" lon="11.441961958602912"><ele>75.0</ele><time>2026-04-25T09:43:37.885Z</time></trkpt><trkpt lat="44.44390857740209" lon="11.442051549308848"><ele>75.5</ele><time>2026-04-25T09:43:40.885Z</time></trkpt><trkpt lat="44.443884739515944" lon="11.442158408814919"><ele>76.0</ele><time>2026-04-25T09:43:43.885Z</time></trkpt><trkpt lat="44.443838097590316" lon="11.442251808238227"><ele>76.5</ele><time>2026-04-25T09:43:46.885Z</time></trkpt><trkpt lat="44.443807467114695" lon="11.442339913607974"><ele>77.0</ele><time>2026-04-25T09:43:49.885Z</time></trkpt><trkpt lat="44.443768226489645" lon="11.442421586766635"><ele>77.5</ele><time>2026-04-25T09:43:52.885Z</time></trkpt><trkpt lat="44.4437250195348" lon="11.442501156562118"><ele>78.0</ele><time>2026-04-25T09:43:55.884Z</time></trkpt><trkpt lat="44.44368060770739" lon="11.442605125942269"><ele>77.16666666666667</ele><time>2026-04-25T09:43:58.884Z</time></trkpt><trkpt lat="44.44363227511067" lon="11.442703097483667"><ele>76.33333333333333</ele><time>2026-04-25T09:44:01.884Z</time></trkpt><trkpt lat="44.44358208231488" lon="11.442813302942874"><ele>75.5</ele><time>2026-04-25T09:44:04.884Z</time></trkpt><trkpt lat="44.44354457897095" lon="11.442888512895488"><ele>74.66666666666666</ele><time>2026-04-25T09:44:06.886Z</time></trkpt><trkpt lat="44.44350259495796" lon="11.442998821036467"><ele>73.83333333333333</ele><time>2026-04-25T09:44:09.886Z</time></trkpt><trkpt lat="44.443457164974404" lon="11.443106036421977"><ele>73.0</ele><time>2026-04-25T09:44:12.886Z</time></trkpt><trkpt lat="44.44341285948788" lon="11.443198512165397"><ele>73.0</ele><time>2026-04-25T09:44:15.886Z</time></trkpt><trkpt lat="44.44337467658858" lon="11.443316798157825"><ele>73.0</ele><time>2026-04-25T09:44:18.887Z</time></trkpt><trkpt lat="44.44338876467362" lon="11.443441418657528"><ele>73.0</ele><time>2026-04-25T09:44:21.887Z</time></trkpt><trkpt lat="44.44343954201734" lon="11.44354672985199"><ele>73.0</ele><time>2026-04-25T09:44:25.886Z</time></trkpt><trkpt lat="44.443513788947094" lon="11.443627508120947"><ele>73.0</ele><time>2026-04-25T09:44:28.886Z</time></trkpt><trkpt lat="44.443585337639036" lon="11.443697111944156"><ele>73.0</ele><time>2026-04-25T09:44:31.886Z</time></trkpt><trkpt lat="44.443661544008606" lon="11.443777039959453"><ele>73.0</ele><time>2026-04-25T09:44:34.886Z</time></trkpt><trkpt lat="44.44373196725249" lon="11.443851466937625"><ele>73.0</ele><time>2026-04-25T09:44:36.886Z</time></trkpt><trkpt lat="44.44379402218423" lon="11.443924559694791"><ele>73.0</ele><time>2026-04-25T09:44:38.886Z</time></trkpt><trkpt lat="44.44385573033135" lon="11.444001547225028"><ele>73.0</ele><time>2026-04-25T09:44:40.886Z</time></trkpt><trkpt lat="44.443917043341564" lon="11.444054882117117"><ele>73.0</ele><time>2026-04-25T09:44:42.886Z</time></trkpt><trkpt lat="44.44398353504331" lon="11.444131575759135"><ele>73.16666666666666</ele><time>2026-04-25T09:44:44.886Z</time></trkpt><trkpt lat="44.443984318901904" lon="11.44424760039696"><ele>73.33333333333333</ele><time>2026-04-25T09:44:46.886Z</time></trkpt><trkpt lat="44.443934482280525" lon="11.444337379481732"><ele>73.5</ele><time>2026-04-25T09:44:48.886Z</time></trkpt><trkpt lat="44.44389914512374" lon="11.444412218806038"><ele>73.66666666666667</ele><time>2026-04-25T09:44:50.886Z</time></trkpt><trkpt lat="44.443851558104654" lon="11.444498416354193"><ele>73.83333333333334</ele><time>2026-04-25T09:44:52.886Z</time></trkpt><trkpt lat="44.44377438043918" lon="11.444550337161704"><ele>74.0</ele><time>2026-04-25T09:44:54.886Z</time></trkpt><trkpt lat="44.443702815606635" lon="11.444592247896818"><ele>73.83333333333334</ele><time>2026-04-25T09:44:56.886Z</time></trkpt><trkpt lat="44.44365564080843" lon="11.444674438674184"><ele>73.66666666666667</ele><time>2026-04-25T09:44:58.886Z</time></trkpt><trkpt lat="44.443646578718464" lon="11.444774887870224"><ele>73.5</ele><time>2026-04-25T09:45:01.886Z</time></trkpt><trkpt lat="44.443686450086176" lon="11.444884638377173"><ele>73.33333333333333</ele><time>2026-04-25T09:45:05.886Z</time></trkpt><trkpt lat="44.44362691803164" lon="11.444986637927132"><ele>73.16666666666666</ele><time>2026-04-25T09:45:08.886Z</time></trkpt><trkpt lat="44.44358474142723" lon="11.445085082393218"><ele>73.0</ele><time>2026-04-25T09:45:11.885Z</time></trkpt><trkpt lat="44.443528741670164" lon="11.445189714601261"><ele>73.0</ele><time>2026-04-25T09:45:14.885Z</time></trkpt><trkpt lat="44.44350149977282" lon="11.445295532296761"><ele>73.0</ele><time>2026-04-25T09:45:17.885Z</time></trkpt><trkpt lat="44.44348757332076" lon="11.44542460820185"><ele>73.0</ele><time>2026-04-25T09:45:20.885Z</time></trkpt><trkpt lat="44.44349495608419" lon="11.445515297080584"><ele>73.0</ele><time>2026-04-25T09:45:22.885Z</time></trkpt><trkpt lat="44.44350333139513" lon="11.44563700306393"><ele>73.0</ele><time>2026-04-25T09:45:25.885Z</time></trkpt><trkpt lat="44.443462109179066" lon="11.4457318251204"><ele>73.0</ele><time>2026-04-25T09:45:28.885Z</time></trkpt><trkpt lat="44.4434345917059" lon="11.445813745565976"><ele>73.16666666666666</ele><time>2026-04-25T09:45:31.885Z</time></trkpt><trkpt lat="44.443461525502364" lon="11.445914728233063"><ele>73.33333333333333</ele><time>2026-04-25T09:45:35.885Z</time></trkpt><trkpt lat="44.44354405620088" lon="11.445979797116085"><ele>73.5</ele><time>2026-04-25T09:45:39.885Z</time></trkpt><trkpt lat="44.443614594749896" lon="11.44603687182063"><ele>73.66666666666667</ele><time>2026-04-25T09:45:42.885Z</time></trkpt><trkpt lat="44.44367173350512" lon="11.44607987702438"><ele>73.83333333333334</ele><time>2026-04-25T09:45:44.885Z</time></trkpt><trkpt lat="44.44373348523022" lon="11.446133403981081"><ele>74.0</ele><time>2026-04-25T09:45:47.885Z</time></trkpt><trkpt lat="44.44375626240947" lon="11.446248342959128"><ele>74.0</ele><time>2026-04-25T09:45:50.885Z</time></trkpt><trkpt lat="44.443663263028455" lon="11.446253586216226"><ele>74.0</ele><time>2026-04-25T09:45:53.885Z</time></trkpt><trkpt lat="44.44360544427426" lon="11.44621032063296"><ele>74.0</ele><time>2026-04-25T09:45:55.885Z</time></trkpt><trkpt lat="44.443524267732506" lon="11.44629052228877"><ele>74.0</ele><time>2026-04-25T09:45:57.884Z</time></trkpt><trkpt lat="44.443482906420385" lon="11.446375776065958"><ele>74.0</ele><time>2026-04-25T09:45:59.884Z</time></trkpt><trkpt lat="44.44343867294825" lon="11.446467388430078"><ele>74.0</ele><time>2026-04-25T09:46:01.884Z</time></trkpt><trkpt lat="44.443394386875674" lon="11.446572561656192"><ele>74.16666666666667</ele><time>2026-04-25T09:46:03.884Z</time></trkpt><trkpt lat="44.443346532943906" lon="11.446662300714456"><ele>74.33333333333334</ele><time>2026-04-25T09:46:05.884Z</time></trkpt><trkpt lat="44.44329830198774" lon="11.44674933735601"><ele>74.5</ele><time>2026-04-25T09:46:07.884Z</time></trkpt><trkpt lat="44.44325644892632" lon="11.446825236769024"><ele>74.66666666666667</ele><time>2026-04-25T09:46:09.884Z</time></trkpt><trkpt lat="44.44318117446529" lon="11.446870318603278"><ele>74.83333333333333</ele><time>2026-04-25T09:46:11.886Z</time></trkpt><trkpt lat="44.44310705581342" lon="11.446887624537881"><ele>75.0</ele><time>2026-04-25T09:46:13.885Z</time></trkpt><trkpt lat="44.443033090183704" lon="11.446882497128612"><ele>74.99999999999999</ele><time>2026-04-25T09:46:15.885Z</time></trkpt><trkpt lat="44.44296542232666" lon="11.446891085390435"><ele>75.0</ele><time>2026-04-25T09:46:17.885Z</time></trkpt><trkpt lat="44.4428912254251" lon="11.446891586941002"><ele>75.0</ele><time>2026-04-25T09:46:19.885Z</time></trkpt><trkpt lat="44.442821641696035" lon="11.446883451643405"><ele>75.0</ele><time>2026-04-25T09:46:21.885Z</time></trkpt><trkpt lat="44.442751234644646" lon="11.446859050283681"><ele>75.0</ele><time>2026-04-25T09:46:23.885Z</time></trkpt><trkpt lat="44.44267799669467" lon="11.446832268176758"><ele>74.99999999999999</ele><time>2026-04-25T09:46:25.885Z</time></trkpt><trkpt lat="44.442612383292094" lon="11.44678525802447"><ele>75.0</ele><time>2026-04-25T09:46:27.885Z</time></trkpt><trkpt lat="44.442542544368735" lon="11.446736035557404"><ele>75.33333333333333</ele><time>2026-04-25T09:46:29.885Z</time></trkpt><trkpt lat="44.442483558218065" lon="11.446670095606832"><ele>75.66666666666667</ele><time>2026-04-25T09:46:31.885Z</time></trkpt><trkpt lat="44.4424228446498" lon="11.446608344249476"><ele>76.0</ele><time>2026-04-25T09:46:33.884Z</time></trkpt><trkpt lat="44.44236923722792" lon="11.446550265227694"><ele>76.33333333333334</ele><time>2026-04-25T09:46:35.884Z</time></trkpt><trkpt lat="44.44230389771736" lon="11.44650731854304"><ele>76.66666666666667</ele><time>2026-04-25T09:46:37.884Z</time></trkpt><trkpt lat="44.44223444571186" lon="11.44644495804992"><ele>77.0</ele><time>2026-04-25T09:46:39.884Z</time></trkpt><trkpt lat="44.44216548200733" lon="11.446382943522853"><ele>77.83333333333334</ele><time>2026-04-25T09:46:41.884Z</time></trkpt><trkpt lat="44.44207960987031" lon="11.44632324591499"><ele>78.66666666666667</ele><time>2026-04-25T09:46:44.884Z</time></trkpt><trkpt lat="44.4420138870722" lon="11.446291248029992"><ele>79.5</ele><time>2026-04-25T09:46:46.884Z</time></trkpt><trkpt lat="44.441951209593185" lon="11.446254054432908"><ele>80.33333333333333</ele><time>2026-04-25T09:46:48.886Z</time></trkpt><trkpt lat="44.44189030150069" lon="11.446208336874342"><ele>81.16666666666666</ele><time>2026-04-25T09:46:50.889Z</time></trkpt><trkpt lat="44.44181816422128" lon="11.446149453231905"><ele>82.0</ele><time>2026-04-25T09:46:53.892Z</time></trkpt><trkpt lat="44.441740278190686" lon="11.446152493673466"><ele>81.99999999999999</ele><time>2026-04-25T09:46:56.895Z</time></trkpt><trkpt lat="44.44170590139526" lon="11.446248184901565"><ele>82.0</ele><time>2026-04-25T09:46:58.897Z</time></trkpt><trkpt lat="44.44166898306884" lon="11.446333386420152"><ele>82.0</ele><time>2026-04-25T09:47:00.898Z</time></trkpt><trkpt lat="44.44164137417167" lon="11.446415648536115"><ele>82.0</ele><time>2026-04-25T09:47:02.899Z</time></trkpt><trkpt lat="44.44161354787092" lon="11.446495081395879"><ele>82.0</ele><time>2026-04-25T09:47:04.9Z</time></trkpt><trkpt lat="44.44156343477791" lon="11.446562372143989"><ele>81.99999999999999</ele><time>2026-04-25T09:47:06.901Z</time></trkpt><trkpt lat="44.441498318642694" lon="11.446575517807757"><ele>82.0</ele><time>2026-04-25T09:47:08.902Z</time></trkpt><trkpt lat="44.441427356289005" lon="11.446550275102094"><ele>82.0</ele><time>2026-04-25T09:47:10.903Z</time></trkpt><trkpt lat="44.44135362144248" lon="11.446533375935402"><ele>82.0</ele><time>2026-04-25T09:47:12.903Z</time></trkpt><trkpt lat="44.44126530621718" lon="11.446501224609033"><ele>82.0</ele><time>2026-04-25T09:47:15.904Z</time></trkpt><trkpt lat="44.44120857057756" lon="11.446461069379694"><ele>82.0</ele><time>2026-04-25T09:47:17.905Z</time></trkpt><trkpt lat="44.441138581066696" lon="11.446429868086943"><ele>82.0</ele><time>2026-04-25T09:47:19.905Z</time></trkpt><trkpt lat="44.44105983816729" lon="11.44640670945996"><ele>82.0</ele><time>2026-04-25T09:47:22.906Z</time></trkpt><trkpt lat="44.440992181257045" lon="11.44638070726852"><ele>81.71428571428571</ele><time>2026-04-25T09:47:25.906Z</time></trkpt><trkpt lat="44.44092526284435" lon="11.446349840363876"><ele>81.42857142857143</ele><time>2026-04-25T09:47:28.906Z</time></trkpt><trkpt lat="44.440848888147286" lon="11.44632424919284"><ele>81.14285714285714</ele><time>2026-04-25T09:47:31.906Z</time></trkpt><trkpt lat="44.44078815561232" lon="11.446296018465512"><ele>80.85714285714286</ele><time>2026-04-25T09:47:33.907Z</time></trkpt><trkpt lat="44.440725430430284" lon="11.446274476756555"><ele>80.57142857142857</ele><time>2026-04-25T09:47:35.907Z</time></trkpt><trkpt lat="44.44064248564975" lon="11.446271899389563"><ele>80.28571428571428</ele><time>2026-04-25T09:47:38.907Z</time></trkpt><trkpt lat="44.44057162631769" lon="11.446280042732203"><ele>80.0</ele><time>2026-04-25T09:47:41.907Z</time></trkpt><trkpt lat="44.44050554464839" lon="11.44627160669822"><ele>80.0</ele><time>2026-04-25T09:47:44.907Z</time></trkpt></trkseg></trk></gpx>